<?xml version='1.0' encoding='UTF-8'?><gpx version="1.1" creator="JPX - https://github.com/jenetics/jpx" xmlns="http://www.topografix.com/GPX/1/1"><trk><trkseg><trkpt lat="42.7640881" lon="10.3613124"><ele>33.0</ele><time>2026-04-18T07:24:58.461Z</time></trkpt><trkpt lat="42.7640313" lon="10.3612506"><ele>33.0</ele><time>2026-04-18T07:25:02.458Z</time></trkpt><trkpt lat="42.7639504" lon="10.3612241"><ele>33.0</ele><time>2026-04-18T07:25:04.451Z</time></trkpt><trkpt lat="42.7638771" lon="10.3611883"><ele>33.0</ele><time>2026-04-18T07:25:06.463Z</time></trkpt><trkpt lat="42.7637943" lon="10.3612105"><ele>33.0</ele><time>2026-04-18T07:25:13.462Z</time></trkpt><trkpt lat="42.7637102" lon="10.361212"><ele>33.0</ele><time>2026-04-18T07:28:34.47Z</time></trkpt><trkpt lat="42.7636317" lon="10.3611782"><ele>30.0</ele><time>2026-04-18T07:28:36.473Z</time></trkpt><trkpt lat="42.7635116" lon="10.3610925"><ele>26.999999999999996</ele><time>2026-04-18T07:29:38.482Z</time></trkpt><trkpt lat="42.7634201" lon="10.3610611"><ele>24.0</ele><time>2026-04-18T07:29:40.472Z</time></trkpt><trkpt lat="42.7633239" lon="10.3610249"><ele>21.0</ele><time>2026-04-18T07:29:42.471Z</time></trkpt><trkpt lat="42.7632164" lon="10.3609564"><ele>18.0</ele><time>2026-04-18T07:29:44.468Z</time></trkpt><trkpt lat="42.7631728" lon="10.3608905"><ele>18.0</ele><time>2026-04-18T07:29:45.467Z</time></trkpt><trkpt lat="42.7631294" lon="10.3607399"><ele>18.0</ele><time>2026-04-18T07:29:47.468Z</time></trkpt><trkpt lat="42.7631327" lon="10.3606536"><ele>18.0</ele><time>2026-04-18T07:29:48.484Z</time></trkpt><trkpt lat="42.7631495" lon="10.3605627"><ele>18.0</ele><time>2026-04-18T07:29:49.472Z</time></trkpt><trkpt lat="42.7631855" lon="10.3604734"><ele>18.0</ele><time>2026-04-18T07:29:50.472Z</time></trkpt><trkpt lat="42.7632305" lon="10.3603861"><ele>18.0</ele><time>2026-04-18T07:29:51.473Z</time></trkpt><trkpt lat="42.7632783" lon="10.3603041"><ele>17.42857142857143</ele><time>2026-04-18T07:29:52.482Z</time></trkpt><trkpt lat="42.7633225" lon="10.3602265"><ele>16.857142857142858</ele><time>2026-04-18T07:29:53.476Z</time></trkpt><trkpt lat="42.7633675" lon="10.3601506"><ele>16.285714285714285</ele><time>2026-04-18T07:29:54.466Z</time></trkpt><trkpt lat="42.7634049" lon="10.3600761"><ele>15.714285714285715</ele><time>2026-04-18T07:29:55.463Z</time></trkpt><trkpt lat="42.7634488" lon="10.3599643"><ele>15.142857142857142</ele><time>2026-04-18T07:29:57.464Z</time></trkpt><trkpt lat="42.7633862" lon="10.3599327"><ele>14.571428571428571</ele><time>2026-04-18T07:30:03.468Z</time></trkpt><trkpt lat="42.763324" lon="10.3599806"><ele>14.0</ele><time>2026-04-18T07:30:05.471Z</time></trkpt><trkpt lat="42.763278" lon="10.3600397"><ele>14.0</ele><time>2026-04-18T07:30:06.473Z</time></trkpt><trkpt lat="42.7632236" lon="10.3601298"><ele>13.999999999999998</ele><time>2026-04-18T07:30:07.464Z</time></trkpt><trkpt lat="42.7631616" lon="10.3602479"><ele>13.999999999999998</ele><time>2026-04-18T07:30:08.457Z</time></trkpt><trkpt lat="42.7630922" lon="10.3603765"><ele>14.0</ele><time>2026-04-18T07:30:09.478Z</time></trkpt><trkpt lat="42.7630206" lon="10.3605084"><ele>14.0</ele><time>2026-04-18T07:30:10.464Z</time></trkpt><trkpt lat="42.7629488" lon="10.3606472"><ele>13.25</ele><time>2026-04-18T07:30:11.461Z</time></trkpt><trkpt lat="42.7628742" lon="10.3607918"><ele>12.5</ele><time>2026-04-18T07:30:12.465Z</time></trkpt><trkpt lat="42.7628015" lon="10.3609342"><ele>11.75</ele><time>2026-04-18T07:30:13.466Z</time></trkpt><trkpt lat="42.7627348" lon="10.3610645"><ele>11.0</ele><time>2026-04-18T07:30:14.465Z</time></trkpt><trkpt lat="42.7626762" lon="10.361187"><ele>11.0</ele><time>2026-04-18T07:30:15.467Z</time></trkpt><trkpt lat="42.7626202" lon="10.3613044"><ele>11.0</ele><time>2026-04-18T07:30:16.464Z</time></trkpt><trkpt lat="42.7625612" lon="10.3614245"><ele>11.0</ele><time>2026-04-18T07:30:17.468Z</time></trkpt><trkpt lat="42.7625005" lon="10.3615522"><ele>11.0</ele><time>2026-04-18T07:30:18.469Z</time></trkpt><trkpt lat="42.762439" lon="10.3616858"><ele>11.0</ele><time>2026-04-18T07:30:19.471Z</time></trkpt><trkpt lat="42.7623791" lon="10.3618158"><ele>11.5</ele><time>2026-04-18T07:30:20.467Z</time></trkpt><trkpt lat="42.7623174" lon="10.3619462"><ele>12.0</ele><time>2026-04-18T07:30:21.468Z</time></trkpt><trkpt lat="42.7622549" lon="10.3620801"><ele>12.5</ele><time>2026-04-18T07:30:22.475Z</time></trkpt><trkpt lat="42.7621959" lon="10.3622154"><ele>13.0</ele><time>2026-04-18T07:30:23.469Z</time></trkpt><trkpt lat="42.7621413" lon="10.3623433"><ele>13.4</ele><time>2026-04-18T07:30:24.465Z</time></trkpt><trkpt lat="42.7620906" lon="10.3624708"><ele>13.8</ele><time>2026-04-18T07:30:25.466Z</time></trkpt><trkpt lat="42.7620438" lon="10.3626045"><ele>14.2</ele><time>2026-04-18T07:30:26.471Z</time></trkpt><trkpt lat="42.7619989" lon="10.3627467"><ele>14.6</ele><time>2026-04-18T07:30:27.468Z</time></trkpt><trkpt lat="42.7619546" lon="10.3628849"><ele>15.0</ele><time>2026-04-18T07:30:28.461Z</time></trkpt><trkpt lat="42.7619132" lon="10.3630159"><ele>14.5</ele><time>2026-04-18T07:30:29.47Z</time></trkpt><trkpt lat="42.7618745" lon="10.3631434"><ele>14.0</ele><time>2026-04-18T07:30:30.466Z</time></trkpt><trkpt lat="42.7618298" lon="10.3632755"><ele>13.5</ele><time>2026-04-18T07:30:31.469Z</time></trkpt><trkpt lat="42.7617775" lon="10.363419"><ele>13.0</ele><time>2026-04-18T07:30:32.467Z</time></trkpt><trkpt lat="42.7617193" lon="10.3635805"><ele>12.333333333333332</ele><time>2026-04-18T07:30:33.466Z</time></trkpt><trkpt lat="42.7616554" lon="10.3637568"><ele>11.666666666666666</ele><time>2026-04-18T07:30:34.465Z</time></trkpt><trkpt lat="42.7615908" lon="10.3639446"><ele>11.0</ele><time>2026-04-18T07:30:35.47Z</time></trkpt><trkpt lat="42.7615238" lon="10.3641447"><ele>11.0</ele><time>2026-04-18T07:30:36.464Z</time></trkpt><trkpt lat="42.7614622" lon="10.3643296"><ele>11.0</ele><time>2026-04-18T07:30:37.467Z</time></trkpt><trkpt lat="42.7614185" lon="10.3644858"><ele>11.0</ele><time>2026-04-18T07:30:38.468Z</time></trkpt><trkpt lat="42.7613815" lon="10.3646068"><ele>11.0</ele><time>2026-04-18T07:30:39.476Z</time></trkpt><trkpt lat="42.7613572" lon="10.3647084"><ele>11.0</ele><time>2026-04-18T07:30:40.462Z</time></trkpt><trkpt lat="42.7613364" lon="10.3648028"><ele>11.8</ele><time>2026-04-18T07:30:41.47Z</time></trkpt><trkpt lat="42.7613173" lon="10.3648909"><ele>12.600000000000001</ele><time>2026-04-18T07:30:42.47Z</time></trkpt><trkpt lat="42.7613024" lon="10.3650456"><ele>13.4</ele><time>2026-04-18T07:30:44.463Z</time></trkpt><trkpt lat="42.7613563" lon="10.3651334"><ele>14.2</ele><time>2026-04-18T07:30:46.472Z</time></trkpt><trkpt lat="42.7614868" lon="10.3651042"><ele>15.0</ele><time>2026-04-18T07:30:48.47Z</time></trkpt><trkpt lat="42.7615718" lon="10.3650572"><ele>15.0</ele><time>2026-04-18T07:30:49.462Z</time></trkpt><trkpt lat="42.7616653" lon="10.3650057"><ele>15.0</ele><time>2026-04-18T07:30:50.463Z</time></trkpt><trkpt lat="42.7617651" lon="10.3649548"><ele>15.0</ele><time>2026-04-18T07:30:51.458Z</time></trkpt><trkpt lat="42.7618688" lon="10.3649015"><ele>15.0</ele><time>2026-04-18T07:30:52.47Z</time></trkpt><trkpt lat="42.7619779" lon="10.3648465"><ele>15.0</ele><time>2026-04-18T07:30:53.467Z</time></trkpt><trkpt lat="42.7620942" lon="10.3647876"><ele>14.0</ele><time>2026-04-18T07:30:54.464Z</time></trkpt><trkpt lat="42.762217" lon="10.3647304"><ele>13.0</ele><time>2026-04-18T07:30:55.468Z</time></trkpt><trkpt lat="42.7623481" lon="10.3646752"><ele>12.0</ele><time>2026-04-18T07:30:56.461Z</time></trkpt><trkpt lat="42.7624777" lon="10.3646284"><ele>11.0</ele><time>2026-04-18T07:30:57.467Z</time></trkpt><trkpt lat="42.7626024" lon="10.3646006"><ele>12.0</ele><time>2026-04-18T07:30:58.465Z</time></trkpt><trkpt lat="42.7627138" lon="10.3646001"><ele>13.0</ele><time>2026-04-18T07:30:59.465Z</time></trkpt><trkpt lat="42.7628152" lon="10.364635"><ele>14.000000000000002</ele><time>2026-04-18T07:31:00.468Z</time></trkpt><trkpt lat="42.7629062" lon="10.3646968"><ele>15.0</ele><time>2026-04-18T07:31:01.461Z</time></trkpt><trkpt lat="42.7629955" lon="10.3647766"><ele>16.0</ele><time>2026-04-18T07:31:02.459Z</time></trkpt><trkpt lat="42.7630875" lon="10.3648614"><ele>16.5</ele><time>2026-04-18T07:31:03.463Z</time></trkpt><trkpt lat="42.7631849" lon="10.3649425"><ele>17.0</ele><time>2026-04-18T07:31:04.461Z</time></trkpt><trkpt lat="42.7632971" lon="10.3650088"><ele>17.5</ele><time>2026-04-18T07:31:05.463Z</time></trkpt><trkpt lat="42.7634152" lon="10.3650607"><ele>18.0</ele><time>2026-04-18T07:31:06.458Z</time></trkpt><trkpt lat="42.7635343" lon="10.3651089"><ele>18.0</ele><time>2026-04-18T07:31:07.463Z</time></trkpt><trkpt lat="42.7636453" lon="10.3651711"><ele>18.0</ele><time>2026-04-18T07:31:08.461Z</time></trkpt><trkpt lat="42.7637448" lon="10.3652467"><ele>18.0</ele><time>2026-04-18T07:31:09.456Z</time></trkpt><trkpt lat="42.7638365" lon="10.3653289"><ele>18.0</ele><time>2026-04-18T07:31:10.465Z</time></trkpt><trkpt lat="42.7639353" lon="10.3654052"><ele>18.0</ele><time>2026-04-18T07:31:11.461Z</time></trkpt><trkpt lat="42.764039" lon="10.3654648"><ele>18.0</ele><time>2026-04-18T07:31:12.453Z</time></trkpt><trkpt lat="42.7641469" lon="10.3655004"><ele>18.0</ele><time>2026-04-18T07:31:13.457Z</time></trkpt><trkpt lat="42.7642451" lon="10.3655138"><ele>18.0</ele><time>2026-04-18T07:31:14.462Z</time></trkpt><trkpt lat="42.7643249" lon="10.365519"><ele>18.0</ele><time>2026-04-18T07:31:15.461Z</time></trkpt><trkpt lat="42.7643913" lon="10.3655229"><ele>20.5</ele><time>2026-04-18T07:31:16.461Z</time></trkpt><trkpt lat="42.7644533" lon="10.3655392"><ele>23.0</ele><time>2026-04-18T07:31:17.471Z</time></trkpt><trkpt lat="42.7645163" lon="10.3655606"><ele>25.5</ele><time>2026-04-18T07:31:18.463Z</time></trkpt><trkpt lat="42.7645886" lon="10.365601"><ele>28.0</ele><time>2026-04-18T07:31:19.463Z</time></trkpt><trkpt lat="42.7646607" lon="10.3656645"><ele>30.5</ele><time>2026-04-18T07:31:20.461Z</time></trkpt><trkpt lat="42.7647321" lon="10.3657482"><ele>33.0</ele><time>2026-04-18T07:31:21.464Z</time></trkpt><trkpt lat="42.7647955" lon="10.3658439"><ele>33.0</ele><time>2026-04-18T07:31:22.467Z</time></trkpt><trkpt lat="42.7648569" lon="10.3659319"><ele>33.0</ele><time>2026-04-18T07:31:23.462Z</time></trkpt><trkpt lat="42.7649138" lon="10.3660062"><ele>33.0</ele><time>2026-04-18T07:31:24.467Z</time></trkpt><trkpt lat="42.7649688" lon="10.3660795"><ele>33.0</ele><time>2026-04-18T07:31:25.465Z</time></trkpt><trkpt lat="42.7650226" lon="10.3661565"><ele>33.0</ele><time>2026-04-18T07:31:26.466Z</time></trkpt><trkpt lat="42.7650777" lon="10.3662421"><ele>33.0</ele><time>2026-04-18T07:31:27.463Z</time></trkpt><trkpt lat="42.7651263" lon="10.3663321"><ele>36.833333333333336</ele><time>2026-04-18T07:31:28.467Z</time></trkpt><trkpt lat="42.7651684" lon="10.366429"><ele>40.66666666666667</ele><time>2026-04-18T07:31:29.473Z</time></trkpt><trkpt lat="42.7652072" lon="10.3665316"><ele>44.5</ele><time>2026-04-18T07:31:30.464Z</time></trkpt><trkpt lat="42.7652393" lon="10.3666294"><ele>48.333333333333336</ele><time>2026-04-18T07:31:31.468Z</time></trkpt><trkpt lat="42.7652625" lon="10.3667214"><ele>52.16666666666667</ele><time>2026-04-18T07:31:32.473Z</time></trkpt><trkpt lat="42.7652775" lon="10.36682"><ele>56.0</ele><time>2026-04-18T07:31:33.466Z</time></trkpt><trkpt lat="42.7652864" lon="10.3669203"><ele>56.16666666666667</ele><time>2026-04-18T07:31:34.466Z</time></trkpt><trkpt lat="42.7652951" lon="10.3670211"><ele>56.333333333333336</ele><time>2026-04-18T07:31:35.469Z</time></trkpt><trkpt lat="42.7653019" lon="10.3671228"><ele>56.5</ele><time>2026-04-18T07:31:36.469Z</time></trkpt><trkpt lat="42.7653095" lon="10.3672202"><ele>56.66666666666667</ele><time>2026-04-18T07:31:37.471Z</time></trkpt><trkpt lat="42.7653226" lon="10.3673124"><ele>56.833333333333336</ele><time>2026-04-18T07:31:38.459Z</time></trkpt><trkpt lat="42.7653783" lon="10.3674271"><ele>57.0</ele><time>2026-04-18T07:31:40.466Z</time></trkpt><trkpt lat="42.765486" lon="10.3673987"><ele>57.0</ele><time>2026-04-18T07:31:42.465Z</time></trkpt><trkpt lat="42.7655545" lon="10.3673391"><ele>57.0</ele><time>2026-04-18T07:31:43.472Z</time></trkpt><trkpt lat="42.7656372" lon="10.3672637"><ele>57.0</ele><time>2026-04-18T07:31:44.47Z</time></trkpt><trkpt lat="42.7657212" lon="10.3671935"><ele>57.0</ele><time>2026-04-18T07:31:45.469Z</time></trkpt><trkpt lat="42.7658063" lon="10.3671318"><ele>57.0</ele><time>2026-04-18T07:31:46.474Z</time></trkpt><trkpt lat="42.7658894" lon="10.3670791"><ele>57.0</ele><time>2026-04-18T07:31:47.469Z</time></trkpt><trkpt lat="42.7659729" lon="10.367027"><ele>57.0</ele><time>2026-04-18T07:31:48.472Z</time></trkpt><trkpt lat="42.7660547" lon="10.3669787"><ele>57.0</ele><time>2026-04-18T07:31:49.473Z</time></trkpt><trkpt lat="42.7661384" lon="10.3669335"><ele>57.0</ele><time>2026-04-18T07:31:50.471Z</time></trkpt><trkpt lat="42.7662314" lon="10.3668845"><ele>57.0</ele><time>2026-04-18T07:31:51.471Z</time></trkpt><trkpt lat="42.7663273" lon="10.3668436"><ele>58.833333333333336</ele><time>2026-04-18T07:31:52.474Z</time></trkpt><trkpt lat="42.7664132" lon="10.3668232"><ele>60.66666666666667</ele><time>2026-04-18T07:31:53.465Z</time></trkpt><trkpt lat="42.7664942" lon="10.3668187"><ele>62.5</ele><time>2026-04-18T07:31:54.468Z</time></trkpt><trkpt lat="42.7665711" lon="10.3668231"><ele>64.33333333333334</ele><time>2026-04-18T07:31:55.464Z</time></trkpt><trkpt lat="42.7666427" lon="10.3668456"><ele>66.16666666666667</ele><time>2026-04-18T07:31:56.464Z</time></trkpt><trkpt lat="42.7666969" lon="10.3668902"><ele>68.0</ele><time>2026-04-18T07:31:57.47Z</time></trkpt><trkpt lat="42.7667125" lon="10.3670158"><ele>68.0</ele><time>2026-04-18T07:31:59.461Z</time></trkpt><trkpt lat="42.7666231" lon="10.3671758"><ele>68.0</ele><time>2026-04-18T07:32:01.472Z</time></trkpt><trkpt lat="42.7665498" lon="10.3672777"><ele>68.0</ele><time>2026-04-18T07:32:02.464Z</time></trkpt><trkpt lat="42.7664625" lon="10.3673854"><ele>68.0</ele><time>2026-04-18T07:32:03.469Z</time></trkpt><trkpt lat="42.7663708" lon="10.3674763"><ele>73.4</ele><time>2026-04-18T07:32:04.463Z</time></trkpt><trkpt lat="42.7662884" lon="10.3675461"><ele>78.8</ele><time>2026-04-18T07:32:05.467Z</time></trkpt><trkpt lat="42.76623" lon="10.3675948"><ele>84.2</ele><time>2026-04-18T07:32:06.463Z</time></trkpt><trkpt lat="42.7662151" lon="10.3676973"><ele>89.6</ele><time>2026-04-18T07:32:08.47Z</time></trkpt><trkpt lat="42.7663469" lon="10.3677171"><ele>95.0</ele><time>2026-04-18T07:32:10.47Z</time></trkpt><trkpt lat="42.7664526" lon="10.3676892"><ele>95.0</ele><time>2026-04-18T07:32:11.468Z</time></trkpt><trkpt lat="42.7665646" lon="10.3676685"><ele>95.0</ele><time>2026-04-18T07:32:12.471Z</time></trkpt><trkpt lat="42.7666697" lon="10.3676588"><ele>95.0</ele><time>2026-04-18T07:32:13.464Z</time></trkpt><trkpt lat="42.76676" lon="10.3676647"><ele>95.0</ele><time>2026-04-18T07:32:14.463Z</time></trkpt><trkpt lat="42.7668189" lon="10.3676979"><ele>95.0</ele><time>2026-04-18T07:32:15.466Z</time></trkpt><trkpt lat="42.7668468" lon="10.367795"><ele>95.0</ele><time>2026-04-18T07:32:17.462Z</time></trkpt><trkpt lat="42.7667908" lon="10.3678936"><ele>95.0</ele><time>2026-04-18T07:32:19.467Z</time></trkpt><trkpt lat="42.7667236" lon="10.3679427"><ele>95.0</ele><time>2026-04-18T07:32:20.464Z</time></trkpt><trkpt lat="42.7666393" lon="10.3679996"><ele>95.0</ele><time>2026-04-18T07:32:21.471Z</time></trkpt><trkpt lat="42.7665622" lon="10.3680877"><ele>95.0</ele><time>2026-04-18T07:32:22.481Z</time></trkpt><trkpt lat="42.7665095" lon="10.3682027"><ele>95.0</ele><time>2026-04-18T07:32:23.462Z</time></trkpt><trkpt lat="42.7664817" lon="10.3683201"><ele>97.83333333333334</ele><time>2026-04-18T07:32:24.463Z</time></trkpt><trkpt lat="42.7664702" lon="10.3684282"><ele>100.66666666666667</ele><time>2026-04-18T07:32:25.47Z</time></trkpt><trkpt lat="42.7664828" lon="10.368519"><ele>103.5</ele><time>2026-04-18T07:32:26.466Z</time></trkpt><trkpt lat="42.7665617" lon="10.3686089"><ele>106.33333333333334</ele><time>2026-04-18T07:32:28.472Z</time></trkpt><trkpt lat="42.766622" lon="10.3686391"><ele>109.16666666666667</ele><time>2026-04-18T07:32:29.467Z</time></trkpt><trkpt lat="42.7666937" lon="10.3686716"><ele>112.0</ele><time>2026-04-18T07:32:30.466Z</time></trkpt><trkpt lat="42.7667755" lon="10.3687108"><ele>111.6</ele><time>2026-04-18T07:32:31.465Z</time></trkpt><trkpt lat="42.7668634" lon="10.3687546"><ele>111.19999999999999</ele><time>2026-04-18T07:32:32.471Z</time></trkpt><trkpt lat="42.7669572" lon="10.3687908"><ele>110.8</ele><time>2026-04-18T07:32:33.471Z</time></trkpt><trkpt lat="42.7670489" lon="10.3688247"><ele>110.4</ele><time>2026-04-18T07:32:34.461Z</time></trkpt><trkpt lat="42.7671392" lon="10.3688618"><ele>110.0</ele><time>2026-04-18T07:32:35.471Z</time></trkpt><trkpt lat="42.7672277" lon="10.3689026"><ele>111.4</ele><time>2026-04-18T07:32:36.464Z</time></trkpt><trkpt lat="42.7673206" lon="10.3689411"><ele>112.8</ele><time>2026-04-18T07:32:37.467Z</time></trkpt><trkpt lat="42.7674171" lon="10.3689831"><ele>114.19999999999999</ele><time>2026-04-18T07:32:38.469Z</time></trkpt><trkpt lat="42.7675109" lon="10.3690262"><ele>115.6</ele><time>2026-04-18T07:32:39.47Z</time></trkpt><trkpt lat="42.7675977" lon="10.3690694"><ele>117.0</ele><time>2026-04-18T07:32:40.467Z</time></trkpt><trkpt lat="42.7676772" lon="10.3691194"><ele>117.0</ele><time>2026-04-18T07:32:41.47Z</time></trkpt><trkpt lat="42.7677472" lon="10.3691763"><ele>117.0</ele><time>2026-04-18T07:32:42.468Z</time></trkpt><trkpt lat="42.7678136" lon="10.3692462"><ele>117.0</ele><time>2026-04-18T07:32:43.477Z</time></trkpt><trkpt lat="42.767877" lon="10.3693266"><ele>117.0</ele><time>2026-04-18T07:32:44.47Z</time></trkpt><trkpt lat="42.7679404" lon="10.3694096"><ele>117.0</ele><time>2026-04-18T07:32:45.47Z</time></trkpt><trkpt lat="42.7680048" lon="10.3694933"><ele>117.0</ele><time>2026-04-18T07:32:46.467Z</time></trkpt><trkpt lat="42.7680676" lon="10.3695719"><ele>117.0</ele><time>2026-04-18T07:32:47.465Z</time></trkpt><trkpt lat="42.7681322" lon="10.3696391"><ele>117.0</ele><time>2026-04-18T07:32:48.462Z</time></trkpt><trkpt lat="42.7681917" lon="10.3696903"><ele>117.0</ele><time>2026-04-18T07:32:49.464Z</time></trkpt><trkpt lat="42.7682617" lon="10.3698137"><ele>117.0</ele><time>2026-04-18T07:32:51.469Z</time></trkpt><trkpt lat="42.7682767" lon="10.3699"><ele>117.0</ele><time>2026-04-18T07:32:52.473Z</time></trkpt><trkpt lat="42.7682933" lon="10.3699917"><ele>117.0</ele><time>2026-04-18T07:32:53.469Z</time></trkpt><trkpt lat="42.7683223" lon="10.3700738"><ele>119.0</ele><time>2026-04-18T07:32:54.471Z</time></trkpt><trkpt lat="42.7683981" lon="10.3701869"><ele>120.99999999999999</ele><time>2026-04-18T07:32:56.465Z</time></trkpt><trkpt lat="42.7684499" lon="10.3702442"><ele>122.99999999999999</ele><time>2026-04-18T07:32:59.47Z</time></trkpt><trkpt lat="42.7683655" lon="10.3703307"><ele>125.0</ele><time>2026-04-18T07:33:03.465Z</time></trkpt><trkpt lat="42.7682915" lon="10.370405"><ele>127.0</ele><time>2026-04-18T07:33:04.463Z</time></trkpt><trkpt lat="42.7682191" lon="10.3705022"><ele>128.2</ele><time>2026-04-18T07:33:05.459Z</time></trkpt><trkpt lat="42.7681581" lon="10.370619"><ele>129.39999999999998</ele><time>2026-04-18T07:33:06.454Z</time></trkpt><trkpt lat="42.7681101" lon="10.370753"><ele>130.60000000000002</ele><time>2026-04-18T07:33:07.458Z</time></trkpt><trkpt lat="42.7680716" lon="10.3708899"><ele>131.8</ele><time>2026-04-18T07:33:08.461Z</time></trkpt><trkpt lat="42.7680348" lon="10.3710366"><ele>133.0</ele><time>2026-04-18T07:33:09.458Z</time></trkpt><trkpt lat="42.7679975" lon="10.3711776"><ele>133.0</ele><time>2026-04-18T07:33:10.465Z</time></trkpt><trkpt lat="42.7679679" lon="10.3713104"><ele>133.0</ele><time>2026-04-18T07:33:11.47Z</time></trkpt><trkpt lat="42.7679473" lon="10.3714216"><ele>133.0</ele><time>2026-04-18T07:33:12.468Z</time></trkpt><trkpt lat="42.7679428" lon="10.3715234"><ele>133.0</ele><time>2026-04-18T07:33:13.471Z</time></trkpt><trkpt lat="42.7679523" lon="10.3716233"><ele>133.0</ele><time>2026-04-18T07:33:14.473Z</time></trkpt><trkpt lat="42.7679738" lon="10.3717237"><ele>133.0</ele><time>2026-04-18T07:33:15.464Z</time></trkpt><trkpt lat="42.7680144" lon="10.3718313"><ele>132.6</ele><time>2026-04-18T07:33:16.463Z</time></trkpt><trkpt lat="42.7680672" lon="10.3719434"><ele>132.20000000000002</ele><time>2026-04-18T07:33:17.468Z</time></trkpt><trkpt lat="42.7681282" lon="10.3720565"><ele>131.8</ele><time>2026-04-18T07:33:18.465Z</time></trkpt><trkpt lat="42.7682042" lon="10.3721641"><ele>131.4</ele><time>2026-04-18T07:33:19.461Z</time></trkpt><trkpt lat="42.7682837" lon="10.3722676"><ele>131.0</ele><time>2026-04-18T07:33:20.462Z</time></trkpt><trkpt lat="42.7683609" lon="10.3723667"><ele>132.4</ele><time>2026-04-18T07:33:21.46Z</time></trkpt><trkpt lat="42.7684347" lon="10.3724688"><ele>133.8</ele><time>2026-04-18T07:33:22.465Z</time></trkpt><trkpt lat="42.768504" lon="10.3725748"><ele>135.20000000000002</ele><time>2026-04-18T07:33:23.455Z</time></trkpt><trkpt lat="42.7685729" lon="10.3726967"><ele>136.6</ele><time>2026-04-18T07:33:24.458Z</time></trkpt><trkpt lat="42.7686362" lon="10.3728275"><ele>138.0</ele><time>2026-04-18T07:33:25.46Z</time></trkpt><trkpt lat="42.7686995" lon="10.3729634"><ele>135.20000000000002</ele><time>2026-04-18T07:33:26.455Z</time></trkpt><trkpt lat="42.7687595" lon="10.3730897"><ele>132.4</ele><time>2026-04-18T07:33:27.455Z</time></trkpt><trkpt lat="42.7688178" lon="10.3732123"><ele>129.60000000000002</ele><time>2026-04-18T07:33:28.459Z</time></trkpt><trkpt lat="42.7688684" lon="10.3733356"><ele>126.80000000000001</ele><time>2026-04-18T07:33:29.461Z</time></trkpt><trkpt lat="42.7689172" lon="10.3734469"><ele>124.0</ele><time>2026-04-18T07:33:30.457Z</time></trkpt><trkpt lat="42.7689632" lon="10.3735505"><ele>124.00000000000001</ele><time>2026-04-18T07:33:31.453Z</time></trkpt><trkpt lat="42.7690101" lon="10.3736462"><ele>124.0</ele><time>2026-04-18T07:33:32.457Z</time></trkpt><trkpt lat="42.7690436" lon="10.3737459"><ele>124.0</ele><time>2026-04-18T07:33:33.448Z</time></trkpt><trkpt lat="42.7690575" lon="10.3738613"><ele>124.0</ele><time>2026-04-18T07:33:34.459Z</time></trkpt><trkpt lat="42.7690504" lon="10.3739828"><ele>124.00000000000001</ele><time>2026-04-18T07:33:35.462Z</time></trkpt><trkpt lat="42.769052" lon="10.3740969"><ele>124.0</ele><time>2026-04-18T07:33:36.464Z</time></trkpt><trkpt lat="42.7690758" lon="10.3742142"><ele>123.4</ele><time>2026-04-18T07:33:37.458Z</time></trkpt><trkpt lat="42.7691305" lon="10.3743386"><ele>122.80000000000001</ele><time>2026-04-18T07:33:38.458Z</time></trkpt><trkpt lat="42.769207" lon="10.374458"><ele>122.19999999999999</ele><time>2026-04-18T07:33:39.462Z</time></trkpt><trkpt lat="42.7692886" lon="10.3745643"><ele>121.6</ele><time>2026-04-18T07:33:40.459Z</time></trkpt><trkpt lat="42.769375" lon="10.3746627"><ele>121.0</ele><time>2026-04-18T07:33:41.457Z</time></trkpt><trkpt lat="42.7694535" lon="10.3747513"><ele>121.0</ele><time>2026-04-18T07:33:42.459Z</time></trkpt><trkpt lat="42.7695209" lon="10.3748369"><ele>121.0</ele><time>2026-04-18T07:33:43.46Z</time></trkpt><trkpt lat="42.7695663" lon="10.374933"><ele>121.0</ele><time>2026-04-18T07:33:44.465Z</time></trkpt><trkpt lat="42.7695927" lon="10.3750443"><ele>121.0</ele><time>2026-04-18T07:33:45.468Z</time></trkpt><trkpt lat="42.7696063" lon="10.3751709"><ele>121.0</ele><time>2026-04-18T07:33:46.46Z</time></trkpt><trkpt lat="42.7696174" lon="10.3752981"><ele>121.0</ele><time>2026-04-18T07:33:47.47Z</time></trkpt><trkpt lat="42.7696328" lon="10.3754281"><ele>121.0</ele><time>2026-04-18T07:33:48.466Z</time></trkpt><trkpt lat="42.7696502" lon="10.3755542"><ele>121.0</ele><time>2026-04-18T07:33:49.464Z</time></trkpt><trkpt lat="42.7696691" lon="10.375678"><ele>121.0</ele><time>2026-04-18T07:33:50.46Z</time></trkpt><trkpt lat="42.7696892" lon="10.3757943"><ele>121.0</ele><time>2026-04-18T07:33:51.464Z</time></trkpt><trkpt lat="42.7697193" lon="10.3758982"><ele>118.66666666666667</ele><time>2026-04-18T07:33:52.471Z</time></trkpt><trkpt lat="42.7697694" lon="10.3759866"><ele>116.33333333333334</ele><time>2026-04-18T07:33:53.461Z</time></trkpt><trkpt lat="42.76984" lon="10.376054"><ele>114.0</ele><time>2026-04-18T07:33:54.464Z</time></trkpt><trkpt lat="42.7698996" lon="10.376118"><ele>111.66666666666666</ele><time>2026-04-18T07:33:55.466Z</time></trkpt><trkpt lat="42.7699345" lon="10.3761965"><ele>109.33333333333333</ele><time>2026-04-18T07:33:56.464Z</time></trkpt><trkpt lat="42.7699418" lon="10.3763056"><ele>107.0</ele><time>2026-04-18T07:33:57.467Z</time></trkpt><trkpt lat="42.7699394" lon="10.3764357"><ele>106.33333333333333</ele><time>2026-04-18T07:33:58.465Z</time></trkpt><trkpt lat="42.7699437" lon="10.3765619"><ele>105.66666666666666</ele><time>2026-04-18T07:33:59.463Z</time></trkpt><trkpt lat="42.7699536" lon="10.3766735"><ele>105.0</ele><time>2026-04-18T07:34:00.466Z</time></trkpt><trkpt lat="42.7699586" lon="10.3767643"><ele>104.33333333333334</ele><time>2026-04-18T07:34:01.461Z</time></trkpt><trkpt lat="42.7699438" lon="10.3768949"><ele>103.66666666666667</ele><time>2026-04-18T07:34:03.462Z</time></trkpt><trkpt lat="42.7699219" lon="10.3770057"><ele>103.0</ele><time>2026-04-18T07:34:05.468Z</time></trkpt><trkpt lat="42.7699182" lon="10.3771486"><ele>102.50000000000001</ele><time>2026-04-18T07:34:07.453Z</time></trkpt><trkpt lat="42.769927" lon="10.3772409"><ele>102.0</ele><time>2026-04-18T07:34:08.461Z</time></trkpt><trkpt lat="42.7699292" lon="10.3773469"><ele>101.5</ele><time>2026-04-18T07:34:09.46Z</time></trkpt><trkpt lat="42.769915" lon="10.3774665"><ele>101.0</ele><time>2026-04-18T07:34:10.462Z</time></trkpt><trkpt lat="42.7699004" lon="10.3775899"><ele>100.50000000000001</ele><time>2026-04-18T07:34:11.463Z</time></trkpt><trkpt lat="42.7698973" lon="10.377723"><ele>100.0</ele><time>2026-04-18T07:34:12.466Z</time></trkpt><trkpt lat="42.7699101" lon="10.3778616"><ele>100.0</ele><time>2026-04-18T07:34:13.46Z</time></trkpt><trkpt lat="42.7699426" lon="10.3779851"><ele>100.0</ele><time>2026-04-18T07:34:14.461Z</time></trkpt><trkpt lat="42.7699817" lon="10.3780848"><ele>100.0</ele><time>2026-04-18T07:34:15.462Z</time></trkpt><trkpt lat="42.7700097" lon="10.3781623"><ele>100.0</ele><time>2026-04-18T07:34:16.471Z</time></trkpt><trkpt lat="42.770014" lon="10.3782829"><ele>100.0</ele><time>2026-04-18T07:34:18.464Z</time></trkpt><trkpt lat="42.7698996" lon="10.3783818"><ele>100.0</ele><time>2026-04-18T07:34:20.452Z</time></trkpt><trkpt lat="42.7698022" lon="10.3784238"><ele>100.0</ele><time>2026-04-18T07:34:21.461Z</time></trkpt><trkpt lat="42.7697045" lon="10.3784856"><ele>100.0</ele><time>2026-04-18T07:34:22.469Z</time></trkpt><trkpt lat="42.7696104" lon="10.3785791"><ele>100.0</ele><time>2026-04-18T07:34:23.461Z</time></trkpt><trkpt lat="42.7695294" lon="10.3787189"><ele>101.25</ele><time>2026-04-18T07:34:24.461Z</time></trkpt><trkpt lat="42.7694758" lon="10.3788932"><ele>102.5</ele><time>2026-04-18T07:34:25.464Z</time></trkpt><trkpt lat="42.7694398" lon="10.3790517"><ele>103.75</ele><time>2026-04-18T07:34:26.46Z</time></trkpt><trkpt lat="42.7694074" lon="10.3791956"><ele>105.0</ele><time>2026-04-18T07:34:27.464Z</time></trkpt><trkpt lat="42.7693716" lon="10.3793339"><ele>102.6</ele><time>2026-04-18T07:34:28.464Z</time></trkpt><trkpt lat="42.7693298" lon="10.3794495"><ele>100.2</ele><time>2026-04-18T07:34:29.459Z</time></trkpt><trkpt lat="42.7692818" lon="10.3795546"><ele>97.80000000000001</ele><time>2026-04-18T07:34:30.464Z</time></trkpt><trkpt lat="42.7692289" lon="10.3796686"><ele>95.4</ele><time>2026-04-18T07:34:31.465Z</time></trkpt><trkpt lat="42.769177" lon="10.3797926"><ele>93.0</ele><time>2026-04-18T07:34:32.464Z</time></trkpt><trkpt lat="42.7691266" lon="10.3799232"><ele>93.0</ele><time>2026-04-18T07:34:33.47Z</time></trkpt><trkpt lat="42.7690766" lon="10.380048"><ele>93.0</ele><time>2026-04-18T07:34:34.465Z</time></trkpt><trkpt lat="42.7690247" lon="10.3801644"><ele>93.0</ele><time>2026-04-18T07:34:35.461Z</time></trkpt><trkpt lat="42.7689708" lon="10.3802623"><ele>93.0</ele><time>2026-04-18T07:34:36.464Z</time></trkpt><trkpt lat="42.768909" lon="10.3803395"><ele>93.0</ele><time>2026-04-18T07:34:37.466Z</time></trkpt><trkpt lat="42.768835" lon="10.3803955"><ele>93.0</ele><time>2026-04-18T07:34:38.466Z</time></trkpt><trkpt lat="42.7687504" lon="10.3804415"><ele>93.0</ele><time>2026-04-18T07:34:39.464Z</time></trkpt><trkpt lat="42.7686656" lon="10.3804844"><ele>93.0</ele><time>2026-04-18T07:34:40.47Z</time></trkpt><trkpt lat="42.7685873" lon="10.3805359"><ele>93.0</ele><time>2026-04-18T07:34:41.47Z</time></trkpt><trkpt lat="42.7685152" lon="10.3805974"><ele>93.0</ele><time>2026-04-18T07:34:42.467Z</time></trkpt><trkpt lat="42.7684466" lon="10.3806582"><ele>93.0</ele><time>2026-04-18T07:34:43.467Z</time></trkpt><trkpt lat="42.7683873" lon="10.3807212"><ele>93.2</ele><time>2026-04-18T07:34:44.463Z</time></trkpt><trkpt lat="42.7683274" lon="10.3807882"><ele>93.4</ele><time>2026-04-18T07:34:45.466Z</time></trkpt><trkpt lat="42.7682561" lon="10.3808663"><ele>93.60000000000001</ele><time>2026-04-18T07:34:46.464Z</time></trkpt><trkpt lat="42.768172" lon="10.3809581"><ele>93.80000000000001</ele><time>2026-04-18T07:34:47.484Z</time></trkpt><trkpt lat="42.768095" lon="10.3810527"><ele>94.0</ele><time>2026-04-18T07:34:48.47Z</time></trkpt><trkpt lat="42.7680247" lon="10.3811472"><ele>94.0</ele><time>2026-04-18T07:34:49.469Z</time></trkpt><trkpt lat="42.7679586" lon="10.3812322"><ele>94.0</ele><time>2026-04-18T07:34:50.467Z</time></trkpt><trkpt lat="42.7678974" lon="10.3813095"><ele>94.0</ele><time>2026-04-18T07:34:51.469Z</time></trkpt><trkpt lat="42.7678342" lon="10.3813796"><ele>94.0</ele><time>2026-04-18T07:34:52.475Z</time></trkpt><trkpt lat="42.76777" lon="10.3814414"><ele>94.0</ele><time>2026-04-18T07:34:53.464Z</time></trkpt><trkpt lat="42.7677105" lon="10.3815057"><ele>94.0</ele><time>2026-04-18T07:34:54.467Z</time></trkpt><trkpt lat="42.7676572" lon="10.3815674"><ele>94.2</ele><time>2026-04-18T07:34:55.469Z</time></trkpt><trkpt lat="42.7675702" lon="10.3816801"><ele>94.4</ele><time>2026-04-18T07:34:57.468Z</time></trkpt><trkpt lat="42.7675104" lon="10.3817884"><ele>94.6</ele><time>2026-04-18T07:34:59.461Z</time></trkpt><trkpt lat="42.7675001" lon="10.3818748"><ele>94.8</ele><time>2026-04-18T07:35:02.463Z</time></trkpt><trkpt lat="42.7676093" lon="10.381885"><ele>95.0</ele><time>2026-04-18T07:35:05.464Z</time></trkpt><trkpt lat="42.767745" lon="10.3818876"><ele>94.6</ele><time>2026-04-18T07:35:07.464Z</time></trkpt><trkpt lat="42.7678372" lon="10.3818924"><ele>94.2</ele><time>2026-04-18T07:35:08.465Z</time></trkpt><trkpt lat="42.7679368" lon="10.3819037"><ele>93.80000000000001</ele><time>2026-04-18T07:35:09.464Z</time></trkpt><trkpt lat="42.7680332" lon="10.381915"><ele>93.4</ele><time>2026-04-18T07:35:10.464Z</time></trkpt><trkpt lat="42.7681275" lon="10.3819237"><ele>93.0</ele><time>2026-04-18T07:35:11.465Z</time></trkpt><trkpt lat="42.768225" lon="10.3819339"><ele>93.0</ele><time>2026-04-18T07:35:12.467Z</time></trkpt><trkpt lat="42.7683227" lon="10.3819514"><ele>93.0</ele><time>2026-04-18T07:35:13.465Z</time></trkpt><trkpt lat="42.7684223" lon="10.3819828"><ele>93.0</ele><time>2026-04-18T07:35:14.466Z</time></trkpt><trkpt lat="42.7685254" lon="10.3820189"><ele>93.0</ele><time>2026-04-18T07:35:15.47Z</time></trkpt><trkpt lat="42.7686294" lon="10.3820538"><ele>93.0</ele><time>2026-04-18T07:35:16.463Z</time></trkpt><trkpt lat="42.7687312" lon="10.3820826"><ele>93.66666666666667</ele><time>2026-04-18T07:35:17.478Z</time></trkpt><trkpt lat="42.7688221" lon="10.3821067"><ele>94.33333333333334</ele><time>2026-04-18T07:35:18.466Z</time></trkpt><trkpt lat="42.7689077" lon="10.3821267"><ele>95.0</ele><time>2026-04-18T07:35:19.468Z</time></trkpt><trkpt lat="42.7689897" lon="10.3821385"><ele>95.66666666666667</ele><time>2026-04-18T07:35:20.465Z</time></trkpt><trkpt lat="42.7690733" lon="10.3821496"><ele>96.33333333333334</ele><time>2026-04-18T07:35:21.461Z</time></trkpt><trkpt lat="42.7691558" lon="10.3821654"><ele>97.0</ele><time>2026-04-18T07:35:22.466Z</time></trkpt><trkpt lat="42.7692414" lon="10.3821818"><ele>97.00000000000001</ele><time>2026-04-18T07:35:23.463Z</time></trkpt><trkpt lat="42.7693334" lon="10.3821971"><ele>97.0</ele><time>2026-04-18T07:35:24.472Z</time></trkpt><trkpt lat="42.7694231" lon="10.3822167"><ele>97.0</ele><time>2026-04-18T07:35:25.467Z</time></trkpt><trkpt lat="42.7695046" lon="10.3822404"><ele>97.0</ele><time>2026-04-18T07:35:26.469Z</time></trkpt><trkpt lat="42.7695867" lon="10.3822665"><ele>97.00000000000001</ele><time>2026-04-18T07:35:27.464Z</time></trkpt><trkpt lat="42.7696724" lon="10.3822873"><ele>97.0</ele><time>2026-04-18T07:35:28.47Z</time></trkpt><trkpt lat="42.7697604" lon="10.3822985"><ele>97.66666666666667</ele><time>2026-04-18T07:35:29.467Z</time></trkpt><trkpt lat="42.7698507" lon="10.3822966"><ele>98.33333333333334</ele><time>2026-04-18T07:35:30.468Z</time></trkpt><trkpt lat="42.7699405" lon="10.3822959"><ele>99.0</ele><time>2026-04-18T07:35:31.465Z</time></trkpt><trkpt lat="42.7700271" lon="10.3823058"><ele>99.66666666666666</ele><time>2026-04-18T07:35:32.458Z</time></trkpt><trkpt lat="42.7701038" lon="10.3823197"><ele>100.33333333333333</ele><time>2026-04-18T07:35:33.462Z</time></trkpt><trkpt lat="42.7701847" lon="10.382328"><ele>101.0</ele><time>2026-04-18T07:35:34.465Z</time></trkpt><trkpt lat="42.7702726" lon="10.382325"><ele>102.19999999999999</ele><time>2026-04-18T07:35:35.464Z</time></trkpt><trkpt lat="42.7703688" lon="10.3823087"><ele>103.39999999999999</ele><time>2026-04-18T07:35:36.462Z</time></trkpt><trkpt lat="42.7704741" lon="10.3822917"><ele>104.6</ele><time>2026-04-18T07:35:37.464Z</time></trkpt><trkpt lat="42.7705757" lon="10.3822858"><ele>105.8</ele><time>2026-04-18T07:35:38.463Z</time></trkpt><trkpt lat="42.7706679" lon="10.3822973"><ele>107.0</ele><time>2026-04-18T07:35:39.463Z</time></trkpt><trkpt lat="42.7707547" lon="10.3823251"><ele>106.99999999999999</ele><time>2026-04-18T07:35:40.46Z</time></trkpt><trkpt lat="42.770837" lon="10.382361"><ele>107.0</ele><time>2026-04-18T07:35:41.462Z</time></trkpt><trkpt lat="42.7709143" lon="10.3823949"><ele>107.0</ele><time>2026-04-18T07:35:42.469Z</time></trkpt><trkpt lat="42.7709856" lon="10.382426"><ele>107.0</ele><time>2026-04-18T07:35:43.459Z</time></trkpt><trkpt lat="42.7710464" lon="10.382453"><ele>106.99999999999999</ele><time>2026-04-18T07:35:44.461Z</time></trkpt><trkpt lat="42.7711544" lon="10.3824612"><ele>107.0</ele><time>2026-04-18T07:35:46.464Z</time></trkpt><trkpt lat="42.7712211" lon="10.3823476"><ele>107.66666666666666</ele><time>2026-04-18T07:35:48.469Z</time></trkpt><trkpt lat="42.7712437" lon="10.382255"><ele>108.33333333333333</ele><time>2026-04-18T07:35:49.46Z</time></trkpt><trkpt lat="42.7712642" lon="10.3821473"><ele>109.0</ele><time>2026-04-18T07:35:50.451Z</time></trkpt><trkpt lat="42.7712869" lon="10.3820287"><ele>109.66666666666666</ele><time>2026-04-18T07:35:51.464Z</time></trkpt><trkpt lat="42.7713146" lon="10.3819154"><ele>110.33333333333333</ele><time>2026-04-18T07:35:52.464Z</time></trkpt><trkpt lat="42.7713452" lon="10.3818111"><ele>111.0</ele><time>2026-04-18T07:35:53.456Z</time></trkpt><trkpt lat="42.7713826" lon="10.3817127"><ele>113.0</ele><time>2026-04-18T07:35:54.463Z</time></trkpt><trkpt lat="42.7714257" lon="10.3816252"><ele>115.0</ele><time>2026-04-18T07:35:55.453Z</time></trkpt><trkpt lat="42.7714754" lon="10.3815447"><ele>117.0</ele><time>2026-04-18T07:35:56.455Z</time></trkpt><trkpt lat="42.7715293" lon="10.3814778"><ele>119.0</ele><time>2026-04-18T07:35:57.454Z</time></trkpt><trkpt lat="42.7715887" lon="10.3814171"><ele>121.0</ele><time>2026-04-18T07:35:58.448Z</time></trkpt><trkpt lat="42.771655" lon="10.3813676"><ele>123.0</ele><time>2026-04-18T07:35:59.458Z</time></trkpt><trkpt lat="42.7717194" lon="10.3813168"><ele>124.60000000000001</ele><time>2026-04-18T07:36:00.457Z</time></trkpt><trkpt lat="42.7717856" lon="10.3812594"><ele>126.20000000000002</ele><time>2026-04-18T07:36:01.456Z</time></trkpt><trkpt lat="42.7718478" lon="10.3812025"><ele>127.8</ele><time>2026-04-18T07:36:02.459Z</time></trkpt><trkpt lat="42.7719469" lon="10.3811148"><ele>129.4</ele><time>2026-04-18T07:36:04.459Z</time></trkpt><trkpt lat="42.7720397" lon="10.3810509"><ele>131.0</ele><time>2026-04-18T07:36:06.459Z</time></trkpt><trkpt lat="42.7721384" lon="10.3809758"><ele>133.33333333333331</ele><time>2026-04-18T07:36:08.46Z</time></trkpt><trkpt lat="42.7722571" lon="10.3809065"><ele>135.66666666666666</ele><time>2026-04-18T07:36:10.462Z</time></trkpt><trkpt lat="42.7723154" lon="10.3808699"><ele>138.0</ele><time>2026-04-18T07:36:11.462Z</time></trkpt><trkpt lat="42.7724089" lon="10.380793"><ele>140.33333333333334</ele><time>2026-04-18T07:36:13.462Z</time></trkpt><trkpt lat="42.7724384" lon="10.3807101"><ele>142.66666666666669</ele><time>2026-04-18T07:36:16.457Z</time></trkpt><trkpt lat="42.7724192" lon="10.3806059"><ele>145.0</ele><time>2026-04-18T07:36:50.472Z</time></trkpt><trkpt lat="42.7723776" lon="10.3804398"><ele>148.0</ele><time>2026-04-18T07:36:52.466Z</time></trkpt><trkpt lat="42.7723445" lon="10.380322"><ele>151.0</ele><time>2026-04-18T07:36:53.459Z</time></trkpt><trkpt lat="42.7722997" lon="10.3802018"><ele>154.0</ele><time>2026-04-18T07:36:54.456Z</time></trkpt><trkpt lat="42.7722545" lon="10.3800746"><ele>157.0</ele><time>2026-04-18T07:36:55.46Z</time></trkpt><trkpt lat="42.772211" lon="10.37995"><ele>160.0</ele><time>2026-04-18T07:36:56.458Z</time></trkpt><trkpt lat="42.772184" lon="10.3798373"><ele>160.0</ele><time>2026-04-18T07:36:57.464Z</time></trkpt><trkpt lat="42.7721712" lon="10.3797287"><ele>160.0</ele><time>2026-04-18T07:36:58.463Z</time></trkpt><trkpt lat="42.7721743" lon="10.3796386"><ele>160.0</ele><time>2026-04-18T07:36:59.464Z</time></trkpt><trkpt lat="42.7722229" lon="10.3795424"><ele>160.0</ele><time>2026-04-18T07:37:01.458Z</time></trkpt><trkpt lat="42.7723062" lon="10.3795228"><ele>160.0</ele><time>2026-04-18T07:37:03.464Z</time></trkpt><trkpt lat="42.7723845" lon="10.3795812"><ele>160.0</ele><time>2026-04-18T07:37:05.463Z</time></trkpt><trkpt lat="42.7724521" lon="10.379659"><ele>160.0</ele><time>2026-04-18T07:37:07.463Z</time></trkpt><trkpt lat="42.772515" lon="10.3797128"><ele>160.0</ele><time>2026-04-18T07:37:09.467Z</time></trkpt><trkpt lat="42.77257" lon="10.3797615"><ele>160.0</ele><time>2026-04-18T07:37:11.461Z</time></trkpt><trkpt lat="42.7726292" lon="10.3797941"><ele>160.0</ele><time>2026-04-18T07:37:13.465Z</time></trkpt><trkpt lat="42.7727016" lon="10.3798057"><ele>160.0</ele><time>2026-04-18T07:37:15.46Z</time></trkpt><trkpt lat="42.7727767" lon="10.3798175"><ele>160.0</ele><time>2026-04-18T07:37:17.466Z</time></trkpt><trkpt lat="42.7728661" lon="10.379824"><ele>160.0</ele><time>2026-04-18T07:37:19.46Z</time></trkpt><trkpt lat="42.7729709" lon="10.3798088"><ele>162.5</ele><time>2026-04-18T07:37:21.473Z</time></trkpt><trkpt lat="42.7730666" lon="10.3798024"><ele>165.0</ele><time>2026-04-18T07:37:23.463Z</time></trkpt><trkpt lat="42.7731518" lon="10.3798221"><ele>167.5</ele><time>2026-04-18T07:37:25.462Z</time></trkpt><trkpt lat="42.7732431" lon="10.3798234"><ele>170.0</ele><time>2026-04-18T07:37:27.466Z</time></trkpt><trkpt lat="42.7733171" lon="10.3798167"><ele>172.5</ele><time>2026-04-18T07:37:29.46Z</time></trkpt><trkpt lat="42.7734065" lon="10.3798047"><ele>175.0</ele><time>2026-04-18T07:37:32.46Z</time></trkpt><trkpt lat="42.7735012" lon="10.3797899"><ele>176.0</ele><time>2026-04-18T07:37:35.462Z</time></trkpt><trkpt lat="42.7735861" lon="10.3797595"><ele>177.0</ele><time>2026-04-18T07:37:37.458Z</time></trkpt><trkpt lat="42.7736639" lon="10.3797406"><ele>178.0</ele><time>2026-04-18T07:37:39.457Z</time></trkpt><trkpt lat="42.7737364" lon="10.3797329"><ele>179.0</ele><time>2026-04-18T07:37:41.456Z</time></trkpt><trkpt lat="42.7738182" lon="10.3797171"><ele>180.0</ele><time>2026-04-18T07:37:43.455Z</time></trkpt><trkpt lat="42.7738969" lon="10.3796902"><ele>181.0</ele><time>2026-04-18T07:37:46.455Z</time></trkpt><trkpt lat="42.7739652" lon="10.3796456"><ele>185.0</ele><time>2026-04-18T07:37:48.459Z</time></trkpt><trkpt lat="42.7740465" lon="10.3795808"><ele>189.0</ele><time>2026-04-18T07:37:50.456Z</time></trkpt><trkpt lat="42.7741252" lon="10.379522"><ele>193.0</ele><time>2026-04-18T07:37:52.47Z</time></trkpt><trkpt lat="42.7742003" lon="10.3794893"><ele>197.0</ele><time>2026-04-18T07:37:54.457Z</time></trkpt><trkpt lat="42.7742608" lon="10.3794351"><ele>200.99999999999997</ele><time>2026-04-18T07:37:56.455Z</time></trkpt><trkpt lat="42.7743226" lon="10.3793856"><ele>205.0</ele><time>2026-04-18T07:37:58.456Z</time></trkpt><trkpt lat="42.7743891" lon="10.3793563"><ele>206.99999999999997</ele><time>2026-04-18T07:38:00.457Z</time></trkpt><trkpt lat="42.7744844" lon="10.3793361"><ele>209.0</ele><time>2026-04-18T07:38:03.455Z</time></trkpt><trkpt lat="42.774548" lon="10.3793179"><ele>211.0</ele><time>2026-04-18T07:38:05.456Z</time></trkpt><trkpt lat="42.7746224" lon="10.3792983"><ele>213.0</ele><time>2026-04-18T07:38:07.456Z</time></trkpt><trkpt lat="42.7746935" lon="10.3792789"><ele>214.99999999999997</ele><time>2026-04-18T07:38:09.445Z</time></trkpt><trkpt lat="42.7747949" lon="10.3792701"><ele>217.0</ele><time>2026-04-18T07:38:11.457Z</time></trkpt><trkpt lat="42.7749023" lon="10.3792723"><ele>216.99999999999997</ele><time>2026-04-18T07:38:13.453Z</time></trkpt><trkpt lat="42.7749943" lon="10.3792714"><ele>217.0</ele><time>2026-04-18T07:38:15.455Z</time></trkpt><trkpt lat="42.775077" lon="10.3792495"><ele>217.0</ele><time>2026-04-18T07:38:17.455Z</time></trkpt><trkpt lat="42.7751532" lon="10.3792204"><ele>217.0</ele><time>2026-04-18T07:41:04.473Z</time></trkpt><trkpt lat="42.7752233" lon="10.3791919"><ele>216.99999999999997</ele><time>2026-04-18T07:41:05.472Z</time></trkpt><trkpt lat="42.7753076" lon="10.3791678"><ele>217.0</ele><time>2026-04-18T07:41:06.474Z</time></trkpt><trkpt lat="42.7753929" lon="10.3791492"><ele>217.66666666666666</ele><time>2026-04-18T07:41:07.476Z</time></trkpt><trkpt lat="42.7754726" lon="10.3791368"><ele>218.33333333333331</ele><time>2026-04-18T07:41:08.474Z</time></trkpt><trkpt lat="42.7755478" lon="10.3791268"><ele>219.0</ele><time>2026-04-18T07:41:09.468Z</time></trkpt><trkpt lat="42.7756167" lon="10.3791151"><ele>219.66666666666669</ele><time>2026-04-18T07:41:10.472Z</time></trkpt><trkpt lat="42.7756891" lon="10.3791003"><ele>220.33333333333334</ele><time>2026-04-18T07:41:11.466Z</time></trkpt><trkpt lat="42.7757641" lon="10.3790866"><ele>221.0</ele><time>2026-04-18T07:41:12.465Z</time></trkpt><trkpt lat="42.7758428" lon="10.379073"><ele>221.00000000000003</ele><time>2026-04-18T07:41:13.468Z</time></trkpt><trkpt lat="42.7759272" lon="10.3790501"><ele>221.0</ele><time>2026-04-18T07:41:14.469Z</time></trkpt><trkpt lat="42.7760067" lon="10.3790181"><ele>221.0</ele><time>2026-04-18T07:41:15.472Z</time></trkpt><trkpt lat="42.7760755" lon="10.378995"><ele>221.0</ele><time>2026-04-18T07:41:16.469Z</time></trkpt><trkpt lat="42.7761421" lon="10.3789783"><ele>221.0</ele><time>2026-04-18T07:41:17.47Z</time></trkpt><trkpt lat="42.7762046" lon="10.3789581"><ele>221.00000000000003</ele><time>2026-04-18T07:41:18.469Z</time></trkpt><trkpt lat="42.7762662" lon="10.3789301"><ele>221.0</ele><time>2026-04-18T07:41:19.467Z</time></trkpt><trkpt lat="42.7763826" lon="10.3788802"><ele>219.8</ele><time>2026-04-18T07:41:21.474Z</time></trkpt><trkpt lat="42.7765073" lon="10.378852"><ele>218.60000000000002</ele><time>2026-04-18T07:41:23.471Z</time></trkpt><trkpt lat="42.7766188" lon="10.3788279"><ele>217.4</ele><time>2026-04-18T07:41:25.469Z</time></trkpt><trkpt lat="42.7767086" lon="10.3788095"><ele>216.2</ele><time>2026-04-18T07:41:27.47Z</time></trkpt><trkpt lat="42.7768134" lon="10.3787834"><ele>215.0</ele><time>2026-04-18T07:41:29.471Z</time></trkpt><trkpt lat="42.7769301" lon="10.3787445"><ele>218.83333333333334</ele><time>2026-04-18T07:41:31.468Z</time></trkpt><trkpt lat="42.7770353" lon="10.3787017"><ele>222.66666666666669</ele><time>2026-04-18T07:41:33.469Z</time></trkpt><trkpt lat="42.7771306" lon="10.3786691"><ele>226.5</ele><time>2026-04-18T07:41:35.472Z</time></trkpt><trkpt lat="42.7772013" lon="10.3786407"><ele>230.33333333333331</ele><time>2026-04-18T07:41:37.473Z</time></trkpt><trkpt lat="42.777263" lon="10.3785919"><ele>234.16666666666666</ele><time>2026-04-18T07:41:39.473Z</time></trkpt><trkpt lat="42.7773249" lon="10.3785542"><ele>238.0</ele><time>2026-04-18T07:41:41.473Z</time></trkpt><trkpt lat="42.7773889" lon="10.37852"><ele>237.99999999999997</ele><time>2026-04-18T07:41:43.472Z</time></trkpt><trkpt lat="42.7774576" lon="10.3784815"><ele>238.0</ele><time>2026-04-18T07:41:45.471Z</time></trkpt><trkpt lat="42.777522" lon="10.3784326"><ele>238.0</ele><time>2026-04-18T07:41:47.472Z</time></trkpt><trkpt lat="42.777587" lon="10.378406"><ele>238.0</ele><time>2026-04-18T07:41:49.472Z</time></trkpt><trkpt lat="42.7776655" lon="10.3783813"><ele>237.99999999999997</ele><time>2026-04-18T07:41:51.479Z</time></trkpt><trkpt lat="42.7777411" lon="10.3782915"><ele>238.0</ele><time>2026-04-18T07:41:53.48Z</time></trkpt><trkpt lat="42.7778105" lon="10.3781543"><ele>238.33333333333331</ele><time>2026-04-18T07:41:55.479Z</time></trkpt><trkpt lat="42.7778519" lon="10.3780769"><ele>238.66666666666666</ele><time>2026-04-18T07:41:56.481Z</time></trkpt><trkpt lat="42.777886" lon="10.3779948"><ele>239.0</ele><time>2026-04-18T07:41:57.488Z</time></trkpt><trkpt lat="42.7779439" lon="10.3778618"><ele>239.33333333333331</ele><time>2026-04-18T07:41:59.505Z</time></trkpt><trkpt lat="42.7780325" lon="10.3778361"><ele>239.66666666666666</ele><time>2026-04-18T07:42:01.493Z</time></trkpt><trkpt lat="42.7781003" lon="10.3778373"><ele>240.0</ele><time>2026-04-18T07:42:03.491Z</time></trkpt><trkpt lat="42.7781649" lon="10.3778345"><ele>240.0</ele><time>2026-04-18T07:47:04.509Z</time></trkpt><trkpt lat="42.7782472" lon="10.3777649"><ele>240.0</ele><time>2026-04-18T07:47:06.506Z</time></trkpt><trkpt lat="42.7783068" lon="10.3777221"><ele>240.0</ele><time>2026-04-18T07:47:07.507Z</time></trkpt><trkpt lat="42.7783663" lon="10.3776764"><ele>240.0</ele><time>2026-04-18T07:47:08.511Z</time></trkpt><trkpt lat="42.7784211" lon="10.3776156"><ele>240.0</ele><time>2026-04-18T07:47:09.507Z</time></trkpt><trkpt lat="42.7784812" lon="10.3775452"><ele>240.0</ele><time>2026-04-18T07:47:10.505Z</time></trkpt><trkpt lat="42.7785514" lon="10.3774836"><ele>242.5</ele><time>2026-04-18T07:47:11.503Z</time></trkpt><trkpt lat="42.7786229" lon="10.3774573"><ele>245.0</ele><time>2026-04-18T07:47:12.506Z</time></trkpt><trkpt lat="42.7786918" lon="10.3774335"><ele>247.5</ele><time>2026-04-18T07:47:13.503Z</time></trkpt><trkpt lat="42.7787566" lon="10.3774069"><ele>250.0</ele><time>2026-04-18T07:47:14.504Z</time></trkpt><trkpt lat="42.7788236" lon="10.377377"><ele>252.5</ele><time>2026-04-18T07:47:15.503Z</time></trkpt><trkpt lat="42.7788879" lon="10.3773459"><ele>255.0</ele><time>2026-04-18T07:47:16.498Z</time></trkpt><trkpt lat="42.7790009" lon="10.377287"><ele>255.0</ele><time>2026-04-18T07:47:18.501Z</time></trkpt><trkpt lat="42.7791139" lon="10.377259"><ele>255.0</ele><time>2026-04-18T07:47:20.498Z</time></trkpt><trkpt lat="42.7792299" lon="10.377236"><ele>255.0</ele><time>2026-04-18T07:47:22.512Z</time></trkpt><trkpt lat="42.7793404" lon="10.3772251"><ele>255.0</ele><time>2026-04-18T07:47:24.496Z</time></trkpt><trkpt lat="42.7794241" lon="10.3771539"><ele>255.0</ele><time>2026-04-18T07:47:26.489Z</time></trkpt><trkpt lat="42.7794315" lon="10.3770224"><ele>255.6</ele><time>2026-04-18T07:47:28.493Z</time></trkpt><trkpt lat="42.7793713" lon="10.3768825"><ele>256.2</ele><time>2026-04-18T07:47:30.498Z</time></trkpt><trkpt lat="42.7793249" lon="10.376809"><ele>256.8</ele><time>2026-04-18T07:47:31.498Z</time></trkpt><trkpt lat="42.779282" lon="10.376739"><ele>257.4</ele><time>2026-04-18T07:47:32.497Z</time></trkpt><trkpt lat="42.7792288" lon="10.3765989"><ele>258.0</ele><time>2026-04-18T07:47:34.501Z</time></trkpt><trkpt lat="42.7792067" lon="10.3764414"><ele>255.66666666666666</ele><time>2026-04-18T07:47:36.498Z</time></trkpt><trkpt lat="42.7792064" lon="10.3763543"><ele>253.33333333333331</ele><time>2026-04-18T07:47:37.5Z</time></trkpt><trkpt lat="42.7792143" lon="10.3762679"><ele>251.0</ele><time>2026-04-18T07:47:38.505Z</time></trkpt><trkpt lat="42.7792662" lon="10.3761141"><ele>248.66666666666666</ele><time>2026-04-18T07:47:40.503Z</time></trkpt><trkpt lat="42.7793136" lon="10.376057"><ele>246.33333333333331</ele><time>2026-04-18T07:47:41.508Z</time></trkpt><trkpt lat="42.7793732" lon="10.3760183"><ele>244.0</ele><time>2026-04-18T07:47:42.504Z</time></trkpt><trkpt lat="42.7794432" lon="10.3759984"><ele>243.99999999999997</ele><time>2026-04-18T07:47:43.501Z</time></trkpt><trkpt lat="42.7795211" lon="10.3759878"><ele>244.0</ele><time>2026-04-18T07:47:44.5Z</time></trkpt><trkpt lat="42.7796123" lon="10.375976"><ele>244.0</ele><time>2026-04-18T07:47:45.501Z</time></trkpt><trkpt lat="42.7796989" lon="10.3759522"><ele>244.0</ele><time>2026-04-18T07:47:46.494Z</time></trkpt><trkpt lat="42.7797794" lon="10.3759115"><ele>243.99999999999997</ele><time>2026-04-18T07:47:47.496Z</time></trkpt><trkpt lat="42.7798553" lon="10.3758555"><ele>244.0</ele><time>2026-04-18T07:47:48.495Z</time></trkpt><trkpt lat="42.7799325" lon="10.3757846"><ele>244.0</ele><time>2026-04-18T07:47:49.498Z</time></trkpt><trkpt lat="42.7800076" lon="10.3756937"><ele>243.99999999999997</ele><time>2026-04-18T07:47:50.498Z</time></trkpt><trkpt lat="42.7800827" lon="10.3755951"><ele>243.99999999999997</ele><time>2026-04-18T07:47:51.501Z</time></trkpt><trkpt lat="42.7801516" lon="10.3755048"><ele>244.0</ele><time>2026-04-18T07:47:52.513Z</time></trkpt><trkpt lat="42.7802061" lon="10.3754176"><ele>244.0</ele><time>2026-04-18T07:47:53.5Z</time></trkpt><trkpt lat="42.7802489" lon="10.3753277"><ele>244.28571428571425</ele><time>2026-04-18T07:47:54.503Z</time></trkpt><trkpt lat="42.7802728" lon="10.3752345"><ele>244.57142857142856</ele><time>2026-04-18T07:47:55.499Z</time></trkpt><trkpt lat="42.7802753" lon="10.3751431"><ele>244.85714285714286</ele><time>2026-04-18T07:47:56.495Z</time></trkpt><trkpt lat="42.7802705" lon="10.3750525"><ele>245.14285714285714</ele><time>2026-04-18T07:47:57.5Z</time></trkpt><trkpt lat="42.7802686" lon="10.3749552"><ele>245.42857142857144</ele><time>2026-04-18T07:47:58.505Z</time></trkpt><trkpt lat="42.78028" lon="10.3748475"><ele>245.71428571428575</ele><time>2026-04-18T07:47:59.502Z</time></trkpt><trkpt lat="42.7803011" lon="10.3747325"><ele>246.00000000000003</ele><time>2026-04-18T07:48:00.503Z</time></trkpt><trkpt lat="42.7803313" lon="10.3746234"><ele>244.8</ele><time>2026-04-18T07:48:01.505Z</time></trkpt><trkpt lat="42.7803691" lon="10.3745233"><ele>243.60000000000002</ele><time>2026-04-18T07:48:02.501Z</time></trkpt><trkpt lat="42.7804178" lon="10.3744226"><ele>242.4</ele><time>2026-04-18T07:48:03.504Z</time></trkpt><trkpt lat="42.7804709" lon="10.3743158"><ele>241.2</ele><time>2026-04-18T07:48:04.505Z</time></trkpt><trkpt lat="42.7805181" lon="10.3742003"><ele>240.0</ele><time>2026-04-18T07:48:05.507Z</time></trkpt><trkpt lat="42.7805587" lon="10.3740861"><ele>240.0</ele><time>2026-04-18T07:48:06.507Z</time></trkpt><trkpt lat="42.7805892" lon="10.3739703"><ele>240.0</ele><time>2026-04-18T07:48:07.506Z</time></trkpt><trkpt lat="42.7806045" lon="10.3738524"><ele>240.0</ele><time>2026-04-18T07:48:08.501Z</time></trkpt><trkpt lat="42.7806104" lon="10.3737298"><ele>240.0</ele><time>2026-04-18T07:48:09.501Z</time></trkpt><trkpt lat="42.7806068" lon="10.373608"><ele>240.0</ele><time>2026-04-18T07:48:10.509Z</time></trkpt><trkpt lat="42.7805937" lon="10.3734889"><ele>240.0</ele><time>2026-04-18T07:48:11.502Z</time></trkpt><trkpt lat="42.7805763" lon="10.3733622"><ele>238.0</ele><time>2026-04-18T07:48:12.508Z</time></trkpt><trkpt lat="42.7805627" lon="10.3732244"><ele>236.0</ele><time>2026-04-18T07:48:13.507Z</time></trkpt><trkpt lat="42.780555" lon="10.3730835"><ele>234.0</ele><time>2026-04-18T07:48:14.512Z</time></trkpt><trkpt lat="42.7805497" lon="10.3729572"><ele>232.0</ele><time>2026-04-18T07:48:15.506Z</time></trkpt><trkpt lat="42.7805374" lon="10.3728405"><ele>230.0</ele><time>2026-04-18T07:48:16.505Z</time></trkpt><trkpt lat="42.7805149" lon="10.3727337"><ele>227.66666666666669</ele><time>2026-04-18T07:48:17.505Z</time></trkpt><trkpt lat="42.7804732" lon="10.3726322"><ele>225.33333333333334</ele><time>2026-04-18T07:48:18.506Z</time></trkpt><trkpt lat="42.7804138" lon="10.3725419"><ele>223.0</ele><time>2026-04-18T07:48:19.503Z</time></trkpt><trkpt lat="42.7803383" lon="10.3724685"><ele>220.66666666666669</ele><time>2026-04-18T07:48:20.51Z</time></trkpt><trkpt lat="42.7802572" lon="10.372405"><ele>218.33333333333334</ele><time>2026-04-18T07:48:21.515Z</time></trkpt><trkpt lat="42.7801848" lon="10.3723421"><ele>216.0</ele><time>2026-04-18T07:48:22.521Z</time></trkpt><trkpt lat="42.7801202" lon="10.3722731"><ele>214.33333333333334</ele><time>2026-04-18T07:48:23.513Z</time></trkpt><trkpt lat="42.7800639" lon="10.3721944"><ele>212.66666666666669</ele><time>2026-04-18T07:48:24.509Z</time></trkpt><trkpt lat="42.7800223" lon="10.372102"><ele>211.0</ele><time>2026-04-18T07:48:25.509Z</time></trkpt><trkpt lat="42.7800005" lon="10.3719921"><ele>209.33333333333334</ele><time>2026-04-18T07:48:26.505Z</time></trkpt><trkpt lat="42.7799994" lon="10.3718768"><ele>207.66666666666669</ele><time>2026-04-18T07:48:27.511Z</time></trkpt><trkpt lat="42.7800211" lon="10.3717653"><ele>206.0</ele><time>2026-04-18T07:48:28.505Z</time></trkpt><trkpt lat="42.7800547" lon="10.3716664"><ele>205.20000000000002</ele><time>2026-04-18T07:48:29.512Z</time></trkpt><trkpt lat="42.7800979" lon="10.3715919"><ele>204.4</ele><time>2026-04-18T07:48:30.514Z</time></trkpt><trkpt lat="42.780151" lon="10.3715454"><ele>203.6</ele><time>2026-04-18T07:48:31.507Z</time></trkpt><trkpt lat="42.7802727" lon="10.3715165"><ele>202.8</ele><time>2026-04-18T07:48:33.509Z</time></trkpt><trkpt lat="42.7803729" lon="10.371543"><ele>202.0</ele><time>2026-04-18T07:48:35.509Z</time></trkpt><trkpt lat="42.7804699" lon="10.3716033"><ele>201.33333333333331</ele><time>2026-04-18T07:48:37.508Z</time></trkpt><trkpt lat="42.7805734" lon="10.3716956"><ele>200.66666666666666</ele><time>2026-04-18T07:48:39.506Z</time></trkpt><trkpt lat="42.7806279" lon="10.3717475"><ele>200.0</ele><time>2026-04-18T07:48:40.508Z</time></trkpt><trkpt lat="42.7806813" lon="10.3717948"><ele>199.33333333333331</ele><time>2026-04-18T07:48:41.519Z</time></trkpt><trkpt lat="42.7807379" lon="10.3718401"><ele>198.66666666666666</ele><time>2026-04-18T07:48:42.502Z</time></trkpt><trkpt lat="42.780793" lon="10.3718885"><ele>198.0</ele><time>2026-04-18T07:48:43.499Z</time></trkpt><trkpt lat="42.7808933" lon="10.3719662"><ele>198.0</ele><time>2026-04-18T07:48:45.498Z</time></trkpt><trkpt lat="42.7809959" lon="10.3720207"><ele>198.0</ele><time>2026-04-18T07:48:47.499Z</time></trkpt><trkpt lat="42.7811259" lon="10.372034"><ele>198.0</ele><time>2026-04-18T07:48:49.498Z</time></trkpt><trkpt lat="42.7812067" lon="10.3720279"><ele>198.0</ele><time>2026-04-18T07:48:50.495Z</time></trkpt><trkpt lat="42.7812975" lon="10.3720165"><ele>198.0</ele><time>2026-04-18T07:48:51.496Z</time></trkpt><trkpt lat="42.7813961" lon="10.3719988"><ele>197.60000000000002</ele><time>2026-04-18T07:48:52.508Z</time></trkpt><trkpt lat="42.7814909" lon="10.3719677"><ele>197.20000000000002</ele><time>2026-04-18T07:48:53.497Z</time></trkpt><trkpt lat="42.7815742" lon="10.3719119"><ele>196.8</ele><time>2026-04-18T07:48:54.497Z</time></trkpt><trkpt lat="42.7816469" lon="10.3718151"><ele>196.4</ele><time>2026-04-18T07:48:55.494Z</time></trkpt><trkpt lat="42.7817139" lon="10.3716805"><ele>196.0</ele><time>2026-04-18T07:48:56.495Z</time></trkpt><trkpt lat="42.78178" lon="10.3715442"><ele>196.0</ele><time>2026-04-18T07:48:57.491Z</time></trkpt><trkpt lat="42.7818434" lon="10.3714185"><ele>196.0</ele><time>2026-04-18T07:48:58.497Z</time></trkpt><trkpt lat="42.7819017" lon="10.371306"><ele>196.0</ele><time>2026-04-18T07:48:59.498Z</time></trkpt><trkpt lat="42.7819537" lon="10.3711887"><ele>196.0</ele><time>2026-04-18T07:49:00.5Z</time></trkpt><trkpt lat="42.7820036" lon="10.3710629"><ele>196.0</ele><time>2026-04-18T07:49:01.501Z</time></trkpt><trkpt lat="42.7820496" lon="10.3709359"><ele>193.4</ele><time>2026-04-18T07:49:02.496Z</time></trkpt><trkpt lat="42.7820998" lon="10.3708155"><ele>190.8</ele><time>2026-04-18T07:49:03.501Z</time></trkpt><trkpt lat="42.7821518" lon="10.3706937"><ele>188.20000000000002</ele><time>2026-04-18T07:49:04.497Z</time></trkpt><trkpt lat="42.7822064" lon="10.370568"><ele>185.60000000000002</ele><time>2026-04-18T07:49:05.497Z</time></trkpt><trkpt lat="42.7822582" lon="10.3704482"><ele>183.0</ele><time>2026-04-18T07:49:06.502Z</time></trkpt><trkpt lat="42.7823056" lon="10.3703311"><ele>181.8</ele><time>2026-04-18T07:49:07.502Z</time></trkpt><trkpt lat="42.7823566" lon="10.3702116"><ele>180.60000000000002</ele><time>2026-04-18T07:49:08.502Z</time></trkpt><trkpt lat="42.782404" lon="10.3700837"><ele>179.39999999999998</ele><time>2026-04-18T07:49:09.501Z</time></trkpt><trkpt lat="42.7824448" lon="10.3699518"><ele>178.2</ele><time>2026-04-18T07:49:10.502Z</time></trkpt><trkpt lat="42.7824805" lon="10.3698254"><ele>177.0</ele><time>2026-04-18T07:49:11.511Z</time></trkpt><trkpt lat="42.7825212" lon="10.3697052"><ele>174.8</ele><time>2026-04-18T07:49:12.506Z</time></trkpt><trkpt lat="42.7825656" lon="10.3695817"><ele>172.6</ele><time>2026-04-18T07:49:13.51Z</time></trkpt><trkpt lat="42.782616" lon="10.3694593"><ele>170.4</ele><time>2026-04-18T07:49:14.502Z</time></trkpt><trkpt lat="42.7826712" lon="10.3693319"><ele>168.20000000000002</ele><time>2026-04-18T07:49:15.51Z</time></trkpt><trkpt lat="42.7827298" lon="10.3691993"><ele>166.0</ele><time>2026-04-18T07:49:16.509Z</time></trkpt><trkpt lat="42.7827829" lon="10.3690653"><ele>166.0</ele><time>2026-04-18T07:49:17.512Z</time></trkpt><trkpt lat="42.7828334" lon="10.3689369"><ele>166.0</ele><time>2026-04-18T07:49:18.513Z</time></trkpt><trkpt lat="42.7828827" lon="10.3688147"><ele>166.0</ele><time>2026-04-18T07:49:19.512Z</time></trkpt><trkpt lat="42.7829309" lon="10.3687012"><ele>166.0</ele><time>2026-04-18T07:49:20.507Z</time></trkpt><trkpt lat="42.7829761" lon="10.3685988"><ele>166.0</ele><time>2026-04-18T07:49:21.505Z</time></trkpt><trkpt lat="42.7830189" lon="10.3685101"><ele>166.0</ele><time>2026-04-18T07:49:22.516Z</time></trkpt><trkpt lat="42.7830575" lon="10.3684265"><ele>166.0</ele><time>2026-04-18T07:49:23.508Z</time></trkpt><trkpt lat="42.7830897" lon="10.368333"><ele>166.0</ele><time>2026-04-18T07:49:24.512Z</time></trkpt><trkpt lat="42.7831118" lon="10.3682318"><ele>166.0</ele><time>2026-04-18T07:49:25.504Z</time></trkpt><trkpt lat="42.7831252" lon="10.3681269"><ele>166.0</ele><time>2026-04-18T07:49:26.511Z</time></trkpt><trkpt lat="42.7831291" lon="10.368015"><ele>166.0</ele><time>2026-04-18T07:49:27.507Z</time></trkpt><trkpt lat="42.7831273" lon="10.3678997"><ele>166.0</ele><time>2026-04-18T07:49:28.508Z</time></trkpt><trkpt lat="42.7831277" lon="10.3677776"><ele>166.0</ele><time>2026-04-18T07:49:29.505Z</time></trkpt><trkpt lat="42.7831284" lon="10.3676463"><ele>166.0</ele><time>2026-04-18T07:49:30.513Z</time></trkpt><trkpt lat="42.783133" lon="10.3675197"><ele>166.0</ele><time>2026-04-18T07:49:31.512Z</time></trkpt><trkpt lat="42.7831518" lon="10.3674103"><ele>166.0</ele><time>2026-04-18T07:49:32.518Z</time></trkpt><trkpt lat="42.7831892" lon="10.367332"><ele>166.0</ele><time>2026-04-18T07:49:33.509Z</time></trkpt><trkpt lat="42.7832984" lon="10.3673482"><ele>166.0</ele><time>2026-04-18T07:49:35.503Z</time></trkpt><trkpt lat="42.7833635" lon="10.3674123"><ele>166.0</ele><time>2026-04-18T07:49:36.498Z</time></trkpt><trkpt lat="42.7834411" lon="10.3674778"><ele>166.0</ele><time>2026-04-18T07:49:37.493Z</time></trkpt><trkpt lat="42.7835269" lon="10.3675246"><ele>166.0</ele><time>2026-04-18T07:49:38.486Z</time></trkpt><trkpt lat="42.7836224" lon="10.3675457"><ele>166.0</ele><time>2026-04-18T07:49:39.497Z</time></trkpt><trkpt lat="42.7837234" lon="10.3675395"><ele>164.4</ele><time>2026-04-18T07:49:40.494Z</time></trkpt><trkpt lat="42.783821" lon="10.3675084"><ele>162.8</ele><time>2026-04-18T07:49:41.497Z</time></trkpt><trkpt lat="42.7839162" lon="10.3674612"><ele>161.20000000000002</ele><time>2026-04-18T07:49:42.51Z</time></trkpt><trkpt lat="42.7840103" lon="10.3674133"><ele>159.60000000000002</ele><time>2026-04-18T07:49:43.507Z</time></trkpt><trkpt lat="42.7841071" lon="10.3673705"><ele>158.0</ele><time>2026-04-18T07:49:44.502Z</time></trkpt><trkpt lat="42.7842037" lon="10.3673322"><ele>158.0</ele><time>2026-04-18T07:49:45.51Z</time></trkpt><trkpt lat="42.7842925" lon="10.3672855"><ele>158.0</ele><time>2026-04-18T07:49:46.503Z</time></trkpt><trkpt lat="42.7843729" lon="10.367219"><ele>158.0</ele><time>2026-04-18T07:49:47.505Z</time></trkpt><trkpt lat="42.7844379" lon="10.3671359"><ele>158.0</ele><time>2026-04-18T07:49:48.51Z</time></trkpt><trkpt lat="42.7844897" lon="10.3670403"><ele>158.0</ele><time>2026-04-18T07:49:49.511Z</time></trkpt><trkpt lat="42.7845307" lon="10.3669335"><ele>157.20000000000002</ele><time>2026-04-18T07:49:50.508Z</time></trkpt><trkpt lat="42.7845635" lon="10.3668148"><ele>156.4</ele><time>2026-04-18T07:49:51.509Z</time></trkpt><trkpt lat="42.7845943" lon="10.3666878"><ele>155.60000000000002</ele><time>2026-04-18T07:49:52.516Z</time></trkpt><trkpt lat="42.784616" lon="10.366555"><ele>154.8</ele><time>2026-04-18T07:49:53.507Z</time></trkpt><trkpt lat="42.7846344" lon="10.366426"><ele>154.0</ele><time>2026-04-18T07:49:54.516Z</time></trkpt><trkpt lat="42.7846511" lon="10.3663136"><ele>154.0</ele><time>2026-04-18T07:49:55.506Z</time></trkpt><trkpt lat="42.784674" lon="10.3662115"><ele>154.0</ele><time>2026-04-18T07:49:56.505Z</time></trkpt><trkpt lat="42.7847091" lon="10.3661153"><ele>154.0</ele><time>2026-04-18T07:49:57.505Z</time></trkpt><trkpt lat="42.7847557" lon="10.3660218"><ele>154.0</ele><time>2026-04-18T07:49:58.508Z</time></trkpt><trkpt lat="42.7848205" lon="10.3659375"><ele>154.0</ele><time>2026-04-18T07:49:59.51Z</time></trkpt><trkpt lat="42.784886" lon="10.3658518"><ele>154.0</ele><time>2026-04-18T07:50:00.505Z</time></trkpt><trkpt lat="42.7849412" lon="10.3657534"><ele>154.0</ele><time>2026-04-18T07:50:01.51Z</time></trkpt><trkpt lat="42.7849809" lon="10.3656485"><ele>154.0</ele><time>2026-04-18T07:50:02.504Z</time></trkpt><trkpt lat="42.7850142" lon="10.3655417"><ele>154.0</ele><time>2026-04-18T07:50:03.508Z</time></trkpt><trkpt lat="42.7850399" lon="10.3654363"><ele>154.0</ele><time>2026-04-18T07:50:04.508Z</time></trkpt><trkpt lat="42.785062" lon="10.3653234"><ele>154.0</ele><time>2026-04-18T07:50:05.51Z</time></trkpt><trkpt lat="42.7850913" lon="10.365202"><ele>154.0</ele><time>2026-04-18T07:50:06.508Z</time></trkpt><trkpt lat="42.7851351" lon="10.3650825"><ele>153.6</ele><time>2026-04-18T07:50:07.51Z</time></trkpt><trkpt lat="42.7851884" lon="10.3649597"><ele>153.2</ele><time>2026-04-18T07:50:08.51Z</time></trkpt><trkpt lat="42.7852467" lon="10.3648455"><ele>152.79999999999998</ele><time>2026-04-18T07:50:09.509Z</time></trkpt><trkpt lat="42.7853001" lon="10.3647396"><ele>152.4</ele><time>2026-04-18T07:50:10.507Z</time></trkpt><trkpt lat="42.7853545" lon="10.3646399"><ele>152.0</ele><time>2026-04-18T07:50:11.508Z</time></trkpt><trkpt lat="42.7854135" lon="10.3645491"><ele>151.33333333333331</ele><time>2026-04-18T07:50:12.506Z</time></trkpt><trkpt lat="42.7854665" lon="10.3644611"><ele>150.66666666666666</ele><time>2026-04-18T07:50:13.512Z</time></trkpt><trkpt lat="42.7855143" lon="10.3643781"><ele>150.0</ele><time>2026-04-18T07:50:14.503Z</time></trkpt><trkpt lat="42.7855535" lon="10.3642892"><ele>149.33333333333334</ele><time>2026-04-18T07:50:15.502Z</time></trkpt><trkpt lat="42.7855894" lon="10.3641882"><ele>148.66666666666669</ele><time>2026-04-18T07:50:16.504Z</time></trkpt><trkpt lat="42.7856227" lon="10.3640736"><ele>148.0</ele><time>2026-04-18T07:50:17.509Z</time></trkpt><trkpt lat="42.7856536" lon="10.3639493"><ele>146.20000000000002</ele><time>2026-04-18T07:50:18.506Z</time></trkpt><trkpt lat="42.7856825" lon="10.3638242"><ele>144.4</ele><time>2026-04-18T07:50:19.501Z</time></trkpt><trkpt lat="42.785716" lon="10.3637011"><ele>142.60000000000002</ele><time>2026-04-18T07:50:20.498Z</time></trkpt><trkpt lat="42.7857494" lon="10.3635763"><ele>140.8</ele><time>2026-04-18T07:50:21.502Z</time></trkpt><trkpt lat="42.7857772" lon="10.3634491"><ele>139.0</ele><time>2026-04-18T07:50:22.511Z</time></trkpt><trkpt lat="42.7857928" lon="10.3633196"><ele>139.0</ele><time>2026-04-18T07:50:23.501Z</time></trkpt><trkpt lat="42.7857944" lon="10.3631867"><ele>139.0</ele><time>2026-04-18T07:50:24.501Z</time></trkpt><trkpt lat="42.7857724" lon="10.3630525"><ele>139.0</ele><time>2026-04-18T07:50:25.504Z</time></trkpt><trkpt lat="42.7857265" lon="10.3629203"><ele>139.0</ele><time>2026-04-18T07:50:26.501Z</time></trkpt><trkpt lat="42.7856632" lon="10.3627974"><ele>139.0</ele><time>2026-04-18T07:50:27.502Z</time></trkpt><trkpt lat="42.785602" lon="10.3626712"><ele>138.6</ele><time>2026-04-18T07:50:28.5Z</time></trkpt><trkpt lat="42.7855621" lon="10.3625409"><ele>138.2</ele><time>2026-04-18T07:50:29.498Z</time></trkpt><trkpt lat="42.7855461" lon="10.3624049"><ele>137.79999999999998</ele><time>2026-04-18T07:50:30.497Z</time></trkpt><trkpt lat="42.785548" lon="10.3622612"><ele>137.4</ele><time>2026-04-18T07:50:31.497Z</time></trkpt><trkpt lat="42.7855556" lon="10.362113"><ele>137.0</ele><time>2026-04-18T07:50:32.503Z</time></trkpt><trkpt lat="42.7855524" lon="10.3619729"><ele>136.6</ele><time>2026-04-18T07:50:33.5Z</time></trkpt><trkpt lat="42.7855339" lon="10.3618383"><ele>136.2</ele><time>2026-04-18T07:50:34.496Z</time></trkpt><trkpt lat="42.785499" lon="10.3617176"><ele>135.8</ele><time>2026-04-18T07:50:35.498Z</time></trkpt><trkpt lat="42.7854465" lon="10.3616017"><ele>135.4</ele><time>2026-04-18T07:50:36.502Z</time></trkpt><trkpt lat="42.7853858" lon="10.3614847"><ele>135.0</ele><time>2026-04-18T07:50:37.501Z</time></trkpt><trkpt lat="42.7853227" lon="10.3613677"><ele>133.33333333333334</ele><time>2026-04-18T07:50:38.493Z</time></trkpt><trkpt lat="42.7852689" lon="10.361251"><ele>131.66666666666666</ele><time>2026-04-18T07:50:39.504Z</time></trkpt><trkpt lat="42.7852336" lon="10.3611386"><ele>130.0</ele><time>2026-04-18T07:50:40.502Z</time></trkpt><trkpt lat="42.7852204" lon="10.3610288"><ele>128.33333333333331</ele><time>2026-04-18T07:50:41.504Z</time></trkpt><trkpt lat="42.7852323" lon="10.3609264"><ele>126.66666666666666</ele><time>2026-04-18T07:50:42.504Z</time></trkpt><trkpt lat="42.7852647" lon="10.3608326"><ele>125.0</ele><time>2026-04-18T07:50:43.505Z</time></trkpt><trkpt lat="42.7853128" lon="10.3607479"><ele>124.99999999999999</ele><time>2026-04-18T07:50:44.522Z</time></trkpt><trkpt lat="42.7853752" lon="10.3606727"><ele>125.0</ele><time>2026-04-18T07:50:45.504Z</time></trkpt><trkpt lat="42.7854462" lon="10.3606066"><ele>125.0</ele><time>2026-04-18T07:50:46.506Z</time></trkpt><trkpt lat="42.7855209" lon="10.3605426"><ele>125.0</ele><time>2026-04-18T07:50:47.501Z</time></trkpt><trkpt lat="42.7855963" lon="10.3604733"><ele>124.99999999999999</ele><time>2026-04-18T07:50:48.503Z</time></trkpt><trkpt lat="42.7856575" lon="10.3603844"><ele>125.0</ele><time>2026-04-18T07:50:49.501Z</time></trkpt><trkpt lat="42.7856917" lon="10.3602824"><ele>121.75</ele><time>2026-04-18T07:50:50.501Z</time></trkpt><trkpt lat="42.7856805" lon="10.3601636"><ele>118.5</ele><time>2026-04-18T07:50:51.507Z</time></trkpt><trkpt lat="42.7856194" lon="10.360038"><ele>115.25</ele><time>2026-04-18T07:50:52.518Z</time></trkpt><trkpt lat="42.7855246" lon="10.3599096"><ele>112.0</ele><time>2026-04-18T07:50:53.502Z</time></trkpt><trkpt lat="42.7854285" lon="10.3597848"><ele>109.39999999999999</ele><time>2026-04-18T07:50:54.501Z</time></trkpt><trkpt lat="42.7853414" lon="10.3596661"><ele>106.79999999999998</ele><time>2026-04-18T07:50:55.505Z</time></trkpt><trkpt lat="42.7852607" lon="10.3595565"><ele>104.2</ele><time>2026-04-18T07:50:56.502Z</time></trkpt><trkpt lat="42.7851836" lon="10.3594578"><ele>101.6</ele><time>2026-04-18T07:50:57.51Z</time></trkpt><trkpt lat="42.7851121" lon="10.3593731"><ele>99.0</ele><time>2026-04-18T07:50:58.506Z</time></trkpt><trkpt lat="42.7850428" lon="10.3592988"><ele>99.0</ele><time>2026-04-18T07:50:59.505Z</time></trkpt><trkpt lat="42.7849716" lon="10.359228"><ele>99.0</ele><time>2026-04-18T07:51:00.508Z</time></trkpt><trkpt lat="42.7848975" lon="10.3591574"><ele>99.0</ele><time>2026-04-18T07:51:01.512Z</time></trkpt><trkpt lat="42.7848258" lon="10.3590916"><ele>99.0</ele><time>2026-04-18T07:51:02.506Z</time></trkpt><trkpt lat="42.784753" lon="10.3590305"><ele>99.0</ele><time>2026-04-18T07:51:03.506Z</time></trkpt><trkpt lat="42.7846808" lon="10.358975"><ele>99.0</ele><time>2026-04-18T07:51:04.508Z</time></trkpt><trkpt lat="42.7846111" lon="10.3589216"><ele>98.0</ele><time>2026-04-18T07:51:05.502Z</time></trkpt><trkpt lat="42.7845461" lon="10.3588631"><ele>97.0</ele><time>2026-04-18T07:51:06.507Z</time></trkpt><trkpt lat="42.7844862" lon="10.358798"><ele>96.0</ele><time>2026-04-18T07:51:07.504Z</time></trkpt><trkpt lat="42.784446" lon="10.3587178"><ele>95.0</ele><time>2026-04-18T07:51:08.51Z</time></trkpt><trkpt lat="42.7844334" lon="10.3586269"><ele>94.0</ele><time>2026-04-18T07:51:09.51Z</time></trkpt><trkpt lat="42.784451" lon="10.3585276"><ele>93.0</ele><time>2026-04-18T07:51:10.504Z</time></trkpt><trkpt lat="42.7844858" lon="10.3584212"><ele>93.0</ele><time>2026-04-18T07:51:11.512Z</time></trkpt><trkpt lat="42.7845222" lon="10.3583092"><ele>93.0</ele><time>2026-04-18T07:51:12.509Z</time></trkpt><trkpt lat="42.7845594" lon="10.3581934"><ele>93.0</ele><time>2026-04-18T07:51:13.508Z</time></trkpt><trkpt lat="42.7845912" lon="10.3580782"><ele>93.0</ele><time>2026-04-18T07:51:14.509Z</time></trkpt><trkpt lat="42.7846054" lon="10.3579575"><ele>93.0</ele><time>2026-04-18T07:51:15.516Z</time></trkpt><trkpt lat="42.7845973" lon="10.357831"><ele>91.4</ele><time>2026-04-18T07:51:16.51Z</time></trkpt><trkpt lat="42.784577" lon="10.3576982"><ele>89.80000000000001</ele><time>2026-04-18T07:51:17.511Z</time></trkpt><trkpt lat="42.7845588" lon="10.3575676"><ele>88.2</ele><time>2026-04-18T07:51:18.508Z</time></trkpt><trkpt lat="42.7845493" lon="10.3574484"><ele>86.6</ele><time>2026-04-18T07:51:19.506Z</time></trkpt><trkpt lat="42.7845443" lon="10.3573458"><ele>85.0</ele><time>2026-04-18T07:51:20.513Z</time></trkpt><trkpt lat="42.7845363" lon="10.357189"><ele>84.66666666666666</ele><time>2026-04-18T07:51:22.513Z</time></trkpt><trkpt lat="42.7844848" lon="10.3570974"><ele>84.33333333333333</ele><time>2026-04-18T07:51:24.511Z</time></trkpt><trkpt lat="42.7844232" lon="10.3570738"><ele>84.0</ele><time>2026-04-18T07:51:25.507Z</time></trkpt><trkpt lat="42.7843484" lon="10.357077"><ele>83.66666666666667</ele><time>2026-04-18T07:51:26.499Z</time></trkpt><trkpt lat="42.7842623" lon="10.3571029"><ele>83.33333333333334</ele><time>2026-04-18T07:51:27.504Z</time></trkpt><trkpt lat="42.7841849" lon="10.3571261"><ele>83.0</ele><time>2026-04-18T07:51:28.505Z</time></trkpt><trkpt lat="42.7841215" lon="10.3571236"><ele>84.16666666666667</ele><time>2026-04-18T07:51:29.503Z</time></trkpt><trkpt lat="42.7840185" lon="10.3570263"><ele>85.33333333333334</ele><time>2026-04-18T07:51:31.498Z</time></trkpt><trkpt lat="42.7839729" lon="10.3569495"><ele>86.5</ele><time>2026-04-18T07:51:32.5Z</time></trkpt><trkpt lat="42.7839161" lon="10.3568785"><ele>87.66666666666667</ele><time>2026-04-18T07:51:33.506Z</time></trkpt><trkpt lat="42.7838536" lon="10.3568174"><ele>88.83333333333333</ele><time>2026-04-18T07:51:34.5Z</time></trkpt><trkpt lat="42.7837891" lon="10.3567578"><ele>90.0</ele><time>2026-04-18T07:51:35.514Z</time></trkpt><trkpt lat="42.7837185" lon="10.3566966"><ele>90.0</ele><time>2026-04-18T07:51:36.508Z</time></trkpt><trkpt lat="42.7836466" lon="10.3566341"><ele>90.0</ele><time>2026-04-18T07:51:37.507Z</time></trkpt><trkpt lat="42.7835763" lon="10.3565761"><ele>90.0</ele><time>2026-04-18T07:51:38.508Z</time></trkpt><trkpt lat="42.7835113" lon="10.3565221"><ele>90.0</ele><time>2026-04-18T07:51:39.504Z</time></trkpt><trkpt lat="42.7834441" lon="10.3564726"><ele>90.0</ele><time>2026-04-18T07:51:40.509Z</time></trkpt><trkpt lat="42.7833718" lon="10.3564246"><ele>90.0</ele><time>2026-04-18T07:51:41.505Z</time></trkpt><trkpt lat="42.7832949" lon="10.3563768"><ele>90.2</ele><time>2026-04-18T07:51:42.51Z</time></trkpt><trkpt lat="42.7832124" lon="10.3563358"><ele>90.4</ele><time>2026-04-18T07:51:43.515Z</time></trkpt><trkpt lat="42.7831275" lon="10.3563014"><ele>90.6</ele><time>2026-04-18T07:51:44.511Z</time></trkpt><trkpt lat="42.7830376" lon="10.3562736"><ele>90.8</ele><time>2026-04-18T07:51:45.51Z</time></trkpt><trkpt lat="42.7829449" lon="10.3562482"><ele>91.0</ele><time>2026-04-18T07:51:46.518Z</time></trkpt><trkpt lat="42.7828501" lon="10.3562203"><ele>91.0</ele><time>2026-04-18T07:51:47.51Z</time></trkpt><trkpt lat="42.7827568" lon="10.3561777"><ele>91.0</ele><time>2026-04-18T07:51:48.509Z</time></trkpt><trkpt lat="42.7826719" lon="10.3561249"><ele>91.0</ele><time>2026-04-18T07:51:49.502Z</time></trkpt><trkpt lat="42.7825919" lon="10.3560561"><ele>91.0</ele><time>2026-04-18T07:51:50.507Z</time></trkpt><trkpt lat="42.7825153" lon="10.355985"><ele>91.0</ele><time>2026-04-18T07:51:51.509Z</time></trkpt><trkpt lat="42.7824417" lon="10.3559132"><ele>90.83333333333333</ele><time>2026-04-18T07:51:52.516Z</time></trkpt><trkpt lat="42.7823736" lon="10.3558502"><ele>90.66666666666666</ele><time>2026-04-18T07:51:53.509Z</time></trkpt><trkpt lat="42.7823091" lon="10.3557951"><ele>90.5</ele><time>2026-04-18T07:51:54.515Z</time></trkpt><trkpt lat="42.7822454" lon="10.3557359"><ele>90.33333333333333</ele><time>2026-04-18T07:51:55.51Z</time></trkpt><trkpt lat="42.7821834" lon="10.3556723"><ele>90.16666666666667</ele><time>2026-04-18T07:51:56.512Z</time></trkpt><trkpt lat="42.7821272" lon="10.3556025"><ele>90.0</ele><time>2026-04-18T07:51:57.51Z</time></trkpt><trkpt lat="42.7820781" lon="10.3555268"><ele>90.0</ele><time>2026-04-18T07:51:58.51Z</time></trkpt><trkpt lat="42.7820334" lon="10.3554451"><ele>90.0</ele><time>2026-04-18T07:51:59.515Z</time></trkpt><trkpt lat="42.7819929" lon="10.3553577"><ele>90.0</ele><time>2026-04-18T07:52:00.51Z</time></trkpt><trkpt lat="42.7819551" lon="10.3552638"><ele>90.0</ele><time>2026-04-18T07:52:01.51Z</time></trkpt><trkpt lat="42.7819184" lon="10.3551653"><ele>90.0</ele><time>2026-04-18T07:52:02.511Z</time></trkpt><trkpt lat="42.7818881" lon="10.3550662"><ele>90.0</ele><time>2026-04-18T07:52:03.521Z</time></trkpt><trkpt lat="42.7818613" lon="10.3549633"><ele>88.4</ele><time>2026-04-18T07:52:04.52Z</time></trkpt><trkpt lat="42.7818345" lon="10.3548528"><ele>86.8</ele><time>2026-04-18T07:52:05.52Z</time></trkpt><trkpt lat="42.7818133" lon="10.3547276"><ele>85.19999999999999</ele><time>2026-04-18T07:52:06.521Z</time></trkpt><trkpt lat="42.7818117" lon="10.35459"><ele>83.6</ele><time>2026-04-18T07:52:07.514Z</time></trkpt><trkpt lat="42.7818331" lon="10.3544503"><ele>82.0</ele><time>2026-04-18T07:52:08.514Z</time></trkpt><trkpt lat="42.7818638" lon="10.3543212"><ele>82.0</ele><time>2026-04-18T07:52:09.516Z</time></trkpt><trkpt lat="42.7818981" lon="10.3542105"><ele>82.0</ele><time>2026-04-18T07:52:10.511Z</time></trkpt><trkpt lat="42.7819332" lon="10.3541166"><ele>82.0</ele><time>2026-04-18T07:52:11.509Z</time></trkpt><trkpt lat="42.7819636" lon="10.3540386"><ele>82.0</ele><time>2026-04-18T07:52:12.506Z</time></trkpt><trkpt lat="42.7820086" lon="10.3539561"><ele>82.0</ele><time>2026-04-18T07:52:14.505Z</time></trkpt><trkpt lat="42.7819329" lon="10.3539448"><ele>82.0</ele><time>2026-04-18T07:52:20.504Z</time></trkpt><trkpt lat="42.7818182" lon="10.353904"><ele>78.5</ele><time>2026-04-18T07:52:22.507Z</time></trkpt><trkpt lat="42.7817576" lon="10.3538558"><ele>75.0</ele><time>2026-04-18T07:52:23.503Z</time></trkpt><trkpt lat="42.7816885" lon="10.3537946"><ele>71.5</ele><time>2026-04-18T07:52:24.508Z</time></trkpt><trkpt lat="42.7816166" lon="10.3537275"><ele>68.0</ele><time>2026-04-18T07:52:25.502Z</time></trkpt><trkpt lat="42.7815467" lon="10.3536647"><ele>64.5</ele><time>2026-04-18T07:52:26.506Z</time></trkpt><trkpt lat="42.7814831" lon="10.3536103"><ele>61.0</ele><time>2026-04-18T07:52:27.506Z</time></trkpt><trkpt lat="42.7814214" lon="10.3535629"><ele>60.99999999999999</ele><time>2026-04-18T07:52:28.513Z</time></trkpt><trkpt lat="42.7813601" lon="10.3535207"><ele>61.0</ele><time>2026-04-18T07:52:29.507Z</time></trkpt><trkpt lat="42.7813001" lon="10.3534769"><ele>61.0</ele><time>2026-04-18T07:52:30.515Z</time></trkpt><trkpt lat="42.7812445" lon="10.3534262"><ele>61.0</ele><time>2026-04-18T07:52:31.516Z</time></trkpt><trkpt lat="42.7811472" lon="10.3533354"><ele>60.99999999999999</ele><time>2026-04-18T07:52:33.515Z</time></trkpt><trkpt lat="42.7810599" lon="10.3532423"><ele>61.0</ele><time>2026-04-18T07:52:35.511Z</time></trkpt><trkpt lat="42.7809735" lon="10.3531933"><ele>59.83333333333333</ele><time>2026-04-18T07:52:37.514Z</time></trkpt><trkpt lat="42.780914" lon="10.353148"><ele>58.666666666666664</ele><time>2026-04-18T07:52:39.514Z</time></trkpt><trkpt lat="42.780868" lon="10.3530834"><ele>57.5</ele><time>2026-04-18T07:52:41.514Z</time></trkpt><trkpt lat="42.7807974" lon="10.3530157"><ele>56.33333333333333</ele><time>2026-04-18T07:52:43.51Z</time></trkpt><trkpt lat="42.7807259" lon="10.3529637"><ele>55.166666666666664</ele><time>2026-04-18T07:52:45.508Z</time></trkpt><trkpt lat="42.7806369" lon="10.3528989"><ele>54.0</ele><time>2026-04-18T07:52:47.518Z</time></trkpt><trkpt lat="42.7805449" lon="10.3528177"><ele>52.666666666666664</ele><time>2026-04-18T07:52:49.517Z</time></trkpt><trkpt lat="42.7804435" lon="10.3527075"><ele>51.333333333333336</ele><time>2026-04-18T07:52:51.52Z</time></trkpt><trkpt lat="42.7803821" lon="10.3526463"><ele>50.0</ele><time>2026-04-18T07:52:52.523Z</time></trkpt><trkpt lat="42.7803141" lon="10.3525881"><ele>48.66666666666667</ele><time>2026-04-18T07:52:53.516Z</time></trkpt><trkpt lat="42.7802495" lon="10.3525374"><ele>47.333333333333336</ele><time>2026-04-18T07:52:54.52Z</time></trkpt><trkpt lat="42.7801908" lon="10.3524989"><ele>46.0</ele><time>2026-04-18T07:52:55.508Z</time></trkpt><trkpt lat="42.780099" lon="10.3524547"><ele>45.333333333333336</ele><time>2026-04-18T07:52:57.517Z</time></trkpt><trkpt lat="42.7800405" lon="10.3525323"><ele>44.66666666666667</ele><time>2026-04-18T07:53:00.513Z</time></trkpt><trkpt lat="42.780026" lon="10.3526337"><ele>44.0</ele><time>2026-04-18T07:53:02.517Z</time></trkpt><trkpt lat="42.7800125" lon="10.3527869"><ele>43.333333333333336</ele><time>2026-04-18T07:53:04.514Z</time></trkpt><trkpt lat="42.7800011" lon="10.352884"><ele>42.666666666666664</ele><time>2026-04-18T07:53:05.516Z</time></trkpt><trkpt lat="42.7799866" lon="10.3529903"><ele>42.0</ele><time>2026-04-18T07:53:06.517Z</time></trkpt><trkpt lat="42.779972" lon="10.3530961"><ele>42.0</ele><time>2026-04-18T07:53:07.513Z</time></trkpt><trkpt lat="42.7799596" lon="10.3531899"><ele>42.0</ele><time>2026-04-18T07:53:08.522Z</time></trkpt><trkpt lat="42.7799349" lon="10.3533342"><ele>42.0</ele><time>2026-04-18T07:53:10.518Z</time></trkpt><trkpt lat="42.7798997" lon="10.3534197"><ele>42.0</ele><time>2026-04-18T07:53:12.514Z</time></trkpt><trkpt lat="42.7798533" lon="10.3534855"><ele>42.0</ele><time>2026-04-18T07:53:14.513Z</time></trkpt><trkpt lat="42.7797921" lon="10.3535421"><ele>42.0</ele><time>2026-04-18T07:53:16.509Z</time></trkpt><trkpt lat="42.7797026" lon="10.3536199"><ele>42.0</ele><time>2026-04-18T07:53:18.518Z</time></trkpt><trkpt lat="42.7796108" lon="10.353699"><ele>42.0</ele><time>2026-04-18T07:53:20.514Z</time></trkpt><trkpt lat="42.779518" lon="10.353807"><ele>42.0</ele><time>2026-04-18T07:53:22.52Z</time></trkpt><trkpt lat="42.7794752" lon="10.353959"><ele>42.0</ele><time>2026-04-18T07:53:24.515Z</time></trkpt><trkpt lat="42.7794643" lon="10.354048"><ele>42.0</ele><time>2026-04-18T07:53:25.514Z</time></trkpt><trkpt lat="42.7794596" lon="10.3541448"><ele>42.333333333333336</ele><time>2026-04-18T07:53:26.516Z</time></trkpt><trkpt lat="42.7794615" lon="10.3542492"><ele>42.666666666666664</ele><time>2026-04-18T07:53:27.509Z</time></trkpt><trkpt lat="42.7794666" lon="10.354361"><ele>43.0</ele><time>2026-04-18T07:53:28.517Z</time></trkpt><trkpt lat="42.7794749" lon="10.3544748"><ele>43.33333333333333</ele><time>2026-04-18T07:53:29.514Z</time></trkpt><trkpt lat="42.7794868" lon="10.3545832"><ele>43.666666666666664</ele><time>2026-04-18T07:53:30.519Z</time></trkpt><trkpt lat="42.7794987" lon="10.3546864"><ele>44.0</ele><time>2026-04-18T07:53:31.517Z</time></trkpt><trkpt lat="42.7795094" lon="10.3547888"><ele>44.33333333333333</ele><time>2026-04-18T07:53:32.517Z</time></trkpt><trkpt lat="42.7795169" lon="10.3548913"><ele>44.666666666666664</ele><time>2026-04-18T07:53:33.517Z</time></trkpt><trkpt lat="42.7795264" lon="10.3549943"><ele>45.0</ele><time>2026-04-18T07:53:34.517Z</time></trkpt><trkpt lat="42.779536" lon="10.3550927"><ele>45.333333333333336</ele><time>2026-04-18T07:53:35.52Z</time></trkpt><trkpt lat="42.7795495" lon="10.3551766"><ele>45.66666666666667</ele><time>2026-04-18T07:53:36.512Z</time></trkpt><trkpt lat="42.779583" lon="10.3553184"><ele>46.0</ele><time>2026-04-18T07:53:38.519Z</time></trkpt><trkpt lat="42.7796303" lon="10.3554628"><ele>46.199999999999996</ele><time>2026-04-18T07:53:40.518Z</time></trkpt><trkpt lat="42.7796761" lon="10.3556028"><ele>46.4</ele><time>2026-04-18T07:53:42.517Z</time></trkpt><trkpt lat="42.7797162" lon="10.3557239"><ele>46.6</ele><time>2026-04-18T07:53:44.519Z</time></trkpt><trkpt lat="42.7797402" lon="10.355822"><ele>46.8</ele><time>2026-04-18T07:53:46.516Z</time></trkpt><trkpt lat="42.7797196" lon="10.3559551"><ele>47.0</ele><time>2026-04-18T07:53:49.516Z</time></trkpt><trkpt lat="42.7796892" lon="10.3560549"><ele>47.0</ele><time>2026-04-18T07:53:51.514Z</time></trkpt><trkpt lat="42.7796586" lon="10.3561648"><ele>47.0</ele><time>2026-04-18T07:53:53.515Z</time></trkpt><trkpt lat="42.7796269" lon="10.3562812"><ele>47.0</ele><time>2026-04-18T07:53:55.516Z</time></trkpt><trkpt lat="42.7796005" lon="10.356378"><ele>47.0</ele><time>2026-04-18T07:53:57.521Z</time></trkpt><trkpt lat="42.7795724" lon="10.3564761"><ele>47.0</ele><time>2026-04-18T07:53:59.527Z</time></trkpt><trkpt lat="42.7795415" lon="10.3565711"><ele>47.0</ele><time>2026-04-18T07:54:01.525Z</time></trkpt><trkpt lat="42.7795049" lon="10.3566455"><ele>47.33333333333333</ele><time>2026-04-18T07:54:03.516Z</time></trkpt><trkpt lat="42.779476" lon="10.3567305"><ele>47.666666666666664</ele><time>2026-04-18T07:54:05.516Z</time></trkpt><trkpt lat="42.779471" lon="10.3568653"><ele>48.0</ele><time>2026-04-18T07:54:07.519Z</time></trkpt><trkpt lat="42.7794673" lon="10.3569683"><ele>48.33333333333333</ele><time>2026-04-18T07:54:09.515Z</time></trkpt><trkpt lat="42.7794392" lon="10.3570514"><ele>48.666666666666664</ele><time>2026-04-18T07:54:15.516Z</time></trkpt><trkpt lat="42.7793466" lon="10.3570249"><ele>49.0</ele><time>2026-04-18T07:54:18.517Z</time></trkpt><trkpt lat="42.7792375" lon="10.3569876"><ele>51.33333333333333</ele><time>2026-04-18T07:54:20.509Z</time></trkpt><trkpt lat="42.7791565" lon="10.3569725"><ele>53.666666666666664</ele><time>2026-04-18T07:54:21.513Z</time></trkpt><trkpt lat="42.7790647" lon="10.3569617"><ele>56.0</ele><time>2026-04-18T07:54:22.512Z</time></trkpt><trkpt lat="42.7789776" lon="10.3569508"><ele>58.33333333333333</ele><time>2026-04-18T07:54:23.515Z</time></trkpt><trkpt lat="42.7789039" lon="10.3569435"><ele>60.666666666666664</ele><time>2026-04-18T07:54:24.515Z</time></trkpt><trkpt lat="42.7788007" lon="10.3569321"><ele>63.0</ele><time>2026-04-18T07:54:26.515Z</time></trkpt><trkpt lat="42.7787647" lon="10.3570068"><ele>63.0</ele><time>2026-04-18T07:54:28.516Z</time></trkpt><trkpt lat="42.7787835" lon="10.3571786"><ele>63.0</ele><time>2026-04-18T07:54:30.519Z</time></trkpt><trkpt lat="42.7787986" lon="10.3572965"><ele>63.0</ele><time>2026-04-18T07:54:31.516Z</time></trkpt><trkpt lat="42.7788092" lon="10.3574087"><ele>63.0</ele><time>2026-04-18T07:54:32.515Z</time></trkpt><trkpt lat="42.7788148" lon="10.3575098"><ele>63.0</ele><time>2026-04-18T07:54:33.517Z</time></trkpt><trkpt lat="42.7788166" lon="10.357607"><ele>63.0</ele><time>2026-04-18T07:54:34.516Z</time></trkpt><trkpt lat="42.7788199" lon="10.3576992"><ele>62.8</ele><time>2026-04-18T07:54:35.519Z</time></trkpt><trkpt lat="42.7788198" lon="10.3578663"><ele>62.599999999999994</ele><time>2026-04-18T07:54:37.518Z</time></trkpt><trkpt lat="42.7788221" lon="10.3580235"><ele>62.400000000000006</ele><time>2026-04-18T07:54:39.516Z</time></trkpt><trkpt lat="42.7788289" lon="10.3581427"><ele>62.2</ele><time>2026-04-18T07:54:41.522Z</time></trkpt><trkpt lat="42.778767" lon="10.3580828"><ele>62.0</ele><time>2026-04-18T07:54:47.521Z</time></trkpt><trkpt lat="42.7786832" lon="10.357948"><ele>62.00000000000001</ele><time>2026-04-18T07:54:49.522Z</time></trkpt><trkpt lat="42.7786236" lon="10.3578739"><ele>62.0</ele><time>2026-04-18T07:54:50.52Z</time></trkpt><trkpt lat="42.7785655" lon="10.3577998"><ele>62.0</ele><time>2026-04-18T07:54:51.519Z</time></trkpt><trkpt lat="42.7785082" lon="10.3577263"><ele>62.0</ele><time>2026-04-18T07:54:52.535Z</time></trkpt><trkpt lat="42.7784502" lon="10.3576534"><ele>62.00000000000001</ele><time>2026-04-18T07:54:53.516Z</time></trkpt><trkpt lat="42.7783968" lon="10.3575822"><ele>62.0</ele><time>2026-04-18T07:54:54.514Z</time></trkpt><trkpt lat="42.77835" lon="10.3575002"><ele>62.00000000000001</ele><time>2026-04-18T07:54:55.516Z</time></trkpt><trkpt lat="42.7783202" lon="10.357405"><ele>62.0</ele><time>2026-04-18T07:54:56.518Z</time></trkpt><trkpt lat="42.7783037" lon="10.3573028"><ele>62.0</ele><time>2026-04-18T07:54:57.513Z</time></trkpt><trkpt lat="42.7783035" lon="10.3571961"><ele>62.0</ele><time>2026-04-18T07:54:58.519Z</time></trkpt><trkpt lat="42.7783095" lon="10.3570936"><ele>62.00000000000001</ele><time>2026-04-18T07:54:59.521Z</time></trkpt><trkpt lat="42.7783122" lon="10.3570023"><ele>62.0</ele><time>2026-04-18T07:55:00.515Z</time></trkpt><trkpt lat="42.7782673" lon="10.3568735"><ele>62.00000000000001</ele><time>2026-04-18T07:55:02.517Z</time></trkpt><trkpt lat="42.7781989" lon="10.3568537"><ele>62.0</ele><time>2026-04-18T07:55:03.512Z</time></trkpt><trkpt lat="42.7781202" lon="10.3568448"><ele>62.0</ele><time>2026-04-18T07:55:04.511Z</time></trkpt><trkpt lat="42.778044" lon="10.356831"><ele>62.0</ele><time>2026-04-18T07:55:05.507Z</time></trkpt><trkpt lat="42.7779676" lon="10.3568089"><ele>62.00000000000001</ele><time>2026-04-18T07:55:06.508Z</time></trkpt><trkpt lat="42.7778911" lon="10.3567834"><ele>62.0</ele><time>2026-04-18T07:55:07.511Z</time></trkpt><trkpt lat="42.7778128" lon="10.3567588"><ele>62.0</ele><time>2026-04-18T07:55:08.509Z</time></trkpt><trkpt lat="42.7777317" lon="10.3567375"><ele>62.0</ele><time>2026-04-18T07:55:09.508Z</time></trkpt><trkpt lat="42.7776513" lon="10.3567141"><ele>62.0</ele><time>2026-04-18T07:55:10.501Z</time></trkpt><trkpt lat="42.7775647" lon="10.3566813"><ele>62.0</ele><time>2026-04-18T07:55:11.52Z</time></trkpt><trkpt lat="42.777466" lon="10.3566515"><ele>62.0</ele><time>2026-04-18T07:55:12.513Z</time></trkpt><trkpt lat="42.7773654" lon="10.3566243"><ele>60.00000000000001</ele><time>2026-04-18T07:55:13.515Z</time></trkpt><trkpt lat="42.7772708" lon="10.3566031"><ele>58.0</ele><time>2026-04-18T07:55:14.513Z</time></trkpt><trkpt lat="42.7771844" lon="10.3565842"><ele>56.0</ele><time>2026-04-18T07:55:15.511Z</time></trkpt><trkpt lat="42.777103" lon="10.3565653"><ele>54.0</ele><time>2026-04-18T07:55:16.516Z</time></trkpt><trkpt lat="42.7770235" lon="10.3565448"><ele>52.00000000000001</ele><time>2026-04-18T07:55:17.515Z</time></trkpt><trkpt lat="42.7769415" lon="10.3565223"><ele>50.0</ele><time>2026-04-18T07:55:18.518Z</time></trkpt><trkpt lat="42.7768584" lon="10.3565023"><ele>49.16666666666667</ele><time>2026-04-18T07:55:19.515Z</time></trkpt><trkpt lat="42.7767726" lon="10.3564829"><ele>48.333333333333336</ele><time>2026-04-18T07:55:20.512Z</time></trkpt><trkpt lat="42.7766847" lon="10.3564593"><ele>47.5</ele><time>2026-04-18T07:55:21.512Z</time></trkpt><trkpt lat="42.776597" lon="10.3564326"><ele>46.66666666666667</ele><time>2026-04-18T07:55:22.519Z</time></trkpt><trkpt lat="42.7765142" lon="10.3564002"><ele>45.833333333333336</ele><time>2026-04-18T07:55:23.519Z</time></trkpt><trkpt lat="42.776429" lon="10.356369"><ele>45.0</ele><time>2026-04-18T07:55:24.508Z</time></trkpt><trkpt lat="42.7763387" lon="10.3563378"><ele>45.4</ele><time>2026-04-18T07:55:25.516Z</time></trkpt><trkpt lat="42.7762452" lon="10.3563073"><ele>45.8</ele><time>2026-04-18T07:55:26.519Z</time></trkpt><trkpt lat="42.7761484" lon="10.356273"><ele>46.2</ele><time>2026-04-18T07:55:27.519Z</time></trkpt><trkpt lat="42.7760479" lon="10.3562341"><ele>46.6</ele><time>2026-04-18T07:55:28.514Z</time></trkpt><trkpt lat="42.7759467" lon="10.3561995"><ele>47.0</ele><time>2026-04-18T07:55:29.515Z</time></trkpt><trkpt lat="42.7758499" lon="10.3561727"><ele>47.0</ele><time>2026-04-18T07:55:30.524Z</time></trkpt><trkpt lat="42.7757629" lon="10.3561487"><ele>47.0</ele><time>2026-04-18T07:55:31.519Z</time></trkpt><trkpt lat="42.7756919" lon="10.3561246"><ele>47.0</ele><time>2026-04-18T07:55:32.524Z</time></trkpt><trkpt lat="42.7755939" lon="10.3561141"><ele>47.0</ele><time>2026-04-18T07:55:34.524Z</time></trkpt><trkpt lat="42.7755263" lon="10.3562329"><ele>47.0</ele><time>2026-04-18T07:55:36.518Z</time></trkpt><trkpt lat="42.7754851" lon="10.3563194"><ele>47.0</ele><time>2026-04-18T07:55:37.519Z</time></trkpt><trkpt lat="42.7754379" lon="10.3564103"><ele>45.4</ele><time>2026-04-18T07:55:38.519Z</time></trkpt><trkpt lat="42.7753923" lon="10.3564929"><ele>43.800000000000004</ele><time>2026-04-18T07:55:39.516Z</time></trkpt><trkpt lat="42.7753564" lon="10.356568"><ele>42.2</ele><time>2026-04-18T07:55:40.519Z</time></trkpt><trkpt lat="42.7753365" lon="10.3567026"><ele>40.6</ele><time>2026-04-18T07:55:42.525Z</time></trkpt><trkpt lat="42.775428" lon="10.3568141"><ele>39.0</ele><time>2026-04-18T07:55:44.517Z</time></trkpt><trkpt lat="42.7755054" lon="10.3568716"><ele>39.0</ele><time>2026-04-18T07:55:45.524Z</time></trkpt><trkpt lat="42.77559" lon="10.3569311"><ele>39.0</ele><time>2026-04-18T07:55:46.52Z</time></trkpt><trkpt lat="42.7756768" lon="10.3570028"><ele>39.0</ele><time>2026-04-18T07:55:47.518Z</time></trkpt><trkpt lat="42.775763" lon="10.3570778"><ele>39.0</ele><time>2026-04-18T07:55:48.52Z</time></trkpt><trkpt lat="42.7758438" lon="10.3571487"><ele>39.0</ele><time>2026-04-18T07:55:49.517Z</time></trkpt><trkpt lat="42.7759152" lon="10.3572158"><ele>38.714285714285715</ele><time>2026-04-18T07:55:50.52Z</time></trkpt><trkpt lat="42.7759746" lon="10.357283"><ele>38.42857142857142</ele><time>2026-04-18T07:55:51.516Z</time></trkpt><trkpt lat="42.7760116" lon="10.357359"><ele>38.14285714285714</ele><time>2026-04-18T07:55:52.521Z</time></trkpt><trkpt lat="42.7760323" lon="10.3574415"><ele>37.85714285714286</ele><time>2026-04-18T07:55:53.516Z</time></trkpt><trkpt lat="42.7760406" lon="10.3575391"><ele>37.57142857142857</ele><time>2026-04-18T07:55:54.525Z</time></trkpt><trkpt lat="42.7760323" lon="10.3576457"><ele>37.285714285714285</ele><time>2026-04-18T07:55:55.516Z</time></trkpt><trkpt lat="42.7760009" lon="10.3577564"><ele>37.0</ele><time>2026-04-18T07:55:56.521Z</time></trkpt><trkpt lat="42.7759499" lon="10.3578652"><ele>36.333333333333336</ele><time>2026-04-18T07:55:57.522Z</time></trkpt><trkpt lat="42.7758932" lon="10.3579649"><ele>35.66666666666667</ele><time>2026-04-18T07:55:58.519Z</time></trkpt><trkpt lat="42.7758402" lon="10.3580537"><ele>35.0</ele><time>2026-04-18T07:55:59.521Z</time></trkpt><trkpt lat="42.7757875" lon="10.3581424"><ele>34.333333333333336</ele><time>2026-04-18T07:56:00.52Z</time></trkpt><trkpt lat="42.7757339" lon="10.3582324"><ele>33.666666666666664</ele><time>2026-04-18T07:56:01.525Z</time></trkpt><trkpt lat="42.77568" lon="10.3583163"><ele>33.0</ele><time>2026-04-18T07:56:02.52Z</time></trkpt><trkpt lat="42.775629" lon="10.3583965"><ele>33.0</ele><time>2026-04-18T07:56:03.527Z</time></trkpt><trkpt lat="42.7755814" lon="10.3584752"><ele>33.0</ele><time>2026-04-18T07:56:04.526Z</time></trkpt><trkpt lat="42.7755349" lon="10.3585588"><ele>33.0</ele><time>2026-04-18T07:56:05.518Z</time></trkpt><trkpt lat="42.7754911" lon="10.3586488"><ele>33.0</ele><time>2026-04-18T07:56:06.52Z</time></trkpt><trkpt lat="42.7754469" lon="10.3587399"><ele>33.0</ele><time>2026-04-18T07:56:07.522Z</time></trkpt><trkpt lat="42.7754059" lon="10.3588295"><ele>33.0</ele><time>2026-04-18T07:56:08.517Z</time></trkpt><trkpt lat="42.7753694" lon="10.3589125"><ele>33.333333333333336</ele><time>2026-04-18T07:56:09.512Z</time></trkpt><trkpt lat="42.7752929" lon="10.3590098"><ele>33.666666666666664</ele><time>2026-04-18T07:56:11.524Z</time></trkpt><trkpt lat="42.7751782" lon="10.3589553"><ele>34.0</ele><time>2026-04-18T07:56:13.524Z</time></trkpt><trkpt lat="42.7751161" lon="10.3589127"><ele>34.33333333333333</ele><time>2026-04-18T07:56:14.523Z</time></trkpt><trkpt lat="42.7750518" lon="10.3588787"><ele>34.666666666666664</ele><time>2026-04-18T07:56:15.523Z</time></trkpt><trkpt lat="42.7749889" lon="10.3588611"><ele>35.0</ele><time>2026-04-18T07:56:16.525Z</time></trkpt><trkpt lat="42.7748893" lon="10.3589265"><ele>35.0</ele><time>2026-04-18T07:56:18.52Z</time></trkpt><trkpt lat="42.7748173" lon="10.3590554"><ele>35.0</ele><time>2026-04-18T07:56:20.52Z</time></trkpt><trkpt lat="42.7747898" lon="10.3591337"><ele>35.0</ele><time>2026-04-18T07:56:21.518Z</time></trkpt><trkpt lat="42.7747803" lon="10.35923"><ele>35.0</ele><time>2026-04-18T07:56:22.53Z</time></trkpt><trkpt lat="42.7747893" lon="10.3593389"><ele>35.0</ele><time>2026-04-18T07:56:23.52Z</time></trkpt><trkpt lat="42.7748029" lon="10.3594395"><ele>35.0</ele><time>2026-04-18T07:56:24.528Z</time></trkpt><trkpt lat="42.7748139" lon="10.3595332"><ele>35.0</ele><time>2026-04-18T07:56:25.526Z</time></trkpt><trkpt lat="42.774814" lon="10.3596717"><ele>35.0</ele><time>2026-04-18T07:56:27.514Z</time></trkpt><trkpt lat="42.7747454" lon="10.3597493"><ele>35.0</ele><time>2026-04-18T07:56:29.518Z</time></trkpt><trkpt lat="42.7746869" lon="10.3599048"><ele>35.0</ele><time>2026-04-18T07:56:31.519Z</time></trkpt><trkpt lat="42.7746888" lon="10.3600443"><ele>35.0</ele><time>2026-04-18T07:56:32.518Z</time></trkpt><trkpt lat="42.7746973" lon="10.3601766"><ele>35.6</ele><time>2026-04-18T07:56:33.521Z</time></trkpt><trkpt lat="42.7747066" lon="10.3603049"><ele>36.2</ele><time>2026-04-18T07:56:34.517Z</time></trkpt><trkpt lat="42.7747136" lon="10.3604255"><ele>36.8</ele><time>2026-04-18T07:56:35.518Z</time></trkpt><trkpt lat="42.7747217" lon="10.3605349"><ele>37.4</ele><time>2026-04-18T07:56:36.514Z</time></trkpt><trkpt lat="42.7747247" lon="10.3606213"><ele>38.0</ele><time>2026-04-18T07:56:37.514Z</time></trkpt><trkpt lat="42.774685" lon="10.3607906"><ele>38.83333333333333</ele><time>2026-04-18T07:56:39.521Z</time></trkpt><trkpt lat="42.7746437" lon="10.3608893"><ele>39.666666666666664</ele><time>2026-04-18T07:56:40.518Z</time></trkpt><trkpt lat="42.7746092" lon="10.3609994"><ele>40.5</ele><time>2026-04-18T07:56:41.525Z</time></trkpt><trkpt lat="42.7745779" lon="10.3611098"><ele>41.333333333333336</ele><time>2026-04-18T07:56:42.52Z</time></trkpt><trkpt lat="42.7745449" lon="10.3612202"><ele>42.16666666666667</ele><time>2026-04-18T07:56:43.519Z</time></trkpt><trkpt lat="42.7745075" lon="10.3613222"><ele>43.0</ele><time>2026-04-18T07:56:44.521Z</time></trkpt><trkpt lat="42.7744673" lon="10.361408"><ele>44.28571428571429</ele><time>2026-04-18T07:56:45.52Z</time></trkpt><trkpt lat="42.7744237" lon="10.3614826"><ele>45.57142857142857</ele><time>2026-04-18T07:56:46.522Z</time></trkpt><trkpt lat="42.7743785" lon="10.3615449"><ele>46.85714285714286</ele><time>2026-04-18T07:56:47.515Z</time></trkpt><trkpt lat="42.7743299" lon="10.361606"><ele>48.142857142857146</ele><time>2026-04-18T07:56:48.517Z</time></trkpt><trkpt lat="42.7742849" lon="10.3616826"><ele>49.42857142857143</ele><time>2026-04-18T07:56:49.519Z</time></trkpt><trkpt lat="42.7742408" lon="10.3617708"><ele>50.714285714285715</ele><time>2026-04-18T07:56:50.519Z</time></trkpt><trkpt lat="42.7741967" lon="10.361861"><ele>52.0</ele><time>2026-04-18T07:56:51.519Z</time></trkpt><trkpt lat="42.7741518" lon="10.3619439"><ele>52.285714285714285</ele><time>2026-04-18T07:56:52.536Z</time></trkpt><trkpt lat="42.7741108" lon="10.3620243"><ele>52.57142857142858</ele><time>2026-04-18T07:56:53.516Z</time></trkpt><trkpt lat="42.7740685" lon="10.3621024"><ele>52.85714285714286</ele><time>2026-04-18T07:56:54.519Z</time></trkpt><trkpt lat="42.7740254" lon="10.3621764"><ele>53.14285714285714</ele><time>2026-04-18T07:56:55.516Z</time></trkpt><trkpt lat="42.7739822" lon="10.3622506"><ele>53.42857142857143</ele><time>2026-04-18T07:56:56.524Z</time></trkpt><trkpt lat="42.7739394" lon="10.3623341"><ele>53.714285714285715</ele><time>2026-04-18T07:56:57.521Z</time></trkpt><trkpt lat="42.7738903" lon="10.3624196"><ele>54.0</ele><time>2026-04-18T07:56:58.516Z</time></trkpt><trkpt lat="42.7738378" lon="10.3624968"><ele>56.2</ele><time>2026-04-18T07:56:59.52Z</time></trkpt><trkpt lat="42.7737891" lon="10.3625679"><ele>58.400000000000006</ele><time>2026-04-18T07:57:00.517Z</time></trkpt><trkpt lat="42.7737117" lon="10.3626864"><ele>60.6</ele><time>2026-04-18T07:57:02.518Z</time></trkpt><trkpt lat="42.7736383" lon="10.3628166"><ele>62.8</ele><time>2026-04-18T07:57:04.52Z</time></trkpt><trkpt lat="42.7735886" lon="10.362899"><ele>65.0</ele><time>2026-04-18T07:57:05.512Z</time></trkpt><trkpt lat="42.7735417" lon="10.3629663"><ele>65.83333333333334</ele><time>2026-04-18T07:57:06.514Z</time></trkpt><trkpt lat="42.7734751" lon="10.3630322"><ele>66.66666666666667</ele><time>2026-04-18T07:57:08.511Z</time></trkpt><trkpt lat="42.7734068" lon="10.3630447"><ele>67.5</ele><time>2026-04-18T07:57:11.525Z</time></trkpt><trkpt lat="42.7733325" lon="10.3630391"><ele>68.33333333333333</ele><time>2026-04-18T07:57:15.526Z</time></trkpt><trkpt lat="42.7732981" lon="10.3629521"><ele>69.16666666666666</ele><time>2026-04-18T07:57:26.526Z</time></trkpt><trkpt lat="42.7732603" lon="10.3628102"><ele>70.0</ele><time>2026-04-18T07:57:28.523Z</time></trkpt><trkpt lat="42.7732472" lon="10.3626961"><ele>70.0</ele><time>2026-04-18T07:57:29.525Z</time></trkpt><trkpt lat="42.7732301" lon="10.3625657"><ele>70.0</ele><time>2026-04-18T07:57:30.513Z</time></trkpt><trkpt lat="42.7731947" lon="10.3624304"><ele>70.0</ele><time>2026-04-18T07:57:31.519Z</time></trkpt><trkpt lat="42.7731542" lon="10.362305"><ele>70.0</ele><time>2026-04-18T07:57:32.52Z</time></trkpt><trkpt lat="42.7731284" lon="10.3621876"><ele>70.0</ele><time>2026-04-18T07:57:33.519Z</time></trkpt><trkpt lat="42.7731167" lon="10.36208"><ele>68.83333333333333</ele><time>2026-04-18T07:57:34.521Z</time></trkpt><trkpt lat="42.7731083" lon="10.3619859"><ele>67.66666666666666</ele><time>2026-04-18T07:57:35.514Z</time></trkpt><trkpt lat="42.7730648" lon="10.3618406"><ele>66.5</ele><time>2026-04-18T07:57:37.513Z</time></trkpt><trkpt lat="42.7730178" lon="10.3617779"><ele>65.33333333333333</ele><time>2026-04-18T07:57:38.52Z</time></trkpt><trkpt lat="42.7729634" lon="10.3617193"><ele>64.16666666666667</ele><time>2026-04-18T07:57:39.52Z</time></trkpt><trkpt lat="42.7729024" lon="10.361658"><ele>63.0</ele><time>2026-04-18T07:57:40.518Z</time></trkpt><trkpt lat="42.7728329" lon="10.3615953"><ele>63.0</ele><time>2026-04-18T07:57:41.519Z</time></trkpt><trkpt lat="42.7727559" lon="10.3615329"><ele>63.0</ele><time>2026-04-18T07:57:42.519Z</time></trkpt><trkpt lat="42.7726733" lon="10.3614738"><ele>63.0</ele><time>2026-04-18T07:57:43.521Z</time></trkpt><trkpt lat="42.7725941" lon="10.3614129"><ele>63.0</ele><time>2026-04-18T07:57:44.514Z</time></trkpt><trkpt lat="42.7725249" lon="10.3613474"><ele>63.0</ele><time>2026-04-18T07:57:45.518Z</time></trkpt><trkpt lat="42.7724667" lon="10.3612788"><ele>63.0</ele><time>2026-04-18T07:57:46.522Z</time></trkpt><trkpt lat="42.7724228" lon="10.3612032"><ele>63.0</ele><time>2026-04-18T07:57:47.516Z</time></trkpt><trkpt lat="42.7723899" lon="10.3611179"><ele>63.0</ele><time>2026-04-18T07:57:48.526Z</time></trkpt><trkpt lat="42.7723665" lon="10.3610284"><ele>63.0</ele><time>2026-04-18T07:57:49.52Z</time></trkpt><trkpt lat="42.7723529" lon="10.3609412"><ele>63.0</ele><time>2026-04-18T07:57:50.509Z</time></trkpt><trkpt lat="42.772366" lon="10.3607849"><ele>63.0</ele><time>2026-04-18T07:57:52.519Z</time></trkpt><trkpt lat="42.7724459" lon="10.3606445"><ele>63.0</ele><time>2026-04-18T07:57:54.519Z</time></trkpt><trkpt lat="42.7724919" lon="10.3605722"><ele>63.0</ele><time>2026-04-18T07:57:55.509Z</time></trkpt><trkpt lat="42.7725361" lon="10.3604962"><ele>63.0</ele><time>2026-04-18T07:57:56.518Z</time></trkpt><trkpt lat="42.7726053" lon="10.3603633"><ele>63.0</ele><time>2026-04-18T07:57:58.539Z</time></trkpt><trkpt lat="42.7726739" lon="10.3602408"><ele>63.0</ele><time>2026-04-18T07:58:00.523Z</time></trkpt><trkpt lat="42.7727402" lon="10.3601138"><ele>60.833333333333336</ele><time>2026-04-18T07:58:02.524Z</time></trkpt><trkpt lat="42.7728111" lon="10.3599689"><ele>58.66666666666667</ele><time>2026-04-18T07:58:04.515Z</time></trkpt><trkpt lat="42.7728467" lon="10.3598904"><ele>56.5</ele><time>2026-04-18T07:58:05.521Z</time></trkpt><trkpt lat="42.7728802" lon="10.3598025"><ele>54.333333333333336</ele><time>2026-04-18T07:58:06.516Z</time></trkpt><trkpt lat="42.7729148" lon="10.3596961"><ele>52.16666666666667</ele><time>2026-04-18T07:58:07.521Z</time></trkpt><trkpt lat="42.7729453" lon="10.3595965"><ele>50.0</ele><time>2026-04-18T07:58:08.527Z</time></trkpt><trkpt lat="42.772976" lon="10.3595043"><ele>50.0</ele><time>2026-04-18T07:58:09.523Z</time></trkpt><trkpt lat="42.7730015" lon="10.359424"><ele>50.0</ele><time>2026-04-18T07:58:10.516Z</time></trkpt><trkpt lat="42.7730102" lon="10.359285"><ele>50.0</ele><time>2026-04-18T07:58:12.521Z</time></trkpt><trkpt lat="42.7729343" lon="10.359179"><ele>50.0</ele><time>2026-04-18T07:58:14.52Z</time></trkpt><trkpt lat="42.7728291" lon="10.3590867"><ele>50.0</ele><time>2026-04-18T07:58:16.52Z</time></trkpt><trkpt lat="42.7727803" lon="10.359032"><ele>50.00000000000001</ele><time>2026-04-18T07:58:17.518Z</time></trkpt><trkpt lat="42.7727351" lon="10.3589681"><ele>50.0</ele><time>2026-04-18T07:58:18.526Z</time></trkpt><trkpt lat="42.772691" lon="10.3589035"><ele>50.0</ele><time>2026-04-18T07:58:19.527Z</time></trkpt><trkpt lat="42.7726453" lon="10.3588372"><ele>50.0</ele><time>2026-04-18T07:58:20.526Z</time></trkpt><trkpt lat="42.7725609" lon="10.3587106"><ele>50.00000000000001</ele><time>2026-04-18T07:58:22.531Z</time></trkpt><trkpt lat="42.7724836" lon="10.3585841"><ele>50.0</ele><time>2026-04-18T07:58:24.52Z</time></trkpt><trkpt lat="42.7724029" lon="10.3584511"><ele>49.714285714285715</ele><time>2026-04-18T07:58:26.522Z</time></trkpt><trkpt lat="42.7723703" lon="10.3583691"><ele>49.42857142857143</ele><time>2026-04-18T07:58:27.515Z</time></trkpt><trkpt lat="42.7723417" lon="10.3582801"><ele>49.14285714285714</ele><time>2026-04-18T07:58:28.531Z</time></trkpt><trkpt lat="42.7723154" lon="10.3581906"><ele>48.85714285714286</ele><time>2026-04-18T07:58:29.524Z</time></trkpt><trkpt lat="42.7722861" lon="10.3581005"><ele>48.57142857142857</ele><time>2026-04-18T07:58:30.524Z</time></trkpt><trkpt lat="42.7722594" lon="10.3580149"><ele>48.285714285714285</ele><time>2026-04-18T07:58:31.522Z</time></trkpt><trkpt lat="42.7722359" lon="10.3579311"><ele>48.0</ele><time>2026-04-18T07:58:32.526Z</time></trkpt><trkpt lat="42.7722295" lon="10.3577757"><ele>46.599999999999994</ele><time>2026-04-18T07:58:34.522Z</time></trkpt><trkpt lat="42.7722826" lon="10.3576316"><ele>45.199999999999996</ele><time>2026-04-18T07:58:36.522Z</time></trkpt><trkpt lat="42.77233" lon="10.357482"><ele>43.8</ele><time>2026-04-18T07:58:38.522Z</time></trkpt><trkpt lat="42.7723453" lon="10.3573964"><ele>42.4</ele><time>2026-04-18T07:58:39.522Z</time></trkpt><trkpt lat="42.7723604" lon="10.3572891"><ele>41.0</ele><time>2026-04-18T07:58:40.516Z</time></trkpt><trkpt lat="42.7723733" lon="10.3571642"><ele>40.33333333333333</ele><time>2026-04-18T07:58:41.522Z</time></trkpt><trkpt lat="42.7723917" lon="10.3570335"><ele>39.666666666666664</ele><time>2026-04-18T07:58:42.517Z</time></trkpt><trkpt lat="42.7724143" lon="10.3569052"><ele>39.0</ele><time>2026-04-18T07:58:43.521Z</time></trkpt><trkpt lat="42.7724391" lon="10.356788"><ele>38.333333333333336</ele><time>2026-04-18T07:58:44.517Z</time></trkpt><trkpt lat="42.7724649" lon="10.3566843"><ele>37.66666666666667</ele><time>2026-04-18T07:58:45.519Z</time></trkpt><trkpt lat="42.7724909" lon="10.3565816"><ele>37.0</ele><time>2026-04-18T07:58:46.516Z</time></trkpt><trkpt lat="42.7725191" lon="10.3564666"><ele>36.5</ele><time>2026-04-18T07:58:47.511Z</time></trkpt><trkpt lat="42.7725462" lon="10.3563515"><ele>36.0</ele><time>2026-04-18T07:58:48.518Z</time></trkpt><trkpt lat="42.772568" lon="10.3562424"><ele>35.5</ele><time>2026-04-18T07:58:49.514Z</time></trkpt><trkpt lat="42.7725806" lon="10.3561386"><ele>35.0</ele><time>2026-04-18T07:58:50.517Z</time></trkpt><trkpt lat="42.7725872" lon="10.3560438"><ele>34.5</ele><time>2026-04-18T07:58:51.512Z</time></trkpt><trkpt lat="42.7725872" lon="10.3559524"><ele>34.0</ele><time>2026-04-18T07:58:52.525Z</time></trkpt><trkpt lat="42.7725945" lon="10.3558556"><ele>34.0</ele><time>2026-04-18T07:58:53.508Z</time></trkpt><trkpt lat="42.7726068" lon="10.3557566"><ele>34.0</ele><time>2026-04-18T07:58:54.512Z</time></trkpt><trkpt lat="42.7726186" lon="10.3556558"><ele>34.0</ele><time>2026-04-18T07:58:55.511Z</time></trkpt><trkpt lat="42.7726456" lon="10.3555635"><ele>34.0</ele><time>2026-04-18T07:58:56.517Z</time></trkpt><trkpt lat="42.7726764" lon="10.3554651"><ele>34.0</ele><time>2026-04-18T07:58:57.519Z</time></trkpt><trkpt lat="42.7727061" lon="10.3553545"><ele>34.0</ele><time>2026-04-18T07:58:58.523Z</time></trkpt><trkpt lat="42.7727248" lon="10.3552514"><ele>32.333333333333336</ele><time>2026-04-18T07:58:59.529Z</time></trkpt><trkpt lat="42.7727142" lon="10.355159"><ele>30.666666666666668</ele><time>2026-04-18T07:59:00.525Z</time></trkpt><trkpt lat="42.7726693" lon="10.3550848"><ele>29.0</ele><time>2026-04-18T07:59:01.52Z</time></trkpt><trkpt lat="42.7725986" lon="10.3550249"><ele>27.333333333333336</ele><time>2026-04-18T07:59:02.522Z</time></trkpt><trkpt lat="42.7725139" lon="10.3549656"><ele>25.666666666666668</ele><time>2026-04-18T07:59:03.519Z</time></trkpt><trkpt lat="42.7724332" lon="10.354923"><ele>24.0</ele><time>2026-04-18T07:59:04.525Z</time></trkpt><trkpt lat="42.7723463" lon="10.3549032"><ele>24.0</ele><time>2026-04-18T07:59:05.518Z</time></trkpt><trkpt lat="42.7722461" lon="10.3549073"><ele>24.0</ele><time>2026-04-18T07:59:06.518Z</time></trkpt><trkpt lat="42.7721636" lon="10.3549229"><ele>24.0</ele><time>2026-04-18T07:59:07.519Z</time></trkpt><trkpt lat="42.7720815" lon="10.3548906"><ele>24.0</ele><time>2026-04-18T07:59:09.523Z</time></trkpt><trkpt lat="42.7720885" lon="10.3547382"><ele>24.0</ele><time>2026-04-18T07:59:11.504Z</time></trkpt><trkpt lat="42.7721084" lon="10.3546393"><ele>23.333333333333332</ele><time>2026-04-18T07:59:12.508Z</time></trkpt><trkpt lat="42.7721359" lon="10.3545311"><ele>22.666666666666668</ele><time>2026-04-18T07:59:13.507Z</time></trkpt><trkpt lat="42.7721646" lon="10.3544227"><ele>22.0</ele><time>2026-04-18T07:59:14.511Z</time></trkpt><trkpt lat="42.7721938" lon="10.3543146"><ele>21.333333333333336</ele><time>2026-04-18T07:59:15.508Z</time></trkpt><trkpt lat="42.7722292" lon="10.3542106"><ele>20.666666666666668</ele><time>2026-04-18T07:59:16.509Z</time></trkpt><trkpt lat="42.7722626" lon="10.3541114"><ele>20.0</ele><time>2026-04-18T07:59:17.512Z</time></trkpt><trkpt lat="42.7722989" lon="10.3540164"><ele>20.0</ele><time>2026-04-18T07:59:18.514Z</time></trkpt><trkpt lat="42.7723414" lon="10.3539238"><ele>20.0</ele><time>2026-04-18T07:59:19.531Z</time></trkpt><trkpt lat="42.7723865" lon="10.3538375"><ele>20.0</ele><time>2026-04-18T07:59:20.518Z</time></trkpt><trkpt lat="42.7724357" lon="10.3537397"><ele>20.0</ele><time>2026-04-18T07:59:21.524Z</time></trkpt><trkpt lat="42.7724856" lon="10.3536429"><ele>20.0</ele><time>2026-04-18T07:59:22.529Z</time></trkpt><trkpt lat="42.7725372" lon="10.3535593"><ele>20.0</ele><time>2026-04-18T07:59:23.527Z</time></trkpt><trkpt lat="42.772581" lon="10.3534934"><ele>20.0</ele><time>2026-04-18T07:59:24.527Z</time></trkpt><trkpt lat="42.7726229" lon="10.3534227"><ele>20.0</ele><time>2026-04-18T07:59:26.527Z</time></trkpt><trkpt lat="42.7725935" lon="10.3533045"><ele>20.0</ele><time>2026-04-18T07:59:30.53Z</time></trkpt><trkpt lat="42.7724846" lon="10.3532016"><ele>20.0</ele><time>2026-04-18T07:59:32.532Z</time></trkpt><trkpt lat="42.7724063" lon="10.3531346"><ele>20.0</ele><time>2026-04-18T07:59:33.527Z</time></trkpt><trkpt lat="42.7723198" lon="10.3530575"><ele>19.8</ele><time>2026-04-18T07:59:34.524Z</time></trkpt><trkpt lat="42.7722286" lon="10.3529705"><ele>19.6</ele><time>2026-04-18T07:59:35.529Z</time></trkpt><trkpt lat="42.772137" lon="10.3528831"><ele>19.4</ele><time>2026-04-18T07:59:36.529Z</time></trkpt><trkpt lat="42.7720518" lon="10.3527996"><ele>19.2</ele><time>2026-04-18T07:59:37.532Z</time></trkpt><trkpt lat="42.7719803" lon="10.3527272"><ele>19.0</ele><time>2026-04-18T07:59:38.53Z</time></trkpt><trkpt lat="42.7719146" lon="10.3526611"><ele>18.833333333333332</ele><time>2026-04-18T07:59:39.53Z</time></trkpt><trkpt lat="42.7718518" lon="10.3525914"><ele>18.666666666666664</ele><time>2026-04-18T07:59:40.517Z</time></trkpt><trkpt lat="42.7717909" lon="10.352511"><ele>18.5</ele><time>2026-04-18T07:59:41.528Z</time></trkpt><trkpt lat="42.7717238" lon="10.3524391"><ele>18.333333333333332</ele><time>2026-04-18T07:59:42.522Z</time></trkpt><trkpt lat="42.7716587" lon="10.3523751"><ele>18.166666666666668</ele><time>2026-04-18T07:59:43.523Z</time></trkpt><trkpt lat="42.7715983" lon="10.3523226"><ele>18.0</ele><time>2026-04-18T07:59:44.526Z</time></trkpt><trkpt lat="42.7715002" lon="10.352233"><ele>19.8</ele><time>2026-04-18T07:59:46.524Z</time></trkpt><trkpt lat="42.7714309" lon="10.3521518"><ele>21.6</ele><time>2026-04-18T07:59:48.525Z</time></trkpt><trkpt lat="42.7713772" lon="10.3520892"><ele>23.400000000000002</ele><time>2026-04-18T07:59:50.527Z</time></trkpt><trkpt lat="42.7713248" lon="10.3520165"><ele>25.200000000000003</ele><time>2026-04-18T08:00:03.521Z</time></trkpt><trkpt lat="42.7712068" lon="10.3520446"><ele>27.0</ele><time>2026-04-18T08:00:05.513Z</time></trkpt><trkpt lat="42.771122" lon="10.3521027"><ele>28.5</ele><time>2026-04-18T08:00:06.503Z</time></trkpt><trkpt lat="42.7710229" lon="10.3521654"><ele>30.0</ele><time>2026-04-18T08:00:07.506Z</time></trkpt><trkpt lat="42.7709151" lon="10.3522373"><ele>31.5</ele><time>2026-04-18T08:00:08.508Z</time></trkpt><trkpt lat="42.7707966" lon="10.3523202"><ele>33.0</ele><time>2026-04-18T08:00:09.508Z</time></trkpt><trkpt lat="42.77067" lon="10.3524177"><ele>29.0</ele><time>2026-04-18T08:00:10.503Z</time></trkpt><trkpt lat="42.7705302" lon="10.3525183"><ele>25.0</ele><time>2026-04-18T08:00:11.511Z</time></trkpt><trkpt lat="42.7703828" lon="10.3526239"><ele>21.0</ele><time>2026-04-18T08:00:12.507Z</time></trkpt><trkpt lat="42.7702337" lon="10.3527486"><ele>20.333333333333332</ele><time>2026-04-18T08:00:13.511Z</time></trkpt><trkpt lat="42.7700886" lon="10.3528889"><ele>19.666666666666664</ele><time>2026-04-18T08:00:14.512Z</time></trkpt><trkpt lat="42.7699536" lon="10.3530386"><ele>19.0</ele><time>2026-04-18T08:00:15.504Z</time></trkpt><trkpt lat="42.7698287" lon="10.3531759"><ele>19.0</ele><time>2026-04-18T08:00:16.513Z</time></trkpt><trkpt lat="42.7697097" lon="10.3532926"><ele>19.0</ele><time>2026-04-18T08:00:17.51Z</time></trkpt><trkpt lat="42.7695766" lon="10.3533868"><ele>19.0</ele><time>2026-04-18T08:00:18.512Z</time></trkpt><trkpt lat="42.7694343" lon="10.3534493"><ele>19.0</ele><time>2026-04-18T08:00:19.512Z</time></trkpt><trkpt lat="42.769286" lon="10.3534853"><ele>19.25</ele><time>2026-04-18T08:00:20.513Z</time></trkpt><trkpt lat="42.769155" lon="10.3535142"><ele>19.5</ele><time>2026-04-18T08:00:21.516Z</time></trkpt><trkpt lat="42.7690346" lon="10.3535404"><ele>19.75</ele><time>2026-04-18T08:00:22.518Z</time></trkpt><trkpt lat="42.7689314" lon="10.35357"><ele>20.0</ele><time>2026-04-18T08:00:23.526Z</time></trkpt><trkpt lat="42.7688331" lon="10.353621"><ele>20.0</ele><time>2026-04-18T08:00:24.524Z</time></trkpt><trkpt lat="42.768738" lon="10.3537031"><ele>20.0</ele><time>2026-04-18T08:00:25.522Z</time></trkpt><trkpt lat="42.7686542" lon="10.3538121"><ele>20.0</ele><time>2026-04-18T08:00:26.515Z</time></trkpt><trkpt lat="42.7685852" lon="10.3539357"><ele>20.0</ele><time>2026-04-18T08:00:27.528Z</time></trkpt><trkpt lat="42.7685336" lon="10.354062"><ele>20.0</ele><time>2026-04-18T08:00:28.521Z</time></trkpt><trkpt lat="42.7684988" lon="10.3541906"><ele>19.833333333333336</ele><time>2026-04-18T08:00:29.521Z</time></trkpt><trkpt lat="42.7684877" lon="10.354305"><ele>19.666666666666668</ele><time>2026-04-18T08:00:30.527Z</time></trkpt><trkpt lat="42.7684828" lon="10.3544633"><ele>19.5</ele><time>2026-04-18T08:00:32.533Z</time></trkpt><trkpt lat="42.7684417" lon="10.3545553"><ele>19.333333333333332</ele><time>2026-04-18T08:00:34.518Z</time></trkpt><trkpt lat="42.7683769" lon="10.3545436"><ele>19.166666666666664</ele><time>2026-04-18T08:00:36.522Z</time></trkpt><trkpt lat="42.7683192" lon="10.3544461"><ele>19.0</ele><time>2026-04-18T08:00:38.51Z</time></trkpt><trkpt lat="42.7682879" lon="10.3543578"><ele>19.0</ele><time>2026-04-18T08:00:39.518Z</time></trkpt><trkpt lat="42.7682418" lon="10.3542692"><ele>19.0</ele><time>2026-04-18T08:00:40.516Z</time></trkpt><trkpt lat="42.7681718" lon="10.3541877"><ele>19.0</ele><time>2026-04-18T08:00:41.514Z</time></trkpt><trkpt lat="42.768082" lon="10.3541127"><ele>19.0</ele><time>2026-04-18T08:00:42.521Z</time></trkpt><trkpt lat="42.7679827" lon="10.3540491"><ele>19.0</ele><time>2026-04-18T08:00:43.519Z</time></trkpt><trkpt lat="42.7678835" lon="10.3539993"><ele>19.0</ele><time>2026-04-18T08:00:44.521Z</time></trkpt><trkpt lat="42.767778" lon="10.3539584"><ele>19.0</ele><time>2026-04-18T08:00:45.517Z</time></trkpt><trkpt lat="42.7676701" lon="10.3539359"><ele>19.0</ele><time>2026-04-18T08:00:46.521Z</time></trkpt><trkpt lat="42.7675637" lon="10.3539256"><ele>19.0</ele><time>2026-04-18T08:00:47.514Z</time></trkpt><trkpt lat="42.7674593" lon="10.3539249"><ele>19.0</ele><time>2026-04-18T08:00:48.516Z</time></trkpt><trkpt lat="42.7673611" lon="10.3539336"><ele>19.799999999999997</ele><time>2026-04-18T08:00:49.52Z</time></trkpt><trkpt lat="42.7672632" lon="10.3539473"><ele>20.599999999999998</ele><time>2026-04-18T08:00:50.514Z</time></trkpt><trkpt lat="42.7671643" lon="10.35397"><ele>21.4</ele><time>2026-04-18T08:00:51.513Z</time></trkpt><trkpt lat="42.7670663" lon="10.3539993"><ele>22.2</ele><time>2026-04-18T08:00:52.516Z</time></trkpt><trkpt lat="42.766964" lon="10.3540138"><ele>23.0</ele><time>2026-04-18T08:00:53.516Z</time></trkpt><trkpt lat="42.7668649" lon="10.3540168"><ele>24.2</ele><time>2026-04-18T08:00:54.512Z</time></trkpt><trkpt lat="42.7667694" lon="10.3540023"><ele>25.4</ele><time>2026-04-18T08:00:55.511Z</time></trkpt><trkpt lat="42.7666761" lon="10.3539752"><ele>26.599999999999998</ele><time>2026-04-18T08:00:56.515Z</time></trkpt><trkpt lat="42.7665841" lon="10.3539421"><ele>27.799999999999997</ele><time>2026-04-18T08:00:57.512Z</time></trkpt><trkpt lat="42.7664906" lon="10.3539009"><ele>29.0</ele><time>2026-04-18T08:00:58.521Z</time></trkpt><trkpt lat="42.7663939" lon="10.3538593"><ele>29.2</ele><time>2026-04-18T08:00:59.518Z</time></trkpt><trkpt lat="42.7662969" lon="10.353818"><ele>29.4</ele><time>2026-04-18T08:01:00.518Z</time></trkpt><trkpt lat="42.7661998" lon="10.3537718"><ele>29.6</ele><time>2026-04-18T08:01:01.53Z</time></trkpt><trkpt lat="42.7660988" lon="10.3537322"><ele>29.8</ele><time>2026-04-18T08:01:02.52Z</time></trkpt><trkpt lat="42.7659942" lon="10.3537064"><ele>30.0</ele><time>2026-04-18T08:01:03.536Z</time></trkpt><trkpt lat="42.7658892" lon="10.3536853"><ele>31.4</ele><time>2026-04-18T08:01:04.52Z</time></trkpt><trkpt lat="42.7657838" lon="10.3536752"><ele>32.8</ele><time>2026-04-18T08:01:05.524Z</time></trkpt><trkpt lat="42.7656794" lon="10.3536826"><ele>34.2</ele><time>2026-04-18T08:01:06.517Z</time></trkpt><trkpt lat="42.7655757" lon="10.3537037"><ele>35.6</ele><time>2026-04-18T08:01:07.52Z</time></trkpt><trkpt lat="42.7654749" lon="10.3537285"><ele>37.0</ele><time>2026-04-18T08:01:08.521Z</time></trkpt><trkpt lat="42.7653732" lon="10.3537415"><ele>37.0</ele><time>2026-04-18T08:01:09.515Z</time></trkpt><trkpt lat="42.7652748" lon="10.3537358"><ele>37.0</ele><time>2026-04-18T08:01:10.514Z</time></trkpt><trkpt lat="42.7651861" lon="10.3537212"><ele>37.0</ele><time>2026-04-18T08:01:11.516Z</time></trkpt><trkpt lat="42.7651086" lon="10.3537021"><ele>37.0</ele><time>2026-04-18T08:01:12.523Z</time></trkpt><trkpt lat="42.7650361" lon="10.3536789"><ele>37.0</ele><time>2026-04-18T08:01:13.518Z</time></trkpt><trkpt lat="42.7649627" lon="10.3536473"><ele>37.0</ele><time>2026-04-18T08:01:14.518Z</time></trkpt><trkpt lat="42.7648882" lon="10.3536166"><ele>38.0</ele><time>2026-04-18T08:01:15.523Z</time></trkpt><trkpt lat="42.7648129" lon="10.3535918"><ele>39.0</ele><time>2026-04-18T08:01:16.52Z</time></trkpt><trkpt lat="42.7647387" lon="10.3535754"><ele>40.0</ele><time>2026-04-18T08:01:17.519Z</time></trkpt><trkpt lat="42.764663" lon="10.353562"><ele>41.0</ele><time>2026-04-18T08:01:18.523Z</time></trkpt><trkpt lat="42.7645851" lon="10.3535439"><ele>42.0</ele><time>2026-04-18T08:01:19.518Z</time></trkpt><trkpt lat="42.7645062" lon="10.3535289"><ele>43.0</ele><time>2026-04-18T08:01:20.526Z</time></trkpt><trkpt lat="42.7644268" lon="10.3535161"><ele>42.16666666666667</ele><time>2026-04-18T08:01:21.516Z</time></trkpt><trkpt lat="42.7643494" lon="10.3535043"><ele>41.333333333333336</ele><time>2026-04-18T08:01:22.529Z</time></trkpt><trkpt lat="42.7642798" lon="10.3534955"><ele>40.5</ele><time>2026-04-18T08:01:23.522Z</time></trkpt><trkpt lat="42.7642173" lon="10.3534766"><ele>39.666666666666664</ele><time>2026-04-18T08:01:24.523Z</time></trkpt><trkpt lat="42.7641532" lon="10.3533818"><ele>38.83333333333333</ele><time>2026-04-18T08:01:26.525Z</time></trkpt><trkpt lat="42.7641622" lon="10.3532956"><ele>38.0</ele><time>2026-04-18T08:01:27.529Z</time></trkpt><trkpt lat="42.7641859" lon="10.3531887"><ele>38.0</ele><time>2026-04-18T08:01:28.525Z</time></trkpt><trkpt lat="42.764216" lon="10.3530686"><ele>38.0</ele><time>2026-04-18T08:01:29.521Z</time></trkpt><trkpt lat="42.7642462" lon="10.3529419"><ele>38.0</ele><time>2026-04-18T08:01:30.529Z</time></trkpt><trkpt lat="42.7642723" lon="10.3528167"><ele>38.0</ele><time>2026-04-18T08:01:31.527Z</time></trkpt><trkpt lat="42.7643044" lon="10.3526907"><ele>38.0</ele><time>2026-04-18T08:01:32.525Z</time></trkpt><trkpt lat="42.7643409" lon="10.3525676"><ele>39.666666666666664</ele><time>2026-04-18T08:01:33.523Z</time></trkpt><trkpt lat="42.7643744" lon="10.3524506"><ele>41.33333333333333</ele><time>2026-04-18T08:01:34.525Z</time></trkpt><trkpt lat="42.7644006" lon="10.3523412"><ele>43.0</ele><time>2026-04-18T08:01:35.526Z</time></trkpt><trkpt lat="42.7643996" lon="10.3522465"><ele>44.666666666666664</ele><time>2026-04-18T08:01:36.521Z</time></trkpt><trkpt lat="42.7643722" lon="10.3521625"><ele>46.333333333333336</ele><time>2026-04-18T08:01:37.516Z</time></trkpt><trkpt lat="42.764334" lon="10.3520784"><ele>48.0</ele><time>2026-04-18T08:01:38.527Z</time></trkpt><trkpt lat="42.7642972" lon="10.3520025"><ele>48.0</ele><time>2026-04-18T08:01:39.525Z</time></trkpt><trkpt lat="42.7642358" lon="10.3518631"><ele>48.0</ele><time>2026-04-18T08:01:41.523Z</time></trkpt><trkpt lat="42.7642074" lon="10.3517121"><ele>48.0</ele><time>2026-04-18T08:01:43.523Z</time></trkpt><trkpt lat="42.76424" lon="10.3515607"><ele>48.0</ele><time>2026-04-18T08:01:45.527Z</time></trkpt><trkpt lat="42.7642809" lon="10.3514907"><ele>48.0</ele><time>2026-04-18T08:01:46.519Z</time></trkpt><trkpt lat="42.7643282" lon="10.3514157"><ele>50.0</ele><time>2026-04-18T08:01:47.524Z</time></trkpt><trkpt lat="42.7643785" lon="10.3513274"><ele>52.0</ele><time>2026-04-18T08:01:48.526Z</time></trkpt><trkpt lat="42.7644298" lon="10.3512347"><ele>54.0</ele><time>2026-04-18T08:01:49.531Z</time></trkpt><trkpt lat="42.7644793" lon="10.3511411"><ele>56.0</ele><time>2026-04-18T08:01:50.524Z</time></trkpt><trkpt lat="42.7645257" lon="10.351053"><ele>58.0</ele><time>2026-04-18T08:01:51.524Z</time></trkpt><trkpt lat="42.7645713" lon="10.3509657"><ele>60.0</ele><time>2026-04-18T08:01:52.533Z</time></trkpt><trkpt lat="42.7646183" lon="10.3508757"><ele>60.0</ele><time>2026-04-18T08:01:53.527Z</time></trkpt><trkpt lat="42.7646675" lon="10.3508018"><ele>60.0</ele><time>2026-04-18T08:01:54.529Z</time></trkpt><trkpt lat="42.7647273" lon="10.3507588"><ele>60.0</ele><time>2026-04-18T08:01:55.522Z</time></trkpt><trkpt lat="42.7648028" lon="10.3507305"><ele>60.0</ele><time>2026-04-18T08:01:56.527Z</time></trkpt><trkpt lat="42.7648803" lon="10.3507005"><ele>60.0</ele><time>2026-04-18T08:01:57.523Z</time></trkpt><trkpt lat="42.7649611" lon="10.3506835"><ele>60.0</ele><time>2026-04-18T08:01:58.526Z</time></trkpt><trkpt lat="42.7650382" lon="10.3506673"><ele>60.0</ele><time>2026-04-18T08:01:59.518Z</time></trkpt><trkpt lat="42.7651106" lon="10.3506349"><ele>60.0</ele><time>2026-04-18T08:02:00.518Z</time></trkpt><trkpt lat="42.7651778" lon="10.3505775"><ele>60.0</ele><time>2026-04-18T08:02:01.524Z</time></trkpt><trkpt lat="42.7652433" lon="10.3505135"><ele>60.0</ele><time>2026-04-18T08:02:02.518Z</time></trkpt><trkpt lat="42.7652981" lon="10.3504475"><ele>60.0</ele><time>2026-04-18T08:02:03.524Z</time></trkpt><trkpt lat="42.7653381" lon="10.350367"><ele>60.0</ele><time>2026-04-18T08:02:04.517Z</time></trkpt><trkpt lat="42.7653601" lon="10.3502763"><ele>60.2</ele><time>2026-04-18T08:02:05.529Z</time></trkpt><trkpt lat="42.7653389" lon="10.3501179"><ele>60.4</ele><time>2026-04-18T08:02:07.514Z</time></trkpt><trkpt lat="42.7652989" lon="10.3500292"><ele>60.599999999999994</ele><time>2026-04-18T08:02:08.513Z</time></trkpt><trkpt lat="42.7652488" lon="10.3499276"><ele>60.8</ele><time>2026-04-18T08:02:09.518Z</time></trkpt><trkpt lat="42.7651939" lon="10.3498162"><ele>61.0</ele><time>2026-04-18T08:02:10.522Z</time></trkpt><trkpt lat="42.7651401" lon="10.3497034"><ele>60.99999999999999</ele><time>2026-04-18T08:02:11.524Z</time></trkpt><trkpt lat="42.7650913" lon="10.3495938"><ele>61.0</ele><time>2026-04-18T08:02:12.518Z</time></trkpt><trkpt lat="42.7650494" lon="10.3494987"><ele>61.0</ele><time>2026-04-18T08:02:13.524Z</time></trkpt><trkpt lat="42.7650028" lon="10.3494252"><ele>61.0</ele><time>2026-04-18T08:02:14.521Z</time></trkpt><trkpt lat="42.7649371" lon="10.3493706"><ele>60.99999999999999</ele><time>2026-04-18T08:02:15.53Z</time></trkpt><trkpt lat="42.7648614" lon="10.3493225"><ele>61.0</ele><time>2026-04-18T08:02:16.531Z</time></trkpt><trkpt lat="42.7647805" lon="10.3492764"><ele>60.99999999999999</ele><time>2026-04-18T08:02:17.531Z</time></trkpt><trkpt lat="42.7647034" lon="10.3492315"><ele>61.0</ele><time>2026-04-18T08:02:18.529Z</time></trkpt><trkpt lat="42.7646313" lon="10.349195"><ele>61.0</ele><time>2026-04-18T08:02:19.529Z</time></trkpt><trkpt lat="42.7645282" lon="10.3491465"><ele>61.0</ele><time>2026-04-18T08:02:21.533Z</time></trkpt><trkpt lat="42.7644834" lon="10.3490601"><ele>60.99999999999999</ele><time>2026-04-18T08:02:24.537Z</time></trkpt><trkpt lat="42.7645109" lon="10.3489425"><ele>61.0</ele><time>2026-04-18T08:02:27.528Z</time></trkpt><trkpt lat="42.7645719" lon="10.3488693"><ele>60.33333333333333</ele><time>2026-04-18T08:02:29.522Z</time></trkpt><trkpt lat="42.7646247" lon="10.3488224"><ele>59.666666666666664</ele><time>2026-04-18T08:02:30.532Z</time></trkpt><trkpt lat="42.7646947" lon="10.3487673"><ele>59.0</ele><time>2026-04-18T08:02:31.534Z</time></trkpt><trkpt lat="42.7647798" lon="10.3487122"><ele>58.33333333333333</ele><time>2026-04-18T08:02:32.524Z</time></trkpt><trkpt lat="42.7648683" lon="10.3486666"><ele>57.666666666666664</ele><time>2026-04-18T08:02:33.527Z</time></trkpt><trkpt lat="42.7649545" lon="10.3486287"><ele>57.0</ele><time>2026-04-18T08:02:34.526Z</time></trkpt><trkpt lat="42.7650308" lon="10.3485867"><ele>57.0</ele><time>2026-04-18T08:02:35.525Z</time></trkpt><trkpt lat="42.7650943" lon="10.3485385"><ele>56.99999999999999</ele><time>2026-04-18T08:02:36.549Z</time></trkpt><trkpt lat="42.7651516" lon="10.348482"><ele>57.0</ele><time>2026-04-18T08:02:37.525Z</time></trkpt><trkpt lat="42.765211" lon="10.3484121"><ele>57.0</ele><time>2026-04-18T08:02:38.525Z</time></trkpt><trkpt lat="42.7652708" lon="10.3483387"><ele>56.99999999999999</ele><time>2026-04-18T08:02:39.527Z</time></trkpt><trkpt lat="42.7653263" lon="10.3482717"><ele>57.0</ele><time>2026-04-18T08:02:40.531Z</time></trkpt><trkpt lat="42.7653762" lon="10.348214"><ele>57.0</ele><time>2026-04-18T08:02:41.529Z</time></trkpt><trkpt lat="42.7654313" lon="10.3481604"><ele>57.833333333333336</ele><time>2026-04-18T08:02:42.519Z</time></trkpt><trkpt lat="42.7654909" lon="10.3481102"><ele>58.66666666666667</ele><time>2026-04-18T08:02:43.527Z</time></trkpt><trkpt lat="42.7655524" lon="10.3480647"><ele>59.5</ele><time>2026-04-18T08:02:44.514Z</time></trkpt><trkpt lat="42.7656131" lon="10.3480363"><ele>60.333333333333336</ele><time>2026-04-18T08:02:45.522Z</time></trkpt><trkpt lat="42.7657445" lon="10.3480655"><ele>61.16666666666667</ele><time>2026-04-18T08:02:47.517Z</time></trkpt><trkpt lat="42.7658201" lon="10.3481174"><ele>62.0</ele><time>2026-04-18T08:02:48.517Z</time></trkpt><trkpt lat="42.7659119" lon="10.3481885"><ele>62.0</ele><time>2026-04-18T08:02:49.512Z</time></trkpt><trkpt lat="42.7660199" lon="10.3482699"><ele>62.0</ele><time>2026-04-18T08:02:50.515Z</time></trkpt><trkpt lat="42.7661248" lon="10.3483525"><ele>62.0</ele><time>2026-04-18T08:02:51.521Z</time></trkpt><trkpt lat="42.7662197" lon="10.3484206"><ele>62.0</ele><time>2026-04-18T08:02:52.517Z</time></trkpt><trkpt lat="42.766301" lon="10.3484564"><ele>62.0</ele><time>2026-04-18T08:02:53.52Z</time></trkpt><trkpt lat="42.7663779" lon="10.3484755"><ele>62.66666666666667</ele><time>2026-04-18T08:02:54.514Z</time></trkpt><trkpt lat="42.7664561" lon="10.3484908"><ele>63.333333333333336</ele><time>2026-04-18T08:02:55.521Z</time></trkpt><trkpt lat="42.7665403" lon="10.3485153"><ele>64.0</ele><time>2026-04-18T08:02:56.523Z</time></trkpt><trkpt lat="42.7666287" lon="10.3485483"><ele>64.66666666666667</ele><time>2026-04-18T08:02:57.529Z</time></trkpt><trkpt lat="42.7667142" lon="10.3485836"><ele>65.33333333333333</ele><time>2026-04-18T08:02:58.524Z</time></trkpt><trkpt lat="42.7667988" lon="10.3486156"><ele>66.0</ele><time>2026-04-18T08:02:59.533Z</time></trkpt><trkpt lat="42.7668764" lon="10.3486412"><ele>69.19999999999999</ele><time>2026-04-18T08:03:00.518Z</time></trkpt><trkpt lat="42.7669468" lon="10.3486548"><ele>72.39999999999999</ele><time>2026-04-18T08:03:01.525Z</time></trkpt><trkpt lat="42.7670537" lon="10.3486436"><ele>75.6</ele><time>2026-04-18T08:03:03.524Z</time></trkpt><trkpt lat="42.7671457" lon="10.3485407"><ele>78.8</ele><time>2026-04-18T08:03:05.529Z</time></trkpt><trkpt lat="42.7671932" lon="10.3484679"><ele>82.0</ele><time>2026-04-18T08:03:06.534Z</time></trkpt><trkpt lat="42.7672446" lon="10.3483734"><ele>82.0</ele><time>2026-04-18T08:03:07.527Z</time></trkpt><trkpt lat="42.7672909" lon="10.3482619"><ele>82.0</ele><time>2026-04-18T08:03:08.528Z</time></trkpt><trkpt lat="42.7673322" lon="10.3481472"><ele>82.0</ele><time>2026-04-18T08:03:09.528Z</time></trkpt><trkpt lat="42.7673629" lon="10.3480419"><ele>82.0</ele><time>2026-04-18T08:03:10.53Z</time></trkpt><trkpt lat="42.7673781" lon="10.3479434"><ele>82.0</ele><time>2026-04-18T08:03:11.526Z</time></trkpt><trkpt lat="42.7673838" lon="10.3478383"><ele>82.0</ele><time>2026-04-18T08:03:12.524Z</time></trkpt><trkpt lat="42.7673748" lon="10.3477261"><ele>81.8</ele><time>2026-04-18T08:03:13.525Z</time></trkpt><trkpt lat="42.7673647" lon="10.3476167"><ele>81.6</ele><time>2026-04-18T08:03:14.519Z</time></trkpt><trkpt lat="42.7673601" lon="10.3475142"><ele>81.39999999999999</ele><time>2026-04-18T08:03:15.525Z</time></trkpt><trkpt lat="42.7673603" lon="10.3473818"><ele>81.19999999999999</ele><time>2026-04-18T08:03:17.52Z</time></trkpt><trkpt lat="42.7673543" lon="10.3472638"><ele>81.0</ele><time>2026-04-18T08:04:35.536Z</time></trkpt><trkpt lat="42.7673535" lon="10.3471147"><ele>81.0</ele><time>2026-04-18T08:04:37.518Z</time></trkpt><trkpt lat="42.7673804" lon="10.3470312"><ele>81.0</ele><time>2026-04-18T08:04:38.531Z</time></trkpt><trkpt lat="42.7674279" lon="10.346953"><ele>81.0</ele><time>2026-04-18T08:04:39.534Z</time></trkpt><trkpt lat="42.7674933" lon="10.3468892"><ele>81.0</ele><time>2026-04-18T08:04:40.518Z</time></trkpt><trkpt lat="42.7675667" lon="10.3468238"><ele>81.0</ele><time>2026-04-18T08:04:41.528Z</time></trkpt><trkpt lat="42.767628" lon="10.3467454"><ele>81.0</ele><time>2026-04-18T08:04:42.516Z</time></trkpt><trkpt lat="42.7676703" lon="10.3466495"><ele>79.83333333333333</ele><time>2026-04-18T08:04:43.505Z</time></trkpt><trkpt lat="42.7676976" lon="10.3465413"><ele>78.66666666666667</ele><time>2026-04-18T08:04:44.51Z</time></trkpt><trkpt lat="42.7677096" lon="10.3464267"><ele>77.5</ele><time>2026-04-18T08:04:45.506Z</time></trkpt><trkpt lat="42.7677186" lon="10.3463189"><ele>76.33333333333334</ele><time>2026-04-18T08:04:46.51Z</time></trkpt><trkpt lat="42.7677278" lon="10.3462242"><ele>75.16666666666667</ele><time>2026-04-18T08:04:47.506Z</time></trkpt><trkpt lat="42.7677144" lon="10.346071"><ele>74.0</ele><time>2026-04-18T08:04:49.509Z</time></trkpt><trkpt lat="42.7676694" lon="10.3459344"><ele>74.0</ele><time>2026-04-18T08:04:51.516Z</time></trkpt><trkpt lat="42.7676426" lon="10.3457894"><ele>74.0</ele><time>2026-04-18T08:04:53.514Z</time></trkpt><trkpt lat="42.7676933" lon="10.3456358"><ele>74.0</ele><time>2026-04-18T08:04:55.518Z</time></trkpt><trkpt lat="42.7677499" lon="10.3455513"><ele>74.0</ele><time>2026-04-18T08:04:56.517Z</time></trkpt><trkpt lat="42.7678129" lon="10.3454635"><ele>74.0</ele><time>2026-04-18T08:04:57.517Z</time></trkpt><trkpt lat="42.7678701" lon="10.3453715"><ele>74.66666666666667</ele><time>2026-04-18T08:04:58.52Z</time></trkpt><trkpt lat="42.7679238" lon="10.3452824"><ele>75.33333333333334</ele><time>2026-04-18T08:04:59.514Z</time></trkpt><trkpt lat="42.7679749" lon="10.3451937"><ele>76.0</ele><time>2026-04-18T08:05:00.52Z</time></trkpt><trkpt lat="42.7680283" lon="10.3451062"><ele>76.66666666666667</ele><time>2026-04-18T08:05:01.512Z</time></trkpt><trkpt lat="42.7680886" lon="10.3450157"><ele>77.33333333333333</ele><time>2026-04-18T08:05:02.513Z</time></trkpt><trkpt lat="42.7681573" lon="10.3449408"><ele>78.0</ele><time>2026-04-18T08:05:03.516Z</time></trkpt><trkpt lat="42.7682329" lon="10.3448907"><ele>78.0</ele><time>2026-04-18T08:05:04.511Z</time></trkpt><trkpt lat="42.7683119" lon="10.3448529"><ele>78.0</ele><time>2026-04-18T08:05:05.511Z</time></trkpt><trkpt lat="42.7683901" lon="10.3448304"><ele>78.0</ele><time>2026-04-18T08:05:06.513Z</time></trkpt><trkpt lat="42.768472" lon="10.3448311"><ele>78.0</ele><time>2026-04-18T08:05:07.514Z</time></trkpt><trkpt lat="42.7685558" lon="10.3448635"><ele>78.0</ele><time>2026-04-18T08:05:08.513Z</time></trkpt><trkpt lat="42.7686417" lon="10.3448969"><ele>78.0</ele><time>2026-04-18T08:05:09.509Z</time></trkpt><trkpt lat="42.76873" lon="10.3449259"><ele>77.33333333333333</ele><time>2026-04-18T08:05:10.518Z</time></trkpt><trkpt lat="42.7688118" lon="10.3449522"><ele>76.66666666666667</ele><time>2026-04-18T08:05:11.505Z</time></trkpt><trkpt lat="42.768891" lon="10.3449798"><ele>76.0</ele><time>2026-04-18T08:05:12.512Z</time></trkpt><trkpt lat="42.7689708" lon="10.3450109"><ele>75.33333333333334</ele><time>2026-04-18T08:05:13.509Z</time></trkpt><trkpt lat="42.7690541" lon="10.345052"><ele>74.66666666666667</ele><time>2026-04-18T08:05:14.512Z</time></trkpt><trkpt lat="42.7691335" lon="10.3451106"><ele>74.0</ele><time>2026-04-18T08:05:15.512Z</time></trkpt><trkpt lat="42.769206" lon="10.3451813"><ele>74.0</ele><time>2026-04-18T08:05:16.512Z</time></trkpt><trkpt lat="42.7692774" lon="10.3452621"><ele>74.0</ele><time>2026-04-18T08:05:17.51Z</time></trkpt><trkpt lat="42.7693519" lon="10.3453428"><ele>74.0</ele><time>2026-04-18T08:05:18.51Z</time></trkpt><trkpt lat="42.7694221" lon="10.3454303"><ele>74.0</ele><time>2026-04-18T08:05:19.513Z</time></trkpt><trkpt lat="42.7694893" lon="10.3455164"><ele>74.0</ele><time>2026-04-18T08:05:20.512Z</time></trkpt><trkpt lat="42.7695519" lon="10.3455988"><ele>74.5</ele><time>2026-04-18T08:05:21.511Z</time></trkpt><trkpt lat="42.7696051" lon="10.3456761"><ele>75.0</ele><time>2026-04-18T08:05:22.52Z</time></trkpt><trkpt lat="42.769655" lon="10.3457508"><ele>75.5</ele><time>2026-04-18T08:05:23.51Z</time></trkpt><trkpt lat="42.769711" lon="10.345822"><ele>76.0</ele><time>2026-04-18T08:05:24.512Z</time></trkpt><trkpt lat="42.7697794" lon="10.3458753"><ele>76.5</ele><time>2026-04-18T08:05:25.511Z</time></trkpt><trkpt lat="42.7698563" lon="10.3459148"><ele>77.0</ele><time>2026-04-18T08:05:26.512Z</time></trkpt><trkpt lat="42.7699412" lon="10.3459412"><ele>77.0</ele><time>2026-04-18T08:05:27.512Z</time></trkpt><trkpt lat="42.7700227" lon="10.3459634"><ele>77.0</ele><time>2026-04-18T08:05:28.514Z</time></trkpt><trkpt lat="42.7700903" lon="10.345997"><ele>77.0</ele><time>2026-04-18T08:05:29.513Z</time></trkpt><trkpt lat="42.7701494" lon="10.3460532"><ele>77.0</ele><time>2026-04-18T08:05:30.508Z</time></trkpt><trkpt lat="42.7701991" lon="10.3461239"><ele>77.0</ele><time>2026-04-18T08:05:31.508Z</time></trkpt><trkpt lat="42.7702364" lon="10.3462082"><ele>77.0</ele><time>2026-04-18T08:05:32.51Z</time></trkpt><trkpt lat="42.770264" lon="10.3463065"><ele>77.0</ele><time>2026-04-18T08:05:33.512Z</time></trkpt><trkpt lat="42.7702876" lon="10.3464065"><ele>75.85714285714286</ele><time>2026-04-18T08:05:34.517Z</time></trkpt><trkpt lat="42.7703054" lon="10.346498"><ele>74.71428571428572</ele><time>2026-04-18T08:05:35.507Z</time></trkpt><trkpt lat="42.7703176" lon="10.3465904"><ele>73.57142857142857</ele><time>2026-04-18T08:05:36.51Z</time></trkpt><trkpt lat="42.7703214" lon="10.3466884"><ele>72.42857142857143</ele><time>2026-04-18T08:05:37.511Z</time></trkpt><trkpt lat="42.7703186" lon="10.3467851"><ele>71.28571428571429</ele><time>2026-04-18T08:05:38.503Z</time></trkpt><trkpt lat="42.770304" lon="10.3468736"><ele>70.14285714285714</ele><time>2026-04-18T08:05:39.509Z</time></trkpt><trkpt lat="42.7702781" lon="10.3469652"><ele>69.0</ele><time>2026-04-18T08:05:40.509Z</time></trkpt><trkpt lat="42.7702466" lon="10.3470524"><ele>69.0</ele><time>2026-04-18T08:05:41.512Z</time></trkpt><trkpt lat="42.7702191" lon="10.3471358"><ele>69.0</ele><time>2026-04-18T08:05:42.51Z</time></trkpt><trkpt lat="42.7702214" lon="10.3472676"><ele>69.0</ele><time>2026-04-18T08:05:44.505Z</time></trkpt><trkpt lat="42.7702947" lon="10.3473888"><ele>69.0</ele><time>2026-04-18T08:05:46.504Z</time></trkpt><trkpt lat="42.7703405" lon="10.3474564"><ele>69.0</ele><time>2026-04-18T08:05:47.505Z</time></trkpt><trkpt lat="42.7703822" lon="10.3475341"><ele>69.0</ele><time>2026-04-18T08:05:48.505Z</time></trkpt><trkpt lat="42.7704191" lon="10.3476288"><ele>69.33333333333333</ele><time>2026-04-18T08:05:49.512Z</time></trkpt><trkpt lat="42.7704452" lon="10.3477378"><ele>69.66666666666667</ele><time>2026-04-18T08:05:50.502Z</time></trkpt><trkpt lat="42.7704634" lon="10.3478567"><ele>70.0</ele><time>2026-04-18T08:05:51.506Z</time></trkpt><trkpt lat="42.7704798" lon="10.3479682"><ele>70.33333333333334</ele><time>2026-04-18T08:05:52.509Z</time></trkpt><trkpt lat="42.7705047" lon="10.3480639"><ele>70.66666666666667</ele><time>2026-04-18T08:05:53.511Z</time></trkpt><trkpt lat="42.7705359" lon="10.3481463"><ele>71.0</ele><time>2026-04-18T08:05:54.509Z</time></trkpt><trkpt lat="42.7705751" lon="10.3482242"><ele>71.16666666666667</ele><time>2026-04-18T08:05:55.508Z</time></trkpt><trkpt lat="42.7706231" lon="10.3483084"><ele>71.33333333333334</ele><time>2026-04-18T08:05:56.51Z</time></trkpt><trkpt lat="42.7706727" lon="10.3483882"><ele>71.5</ele><time>2026-04-18T08:05:57.51Z</time></trkpt><trkpt lat="42.7707121" lon="10.3484638"><ele>71.66666666666667</ele><time>2026-04-18T08:05:58.506Z</time></trkpt><trkpt lat="42.7707391" lon="10.3486138"><ele>71.83333333333333</ele><time>2026-04-18T08:06:00.508Z</time></trkpt><trkpt lat="42.7707835" lon="10.3487106"><ele>72.0</ele><time>2026-04-18T08:06:02.515Z</time></trkpt><trkpt lat="42.7708718" lon="10.3486776"><ele>72.0</ele><time>2026-04-18T08:06:04.503Z</time></trkpt><trkpt lat="42.7709285" lon="10.3486308"><ele>72.0</ele><time>2026-04-18T08:06:05.504Z</time></trkpt><trkpt lat="42.7709956" lon="10.3485697"><ele>72.0</ele><time>2026-04-18T08:06:06.505Z</time></trkpt><trkpt lat="42.7710609" lon="10.348502"><ele>72.0</ele><time>2026-04-18T08:06:07.502Z</time></trkpt><trkpt lat="42.7711201" lon="10.3484271"><ele>72.0</ele><time>2026-04-18T08:06:08.503Z</time></trkpt><trkpt lat="42.7711753" lon="10.3483491"><ele>72.0</ele><time>2026-04-18T08:06:09.505Z</time></trkpt><trkpt lat="42.7712235" lon="10.3482585"><ele>69.0</ele><time>2026-04-18T08:06:10.511Z</time></trkpt><trkpt lat="42.7712602" lon="10.3481528"><ele>66.0</ele><time>2026-04-18T08:06:11.509Z</time></trkpt><trkpt lat="42.7712847" lon="10.3480471"><ele>63.0</ele><time>2026-04-18T08:06:12.514Z</time></trkpt><trkpt lat="42.7713023" lon="10.3479386"><ele>60.0</ele><time>2026-04-18T08:06:13.504Z</time></trkpt><trkpt lat="42.7713197" lon="10.3478334"><ele>57.0</ele><time>2026-04-18T08:06:14.507Z</time></trkpt><trkpt lat="42.7713404" lon="10.3477329"><ele>54.0</ele><time>2026-04-18T08:06:15.507Z</time></trkpt><trkpt lat="42.7713498" lon="10.347637"><ele>54.0</ele><time>2026-04-18T08:06:16.512Z</time></trkpt><trkpt lat="42.7713459" lon="10.3475381"><ele>54.00000000000001</ele><time>2026-04-18T08:06:17.508Z</time></trkpt><trkpt lat="42.7713377" lon="10.3474379"><ele>54.00000000000001</ele><time>2026-04-18T08:06:18.514Z</time></trkpt><trkpt lat="42.7713488" lon="10.3472812"><ele>54.0</ele><time>2026-04-18T08:06:20.506Z</time></trkpt><trkpt lat="42.7714416" lon="10.3471748"><ele>54.0</ele><time>2026-04-18T08:06:22.507Z</time></trkpt><trkpt lat="42.7715128" lon="10.3471225"><ele>53.333333333333336</ele><time>2026-04-18T08:06:23.503Z</time></trkpt><trkpt lat="42.7715834" lon="10.3470669"><ele>52.66666666666667</ele><time>2026-04-18T08:06:24.504Z</time></trkpt><trkpt lat="42.7716417" lon="10.3470083"><ele>52.0</ele><time>2026-04-18T08:06:25.505Z</time></trkpt><trkpt lat="42.7716859" lon="10.346939"><ele>51.333333333333336</ele><time>2026-04-18T08:06:26.51Z</time></trkpt><trkpt lat="42.7717138" lon="10.3468499"><ele>50.66666666666667</ele><time>2026-04-18T08:06:27.508Z</time></trkpt><trkpt lat="42.7717233" lon="10.3467426"><ele>50.0</ele><time>2026-04-18T08:06:28.511Z</time></trkpt><trkpt lat="42.7717109" lon="10.3466226"><ele>50.0</ele><time>2026-04-18T08:06:29.514Z</time></trkpt><trkpt lat="42.7716887" lon="10.3465049"><ele>50.0</ele><time>2026-04-18T08:06:30.516Z</time></trkpt><trkpt lat="42.7716735" lon="10.3464053"><ele>50.0</ele><time>2026-04-18T08:06:31.517Z</time></trkpt><trkpt lat="42.771667" lon="10.3462788"><ele>50.0</ele><time>2026-04-18T08:06:33.522Z</time></trkpt><trkpt lat="42.7717715" lon="10.3463176"><ele>50.0</ele><time>2026-04-18T08:06:36.51Z</time></trkpt><trkpt lat="42.771871" lon="10.3464121"><ele>48.6</ele><time>2026-04-18T08:06:38.519Z</time></trkpt><trkpt lat="42.7719833" lon="10.3464756"><ele>47.2</ele><time>2026-04-18T08:06:40.515Z</time></trkpt><trkpt lat="42.7720806" lon="10.3463996"><ele>45.8</ele><time>2026-04-18T08:06:42.512Z</time></trkpt><trkpt lat="42.7721486" lon="10.3462957"><ele>44.4</ele><time>2026-04-18T08:06:44.512Z</time></trkpt><trkpt lat="42.772194" lon="10.3462149"><ele>43.0</ele><time>2026-04-18T08:06:47.515Z</time></trkpt><trkpt lat="42.7722668" lon="10.3462752"><ele>43.0</ele><time>2026-04-18T08:06:50.519Z</time></trkpt><trkpt lat="42.7723057" lon="10.3463697"><ele>43.0</ele><time>2026-04-18T08:06:51.524Z</time></trkpt><trkpt lat="42.7723635" lon="10.3465089"><ele>43.0</ele><time>2026-04-18T08:06:52.517Z</time></trkpt><trkpt lat="42.7724206" lon="10.3466493"><ele>43.0</ele><time>2026-04-18T08:06:53.516Z</time></trkpt><trkpt lat="42.772474" lon="10.3467776"><ele>43.0</ele><time>2026-04-18T08:06:54.513Z</time></trkpt><trkpt lat="42.7725183" lon="10.3469023"><ele>42.66666666666667</ele><time>2026-04-18T08:06:55.513Z</time></trkpt><trkpt lat="42.7725487" lon="10.3470178"><ele>42.333333333333336</ele><time>2026-04-18T08:06:56.519Z</time></trkpt><trkpt lat="42.7725677" lon="10.3471245"><ele>42.0</ele><time>2026-04-18T08:06:57.522Z</time></trkpt><trkpt lat="42.7725733" lon="10.3472321"><ele>41.666666666666664</ele><time>2026-04-18T08:06:58.515Z</time></trkpt><trkpt lat="42.7725635" lon="10.3473431"><ele>41.33333333333333</ele><time>2026-04-18T08:06:59.521Z</time></trkpt><trkpt lat="42.7725448" lon="10.3474529"><ele>41.0</ele><time>2026-04-18T08:07:00.517Z</time></trkpt><trkpt lat="42.7725175" lon="10.347545"><ele>40.8</ele><time>2026-04-18T08:07:01.519Z</time></trkpt><trkpt lat="42.772475" lon="10.3477202"><ele>40.599999999999994</ele><time>2026-04-18T08:07:03.515Z</time></trkpt><trkpt lat="42.7724672" lon="10.3478328"><ele>40.4</ele><time>2026-04-18T08:07:04.518Z</time></trkpt><trkpt lat="42.7724629" lon="10.347946"><ele>40.2</ele><time>2026-04-18T08:07:05.514Z</time></trkpt><trkpt lat="42.7724648" lon="10.3480549"><ele>40.0</ele><time>2026-04-18T08:07:06.52Z</time></trkpt><trkpt lat="42.7724727" lon="10.3481615"><ele>40.0</ele><time>2026-04-18T08:07:07.515Z</time></trkpt><trkpt lat="42.7724887" lon="10.3482642"><ele>40.0</ele><time>2026-04-18T08:07:08.513Z</time></trkpt><trkpt lat="42.7725061" lon="10.3483634"><ele>40.0</ele><time>2026-04-18T08:07:09.515Z</time></trkpt><trkpt lat="42.7725252" lon="10.3484659"><ele>40.0</ele><time>2026-04-18T08:07:10.515Z</time></trkpt><trkpt lat="42.7725463" lon="10.348568"><ele>40.0</ele><time>2026-04-18T08:07:11.516Z</time></trkpt><trkpt lat="42.7725623" lon="10.3486755"><ele>40.0</ele><time>2026-04-18T08:07:12.515Z</time></trkpt><trkpt lat="42.772583" lon="10.3487926"><ele>39.714285714285715</ele><time>2026-04-18T08:07:13.513Z</time></trkpt><trkpt lat="42.7726029" lon="10.3489108"><ele>39.42857142857143</ele><time>2026-04-18T08:07:14.537Z</time></trkpt><trkpt lat="42.7726212" lon="10.3490201"><ele>39.14285714285714</ele><time>2026-04-18T08:07:15.514Z</time></trkpt><trkpt lat="42.7726362" lon="10.3491166"><ele>38.85714285714286</ele><time>2026-04-18T08:07:16.515Z</time></trkpt><trkpt lat="42.7726495" lon="10.3492064"><ele>38.57142857142858</ele><time>2026-04-18T08:07:17.518Z</time></trkpt><trkpt lat="42.7726579" lon="10.3492968"><ele>38.285714285714285</ele><time>2026-04-18T08:07:18.52Z</time></trkpt><trkpt lat="42.7726637" lon="10.3493915"><ele>38.0</ele><time>2026-04-18T08:07:19.523Z</time></trkpt><trkpt lat="42.7726648" lon="10.3494908"><ele>38.0</ele><time>2026-04-18T08:07:20.519Z</time></trkpt><trkpt lat="42.772659" lon="10.3495934"><ele>38.0</ele><time>2026-04-18T08:07:21.531Z</time></trkpt><trkpt lat="42.7726456" lon="10.3496971"><ele>38.0</ele><time>2026-04-18T08:07:22.519Z</time></trkpt><trkpt lat="42.7726375" lon="10.3498025"><ele>38.0</ele><time>2026-04-18T08:07:23.521Z</time></trkpt><trkpt lat="42.7726367" lon="10.3499048"><ele>38.0</ele><time>2026-04-18T08:07:24.516Z</time></trkpt><trkpt lat="42.772637" lon="10.3499979"><ele>38.0</ele><time>2026-04-18T08:07:25.519Z</time></trkpt><trkpt lat="42.7726362" lon="10.3500918"><ele>38.0</ele><time>2026-04-18T08:07:26.523Z</time></trkpt><trkpt lat="42.7726414" lon="10.3501929"><ele>37.166666666666664</ele><time>2026-04-18T08:07:27.52Z</time></trkpt><trkpt lat="42.7726497" lon="10.350295"><ele>36.33333333333333</ele><time>2026-04-18T08:07:28.525Z</time></trkpt><trkpt lat="42.7726594" lon="10.3503954"><ele>35.5</ele><time>2026-04-18T08:07:29.523Z</time></trkpt><trkpt lat="42.7726704" lon="10.3504961"><ele>34.666666666666664</ele><time>2026-04-18T08:07:30.513Z</time></trkpt><trkpt lat="42.7726846" lon="10.3506036"><ele>33.833333333333336</ele><time>2026-04-18T08:07:31.525Z</time></trkpt><trkpt lat="42.7726977" lon="10.3507113"><ele>33.0</ele><time>2026-04-18T08:07:32.522Z</time></trkpt><trkpt lat="42.7727102" lon="10.3508151"><ele>31.666666666666668</ele><time>2026-04-18T08:07:33.523Z</time></trkpt><trkpt lat="42.7727249" lon="10.350911"><ele>30.333333333333336</ele><time>2026-04-18T08:07:34.521Z</time></trkpt><trkpt lat="42.7727409" lon="10.3509998"><ele>29.0</ele><time>2026-04-18T08:07:35.522Z</time></trkpt><trkpt lat="42.7727651" lon="10.3511627"><ele>27.666666666666668</ele><time>2026-04-18T08:07:37.517Z</time></trkpt><trkpt lat="42.7727911" lon="10.3512968"><ele>26.333333333333336</ele><time>2026-04-18T08:07:39.52Z</time></trkpt><trkpt lat="42.7728114" lon="10.351383"><ele>25.0</ele><time>2026-04-18T08:07:41.517Z</time></trkpt><trkpt lat="42.7728639" lon="10.3514318"><ele>25.0</ele><time>2026-04-18T08:07:50.523Z</time></trkpt><trkpt lat="42.7729653" lon="10.3514131"><ele>25.0</ele><time>2026-04-18T08:07:52.519Z</time></trkpt><trkpt lat="42.7730295" lon="10.351365"><ele>25.0</ele><time>2026-04-18T08:07:53.519Z</time></trkpt><trkpt lat="42.7731096" lon="10.3512973"><ele>25.0</ele><time>2026-04-18T08:07:54.517Z</time></trkpt><trkpt lat="42.7731994" lon="10.351218"><ele>25.0</ele><time>2026-04-18T08:07:55.52Z</time></trkpt><trkpt lat="42.773306" lon="10.3511238"><ele>25.0</ele><time>2026-04-18T08:07:56.526Z</time></trkpt><trkpt lat="42.7734265" lon="10.3510256"><ele>25.0</ele><time>2026-04-18T08:07:57.523Z</time></trkpt><trkpt lat="42.7735488" lon="10.3509392"><ele>25.0</ele><time>2026-04-18T08:07:58.527Z</time></trkpt><trkpt lat="42.7736728" lon="10.3508618"><ele>25.0</ele><time>2026-04-18T08:07:59.521Z</time></trkpt><trkpt lat="42.7737992" lon="10.3507976"><ele>24.75</ele><time>2026-04-18T08:08:00.519Z</time></trkpt><trkpt lat="42.7739298" lon="10.3507408"><ele>24.5</ele><time>2026-04-18T08:08:01.521Z</time></trkpt><trkpt lat="42.7740599" lon="10.3506963"><ele>24.25</ele><time>2026-04-18T08:08:02.52Z</time></trkpt><trkpt lat="42.7741905" lon="10.3506626"><ele>24.0</ele><time>2026-04-18T08:08:03.524Z</time></trkpt><trkpt lat="42.7743219" lon="10.3506393"><ele>24.5</ele><time>2026-04-18T08:08:04.523Z</time></trkpt><trkpt lat="42.7744563" lon="10.3506197"><ele>25.0</ele><time>2026-04-18T08:08:05.52Z</time></trkpt><trkpt lat="42.7745951" lon="10.3506007"><ele>25.5</ele><time>2026-04-18T08:08:06.521Z</time></trkpt><trkpt lat="42.7747346" lon="10.3505788"><ele>26.0</ele><time>2026-04-18T08:08:07.522Z</time></trkpt><trkpt lat="42.7748764" lon="10.3505564"><ele>27.75</ele><time>2026-04-18T08:08:08.521Z</time></trkpt><trkpt lat="42.7750206" lon="10.350536"><ele>29.5</ele><time>2026-04-18T08:08:09.52Z</time></trkpt><trkpt lat="42.775167" lon="10.3505139"><ele>31.25</ele><time>2026-04-18T08:08:10.516Z</time></trkpt><trkpt lat="42.7753119" lon="10.3504871"><ele>33.0</ele><time>2026-04-18T08:08:11.52Z</time></trkpt><trkpt lat="42.7754482" lon="10.3504432"><ele>33.0</ele><time>2026-04-18T08:08:12.514Z</time></trkpt><trkpt lat="42.7755807" lon="10.3503726"><ele>33.0</ele><time>2026-04-18T08:08:13.517Z</time></trkpt><trkpt lat="42.7757056" lon="10.3502878"><ele>33.0</ele><time>2026-04-18T08:08:14.516Z</time></trkpt><trkpt lat="42.7758246" lon="10.3501879"><ele>33.0</ele><time>2026-04-18T08:08:15.521Z</time></trkpt><trkpt lat="42.7759438" lon="10.3500904"><ele>33.25</ele><time>2026-04-18T08:08:16.512Z</time></trkpt><trkpt lat="42.7760696" lon="10.3500129"><ele>33.5</ele><time>2026-04-18T08:08:17.51Z</time></trkpt><trkpt lat="42.7762018" lon="10.3499428"><ele>33.75</ele><time>2026-04-18T08:08:18.512Z</time></trkpt><trkpt lat="42.7763374" lon="10.3498888"><ele>34.0</ele><time>2026-04-18T08:08:19.511Z</time></trkpt><trkpt lat="42.7764757" lon="10.3498405"><ele>34.0</ele><time>2026-04-18T08:08:20.518Z</time></trkpt><trkpt lat="42.7766176" lon="10.3498087"><ele>34.0</ele><time>2026-04-18T08:08:21.52Z</time></trkpt><trkpt lat="42.7767617" lon="10.3497789"><ele>34.0</ele><time>2026-04-18T08:08:22.523Z</time></trkpt><trkpt lat="42.7769067" lon="10.3497503"><ele>34.0</ele><time>2026-04-18T08:08:23.523Z</time></trkpt><trkpt lat="42.777049" lon="10.3497219"><ele>35.25</ele><time>2026-04-18T08:08:24.521Z</time></trkpt><trkpt lat="42.7771892" lon="10.3496858"><ele>36.5</ele><time>2026-04-18T08:08:25.524Z</time></trkpt><trkpt lat="42.7773219" lon="10.3496349"><ele>37.75</ele><time>2026-04-18T08:08:26.524Z</time></trkpt><trkpt lat="42.7774486" lon="10.3495633"><ele>39.0</ele><time>2026-04-18T08:08:27.517Z</time></trkpt><trkpt lat="42.7775706" lon="10.3494674"><ele>38.75</ele><time>2026-04-18T08:08:28.524Z</time></trkpt><trkpt lat="42.777689" lon="10.3493615"><ele>38.5</ele><time>2026-04-18T08:08:29.52Z</time></trkpt><trkpt lat="42.7778051" lon="10.3492569"><ele>38.25</ele><time>2026-04-18T08:08:30.521Z</time></trkpt><trkpt lat="42.7779215" lon="10.349151"><ele>38.0</ele><time>2026-04-18T08:08:31.521Z</time></trkpt><trkpt lat="42.778042" lon="10.3490394"><ele>38.0</ele><time>2026-04-18T08:08:32.522Z</time></trkpt><trkpt lat="42.778166" lon="10.3489281"><ele>38.0</ele><time>2026-04-18T08:08:33.523Z</time></trkpt><trkpt lat="42.7782911" lon="10.3488251"><ele>38.0</ele><time>2026-04-18T08:08:34.53Z</time></trkpt><trkpt lat="42.7784131" lon="10.3487222"><ele>38.0</ele><time>2026-04-18T08:08:35.526Z</time></trkpt><trkpt lat="42.77853" lon="10.3486076"><ele>40.25</ele><time>2026-04-18T08:08:36.523Z</time></trkpt><trkpt lat="42.7786279" lon="10.348462"><ele>42.5</ele><time>2026-04-18T08:08:37.528Z</time></trkpt><trkpt lat="42.7786997" lon="10.3483005"><ele>44.75</ele><time>2026-04-18T08:08:38.522Z</time></trkpt><trkpt lat="42.7787588" lon="10.3481294"><ele>47.0</ele><time>2026-04-18T08:08:39.522Z</time></trkpt><trkpt lat="42.7788163" lon="10.3479576"><ele>47.25</ele><time>2026-04-18T08:08:40.523Z</time></trkpt><trkpt lat="42.7788739" lon="10.3477849"><ele>47.5</ele><time>2026-04-18T08:08:41.522Z</time></trkpt><trkpt lat="42.7789319" lon="10.3476083"><ele>47.75</ele><time>2026-04-18T08:08:42.526Z</time></trkpt><trkpt lat="42.7789948" lon="10.3474401"><ele>48.0</ele><time>2026-04-18T08:08:43.518Z</time></trkpt><trkpt lat="42.7790569" lon="10.347304"><ele>48.0</ele><time>2026-04-18T08:08:44.519Z</time></trkpt><trkpt lat="42.7791036" lon="10.3472039"><ele>48.0</ele><time>2026-04-18T08:08:45.521Z</time></trkpt><trkpt lat="42.7791589" lon="10.3471131"><ele>48.0</ele><time>2026-04-18T08:08:47.516Z</time></trkpt><trkpt lat="42.7791927" lon="10.3472401"><ele>48.0</ele><time>2026-04-18T08:08:50.507Z</time></trkpt><trkpt lat="42.7791897" lon="10.347417"><ele>48.0</ele><time>2026-04-18T08:08:52.515Z</time></trkpt><trkpt lat="42.7791973" lon="10.347537"><ele>48.0</ele><time>2026-04-18T08:08:53.514Z</time></trkpt><trkpt lat="42.7792075" lon="10.3476716"><ele>48.0</ele><time>2026-04-18T08:08:54.515Z</time></trkpt><trkpt lat="42.7792146" lon="10.3478165"><ele>48.0</ele><time>2026-04-18T08:08:55.513Z</time></trkpt><trkpt lat="42.7792303" lon="10.3479574"><ele>48.0</ele><time>2026-04-18T08:08:56.515Z</time></trkpt><trkpt lat="42.7792577" lon="10.3480779"><ele>48.0</ele><time>2026-04-18T08:08:57.518Z</time></trkpt><trkpt lat="42.7792983" lon="10.348162"><ele>47.857142857142854</ele><time>2026-04-18T08:08:58.517Z</time></trkpt><trkpt lat="42.7793456" lon="10.3482261"><ele>47.714285714285715</ele><time>2026-04-18T08:08:59.513Z</time></trkpt><trkpt lat="42.7793993" lon="10.3482814"><ele>47.57142857142857</ele><time>2026-04-18T08:09:00.513Z</time></trkpt><trkpt lat="42.779458" lon="10.3483404"><ele>47.42857142857143</ele><time>2026-04-18T08:09:01.518Z</time></trkpt><trkpt lat="42.7795202" lon="10.3484039"><ele>47.285714285714285</ele><time>2026-04-18T08:09:02.512Z</time></trkpt><trkpt lat="42.7795814" lon="10.3484718"><ele>47.14285714285714</ele><time>2026-04-18T08:09:03.521Z</time></trkpt><trkpt lat="42.779644" lon="10.3485376"><ele>47.0</ele><time>2026-04-18T08:09:04.512Z</time></trkpt><trkpt lat="42.7797144" lon="10.3486045"><ele>48.6</ele><time>2026-04-18T08:09:05.515Z</time></trkpt><trkpt lat="42.7797847" lon="10.3486711"><ele>50.2</ele><time>2026-04-18T08:09:06.515Z</time></trkpt><trkpt lat="42.7798556" lon="10.3487411"><ele>51.8</ele><time>2026-04-18T08:09:07.512Z</time></trkpt><trkpt lat="42.7799272" lon="10.3488159"><ele>53.4</ele><time>2026-04-18T08:09:08.516Z</time></trkpt><trkpt lat="42.7799991" lon="10.3489026"><ele>55.0</ele><time>2026-04-18T08:09:09.516Z</time></trkpt><trkpt lat="42.7800723" lon="10.3489992"><ele>55.0</ele><time>2026-04-18T08:09:10.516Z</time></trkpt><trkpt lat="42.7801462" lon="10.3491035"><ele>55.0</ele><time>2026-04-18T08:09:11.519Z</time></trkpt><trkpt lat="42.7802219" lon="10.3492169"><ele>55.0</ele><time>2026-04-18T08:09:12.516Z</time></trkpt><trkpt lat="42.7802988" lon="10.3493352"><ele>55.0</ele><time>2026-04-18T08:09:13.513Z</time></trkpt><trkpt lat="42.780375" lon="10.3494573"><ele>57.75</ele><time>2026-04-18T08:09:14.518Z</time></trkpt><trkpt lat="42.7804493" lon="10.3495792"><ele>60.5</ele><time>2026-04-18T08:09:15.514Z</time></trkpt><trkpt lat="42.780525" lon="10.3497"><ele>63.25</ele><time>2026-04-18T08:09:16.514Z</time></trkpt><trkpt lat="42.7806037" lon="10.349822"><ele>66.0</ele><time>2026-04-18T08:09:17.523Z</time></trkpt><trkpt lat="42.7806813" lon="10.3499443"><ele>66.0</ele><time>2026-04-18T08:09:18.512Z</time></trkpt><trkpt lat="42.7807564" lon="10.3500713"><ele>66.0</ele><time>2026-04-18T08:09:19.523Z</time></trkpt><trkpt lat="42.7808313" lon="10.3502"><ele>66.0</ele><time>2026-04-18T08:09:20.514Z</time></trkpt><trkpt lat="42.7809066" lon="10.3503291"><ele>66.0</ele><time>2026-04-18T08:09:21.514Z</time></trkpt><trkpt lat="42.7809877" lon="10.3504574"><ele>67.0</ele><time>2026-04-18T08:09:22.516Z</time></trkpt><trkpt lat="42.7810724" lon="10.3505835"><ele>68.0</ele><time>2026-04-18T08:09:23.516Z</time></trkpt><trkpt lat="42.7811575" lon="10.350704"><ele>69.0</ele><time>2026-04-18T08:09:24.513Z</time></trkpt><trkpt lat="42.7812427" lon="10.3508128"><ele>70.0</ele><time>2026-04-18T08:09:25.513Z</time></trkpt><trkpt lat="42.7813305" lon="10.3509106"><ele>70.0</ele><time>2026-04-18T08:09:26.513Z</time></trkpt><trkpt lat="42.7814271" lon="10.3509966"><ele>70.0</ele><time>2026-04-18T08:09:27.51Z</time></trkpt><trkpt lat="42.7815327" lon="10.3510669"><ele>70.0</ele><time>2026-04-18T08:09:28.513Z</time></trkpt><trkpt lat="42.7816435" lon="10.3511333"><ele>70.0</ele><time>2026-04-18T08:09:29.512Z</time></trkpt><trkpt lat="42.7817553" lon="10.3512018"><ele>69.5</ele><time>2026-04-18T08:09:30.511Z</time></trkpt><trkpt lat="42.7818637" lon="10.3512756"><ele>69.0</ele><time>2026-04-18T08:09:31.513Z</time></trkpt><trkpt lat="42.781968" lon="10.3513504"><ele>68.5</ele><time>2026-04-18T08:09:32.512Z</time></trkpt><trkpt lat="42.7820688" lon="10.3514251"><ele>68.0</ele><time>2026-04-18T08:09:33.514Z</time></trkpt><trkpt lat="42.7821626" lon="10.3514981"><ele>68.0</ele><time>2026-04-18T08:09:34.518Z</time></trkpt><trkpt lat="42.7822429" lon="10.3515704"><ele>68.0</ele><time>2026-04-18T08:09:35.518Z</time></trkpt><trkpt lat="42.7823133" lon="10.3516431"><ele>68.0</ele><time>2026-04-18T08:09:36.517Z</time></trkpt><trkpt lat="42.782373" lon="10.3517132"><ele>68.0</ele><time>2026-04-18T08:09:37.517Z</time></trkpt><trkpt lat="42.7824234" lon="10.3517754"><ele>68.0</ele><time>2026-04-18T08:09:38.515Z</time></trkpt><trkpt lat="42.7825125" lon="10.3518535"><ele>68.0</ele><time>2026-04-18T08:09:40.518Z</time></trkpt><trkpt lat="42.7826329" lon="10.3518589"><ele>67.83333333333334</ele><time>2026-04-18T08:09:42.516Z</time></trkpt><trkpt lat="42.7827094" lon="10.3518439"><ele>67.66666666666667</ele><time>2026-04-18T08:09:43.517Z</time></trkpt><trkpt lat="42.7827965" lon="10.3518018"><ele>67.5</ele><time>2026-04-18T08:09:44.512Z</time></trkpt><trkpt lat="42.7828821" lon="10.3517545"><ele>67.33333333333333</ele><time>2026-04-18T08:09:45.506Z</time></trkpt><trkpt lat="42.782967" lon="10.351714"><ele>67.16666666666666</ele><time>2026-04-18T08:09:46.5Z</time></trkpt><trkpt lat="42.7830545" lon="10.3516829"><ele>67.0</ele><time>2026-04-18T08:09:47.502Z</time></trkpt><trkpt lat="42.7831537" lon="10.3516486"><ele>67.0</ele><time>2026-04-18T08:09:48.513Z</time></trkpt><trkpt lat="42.7832564" lon="10.3516053"><ele>67.0</ele><time>2026-04-18T08:09:49.503Z</time></trkpt><trkpt lat="42.7833653" lon="10.3515547"><ele>67.0</ele><time>2026-04-18T08:09:50.501Z</time></trkpt><trkpt lat="42.7834714" lon="10.3515068"><ele>67.0</ele><time>2026-04-18T08:09:51.499Z</time></trkpt><trkpt lat="42.7835784" lon="10.3514625"><ele>67.0</ele><time>2026-04-18T08:09:52.501Z</time></trkpt><trkpt lat="42.783679" lon="10.3514175"><ele>67.2</ele><time>2026-04-18T08:09:53.5Z</time></trkpt><trkpt lat="42.7837724" lon="10.351365"><ele>67.4</ele><time>2026-04-18T08:09:54.502Z</time></trkpt><trkpt lat="42.7838607" lon="10.3513067"><ele>67.6</ele><time>2026-04-18T08:09:55.502Z</time></trkpt><trkpt lat="42.7839456" lon="10.351247"><ele>67.8</ele><time>2026-04-18T08:09:56.501Z</time></trkpt><trkpt lat="42.7840288" lon="10.3511963"><ele>68.0</ele><time>2026-04-18T08:09:57.498Z</time></trkpt><trkpt lat="42.7841162" lon="10.3511437"><ele>68.0</ele><time>2026-04-18T08:09:58.497Z</time></trkpt><trkpt lat="42.7842043" lon="10.3510739"><ele>68.0</ele><time>2026-04-18T08:09:59.499Z</time></trkpt><trkpt lat="42.784292" lon="10.3509889"><ele>68.0</ele><time>2026-04-18T08:10:00.505Z</time></trkpt><trkpt lat="42.7843838" lon="10.3509059"><ele>68.0</ele><time>2026-04-18T08:10:01.509Z</time></trkpt><trkpt lat="42.7844704" lon="10.3508428"><ele>68.0</ele><time>2026-04-18T08:10:02.506Z</time></trkpt><trkpt lat="42.7845486" lon="10.3507956"><ele>68.0</ele><time>2026-04-18T08:10:03.505Z</time></trkpt><trkpt lat="42.7846222" lon="10.3507504"><ele>68.0</ele><time>2026-04-18T08:10:04.503Z</time></trkpt><trkpt lat="42.7846946" lon="10.3506851"><ele>68.0</ele><time>2026-04-18T08:10:05.507Z</time></trkpt><trkpt lat="42.7847669" lon="10.3506081"><ele>68.0</ele><time>2026-04-18T08:10:06.51Z</time></trkpt><trkpt lat="42.7848363" lon="10.3505361"><ele>68.0</ele><time>2026-04-18T08:10:07.506Z</time></trkpt><trkpt lat="42.7849064" lon="10.3504707"><ele>68.0</ele><time>2026-04-18T08:10:08.514Z</time></trkpt><trkpt lat="42.7849772" lon="10.3504103"><ele>68.0</ele><time>2026-04-18T08:10:09.51Z</time></trkpt><trkpt lat="42.7850477" lon="10.3503534"><ele>68.0</ele><time>2026-04-18T08:10:10.507Z</time></trkpt><trkpt lat="42.7851183" lon="10.3502984"><ele>68.0</ele><time>2026-04-18T08:10:11.507Z</time></trkpt><trkpt lat="42.7851908" lon="10.3502419"><ele>68.0</ele><time>2026-04-18T08:10:12.508Z</time></trkpt><trkpt lat="42.7852648" lon="10.3501897"><ele>68.0</ele><time>2026-04-18T08:10:13.506Z</time></trkpt><trkpt lat="42.7853329" lon="10.3501359"><ele>68.0</ele><time>2026-04-18T08:10:14.508Z</time></trkpt><trkpt lat="42.7853979" lon="10.3500753"><ele>66.16666666666667</ele><time>2026-04-18T08:10:15.509Z</time></trkpt><trkpt lat="42.7854623" lon="10.3500088"><ele>64.33333333333334</ele><time>2026-04-18T08:10:16.507Z</time></trkpt><trkpt lat="42.785532" lon="10.3499492"><ele>62.5</ele><time>2026-04-18T08:10:17.507Z</time></trkpt><trkpt lat="42.7855972" lon="10.3498849"><ele>60.66666666666667</ele><time>2026-04-18T08:10:18.507Z</time></trkpt><trkpt lat="42.7856613" lon="10.3498249"><ele>58.833333333333336</ele><time>2026-04-18T08:10:19.512Z</time></trkpt><trkpt lat="42.7857301" lon="10.3497566"><ele>57.0</ele><time>2026-04-18T08:10:20.505Z</time></trkpt><trkpt lat="42.7857985" lon="10.3496885"><ele>57.0</ele><time>2026-04-18T08:10:21.506Z</time></trkpt><trkpt lat="42.7858659" lon="10.3496209"><ele>57.0</ele><time>2026-04-18T08:10:22.506Z</time></trkpt><trkpt lat="42.7859421" lon="10.3495593"><ele>57.0</ele><time>2026-04-18T08:10:23.502Z</time></trkpt><trkpt lat="42.7860122" lon="10.3495034"><ele>57.0</ele><time>2026-04-18T08:10:24.502Z</time></trkpt><trkpt lat="42.7860798" lon="10.3494471"><ele>57.0</ele><time>2026-04-18T08:10:25.509Z</time></trkpt><trkpt lat="42.7861422" lon="10.3493914"><ele>57.0</ele><time>2026-04-18T08:10:26.509Z</time></trkpt><trkpt lat="42.7862068" lon="10.34933"><ele>54.14285714285714</ele><time>2026-04-18T08:10:27.513Z</time></trkpt><trkpt lat="42.7862796" lon="10.3492788"><ele>51.28571428571428</ele><time>2026-04-18T08:10:28.51Z</time></trkpt><trkpt lat="42.7863468" lon="10.3492346"><ele>48.42857142857143</ele><time>2026-04-18T08:10:29.515Z</time></trkpt><trkpt lat="42.7864085" lon="10.3491843"><ele>45.57142857142857</ele><time>2026-04-18T08:10:30.512Z</time></trkpt><trkpt lat="42.7864666" lon="10.3491194"><ele>42.71428571428571</ele><time>2026-04-18T08:10:31.514Z</time></trkpt><trkpt lat="42.7865245" lon="10.3490539"><ele>39.85714285714286</ele><time>2026-04-18T08:10:32.509Z</time></trkpt><trkpt lat="42.7865766" lon="10.3489921"><ele>37.0</ele><time>2026-04-18T08:10:33.513Z</time></trkpt><trkpt lat="42.7866312" lon="10.3489198"><ele>36.66666666666667</ele><time>2026-04-18T08:10:34.512Z</time></trkpt><trkpt lat="42.786689" lon="10.3488488"><ele>36.333333333333336</ele><time>2026-04-18T08:10:35.513Z</time></trkpt><trkpt lat="42.7867556" lon="10.3487946"><ele>36.0</ele><time>2026-04-18T08:10:36.512Z</time></trkpt><trkpt lat="42.7868295" lon="10.3487532"><ele>35.666666666666664</ele><time>2026-04-18T08:10:37.513Z</time></trkpt><trkpt lat="42.7869009" lon="10.3487119"><ele>35.33333333333333</ele><time>2026-04-18T08:10:38.517Z</time></trkpt><trkpt lat="42.7869689" lon="10.3486703"><ele>35.0</ele><time>2026-04-18T08:10:39.513Z</time></trkpt><trkpt lat="42.7870349" lon="10.3486302"><ele>32.33333333333333</ele><time>2026-04-18T08:10:40.512Z</time></trkpt><trkpt lat="42.7871053" lon="10.3485958"><ele>29.666666666666664</ele><time>2026-04-18T08:10:41.511Z</time></trkpt><trkpt lat="42.7871804" lon="10.3485699"><ele>27.0</ele><time>2026-04-18T08:10:42.513Z</time></trkpt><trkpt lat="42.7872635" lon="10.3485462"><ele>24.333333333333332</ele><time>2026-04-18T08:10:43.513Z</time></trkpt><trkpt lat="42.7873513" lon="10.3485256"><ele>21.666666666666664</ele><time>2026-04-18T08:10:44.513Z</time></trkpt><trkpt lat="42.7874435" lon="10.3485024"><ele>19.0</ele><time>2026-04-18T08:10:45.512Z</time></trkpt><trkpt lat="42.7875333" lon="10.3484839"><ele>19.0</ele><time>2026-04-18T08:10:46.512Z</time></trkpt><trkpt lat="42.7876247" lon="10.3484752"><ele>19.0</ele><time>2026-04-18T08:10:47.512Z</time></trkpt><trkpt lat="42.7877108" lon="10.3484797"><ele>19.0</ele><time>2026-04-18T08:10:48.512Z</time></trkpt><trkpt lat="42.7877935" lon="10.3484929"><ele>19.0</ele><time>2026-04-18T08:10:49.512Z</time></trkpt><trkpt lat="42.7878674" lon="10.3485135"><ele>19.0</ele><time>2026-04-18T08:10:50.52Z</time></trkpt><trkpt lat="42.7879316" lon="10.3485463"><ele>19.0</ele><time>2026-04-18T08:10:51.514Z</time></trkpt><trkpt lat="42.7880357" lon="10.3485981"><ele>17.8</ele><time>2026-04-18T08:10:53.515Z</time></trkpt><trkpt lat="42.7881307" lon="10.3486668"><ele>16.599999999999998</ele><time>2026-04-18T08:10:55.516Z</time></trkpt><trkpt lat="42.7882399" lon="10.3487738"><ele>15.4</ele><time>2026-04-18T08:10:57.514Z</time></trkpt><trkpt lat="42.7883093" lon="10.3488377"><ele>14.2</ele><time>2026-04-18T08:10:58.513Z</time></trkpt><trkpt lat="42.7883805" lon="10.3489017"><ele>13.0</ele><time>2026-04-18T08:10:59.514Z</time></trkpt><trkpt lat="42.7884499" lon="10.3489623"><ele>12.200000000000001</ele><time>2026-04-18T08:11:00.514Z</time></trkpt><trkpt lat="42.7885189" lon="10.3490223"><ele>11.4</ele><time>2026-04-18T08:11:01.516Z</time></trkpt><trkpt lat="42.7885975" lon="10.3490775"><ele>10.600000000000001</ele><time>2026-04-18T08:11:02.513Z</time></trkpt><trkpt lat="42.7886884" lon="10.3491288"><ele>9.8</ele><time>2026-04-18T08:11:03.514Z</time></trkpt><trkpt lat="42.7887834" lon="10.3491753"><ele>9.0</ele><time>2026-04-18T08:11:04.512Z</time></trkpt><trkpt lat="42.7888736" lon="10.349221"><ele>9.0</ele><time>2026-04-18T08:11:05.512Z</time></trkpt><trkpt lat="42.7889561" lon="10.3492674"><ele>9.0</ele><time>2026-04-18T08:11:06.514Z</time></trkpt><trkpt lat="42.7890331" lon="10.3493235"><ele>9.0</ele><time>2026-04-18T08:11:07.513Z</time></trkpt><trkpt lat="42.7891046" lon="10.349395"><ele>9.0</ele><time>2026-04-18T08:11:08.518Z</time></trkpt><trkpt lat="42.7891717" lon="10.3494887"><ele>9.0</ele><time>2026-04-18T08:11:09.509Z</time></trkpt><trkpt lat="42.7892347" lon="10.3495934"><ele>9.0</ele><time>2026-04-18T08:11:10.516Z</time></trkpt><trkpt lat="42.7892945" lon="10.3496926"><ele>9.0</ele><time>2026-04-18T08:11:11.514Z</time></trkpt><trkpt lat="42.7893524" lon="10.3497801"><ele>9.0</ele><time>2026-04-18T08:11:12.513Z</time></trkpt><trkpt lat="42.7894076" lon="10.3498621"><ele>9.0</ele><time>2026-04-18T08:11:13.514Z</time></trkpt><trkpt lat="42.7894569" lon="10.3499472"><ele>9.0</ele><time>2026-04-18T08:11:14.512Z</time></trkpt><trkpt lat="42.7895128" lon="10.3500365"><ele>9.0</ele><time>2026-04-18T08:11:15.511Z</time></trkpt><trkpt lat="42.789569" lon="10.3501173"><ele>8.666666666666666</ele><time>2026-04-18T08:11:16.51Z</time></trkpt><trkpt lat="42.7896217" lon="10.3501901"><ele>8.333333333333334</ele><time>2026-04-18T08:11:17.516Z</time></trkpt><trkpt lat="42.7896675" lon="10.350249"><ele>8.0</ele><time>2026-04-18T08:11:18.512Z</time></trkpt><trkpt lat="42.7897507" lon="10.3503421"><ele>7.666666666666667</ele><time>2026-04-18T08:11:20.511Z</time></trkpt><trkpt lat="42.7898395" lon="10.350431"><ele>7.333333333333334</ele><time>2026-04-18T08:11:22.513Z</time></trkpt><trkpt lat="42.7898901" lon="10.3504867"><ele>7.0</ele><time>2026-04-18T08:11:23.511Z</time></trkpt><trkpt lat="42.7899369" lon="10.3505602"><ele>7.0</ele><time>2026-04-18T08:11:24.505Z</time></trkpt><trkpt lat="42.789983" lon="10.3506342"><ele>7.0</ele><time>2026-04-18T08:11:25.513Z</time></trkpt><trkpt lat="42.7900271" lon="10.3507163"><ele>7.0</ele><time>2026-04-18T08:11:26.515Z</time></trkpt><trkpt lat="42.7900743" lon="10.350798"><ele>7.0</ele><time>2026-04-18T08:11:27.509Z</time></trkpt><trkpt lat="42.790123" lon="10.3508801"><ele>7.0</ele><time>2026-04-18T08:11:28.509Z</time></trkpt><trkpt lat="42.7901704" lon="10.3509561"><ele>7.0</ele><time>2026-04-18T08:11:29.509Z</time></trkpt><trkpt lat="42.7902133" lon="10.3510235"><ele>7.0</ele><time>2026-04-18T08:11:30.509Z</time></trkpt><trkpt lat="42.7902861" lon="10.3510992"><ele>7.3999999999999995</ele><time>2026-04-18T08:11:32.507Z</time></trkpt><trkpt lat="42.790358" lon="10.3511149"><ele>7.799999999999999</ele><time>2026-04-18T08:11:34.504Z</time></trkpt><trkpt lat="42.7904386" lon="10.3511856"><ele>8.2</ele><time>2026-04-18T08:11:36.509Z</time></trkpt><trkpt lat="42.7905338" lon="10.3512344"><ele>8.6</ele><time>2026-04-18T08:11:38.506Z</time></trkpt><trkpt lat="42.7906344" lon="10.3512383"><ele>9.0</ele><time>2026-04-18T08:11:40.506Z</time></trkpt><trkpt lat="42.790753" lon="10.3512095"><ele>9.0</ele><time>2026-04-18T08:11:42.509Z</time></trkpt><trkpt lat="42.7908283" lon="10.3511829"><ele>9.0</ele><time>2026-04-18T08:11:43.505Z</time></trkpt><trkpt lat="42.7909126" lon="10.3511511"><ele>9.0</ele><time>2026-04-18T08:11:44.511Z</time></trkpt><trkpt lat="42.7910044" lon="10.3511164"><ele>9.0</ele><time>2026-04-18T08:11:45.507Z</time></trkpt><trkpt lat="42.7910957" lon="10.3510815"><ele>9.0</ele><time>2026-04-18T08:11:46.509Z</time></trkpt><trkpt lat="42.7911796" lon="10.3510482"><ele>9.0</ele><time>2026-04-18T08:11:47.51Z</time></trkpt><trkpt lat="42.7912534" lon="10.3510257"><ele>8.666666666666666</ele><time>2026-04-18T08:11:48.507Z</time></trkpt><trkpt lat="42.7913262" lon="10.3510092"><ele>8.333333333333334</ele><time>2026-04-18T08:11:49.508Z</time></trkpt><trkpt lat="42.7914027" lon="10.3510069"><ele>8.0</ele><time>2026-04-18T08:11:50.506Z</time></trkpt><trkpt lat="42.7914791" lon="10.3510101"><ele>7.666666666666667</ele><time>2026-04-18T08:11:51.506Z</time></trkpt><trkpt lat="42.7915537" lon="10.3510191"><ele>7.333333333333334</ele><time>2026-04-18T08:11:52.526Z</time></trkpt><trkpt lat="42.7916188" lon="10.3510211"><ele>7.0</ele><time>2026-04-18T08:11:53.509Z</time></trkpt><trkpt lat="42.7917228" lon="10.3509858"><ele>7.000000000000001</ele><time>2026-04-18T08:11:55.51Z</time></trkpt><trkpt lat="42.7917829" lon="10.3509253"><ele>7.0</ele><time>2026-04-18T08:11:57.512Z</time></trkpt><trkpt lat="42.791819" lon="10.3508371"><ele>7.0</ele><time>2026-04-18T08:12:00.516Z</time></trkpt><trkpt lat="42.791814" lon="10.3507357"><ele>7.0</ele><time>2026-04-18T08:12:02.517Z</time></trkpt><trkpt lat="42.7917804" lon="10.3505942"><ele>7.000000000000001</ele><time>2026-04-18T08:12:04.516Z</time></trkpt><trkpt lat="42.7917528" lon="10.3504945"><ele>7.0</ele><time>2026-04-18T08:12:05.516Z</time></trkpt><trkpt lat="42.7917276" lon="10.3503735"><ele>6.6</ele><time>2026-04-18T08:12:06.515Z</time></trkpt><trkpt lat="42.7917078" lon="10.3502481"><ele>6.199999999999999</ele><time>2026-04-18T08:12:07.516Z</time></trkpt><trkpt lat="42.7916909" lon="10.3501159"><ele>5.8</ele><time>2026-04-18T08:12:08.513Z</time></trkpt><trkpt lat="42.7916756" lon="10.3499757"><ele>5.4</ele><time>2026-04-18T08:12:09.512Z</time></trkpt><trkpt lat="42.7916588" lon="10.3498276"><ele>5.0</ele><time>2026-04-18T08:12:10.516Z</time></trkpt><trkpt lat="42.7916445" lon="10.3496745"><ele>5.0</ele><time>2026-04-18T08:12:11.516Z</time></trkpt><trkpt lat="42.7916322" lon="10.3495222"><ele>5.0</ele><time>2026-04-18T08:12:12.516Z</time></trkpt><trkpt lat="42.7916234" lon="10.3493653"><ele>5.0</ele><time>2026-04-18T08:12:13.514Z</time></trkpt><trkpt lat="42.7916161" lon="10.3492087"><ele>5.0</ele><time>2026-04-18T08:12:14.512Z</time></trkpt><trkpt lat="42.7916177" lon="10.3490543"><ele>5.0</ele><time>2026-04-18T08:12:15.512Z</time></trkpt><trkpt lat="42.7916291" lon="10.3489056"><ele>5.0</ele><time>2026-04-18T08:12:16.512Z</time></trkpt><trkpt lat="42.7916566" lon="10.3487784"><ele>5.0</ele><time>2026-04-18T08:12:17.518Z</time></trkpt><trkpt lat="42.7916986" lon="10.3486847"><ele>5.0</ele><time>2026-04-18T08:12:18.513Z</time></trkpt><trkpt lat="42.7917492" lon="10.3486178"><ele>5.0</ele><time>2026-04-18T08:12:19.512Z</time></trkpt><trkpt lat="42.7918229" lon="10.348501"><ele>5.2</ele><time>2026-04-18T08:12:21.512Z</time></trkpt><trkpt lat="42.7918058" lon="10.3484014"><ele>5.4</ele><time>2026-04-18T08:12:23.51Z</time></trkpt><trkpt lat="42.7917281" lon="10.3483303"><ele>5.6</ele><time>2026-04-18T08:12:25.524Z</time></trkpt><trkpt lat="42.7916269" lon="10.3482495"><ele>5.8</ele><time>2026-04-18T08:12:27.515Z</time></trkpt><trkpt lat="42.7915577" lon="10.3482001"><ele>6.0</ele><time>2026-04-18T08:12:28.524Z</time></trkpt><trkpt lat="42.7914752" lon="10.3481383"><ele>6.0</ele><time>2026-04-18T08:12:29.517Z</time></trkpt><trkpt lat="42.791379" lon="10.3480647"><ele>6.0</ele><time>2026-04-18T08:12:30.519Z</time></trkpt><trkpt lat="42.7912701" lon="10.3479838"><ele>6.0</ele><time>2026-04-18T08:12:31.519Z</time></trkpt><trkpt lat="42.7911556" lon="10.3478968"><ele>6.0</ele><time>2026-04-18T08:12:32.52Z</time></trkpt><trkpt lat="42.7910367" lon="10.3477998"><ele>6.75</ele><time>2026-04-18T08:12:33.523Z</time></trkpt><trkpt lat="42.7909183" lon="10.3476989"><ele>7.5</ele><time>2026-04-18T08:12:34.515Z</time></trkpt><trkpt lat="42.7907975" lon="10.3475992"><ele>8.25</ele><time>2026-04-18T08:12:35.524Z</time></trkpt><trkpt lat="42.7906727" lon="10.3475025"><ele>9.0</ele><time>2026-04-18T08:12:36.524Z</time></trkpt><trkpt lat="42.7905431" lon="10.3474051"><ele>9.0</ele><time>2026-04-18T08:12:37.525Z</time></trkpt><trkpt lat="42.7904123" lon="10.3473078"><ele>9.0</ele><time>2026-04-18T08:12:38.513Z</time></trkpt><trkpt lat="42.7902851" lon="10.3472061"><ele>9.0</ele><time>2026-04-18T08:12:39.517Z</time></trkpt><trkpt lat="42.7901601" lon="10.3471066"><ele>9.0</ele><time>2026-04-18T08:12:40.51Z</time></trkpt><trkpt lat="42.7900389" lon="10.3470024"><ele>9.75</ele><time>2026-04-18T08:12:41.519Z</time></trkpt><trkpt lat="42.7899182" lon="10.3469002"><ele>10.5</ele><time>2026-04-18T08:12:42.513Z</time></trkpt><trkpt lat="42.7897946" lon="10.3468078"><ele>11.25</ele><time>2026-04-18T08:12:43.511Z</time></trkpt><trkpt lat="42.7896708" lon="10.3467154"><ele>12.0</ele><time>2026-04-18T08:12:44.512Z</time></trkpt><trkpt lat="42.7895489" lon="10.3466233"><ele>12.0</ele><time>2026-04-18T08:12:45.516Z</time></trkpt><trkpt lat="42.7894365" lon="10.3465369"><ele>12.0</ele><time>2026-04-18T08:12:46.519Z</time></trkpt><trkpt lat="42.7893371" lon="10.3464563"><ele>12.0</ele><time>2026-04-18T08:12:47.523Z</time></trkpt><trkpt lat="42.7892393" lon="10.3463687"><ele>12.0</ele><time>2026-04-18T08:12:48.523Z</time></trkpt><trkpt lat="42.7891385" lon="10.3462767"><ele>12.75</ele><time>2026-04-18T08:12:49.524Z</time></trkpt><trkpt lat="42.7890265" lon="10.3461757"><ele>13.5</ele><time>2026-04-18T08:12:50.523Z</time></trkpt><trkpt lat="42.7889128" lon="10.3460772"><ele>14.25</ele><time>2026-04-18T08:12:51.524Z</time></trkpt><trkpt lat="42.7887963" lon="10.3459881"><ele>15.0</ele><time>2026-04-18T08:12:52.523Z</time></trkpt><trkpt lat="42.7886916" lon="10.3459064"><ele>15.0</ele><time>2026-04-18T08:12:53.524Z</time></trkpt><trkpt lat="42.788592" lon="10.3458304"><ele>15.0</ele><time>2026-04-18T08:12:54.52Z</time></trkpt><trkpt lat="42.7884893" lon="10.3457535"><ele>15.0</ele><time>2026-04-18T08:12:55.518Z</time></trkpt><trkpt lat="42.7883867" lon="10.3456711"><ele>15.0</ele><time>2026-04-18T08:12:56.524Z</time></trkpt><trkpt lat="42.7882823" lon="10.3455897"><ele>16.0</ele><time>2026-04-18T08:12:57.52Z</time></trkpt><trkpt lat="42.7881746" lon="10.3455009"><ele>17.0</ele><time>2026-04-18T08:12:58.521Z</time></trkpt><trkpt lat="42.788063" lon="10.345407"><ele>18.0</ele><time>2026-04-18T08:12:59.521Z</time></trkpt><trkpt lat="42.7879517" lon="10.3453107"><ele>19.0</ele><time>2026-04-18T08:13:00.517Z</time></trkpt><trkpt lat="42.7878409" lon="10.345217"><ele>19.0</ele><time>2026-04-18T08:13:01.515Z</time></trkpt><trkpt lat="42.7877345" lon="10.3451203"><ele>19.0</ele><time>2026-04-18T08:13:02.52Z</time></trkpt><trkpt lat="42.7876265" lon="10.3450263"><ele>19.0</ele><time>2026-04-18T08:13:03.523Z</time></trkpt><trkpt lat="42.7875168" lon="10.3449353"><ele>19.0</ele><time>2026-04-18T08:13:04.522Z</time></trkpt><trkpt lat="42.7874091" lon="10.3448474"><ele>19.6</ele><time>2026-04-18T08:13:05.522Z</time></trkpt><trkpt lat="42.7873063" lon="10.3447651"><ele>20.2</ele><time>2026-04-18T08:13:06.522Z</time></trkpt><trkpt lat="42.787209" lon="10.3446923"><ele>20.8</ele><time>2026-04-18T08:13:07.517Z</time></trkpt><trkpt lat="42.7871155" lon="10.3446202"><ele>21.400000000000002</ele><time>2026-04-18T08:13:08.521Z</time></trkpt><trkpt lat="42.7870283" lon="10.3445567"><ele>22.0</ele><time>2026-04-18T08:13:09.522Z</time></trkpt><trkpt lat="42.786956" lon="10.3444984"><ele>22.333333333333332</ele><time>2026-04-18T08:13:10.51Z</time></trkpt><trkpt lat="42.7869012" lon="10.3444411"><ele>22.666666666666664</ele><time>2026-04-18T08:13:11.517Z</time></trkpt><trkpt lat="42.7868498" lon="10.3443317"><ele>23.0</ele><time>2026-04-18T08:13:13.518Z</time></trkpt><trkpt lat="42.7868465" lon="10.3442074"><ele>23.333333333333332</ele><time>2026-04-18T08:13:15.515Z</time></trkpt><trkpt lat="42.7868451" lon="10.3441154"><ele>23.666666666666668</ele><time>2026-04-18T08:13:16.516Z</time></trkpt><trkpt lat="42.7868421" lon="10.3439781"><ele>24.0</ele><time>2026-04-18T08:13:17.509Z</time></trkpt><trkpt lat="42.7868357" lon="10.3438129"><ele>25.25</ele><time>2026-04-18T08:13:18.508Z</time></trkpt><trkpt lat="42.7868324" lon="10.3436385"><ele>26.5</ele><time>2026-04-18T08:13:19.513Z</time></trkpt><trkpt lat="42.7868288" lon="10.343457"><ele>27.75</ele><time>2026-04-18T08:13:20.516Z</time></trkpt><trkpt lat="42.7868173" lon="10.3432803"><ele>29.0</ele><time>2026-04-18T08:13:21.514Z</time></trkpt><trkpt lat="42.7868093" lon="10.3431177"><ele>29.799999999999997</ele><time>2026-04-18T08:13:22.516Z</time></trkpt><trkpt lat="42.7868013" lon="10.3429745"><ele>30.599999999999998</ele><time>2026-04-18T08:13:23.512Z</time></trkpt><trkpt lat="42.7867948" lon="10.3428519"><ele>31.4</ele><time>2026-04-18T08:13:24.519Z</time></trkpt><trkpt lat="42.7867902" lon="10.3427573"><ele>32.199999999999996</ele><time>2026-04-18T08:13:25.511Z</time></trkpt><trkpt lat="42.7867845" lon="10.3426303"><ele>33.0</ele><time>2026-04-18T08:13:27.514Z</time></trkpt><trkpt lat="42.7867866" lon="10.3425"><ele>33.0</ele><time>2026-04-18T08:15:20.518Z</time></trkpt><trkpt lat="42.7867681" lon="10.342347"><ele>33.0</ele><time>2026-04-18T08:15:22.517Z</time></trkpt><trkpt lat="42.7867581" lon="10.3421671"><ele>33.0</ele><time>2026-04-18T08:15:24.515Z</time></trkpt><trkpt lat="42.7867525" lon="10.3420579"><ele>33.0</ele><time>2026-04-18T08:15:25.51Z</time></trkpt><trkpt lat="42.7867434" lon="10.3419385"><ele>33.0</ele><time>2026-04-18T08:15:26.518Z</time></trkpt><trkpt lat="42.786736" lon="10.3418071"><ele>33.4</ele><time>2026-04-18T08:15:27.516Z</time></trkpt><trkpt lat="42.7867298" lon="10.3416666"><ele>33.8</ele><time>2026-04-18T08:15:28.523Z</time></trkpt><trkpt lat="42.7867208" lon="10.3415146"><ele>34.2</ele><time>2026-04-18T08:15:29.518Z</time></trkpt><trkpt lat="42.786712" lon="10.341359"><ele>34.6</ele><time>2026-04-18T08:15:30.511Z</time></trkpt><trkpt lat="42.7867017" lon="10.3412028"><ele>35.0</ele><time>2026-04-18T08:15:31.515Z</time></trkpt><trkpt lat="42.7866914" lon="10.341051"><ele>35.6</ele><time>2026-04-18T08:15:32.512Z</time></trkpt><trkpt lat="42.7866857" lon="10.3409086"><ele>36.2</ele><time>2026-04-18T08:15:33.508Z</time></trkpt><trkpt lat="42.7866783" lon="10.3407853"><ele>36.8</ele><time>2026-04-18T08:15:34.516Z</time></trkpt><trkpt lat="42.7866754" lon="10.3406951"><ele>37.4</ele><time>2026-04-18T08:15:35.512Z</time></trkpt><trkpt lat="42.7866508" lon="10.3405933"><ele>38.0</ele><time>2026-04-18T08:15:37.515Z</time></trkpt><trkpt lat="42.7865207" lon="10.3405736"><ele>38.0</ele><time>2026-04-18T08:15:39.511Z</time></trkpt><trkpt lat="42.786442" lon="10.3405604"><ele>38.0</ele><time>2026-04-18T08:15:40.51Z</time></trkpt><trkpt lat="42.7863639" lon="10.340541"><ele>38.0</ele><time>2026-04-18T08:15:41.513Z</time></trkpt><trkpt lat="42.7862945" lon="10.3405131"><ele>38.0</ele><time>2026-04-18T08:15:42.512Z</time></trkpt><trkpt lat="42.7862263" lon="10.3404711"><ele>38.0</ele><time>2026-04-18T08:15:43.516Z</time></trkpt><trkpt lat="42.7861622" lon="10.3404171"><ele>38.0</ele><time>2026-04-18T08:15:44.512Z</time></trkpt><trkpt lat="42.7861014" lon="10.3403492"><ele>39.666666666666664</ele><time>2026-04-18T08:15:45.515Z</time></trkpt><trkpt lat="42.7860441" lon="10.3402686"><ele>41.33333333333333</ele><time>2026-04-18T08:15:46.515Z</time></trkpt><trkpt lat="42.7859916" lon="10.3401862"><ele>43.0</ele><time>2026-04-18T08:15:47.516Z</time></trkpt><trkpt lat="42.785946" lon="10.3401033"><ele>44.666666666666664</ele><time>2026-04-18T08:15:48.516Z</time></trkpt><trkpt lat="42.7859042" lon="10.340034"><ele>46.333333333333336</ele><time>2026-04-18T08:15:49.517Z</time></trkpt><trkpt lat="42.7858454" lon="10.33994"><ele>48.0</ele><time>2026-04-18T08:15:51.518Z</time></trkpt><trkpt lat="42.7858211" lon="10.3398329"><ele>48.666666666666664</ele><time>2026-04-18T08:15:53.52Z</time></trkpt><trkpt lat="42.7857949" lon="10.3396657"><ele>49.33333333333333</ele><time>2026-04-18T08:15:55.517Z</time></trkpt><trkpt lat="42.7857672" lon="10.3395824"><ele>50.0</ele><time>2026-04-18T08:15:56.517Z</time></trkpt><trkpt lat="42.7857272" lon="10.3394994"><ele>50.666666666666664</ele><time>2026-04-18T08:15:57.522Z</time></trkpt><trkpt lat="42.7856887" lon="10.3394188"><ele>51.33333333333333</ele><time>2026-04-18T08:15:58.521Z</time></trkpt><trkpt lat="42.7856521" lon="10.3393429"><ele>52.0</ele><time>2026-04-18T08:15:59.529Z</time></trkpt><trkpt lat="42.7856138" lon="10.3392716"><ele>51.99999999999999</ele><time>2026-04-18T08:16:00.52Z</time></trkpt><trkpt lat="42.7855713" lon="10.3392005"><ele>52.0</ele><time>2026-04-18T08:16:01.521Z</time></trkpt><trkpt lat="42.7855297" lon="10.3391347"><ele>52.0</ele><time>2026-04-18T08:16:02.523Z</time></trkpt><trkpt lat="42.7854393" lon="10.3390035"><ele>52.0</ele><time>2026-04-18T08:16:04.523Z</time></trkpt><trkpt lat="42.7853861" lon="10.3389278"><ele>51.99999999999999</ele><time>2026-04-18T08:16:05.521Z</time></trkpt><trkpt lat="42.7853293" lon="10.3388439"><ele>52.0</ele><time>2026-04-18T08:16:06.523Z</time></trkpt><trkpt lat="42.7852699" lon="10.3387625"><ele>52.666666666666664</ele><time>2026-04-18T08:16:07.523Z</time></trkpt><trkpt lat="42.7852114" lon="10.3386856"><ele>53.33333333333333</ele><time>2026-04-18T08:16:08.525Z</time></trkpt><trkpt lat="42.7851509" lon="10.3386124"><ele>54.0</ele><time>2026-04-18T08:16:09.514Z</time></trkpt><trkpt lat="42.7850872" lon="10.3385413"><ele>54.66666666666667</ele><time>2026-04-18T08:16:10.511Z</time></trkpt><trkpt lat="42.7850219" lon="10.3384683"><ele>55.333333333333336</ele><time>2026-04-18T08:16:11.512Z</time></trkpt><trkpt lat="42.7849562" lon="10.3383906"><ele>56.0</ele><time>2026-04-18T08:16:12.511Z</time></trkpt><trkpt lat="42.7848863" lon="10.3383101"><ele>56.00000000000001</ele><time>2026-04-18T08:16:13.511Z</time></trkpt><trkpt lat="42.7848242" lon="10.3382242"><ele>56.0</ele><time>2026-04-18T08:16:14.507Z</time></trkpt><trkpt lat="42.7847759" lon="10.3381301"><ele>56.0</ele><time>2026-04-18T08:16:15.508Z</time></trkpt><trkpt lat="42.7847431" lon="10.3380242"><ele>56.0</ele><time>2026-04-18T08:16:16.51Z</time></trkpt><trkpt lat="42.7847244" lon="10.3379057"><ele>56.00000000000001</ele><time>2026-04-18T08:16:17.514Z</time></trkpt><trkpt lat="42.7847139" lon="10.3377805"><ele>56.0</ele><time>2026-04-18T08:16:18.507Z</time></trkpt><trkpt lat="42.784701" lon="10.3376519"><ele>57.4</ele><time>2026-04-18T08:16:19.506Z</time></trkpt><trkpt lat="42.7846855" lon="10.3375198"><ele>58.8</ele><time>2026-04-18T08:16:20.514Z</time></trkpt><trkpt lat="42.7846677" lon="10.3373864"><ele>60.199999999999996</ele><time>2026-04-18T08:16:21.507Z</time></trkpt><trkpt lat="42.784653" lon="10.3372592"><ele>61.599999999999994</ele><time>2026-04-18T08:16:22.513Z</time></trkpt><trkpt lat="42.784643" lon="10.3371405"><ele>63.0</ele><time>2026-04-18T08:16:23.502Z</time></trkpt><trkpt lat="42.7846463" lon="10.3370335"><ele>65.0</ele><time>2026-04-18T08:16:24.501Z</time></trkpt><trkpt lat="42.7846945" lon="10.336899"><ele>67.0</ele><time>2026-04-18T08:16:26.499Z</time></trkpt><trkpt lat="42.7848126" lon="10.3368732"><ele>69.0</ele><time>2026-04-18T08:16:28.508Z</time></trkpt><trkpt lat="42.784875" lon="10.3369232"><ele>71.0</ele><time>2026-04-18T08:16:29.508Z</time></trkpt><trkpt lat="42.7849288" lon="10.3370164"><ele>73.0</ele><time>2026-04-18T08:16:30.524Z</time></trkpt><trkpt lat="42.7849778" lon="10.3371237"><ele>72.6</ele><time>2026-04-18T08:16:31.509Z</time></trkpt><trkpt lat="42.7850349" lon="10.3372227"><ele>72.19999999999999</ele><time>2026-04-18T08:16:32.511Z</time></trkpt><trkpt lat="42.7851186" lon="10.3372961"><ele>71.8</ele><time>2026-04-18T08:16:33.509Z</time></trkpt><trkpt lat="42.7852213" lon="10.3373391"><ele>71.39999999999999</ele><time>2026-04-18T08:16:34.509Z</time></trkpt><trkpt lat="42.7853347" lon="10.3373606"><ele>71.0</ele><time>2026-04-18T08:16:35.506Z</time></trkpt><trkpt lat="42.7854487" lon="10.337374"><ele>71.0</ele><time>2026-04-18T08:16:36.509Z</time></trkpt><trkpt lat="42.785558" lon="10.3373808"><ele>71.0</ele><time>2026-04-18T08:16:37.506Z</time></trkpt><trkpt lat="42.7856525" lon="10.3373964"><ele>71.0</ele><time>2026-04-18T08:16:38.505Z</time></trkpt><trkpt lat="42.7857269" lon="10.3374233"><ele>71.0</ele><time>2026-04-18T08:16:39.512Z</time></trkpt><trkpt lat="42.7857893" lon="10.337544"><ele>71.0</ele><time>2026-04-18T08:16:41.503Z</time></trkpt><trkpt lat="42.7857925" lon="10.3376318"><ele>71.0</ele><time>2026-04-18T08:16:42.504Z</time></trkpt><trkpt lat="42.7857855" lon="10.3377293"><ele>71.0</ele><time>2026-04-18T08:16:43.506Z</time></trkpt><trkpt lat="42.7857845" lon="10.3378343"><ele>71.0</ele><time>2026-04-18T08:16:44.505Z</time></trkpt><trkpt lat="42.7858069" lon="10.3379388"><ele>71.0</ele><time>2026-04-18T08:16:45.508Z</time></trkpt><trkpt lat="42.7858533" lon="10.3380172"><ele>71.0</ele><time>2026-04-18T08:16:46.516Z</time></trkpt><trkpt lat="42.7859278" lon="10.3380591"><ele>71.0</ele><time>2026-04-18T08:16:47.516Z</time></trkpt><trkpt lat="42.7860154" lon="10.3380562"><ele>69.6</ele><time>2026-04-18T08:16:48.508Z</time></trkpt><trkpt lat="42.7861047" lon="10.3380095"><ele>68.19999999999999</ele><time>2026-04-18T08:16:49.511Z</time></trkpt><trkpt lat="42.7861741" lon="10.337933"><ele>66.80000000000001</ele><time>2026-04-18T08:16:50.515Z</time></trkpt><trkpt lat="42.7862166" lon="10.3378309"><ele>65.4</ele><time>2026-04-18T08:16:51.523Z</time></trkpt><trkpt lat="42.7862405" lon="10.3377022"><ele>64.0</ele><time>2026-04-18T08:16:52.506Z</time></trkpt><trkpt lat="42.7862602" lon="10.3375584"><ele>64.0</ele><time>2026-04-18T08:16:53.513Z</time></trkpt><trkpt lat="42.7862796" lon="10.3374178"><ele>64.0</ele><time>2026-04-18T08:16:54.51Z</time></trkpt><trkpt lat="42.7862984" lon="10.3372806"><ele>64.0</ele><time>2026-04-18T08:16:55.511Z</time></trkpt><trkpt lat="42.7863122" lon="10.3371427"><ele>64.0</ele><time>2026-04-18T08:16:56.511Z</time></trkpt><trkpt lat="42.7863157" lon="10.3370127"><ele>64.0</ele><time>2026-04-18T08:16:57.508Z</time></trkpt><trkpt lat="42.7863172" lon="10.3368876"><ele>64.83333333333333</ele><time>2026-04-18T08:16:58.51Z</time></trkpt><trkpt lat="42.7863167" lon="10.3367662"><ele>65.66666666666666</ele><time>2026-04-18T08:16:59.508Z</time></trkpt><trkpt lat="42.7863176" lon="10.3366425"><ele>66.5</ele><time>2026-04-18T08:17:00.515Z</time></trkpt><trkpt lat="42.7863226" lon="10.3365244"><ele>67.33333333333333</ele><time>2026-04-18T08:17:01.513Z</time></trkpt><trkpt lat="42.7863426" lon="10.3364208"><ele>68.16666666666667</ele><time>2026-04-18T08:17:02.507Z</time></trkpt><trkpt lat="42.7863727" lon="10.3363164"><ele>69.0</ele><time>2026-04-18T08:17:03.508Z</time></trkpt><trkpt lat="42.7864115" lon="10.3361983"><ele>70.2</ele><time>2026-04-18T08:17:04.505Z</time></trkpt><trkpt lat="42.786441" lon="10.3360793"><ele>71.4</ele><time>2026-04-18T08:17:05.513Z</time></trkpt><trkpt lat="42.7864457" lon="10.3359662"><ele>72.6</ele><time>2026-04-18T08:17:06.508Z</time></trkpt><trkpt lat="42.7864182" lon="10.3358398"><ele>73.8</ele><time>2026-04-18T08:17:07.511Z</time></trkpt><trkpt lat="42.7863652" lon="10.3357082"><ele>75.0</ele><time>2026-04-18T08:17:08.503Z</time></trkpt><trkpt lat="42.7863044" lon="10.3355847"><ele>75.0</ele><time>2026-04-18T08:17:09.51Z</time></trkpt><trkpt lat="42.7862591" lon="10.3354682"><ele>75.0</ele><time>2026-04-18T08:17:10.508Z</time></trkpt><trkpt lat="42.7862186" lon="10.3353524"><ele>75.0</ele><time>2026-04-18T08:17:11.505Z</time></trkpt><trkpt lat="42.7861757" lon="10.3352307"><ele>75.0</ele><time>2026-04-18T08:17:12.507Z</time></trkpt><trkpt lat="42.7861325" lon="10.3351016"><ele>75.0</ele><time>2026-04-18T08:17:13.503Z</time></trkpt><trkpt lat="42.7860922" lon="10.3349657"><ele>75.0</ele><time>2026-04-18T08:17:14.502Z</time></trkpt><trkpt lat="42.7860457" lon="10.3348253"><ele>75.0</ele><time>2026-04-18T08:17:15.502Z</time></trkpt><trkpt lat="42.7860063" lon="10.3346824"><ele>75.0</ele><time>2026-04-18T08:17:16.5Z</time></trkpt><trkpt lat="42.7859654" lon="10.3345365"><ele>75.0</ele><time>2026-04-18T08:17:17.502Z</time></trkpt><trkpt lat="42.7859237" lon="10.3343885"><ele>79.6</ele><time>2026-04-18T08:17:18.504Z</time></trkpt><trkpt lat="42.7858775" lon="10.3342512"><ele>84.2</ele><time>2026-04-18T08:17:19.507Z</time></trkpt><trkpt lat="42.7858362" lon="10.3341205"><ele>88.80000000000001</ele><time>2026-04-18T08:17:20.509Z</time></trkpt><trkpt lat="42.7858" lon="10.3340021"><ele>93.4</ele><time>2026-04-18T08:17:21.506Z</time></trkpt><trkpt lat="42.7857622" lon="10.3338836"><ele>98.0</ele><time>2026-04-18T08:17:22.503Z</time></trkpt><trkpt lat="42.7857137" lon="10.3337577"><ele>98.0</ele><time>2026-04-18T08:17:23.504Z</time></trkpt><trkpt lat="42.7856516" lon="10.3336322"><ele>98.0</ele><time>2026-04-18T08:17:24.5Z</time></trkpt><trkpt lat="42.7855808" lon="10.3335123"><ele>98.0</ele><time>2026-04-18T08:17:25.508Z</time></trkpt><trkpt lat="42.7855136" lon="10.3333975"><ele>98.0</ele><time>2026-04-18T08:17:26.503Z</time></trkpt><trkpt lat="42.7854556" lon="10.3332934"><ele>98.0</ele><time>2026-04-18T08:17:27.503Z</time></trkpt><trkpt lat="42.7854118" lon="10.3332021"><ele>97.99999999999999</ele><time>2026-04-18T08:17:28.502Z</time></trkpt><trkpt lat="42.7853843" lon="10.33311"><ele>98.0</ele><time>2026-04-18T08:17:29.499Z</time></trkpt><trkpt lat="42.7853632" lon="10.3330034"><ele>98.0</ele><time>2026-04-18T08:17:30.507Z</time></trkpt><trkpt lat="42.7853342" lon="10.3328898"><ele>98.0</ele><time>2026-04-18T08:17:31.515Z</time></trkpt><trkpt lat="42.785306" lon="10.3327679"><ele>97.99999999999999</ele><time>2026-04-18T08:17:32.491Z</time></trkpt><trkpt lat="42.7852865" lon="10.3326367"><ele>98.0</ele><time>2026-04-18T08:17:33.501Z</time></trkpt><trkpt lat="42.7852642" lon="10.3325122"><ele>99.83333333333333</ele><time>2026-04-18T08:17:34.499Z</time></trkpt><trkpt lat="42.7852415" lon="10.3323966"><ele>101.66666666666666</ele><time>2026-04-18T08:17:35.503Z</time></trkpt><trkpt lat="42.7852152" lon="10.3322906"><ele>103.5</ele><time>2026-04-18T08:17:36.496Z</time></trkpt><trkpt lat="42.7851925" lon="10.3321903"><ele>105.33333333333334</ele><time>2026-04-18T08:17:37.5Z</time></trkpt><trkpt lat="42.7851797" lon="10.3320941"><ele>107.16666666666667</ele><time>2026-04-18T08:17:38.5Z</time></trkpt><trkpt lat="42.7851846" lon="10.3319999"><ele>109.0</ele><time>2026-04-18T08:17:39.501Z</time></trkpt><trkpt lat="42.7852057" lon="10.3319067"><ele>111.0</ele><time>2026-04-18T08:17:40.499Z</time></trkpt><trkpt lat="42.7852379" lon="10.3318222"><ele>113.0</ele><time>2026-04-18T08:17:41.5Z</time></trkpt><trkpt lat="42.78532" lon="10.3317517"><ele>115.0</ele><time>2026-04-18T08:17:43.496Z</time></trkpt><trkpt lat="42.7854146" lon="10.3318075"><ele>117.0</ele><time>2026-04-18T08:17:45.502Z</time></trkpt><trkpt lat="42.7854744" lon="10.3318835"><ele>119.0</ele><time>2026-04-18T08:17:46.496Z</time></trkpt><trkpt lat="42.785547" lon="10.3319754"><ele>119.0</ele><time>2026-04-18T08:17:47.495Z</time></trkpt><trkpt lat="42.7856258" lon="10.3320712"><ele>119.0</ele><time>2026-04-18T08:17:48.495Z</time></trkpt><trkpt lat="42.7857125" lon="10.3321667"><ele>119.0</ele><time>2026-04-18T08:17:49.495Z</time></trkpt><trkpt lat="42.7858012" lon="10.3322583"><ele>119.0</ele><time>2026-04-18T08:17:50.496Z</time></trkpt><trkpt lat="42.7858861" lon="10.3323386"><ele>119.0</ele><time>2026-04-18T08:17:51.493Z</time></trkpt><trkpt lat="42.7859595" lon="10.3324179"><ele>119.49999999999999</ele><time>2026-04-18T08:17:52.508Z</time></trkpt><trkpt lat="42.7860055" lon="10.3325036"><ele>120.0</ele><time>2026-04-18T08:17:53.497Z</time></trkpt><trkpt lat="42.7860392" lon="10.3326"><ele>120.5</ele><time>2026-04-18T08:17:54.498Z</time></trkpt><trkpt lat="42.7860875" lon="10.3327"><ele>121.0</ele><time>2026-04-18T08:17:55.496Z</time></trkpt><trkpt lat="42.7861542" lon="10.3327932"><ele>121.49999999999999</ele><time>2026-04-18T08:17:56.505Z</time></trkpt><trkpt lat="42.786242" lon="10.3328748"><ele>122.0</ele><time>2026-04-18T08:17:57.502Z</time></trkpt><trkpt lat="42.7863498" lon="10.3329249"><ele>122.0</ele><time>2026-04-18T08:17:58.498Z</time></trkpt><trkpt lat="42.7864634" lon="10.3329377"><ele>121.99999999999999</ele><time>2026-04-18T08:17:59.492Z</time></trkpt><trkpt lat="42.7865767" lon="10.3329248"><ele>121.99999999999999</ele><time>2026-04-18T08:18:00.5Z</time></trkpt><trkpt lat="42.7866826" lon="10.3329121"><ele>122.0</ele><time>2026-04-18T08:18:01.5Z</time></trkpt><trkpt lat="42.7867884" lon="10.3329057"><ele>122.0</ele><time>2026-04-18T08:18:02.509Z</time></trkpt><trkpt lat="42.7868892" lon="10.3329129"><ele>121.8</ele><time>2026-04-18T08:18:03.499Z</time></trkpt><trkpt lat="42.786991" lon="10.332921"><ele>121.6</ele><time>2026-04-18T08:18:04.497Z</time></trkpt><trkpt lat="42.7870925" lon="10.3329268"><ele>121.39999999999999</ele><time>2026-04-18T08:18:05.494Z</time></trkpt><trkpt lat="42.7871952" lon="10.3329338"><ele>121.19999999999999</ele><time>2026-04-18T08:18:06.496Z</time></trkpt><trkpt lat="42.7873022" lon="10.3329428"><ele>121.0</ele><time>2026-04-18T08:18:07.49Z</time></trkpt><trkpt lat="42.7874036" lon="10.3329427"><ele>121.0</ele><time>2026-04-18T08:18:08.501Z</time></trkpt><trkpt lat="42.7875009" lon="10.3329072"><ele>121.0</ele><time>2026-04-18T08:18:09.506Z</time></trkpt><trkpt lat="42.7875831" lon="10.3328347"><ele>121.0</ele><time>2026-04-18T08:18:10.504Z</time></trkpt><trkpt lat="42.7876462" lon="10.3327201"><ele>121.0</ele><time>2026-04-18T08:18:11.511Z</time></trkpt><trkpt lat="42.7876948" lon="10.3325885"><ele>121.0</ele><time>2026-04-18T08:18:12.505Z</time></trkpt><trkpt lat="42.7877325" lon="10.3324736"><ele>119.19999999999999</ele><time>2026-04-18T08:18:13.5Z</time></trkpt><trkpt lat="42.787778" lon="10.3323935"><ele>117.39999999999999</ele><time>2026-04-18T08:18:14.505Z</time></trkpt><trkpt lat="42.787893" lon="10.3323645"><ele>115.6</ele><time>2026-04-18T08:18:16.502Z</time></trkpt><trkpt lat="42.7879932" lon="10.3324059"><ele>113.8</ele><time>2026-04-18T08:18:18.502Z</time></trkpt><trkpt lat="42.7880793" lon="10.3324931"><ele>112.0</ele><time>2026-04-18T08:18:20.504Z</time></trkpt><trkpt lat="42.7881457" lon="10.3325241"><ele>112.0</ele><time>2026-04-18T08:18:21.506Z</time></trkpt><trkpt lat="42.7882223" lon="10.3325126"><ele>111.99999999999999</ele><time>2026-04-18T08:18:22.509Z</time></trkpt><trkpt lat="42.7882968" lon="10.332443"><ele>111.99999999999999</ele><time>2026-04-18T08:18:23.503Z</time></trkpt><trkpt lat="42.7883658" lon="10.3323337"><ele>112.0</ele><time>2026-04-18T08:18:24.512Z</time></trkpt><trkpt lat="42.7884199" lon="10.3322178"><ele>112.0</ele><time>2026-04-18T08:18:25.505Z</time></trkpt><trkpt lat="42.7884668" lon="10.3321132"><ele>114.6</ele><time>2026-04-18T08:18:26.514Z</time></trkpt><trkpt lat="42.7884988" lon="10.3320298"><ele>117.19999999999999</ele><time>2026-04-18T08:18:27.511Z</time></trkpt><trkpt lat="42.7885216" lon="10.3318996"><ele>119.8</ele><time>2026-04-18T08:18:29.517Z</time></trkpt><trkpt lat="42.7884981" lon="10.3317926"><ele>122.4</ele><time>2026-04-18T08:18:33.523Z</time></trkpt><trkpt lat="42.7884867" lon="10.3317048"><ele>125.0</ele><time>2026-04-18T08:18:36.515Z</time></trkpt><trkpt lat="42.7884587" lon="10.3315212"><ele>125.0</ele><time>2026-04-18T08:18:38.51Z</time></trkpt><trkpt lat="42.7884237" lon="10.3313925"><ele>125.0</ele><time>2026-04-18T08:18:39.514Z</time></trkpt><trkpt lat="42.7883824" lon="10.3312437"><ele>125.0</ele><time>2026-04-18T08:18:40.505Z</time></trkpt><trkpt lat="42.7883408" lon="10.3310821"><ele>125.0</ele><time>2026-04-18T08:18:41.512Z</time></trkpt><trkpt lat="42.7882946" lon="10.3309115"><ele>125.5</ele><time>2026-04-18T08:18:42.512Z</time></trkpt><trkpt lat="42.7882453" lon="10.3307276"><ele>126.0</ele><time>2026-04-18T08:18:43.511Z</time></trkpt><trkpt lat="42.7881995" lon="10.3305528"><ele>126.5</ele><time>2026-04-18T08:18:44.51Z</time></trkpt><trkpt lat="42.7881716" lon="10.330408"><ele>127.0</ele><time>2026-04-18T08:18:45.509Z</time></trkpt><trkpt lat="42.7881686" lon="10.3302855"><ele>127.8</ele><time>2026-04-18T08:18:46.507Z</time></trkpt><trkpt lat="42.7881941" lon="10.330167"><ele>128.6</ele><time>2026-04-18T08:18:47.503Z</time></trkpt><trkpt lat="42.7882366" lon="10.3300464"><ele>129.39999999999998</ele><time>2026-04-18T08:18:48.501Z</time></trkpt><trkpt lat="42.7882801" lon="10.3299285"><ele>130.2</ele><time>2026-04-18T08:18:49.508Z</time></trkpt><trkpt lat="42.7883184" lon="10.3298074"><ele>131.0</ele><time>2026-04-18T08:18:50.506Z</time></trkpt><trkpt lat="42.7883453" lon="10.3296722"><ele>132.0</ele><time>2026-04-18T08:18:51.509Z</time></trkpt><trkpt lat="42.788371" lon="10.3295313"><ele>133.0</ele><time>2026-04-18T08:18:52.505Z</time></trkpt><trkpt lat="42.7883943" lon="10.3293965"><ele>134.0</ele><time>2026-04-18T08:18:53.505Z</time></trkpt><trkpt lat="42.7884181" lon="10.3292662"><ele>135.0</ele><time>2026-04-18T08:18:54.505Z</time></trkpt><trkpt lat="42.7884466" lon="10.3291438"><ele>136.0</ele><time>2026-04-18T08:18:55.508Z</time></trkpt><trkpt lat="42.7884848" lon="10.3290349"><ele>134.5</ele><time>2026-04-18T08:18:56.502Z</time></trkpt><trkpt lat="42.7885305" lon="10.3289402"><ele>133.0</ele><time>2026-04-18T08:18:57.508Z</time></trkpt><trkpt lat="42.788596" lon="10.3288685"><ele>131.5</ele><time>2026-04-18T08:18:58.499Z</time></trkpt><trkpt lat="42.7886657" lon="10.3288184"><ele>130.0</ele><time>2026-04-18T08:18:59.501Z</time></trkpt><trkpt lat="42.7887318" lon="10.3287836"><ele>128.5</ele><time>2026-04-18T08:19:00.508Z</time></trkpt><trkpt lat="42.7888463" lon="10.3287345"><ele>127.0</ele><time>2026-04-18T08:19:02.509Z</time></trkpt><trkpt lat="42.7888957" lon="10.3286529"><ele>127.0</ele><time>2026-04-18T08:19:04.52Z</time></trkpt><trkpt lat="42.7888296" lon="10.3285779"><ele>126.99999999999999</ele><time>2026-04-18T08:19:07.515Z</time></trkpt><trkpt lat="42.788735" lon="10.3286091"><ele>126.99999999999999</ele><time>2026-04-18T08:19:09.516Z</time></trkpt><trkpt lat="42.7886162" lon="10.3286784"><ele>127.0</ele><time>2026-04-18T08:19:11.516Z</time></trkpt><trkpt lat="42.7885571" lon="10.3287095"><ele>127.0</ele><time>2026-04-18T08:19:12.512Z</time></trkpt><trkpt lat="42.7884762" lon="10.3287508"><ele>127.8</ele><time>2026-04-18T08:19:14.515Z</time></trkpt><trkpt lat="42.7884113" lon="10.3287993"><ele>128.6</ele><time>2026-04-18T08:19:17.518Z</time></trkpt><trkpt lat="42.7883375" lon="10.3288547"><ele>129.39999999999998</ele><time>2026-04-18T08:19:20.515Z</time></trkpt><trkpt lat="42.7882484" lon="10.3289194"><ele>130.2</ele><time>2026-04-18T08:19:23.506Z</time></trkpt><trkpt lat="42.7881694" lon="10.3289741"><ele>131.0</ele><time>2026-04-18T08:19:25.511Z</time></trkpt><trkpt lat="42.7880592" lon="10.3290447"><ele>131.83333333333331</ele><time>2026-04-18T08:19:27.512Z</time></trkpt><trkpt lat="42.7879984" lon="10.3290981"><ele>132.66666666666666</ele><time>2026-04-18T08:19:28.504Z</time></trkpt><trkpt lat="42.7879416" lon="10.3291686"><ele>133.5</ele><time>2026-04-18T08:19:29.514Z</time></trkpt><trkpt lat="42.7878795" lon="10.3292355"><ele>134.33333333333334</ele><time>2026-04-18T08:19:30.513Z</time></trkpt><trkpt lat="42.7878027" lon="10.3292871"><ele>135.16666666666669</ele><time>2026-04-18T08:19:31.522Z</time></trkpt><trkpt lat="42.7876932" lon="10.3293229"><ele>136.0</ele><time>2026-04-18T08:19:32.511Z</time></trkpt><trkpt lat="42.7875661" lon="10.3293546"><ele>140.5</ele><time>2026-04-18T08:19:33.512Z</time></trkpt><trkpt lat="42.7874398" lon="10.3293841"><ele>145.0</ele><time>2026-04-18T08:19:34.506Z</time></trkpt><trkpt lat="42.7873208" lon="10.3294159"><ele>149.5</ele><time>2026-04-18T08:19:35.521Z</time></trkpt><trkpt lat="42.7872188" lon="10.3294443"><ele>154.0</ele><time>2026-04-18T08:19:36.504Z</time></trkpt><trkpt lat="42.787124" lon="10.3294661"><ele>154.0</ele><time>2026-04-18T08:19:37.506Z</time></trkpt><trkpt lat="42.78704" lon="10.3294868"><ele>154.0</ele><time>2026-04-18T08:19:38.507Z</time></trkpt><trkpt lat="42.7869521" lon="10.3295129"><ele>154.0</ele><time>2026-04-18T08:19:39.512Z</time></trkpt><trkpt lat="42.7868749" lon="10.3295324"><ele>154.0</ele><time>2026-04-18T08:19:40.507Z</time></trkpt><trkpt lat="42.786809" lon="10.3295451"><ele>154.0</ele><time>2026-04-18T08:19:41.508Z</time></trkpt><trkpt lat="42.7867127" lon="10.3294735"><ele>154.0</ele><time>2026-04-18T08:19:43.511Z</time></trkpt><trkpt lat="42.7866866" lon="10.3293916"><ele>156.33333333333334</ele><time>2026-04-18T08:19:44.509Z</time></trkpt><trkpt lat="42.7866702" lon="10.3292221"><ele>158.66666666666669</ele><time>2026-04-18T08:19:46.498Z</time></trkpt><trkpt lat="42.7866668" lon="10.3291307"><ele>161.0</ele><time>2026-04-18T08:19:47.509Z</time></trkpt><trkpt lat="42.7866405" lon="10.3290407"><ele>163.33333333333334</ele><time>2026-04-18T08:19:48.507Z</time></trkpt><trkpt lat="42.7865847" lon="10.3289695"><ele>165.66666666666666</ele><time>2026-04-18T08:19:49.509Z</time></trkpt><trkpt lat="42.7865024" lon="10.3289166"><ele>168.0</ele><time>2026-04-18T08:19:50.505Z</time></trkpt><trkpt lat="42.7864095" lon="10.328873"><ele>168.0</ele><time>2026-04-18T08:19:51.505Z</time></trkpt><trkpt lat="42.7863171" lon="10.3288285"><ele>168.0</ele><time>2026-04-18T08:19:52.503Z</time></trkpt><trkpt lat="42.7862308" lon="10.328763"><ele>168.0</ele><time>2026-04-18T08:19:53.511Z</time></trkpt><trkpt lat="42.786147" lon="10.3286847"><ele>168.0</ele><time>2026-04-18T08:19:54.5Z</time></trkpt><trkpt lat="42.7860661" lon="10.3286114"><ele>168.0</ele><time>2026-04-18T08:19:55.497Z</time></trkpt><trkpt lat="42.7859942" lon="10.3285318"><ele>169.8</ele><time>2026-04-18T08:19:56.505Z</time></trkpt><trkpt lat="42.7859169" lon="10.3284563"><ele>171.60000000000002</ele><time>2026-04-18T08:19:57.5Z</time></trkpt><trkpt lat="42.7858361" lon="10.3283798"><ele>173.39999999999998</ele><time>2026-04-18T08:19:58.502Z</time></trkpt><trkpt lat="42.7857553" lon="10.3283153"><ele>175.2</ele><time>2026-04-18T08:19:59.508Z</time></trkpt><trkpt lat="42.7856734" lon="10.3282577"><ele>177.0</ele><time>2026-04-18T08:20:00.513Z</time></trkpt><trkpt lat="42.7855882" lon="10.3282149"><ele>177.0</ele><time>2026-04-18T08:20:01.513Z</time></trkpt><trkpt lat="42.7855019" lon="10.3281844"><ele>177.0</ele><time>2026-04-18T08:20:02.513Z</time></trkpt><trkpt lat="42.7854106" lon="10.3281562"><ele>177.0</ele><time>2026-04-18T08:20:03.514Z</time></trkpt><trkpt lat="42.7853233" lon="10.3281188"><ele>177.0</ele><time>2026-04-18T08:20:04.513Z</time></trkpt><trkpt lat="42.7852407" lon="10.3280754"><ele>177.0</ele><time>2026-04-18T08:20:05.513Z</time></trkpt><trkpt lat="42.7851626" lon="10.3280455"><ele>177.0</ele><time>2026-04-18T08:20:06.525Z</time></trkpt><trkpt lat="42.7850944" lon="10.32804"><ele>178.83333333333334</ele><time>2026-04-18T08:20:07.516Z</time></trkpt><trkpt lat="42.7850296" lon="10.3280754"><ele>180.66666666666666</ele><time>2026-04-18T08:20:08.508Z</time></trkpt><trkpt lat="42.7849676" lon="10.3281436"><ele>182.5</ele><time>2026-04-18T08:20:09.504Z</time></trkpt><trkpt lat="42.784891" lon="10.3282097"><ele>184.33333333333331</ele><time>2026-04-18T08:20:10.506Z</time></trkpt><trkpt lat="42.784795" lon="10.3282495"><ele>186.16666666666666</ele><time>2026-04-18T08:20:11.503Z</time></trkpt><trkpt lat="42.7846946" lon="10.3282663"><ele>188.0</ele><time>2026-04-18T08:20:12.501Z</time></trkpt><trkpt lat="42.7845845" lon="10.3282673"><ele>188.0</ele><time>2026-04-18T08:20:13.5Z</time></trkpt><trkpt lat="42.7844812" lon="10.3282561"><ele>188.0</ele><time>2026-04-18T08:20:14.506Z</time></trkpt><trkpt lat="42.7843867" lon="10.3282393"><ele>188.0</ele><time>2026-04-18T08:20:15.5Z</time></trkpt><trkpt lat="42.7843009" lon="10.3282175"><ele>188.0</ele><time>2026-04-18T08:20:16.506Z</time></trkpt><trkpt lat="42.7842297" lon="10.3282023"><ele>188.0</ele><time>2026-04-18T08:20:17.503Z</time></trkpt><trkpt lat="42.784148" lon="10.3281585"><ele>188.0</ele><time>2026-04-18T08:20:19.506Z</time></trkpt><trkpt lat="42.7841873" lon="10.3280664"><ele>189.33333333333331</ele><time>2026-04-18T08:20:21.502Z</time></trkpt><trkpt lat="42.7842496" lon="10.3280392"><ele>190.66666666666666</ele><time>2026-04-18T08:20:22.506Z</time></trkpt><trkpt lat="42.7843248" lon="10.3280143"><ele>192.0</ele><time>2026-04-18T08:20:23.5Z</time></trkpt><trkpt lat="42.7844109" lon="10.3279874"><ele>193.33333333333331</ele><time>2026-04-18T08:20:24.502Z</time></trkpt><trkpt lat="42.7845008" lon="10.3279471"><ele>194.66666666666666</ele><time>2026-04-18T08:20:25.508Z</time></trkpt><trkpt lat="42.7845756" lon="10.327888"><ele>196.0</ele><time>2026-04-18T08:20:26.509Z</time></trkpt><trkpt lat="42.7846264" lon="10.3277989"><ele>195.99999999999997</ele><time>2026-04-18T08:20:27.504Z</time></trkpt><trkpt lat="42.7846508" lon="10.327694"><ele>196.0</ele><time>2026-04-18T08:20:28.506Z</time></trkpt><trkpt lat="42.7846514" lon="10.3275796"><ele>196.0</ele><time>2026-04-18T08:20:29.509Z</time></trkpt><trkpt lat="42.7846426" lon="10.3274705"><ele>196.0</ele><time>2026-04-18T08:20:30.506Z</time></trkpt><trkpt lat="42.7846326" lon="10.3273796"><ele>195.99999999999997</ele><time>2026-04-18T08:20:31.511Z</time></trkpt><trkpt lat="42.7846021" lon="10.3272832"><ele>196.0</ele><time>2026-04-18T08:20:33.502Z</time></trkpt><trkpt lat="42.7845391" lon="10.3272838"><ele>196.0</ele><time>2026-04-18T08:20:41.51Z</time></trkpt><trkpt lat="42.7845118" lon="10.3274"><ele>196.0</ele><time>2026-04-18T08:20:43.51Z</time></trkpt><trkpt lat="42.7845156" lon="10.3274908"><ele>196.0</ele><time>2026-04-18T08:20:44.505Z</time></trkpt><trkpt lat="42.7845205" lon="10.3275821"><ele>196.0</ele><time>2026-04-18T08:20:45.512Z</time></trkpt><trkpt lat="42.7844731" lon="10.32771"><ele>196.0</ele><time>2026-04-18T08:20:47.508Z</time></trkpt><trkpt lat="42.7843453" lon="10.3277093"><ele>199.49999999999997</ele><time>2026-04-18T08:20:49.51Z</time></trkpt><trkpt lat="42.7842729" lon="10.3276686"><ele>203.0</ele><time>2026-04-18T08:20:50.513Z</time></trkpt><trkpt lat="42.7841998" lon="10.3276169"><ele>206.5</ele><time>2026-04-18T08:20:51.515Z</time></trkpt><trkpt lat="42.784124" lon="10.3275554"><ele>210.0</ele><time>2026-04-18T08:20:52.514Z</time></trkpt><trkpt lat="42.7840579" lon="10.3274957"><ele>213.49999999999997</ele><time>2026-04-18T08:20:53.517Z</time></trkpt><trkpt lat="42.7839983" lon="10.3274303"><ele>217.0</ele><time>2026-04-18T08:20:54.514Z</time></trkpt><trkpt lat="42.7839508" lon="10.3273633"><ele>216.99999999999997</ele><time>2026-04-18T08:20:55.522Z</time></trkpt><trkpt lat="42.783929" lon="10.3272764"><ele>217.0</ele><time>2026-04-18T08:20:56.52Z</time></trkpt><trkpt lat="42.7839159" lon="10.3271628"><ele>217.0</ele><time>2026-04-18T08:20:57.514Z</time></trkpt><trkpt lat="42.7839013" lon="10.3270564"><ele>217.0</ele><time>2026-04-18T08:20:58.507Z</time></trkpt><trkpt lat="42.7838758" lon="10.3269579"><ele>216.99999999999997</ele><time>2026-04-18T08:20:59.513Z</time></trkpt><trkpt lat="42.7838354" lon="10.3268659"><ele>217.0</ele><time>2026-04-18T08:21:00.509Z</time></trkpt><trkpt lat="42.7837923" lon="10.326787"><ele>218.0</ele><time>2026-04-18T08:21:01.506Z</time></trkpt><trkpt lat="42.7837023" lon="10.3266833"><ele>219.0</ele><time>2026-04-18T08:21:03.511Z</time></trkpt><trkpt lat="42.783586" lon="10.3266697"><ele>220.0</ele><time>2026-04-18T08:21:05.508Z</time></trkpt><trkpt lat="42.7835212" lon="10.3266724"><ele>221.0</ele><time>2026-04-18T08:21:06.515Z</time></trkpt><trkpt lat="42.7834504" lon="10.3266731"><ele>222.0</ele><time>2026-04-18T08:21:07.512Z</time></trkpt><trkpt lat="42.78337" lon="10.3266651"><ele>223.57142857142856</ele><time>2026-04-18T08:21:08.532Z</time></trkpt><trkpt lat="42.7832906" lon="10.3266533"><ele>225.14285714285717</ele><time>2026-04-18T08:21:09.516Z</time></trkpt><trkpt lat="42.7832148" lon="10.3266311"><ele>226.71428571428572</ele><time>2026-04-18T08:21:10.514Z</time></trkpt><trkpt lat="42.7831465" lon="10.3265969"><ele>228.28571428571428</ele><time>2026-04-18T08:21:11.513Z</time></trkpt><trkpt lat="42.7830878" lon="10.326545"><ele>229.85714285714283</ele><time>2026-04-18T08:21:12.519Z</time></trkpt><trkpt lat="42.7830326" lon="10.3264886"><ele>231.42857142857144</ele><time>2026-04-18T08:21:13.516Z</time></trkpt><trkpt lat="42.7829819" lon="10.3264261"><ele>233.0</ele><time>2026-04-18T08:21:14.516Z</time></trkpt><trkpt lat="42.7829275" lon="10.3263567"><ele>233.00000000000003</ele><time>2026-04-18T08:21:15.522Z</time></trkpt><trkpt lat="42.7828737" lon="10.3262731"><ele>233.0</ele><time>2026-04-18T08:21:16.508Z</time></trkpt><trkpt lat="42.7828154" lon="10.3261763"><ele>233.0</ele><time>2026-04-18T08:21:17.526Z</time></trkpt><trkpt lat="42.7827573" lon="10.3260965"><ele>233.0</ele><time>2026-04-18T08:21:18.508Z</time></trkpt><trkpt lat="42.7827038" lon="10.326026"><ele>233.00000000000003</ele><time>2026-04-18T08:21:19.495Z</time></trkpt><trkpt lat="42.7826654" lon="10.3259561"><ele>233.0</ele><time>2026-04-18T08:21:20.509Z</time></trkpt><trkpt lat="42.7826192" lon="10.3258656"><ele>235.00000000000003</ele><time>2026-04-18T08:21:22.514Z</time></trkpt><trkpt lat="42.7825585" lon="10.3258262"><ele>237.0</ele><time>2026-04-18T08:21:26.511Z</time></trkpt><trkpt lat="42.7824432" lon="10.3257838"><ele>239.0</ele><time>2026-04-18T08:21:28.512Z</time></trkpt><trkpt lat="42.7823707" lon="10.3257763"><ele>241.0</ele><time>2026-04-18T08:21:29.512Z</time></trkpt><trkpt lat="42.7822957" lon="10.3257789"><ele>243.00000000000003</ele><time>2026-04-18T08:21:30.505Z</time></trkpt><trkpt lat="42.7822217" lon="10.3257947"><ele>245.0</ele><time>2026-04-18T08:21:31.503Z</time></trkpt><trkpt lat="42.7821524" lon="10.3258242"><ele>245.0</ele><time>2026-04-18T08:21:32.5Z</time></trkpt><trkpt lat="42.7820864" lon="10.3258663"><ele>245.0</ele><time>2026-04-18T08:21:33.499Z</time></trkpt><trkpt lat="42.7820216" lon="10.3259167"><ele>245.0</ele><time>2026-04-18T08:21:34.494Z</time></trkpt><trkpt lat="42.7819566" lon="10.3259714"><ele>245.0</ele><time>2026-04-18T08:21:35.498Z</time></trkpt><trkpt lat="42.7818903" lon="10.3260138"><ele>245.0</ele><time>2026-04-18T08:21:36.5Z</time></trkpt><trkpt lat="42.7818293" lon="10.3260433"><ele>245.0</ele><time>2026-04-18T08:21:37.497Z</time></trkpt><trkpt lat="42.7817644" lon="10.3260643"><ele>245.0</ele><time>2026-04-18T08:21:38.51Z</time></trkpt><trkpt lat="42.7816944" lon="10.3260716"><ele>248.16666666666669</ele><time>2026-04-18T08:21:39.495Z</time></trkpt><trkpt lat="42.7816228" lon="10.3260606"><ele>251.33333333333334</ele><time>2026-04-18T08:21:40.501Z</time></trkpt><trkpt lat="42.7815387" lon="10.3260451"><ele>254.5</ele><time>2026-04-18T08:21:41.498Z</time></trkpt><trkpt lat="42.7814439" lon="10.326036"><ele>257.6666666666667</ele><time>2026-04-18T08:21:42.497Z</time></trkpt><trkpt lat="42.7813504" lon="10.3260483"><ele>260.8333333333333</ele><time>2026-04-18T08:21:43.501Z</time></trkpt><trkpt lat="42.7812616" lon="10.326094"><ele>264.0</ele><time>2026-04-18T08:21:44.502Z</time></trkpt><trkpt lat="42.7811831" lon="10.326156"><ele>264.0</ele><time>2026-04-18T08:21:45.497Z</time></trkpt><trkpt lat="42.7811195" lon="10.3262221"><ele>264.0</ele><time>2026-04-18T08:21:46.502Z</time></trkpt><trkpt lat="42.7810762" lon="10.3263011"><ele>264.0</ele><time>2026-04-18T08:21:47.503Z</time></trkpt><trkpt lat="42.7810459" lon="10.3263915"><ele>264.0</ele><time>2026-04-18T08:21:48.497Z</time></trkpt><trkpt lat="42.7810199" lon="10.326501"><ele>264.0</ele><time>2026-04-18T08:21:49.498Z</time></trkpt><trkpt lat="42.7809946" lon="10.3266239"><ele>264.0</ele><time>2026-04-18T08:21:50.497Z</time></trkpt><trkpt lat="42.7809836" lon="10.3267505"><ele>265.59999999999997</ele><time>2026-04-18T08:21:51.498Z</time></trkpt><trkpt lat="42.7809921" lon="10.3268807"><ele>267.2</ele><time>2026-04-18T08:21:52.495Z</time></trkpt><trkpt lat="42.7810162" lon="10.3270149"><ele>268.79999999999995</ele><time>2026-04-18T08:21:53.491Z</time></trkpt><trkpt lat="42.7810431" lon="10.3271372"><ele>270.4</ele><time>2026-04-18T08:21:54.494Z</time></trkpt><trkpt lat="42.7810666" lon="10.3272523"><ele>272.0</ele><time>2026-04-18T08:21:55.503Z</time></trkpt><trkpt lat="42.7810882" lon="10.3273611"><ele>271.5</ele><time>2026-04-18T08:21:56.5Z</time></trkpt><trkpt lat="42.7811011" lon="10.3274651"><ele>271.0</ele><time>2026-04-18T08:21:57.505Z</time></trkpt><trkpt lat="42.7811007" lon="10.3275677"><ele>270.5</ele><time>2026-04-18T08:21:58.498Z</time></trkpt><trkpt lat="42.7810851" lon="10.3276794"><ele>270.0</ele><time>2026-04-18T08:21:59.501Z</time></trkpt><trkpt lat="42.7810527" lon="10.3277955"><ele>269.5</ele><time>2026-04-18T08:22:00.503Z</time></trkpt><trkpt lat="42.7810105" lon="10.3279163"><ele>269.0</ele><time>2026-04-18T08:22:01.501Z</time></trkpt><trkpt lat="42.7809781" lon="10.3280354"><ele>268.6666666666667</ele><time>2026-04-18T08:22:02.498Z</time></trkpt><trkpt lat="42.7809693" lon="10.3281412"><ele>268.33333333333337</ele><time>2026-04-18T08:22:03.496Z</time></trkpt><trkpt lat="42.780972" lon="10.3282416"><ele>268.0</ele><time>2026-04-18T08:22:04.502Z</time></trkpt><trkpt lat="42.7809726" lon="10.3283472"><ele>267.6666666666667</ele><time>2026-04-18T08:22:05.5Z</time></trkpt><trkpt lat="42.7809745" lon="10.3284523"><ele>267.3333333333333</ele><time>2026-04-18T08:22:06.499Z</time></trkpt><trkpt lat="42.7809782" lon="10.3285609"><ele>267.0</ele><time>2026-04-18T08:22:07.503Z</time></trkpt><trkpt lat="42.780993" lon="10.3286681"><ele>263.0</ele><time>2026-04-18T08:22:08.496Z</time></trkpt><trkpt lat="42.7810225" lon="10.3287668"><ele>259.0</ele><time>2026-04-18T08:22:09.511Z</time></trkpt><trkpt lat="42.7810769" lon="10.3288563"><ele>255.0</ele><time>2026-04-18T08:22:10.5Z</time></trkpt><trkpt lat="42.7811551" lon="10.3289213"><ele>251.0</ele><time>2026-04-18T08:22:11.498Z</time></trkpt><trkpt lat="42.7812272" lon="10.3289868"><ele>247.0</ele><time>2026-04-18T08:22:12.499Z</time></trkpt><trkpt lat="42.7812973" lon="10.3290469"><ele>243.0</ele><time>2026-04-18T08:22:13.497Z</time></trkpt><trkpt lat="42.7813573" lon="10.3291072"><ele>243.0</ele><time>2026-04-18T08:22:14.507Z</time></trkpt><trkpt lat="42.7814148" lon="10.3291642"><ele>243.0</ele><time>2026-04-18T08:22:15.501Z</time></trkpt><trkpt lat="42.7814728" lon="10.3292265"><ele>243.0</ele><time>2026-04-18T08:22:16.504Z</time></trkpt><trkpt lat="42.781528" lon="10.3292957"><ele>243.0</ele><time>2026-04-18T08:22:17.503Z</time></trkpt><trkpt lat="42.7815762" lon="10.3293584"><ele>243.0</ele><time>2026-04-18T08:22:18.505Z</time></trkpt><trkpt lat="42.7816516" lon="10.3294841"><ele>243.0</ele><time>2026-04-18T08:22:20.507Z</time></trkpt><trkpt lat="42.7816233" lon="10.3295889"><ele>243.0</ele><time>2026-04-18T08:22:22.503Z</time></trkpt><trkpt lat="42.7815713" lon="10.3296442"><ele>243.0</ele><time>2026-04-18T08:22:23.511Z</time></trkpt><trkpt lat="42.7815102" lon="10.3297113"><ele>243.0</ele><time>2026-04-18T08:22:24.507Z</time></trkpt><trkpt lat="42.7814368" lon="10.3297728"><ele>243.0</ele><time>2026-04-18T08:22:25.509Z</time></trkpt><trkpt lat="42.7813616" lon="10.3298231"><ele>243.0</ele><time>2026-04-18T08:22:26.505Z</time></trkpt><trkpt lat="42.7812825" lon="10.3298783"><ele>243.0</ele><time>2026-04-18T08:22:27.509Z</time></trkpt><trkpt lat="42.78121" lon="10.3299506"><ele>243.0</ele><time>2026-04-18T08:22:28.51Z</time></trkpt><trkpt lat="42.7811453" lon="10.3300237"><ele>243.0</ele><time>2026-04-18T08:22:29.505Z</time></trkpt><trkpt lat="42.7810824" lon="10.3300849"><ele>243.0</ele><time>2026-04-18T08:22:30.509Z</time></trkpt><trkpt lat="42.7810235" lon="10.3301308"><ele>243.0</ele><time>2026-04-18T08:22:31.501Z</time></trkpt><trkpt lat="42.780958" lon="10.3301677"><ele>243.0</ele><time>2026-04-18T08:22:32.505Z</time></trkpt><trkpt lat="42.7808899" lon="10.330187"><ele>243.0</ele><time>2026-04-18T08:22:33.499Z</time></trkpt><trkpt lat="42.7808151" lon="10.3301937"><ele>243.0</ele><time>2026-04-18T08:22:34.5Z</time></trkpt><trkpt lat="42.7807296" lon="10.3302055"><ele>243.0</ele><time>2026-04-18T08:22:35.498Z</time></trkpt><trkpt lat="42.7806465" lon="10.3302457"><ele>243.0</ele><time>2026-04-18T08:22:36.503Z</time></trkpt><trkpt lat="42.7805742" lon="10.3303222"><ele>243.0</ele><time>2026-04-18T08:22:37.502Z</time></trkpt><trkpt lat="42.7805167" lon="10.3304223"><ele>243.0</ele><time>2026-04-18T08:22:38.501Z</time></trkpt><trkpt lat="42.7804753" lon="10.3305269"><ele>243.0</ele><time>2026-04-18T08:22:39.506Z</time></trkpt><trkpt lat="42.7804316" lon="10.3306364"><ele>238.4</ele><time>2026-04-18T08:22:40.516Z</time></trkpt><trkpt lat="42.7803947" lon="10.3307468"><ele>233.8</ele><time>2026-04-18T08:22:41.507Z</time></trkpt><trkpt lat="42.7803604" lon="10.3308581"><ele>229.2</ele><time>2026-04-18T08:22:42.506Z</time></trkpt><trkpt lat="42.78032" lon="10.3309695"><ele>224.6</ele><time>2026-04-18T08:22:43.508Z</time></trkpt><trkpt lat="42.780278" lon="10.3310833"><ele>220.0</ele><time>2026-04-18T08:22:44.503Z</time></trkpt><trkpt lat="42.7802352" lon="10.331201"><ele>219.99999999999997</ele><time>2026-04-18T08:22:45.505Z</time></trkpt><trkpt lat="42.7801931" lon="10.3313038"><ele>220.0</ele><time>2026-04-18T08:22:46.505Z</time></trkpt><trkpt lat="42.7801548" lon="10.331396"><ele>220.0</ele><time>2026-04-18T08:22:47.506Z</time></trkpt><trkpt lat="42.7801246" lon="10.3314773"><ele>220.0</ele><time>2026-04-18T08:22:48.503Z</time></trkpt><trkpt lat="42.7800815" lon="10.3315965"><ele>219.99999999999997</ele><time>2026-04-18T08:22:50.5Z</time></trkpt><trkpt lat="42.7800501" lon="10.3316873"><ele>220.0</ele><time>2026-04-18T08:22:52.503Z</time></trkpt><trkpt lat="42.7800089" lon="10.3317588"><ele>220.66666666666666</ele><time>2026-04-18T08:22:57.508Z</time></trkpt><trkpt lat="42.7799763" lon="10.331641"><ele>221.33333333333331</ele><time>2026-04-18T08:23:01.504Z</time></trkpt><trkpt lat="42.7799807" lon="10.3315532"><ele>222.0</ele><time>2026-04-18T08:23:02.507Z</time></trkpt><trkpt lat="42.779994" lon="10.331444"><ele>222.66666666666669</ele><time>2026-04-18T08:23:03.504Z</time></trkpt><trkpt lat="42.7800059" lon="10.3313187"><ele>223.33333333333334</ele><time>2026-04-18T08:23:04.508Z</time></trkpt><trkpt lat="42.7800081" lon="10.3311899"><ele>224.0</ele><time>2026-04-18T08:23:05.504Z</time></trkpt><trkpt lat="42.7800027" lon="10.3310692"><ele>227.00000000000003</ele><time>2026-04-18T08:23:06.502Z</time></trkpt><trkpt lat="42.7799911" lon="10.3309734"><ele>230.0</ele><time>2026-04-18T08:23:07.498Z</time></trkpt><trkpt lat="42.7799753" lon="10.3308859"><ele>233.0</ele><time>2026-04-18T08:23:08.496Z</time></trkpt><trkpt lat="42.7799654" lon="10.3307188"><ele>236.0</ele><time>2026-04-18T08:23:10.497Z</time></trkpt><trkpt lat="42.779977" lon="10.3306219"><ele>239.00000000000003</ele><time>2026-04-18T08:23:11.513Z</time></trkpt><trkpt lat="42.7799832" lon="10.3305154"><ele>242.0</ele><time>2026-04-18T08:23:12.501Z</time></trkpt><trkpt lat="42.7799941" lon="10.3304092"><ele>244.83333333333334</ele><time>2026-04-18T08:23:13.501Z</time></trkpt><trkpt lat="42.7800038" lon="10.3302916"><ele>247.66666666666669</ele><time>2026-04-18T08:23:14.498Z</time></trkpt><trkpt lat="42.7800078" lon="10.3301681"><ele>250.5</ele><time>2026-04-18T08:23:15.5Z</time></trkpt><trkpt lat="42.7800093" lon="10.3300473"><ele>253.33333333333331</ele><time>2026-04-18T08:23:16.501Z</time></trkpt><trkpt lat="42.7800132" lon="10.3299303"><ele>256.16666666666663</ele><time>2026-04-18T08:23:17.501Z</time></trkpt><trkpt lat="42.7800242" lon="10.3298254"><ele>259.0</ele><time>2026-04-18T08:23:18.504Z</time></trkpt><trkpt lat="42.7800378" lon="10.329723"><ele>261.5</ele><time>2026-04-18T08:23:19.504Z</time></trkpt><trkpt lat="42.7800451" lon="10.3296167"><ele>264.0</ele><time>2026-04-18T08:23:20.507Z</time></trkpt><trkpt lat="42.7800478" lon="10.3295136"><ele>266.5</ele><time>2026-04-18T08:23:21.5Z</time></trkpt><trkpt lat="42.7800434" lon="10.3294078"><ele>269.0</ele><time>2026-04-18T08:23:22.503Z</time></trkpt><trkpt lat="42.7800508" lon="10.3293034"><ele>271.5</ele><time>2026-04-18T08:23:23.499Z</time></trkpt><trkpt lat="42.7800585" lon="10.3291942"><ele>274.0</ele><time>2026-04-18T08:23:24.497Z</time></trkpt><trkpt lat="42.7800628" lon="10.3290715"><ele>274.0</ele><time>2026-04-18T08:23:25.497Z</time></trkpt><trkpt lat="42.7800717" lon="10.3289368"><ele>274.0</ele><time>2026-04-18T08:23:26.499Z</time></trkpt><trkpt lat="42.7800842" lon="10.3287836"><ele>274.0</ele><time>2026-04-18T08:23:27.501Z</time></trkpt><trkpt lat="42.7800954" lon="10.3286423"><ele>274.0</ele><time>2026-04-18T08:23:28.503Z</time></trkpt><trkpt lat="42.7801077" lon="10.3285102"><ele>274.0</ele><time>2026-04-18T08:23:29.51Z</time></trkpt><trkpt lat="42.7801205" lon="10.3284105"><ele>276.0</ele><time>2026-04-18T08:23:30.504Z</time></trkpt><trkpt lat="42.7801015" lon="10.3282608"><ele>278.0</ele><time>2026-04-18T08:30:17.518Z</time></trkpt><trkpt lat="42.780087" lon="10.3281298"><ele>280.0</ele><time>2026-04-18T08:30:19.517Z</time></trkpt><trkpt lat="42.7800976" lon="10.3279933"><ele>282.0</ele><time>2026-04-18T08:30:21.52Z</time></trkpt><trkpt lat="42.7801175" lon="10.3278511"><ele>284.0</ele><time>2026-04-18T08:30:23.509Z</time></trkpt><trkpt lat="42.7801684" lon="10.327699"><ele>282.0</ele><time>2026-04-18T08:30:25.525Z</time></trkpt><trkpt lat="42.7801986" lon="10.3276168"><ele>280.0</ele><time>2026-04-18T08:30:26.521Z</time></trkpt><trkpt lat="42.7802263" lon="10.3275351"><ele>278.0</ele><time>2026-04-18T08:30:27.521Z</time></trkpt><trkpt lat="42.7802667" lon="10.3273739"><ele>276.0</ele><time>2026-04-18T08:30:29.524Z</time></trkpt><trkpt lat="42.7802891" lon="10.3272591"><ele>274.0</ele><time>2026-04-18T08:30:31.52Z</time></trkpt><trkpt lat="42.780301" lon="10.3271608"><ele>272.0</ele><time>2026-04-18T08:30:33.521Z</time></trkpt><trkpt lat="42.7803229" lon="10.3270432"><ele>272.0</ele><time>2026-04-18T08:30:36.519Z</time></trkpt><trkpt lat="42.7803274" lon="10.3269518"><ele>272.0</ele><time>2026-04-18T08:30:38.518Z</time></trkpt><trkpt lat="42.7803323" lon="10.3268473"><ele>272.0</ele><time>2026-04-18T08:30:40.516Z</time></trkpt><trkpt lat="42.7803352" lon="10.3267567"><ele>272.0</ele><time>2026-04-18T08:30:42.521Z</time></trkpt><trkpt lat="42.7803486" lon="10.326641"><ele>272.0</ele><time>2026-04-18T08:30:45.518Z</time></trkpt><trkpt lat="42.7803502" lon="10.3265201"><ele>272.0</ele><time>2026-04-18T08:30:48.516Z</time></trkpt><trkpt lat="42.7803578" lon="10.3264088"><ele>273.8</ele><time>2026-04-18T08:30:50.518Z</time></trkpt><trkpt lat="42.7803254" lon="10.3262975"><ele>275.6</ele><time>2026-04-18T08:30:52.514Z</time></trkpt><trkpt lat="42.7802676" lon="10.3261345"><ele>277.40000000000003</ele><time>2026-04-18T08:30:54.519Z</time></trkpt><trkpt lat="42.7802304" lon="10.32603"><ele>279.2</ele><time>2026-04-18T08:30:55.509Z</time></trkpt><trkpt lat="42.7801859" lon="10.3259163"><ele>281.0</ele><time>2026-04-18T08:30:56.51Z</time></trkpt><trkpt lat="42.780132" lon="10.3258003"><ele>281.2</ele><time>2026-04-18T08:30:57.507Z</time></trkpt><trkpt lat="42.780074" lon="10.3256832"><ele>281.40000000000003</ele><time>2026-04-18T08:30:58.504Z</time></trkpt><trkpt lat="42.7800225" lon="10.3255563"><ele>281.6</ele><time>2026-04-18T08:30:59.499Z</time></trkpt><trkpt lat="42.7799777" lon="10.3254223"><ele>281.8</ele><time>2026-04-18T08:31:00.502Z</time></trkpt><trkpt lat="42.7799346" lon="10.3252917"><ele>282.0</ele><time>2026-04-18T08:31:01.502Z</time></trkpt><trkpt lat="42.7798966" lon="10.3251674"><ele>283.3333333333333</ele><time>2026-04-18T08:31:02.503Z</time></trkpt><trkpt lat="42.7798671" lon="10.3250556"><ele>284.6666666666667</ele><time>2026-04-18T08:31:03.504Z</time></trkpt><trkpt lat="42.7798284" lon="10.3249695"><ele>286.0</ele><time>2026-04-18T08:31:04.504Z</time></trkpt><trkpt lat="42.7797708" lon="10.3249004"><ele>287.33333333333337</ele><time>2026-04-18T08:31:05.496Z</time></trkpt><trkpt lat="42.7796969" lon="10.3248501"><ele>288.6666666666667</ele><time>2026-04-18T08:31:06.504Z</time></trkpt><trkpt lat="42.7796077" lon="10.3248359"><ele>290.0</ele><time>2026-04-18T08:31:07.503Z</time></trkpt><trkpt lat="42.7795057" lon="10.3248501"><ele>290.0</ele><time>2026-04-18T08:31:08.501Z</time></trkpt><trkpt lat="42.7794171" lon="10.3248575"><ele>290.0</ele><time>2026-04-18T08:31:09.506Z</time></trkpt><trkpt lat="42.779353" lon="10.3248357"><ele>290.0</ele><time>2026-04-18T08:31:10.501Z</time></trkpt><trkpt lat="42.7792577" lon="10.3247075"><ele>290.0</ele><time>2026-04-18T08:31:12.501Z</time></trkpt><trkpt lat="42.7792167" lon="10.3246103"><ele>290.0</ele><time>2026-04-18T08:31:13.504Z</time></trkpt><trkpt lat="42.7791768" lon="10.3245046"><ele>289.6</ele><time>2026-04-18T08:31:14.505Z</time></trkpt><trkpt lat="42.7791409" lon="10.3243817"><ele>289.2</ele><time>2026-04-18T08:31:15.504Z</time></trkpt><trkpt lat="42.7791139" lon="10.3242486"><ele>288.8</ele><time>2026-04-18T08:31:16.504Z</time></trkpt><trkpt lat="42.779086" lon="10.3241043"><ele>288.4</ele><time>2026-04-18T08:31:17.511Z</time></trkpt><trkpt lat="42.779066" lon="10.323959"><ele>288.0</ele><time>2026-04-18T08:31:18.505Z</time></trkpt><trkpt lat="42.7790428" lon="10.3238445"><ele>291.3333333333333</ele><time>2026-04-18T08:31:19.501Z</time></trkpt><trkpt lat="42.7790049" lon="10.3237509"><ele>294.6666666666667</ele><time>2026-04-18T08:31:20.5Z</time></trkpt><trkpt lat="42.7789561" lon="10.3236895"><ele>298.0</ele><time>2026-04-18T08:31:21.504Z</time></trkpt><trkpt lat="42.7788945" lon="10.32367"><ele>301.33333333333337</ele><time>2026-04-18T08:31:22.505Z</time></trkpt><trkpt lat="42.7788281" lon="10.323691"><ele>304.6666666666667</ele><time>2026-04-18T08:31:23.501Z</time></trkpt><trkpt lat="42.7787526" lon="10.323743"><ele>308.0</ele><time>2026-04-18T08:31:24.501Z</time></trkpt><trkpt lat="42.7786619" lon="10.3237911"><ele>308.0</ele><time>2026-04-18T08:31:25.513Z</time></trkpt><trkpt lat="42.7785534" lon="10.3238288"><ele>308.0</ele><time>2026-04-18T08:31:26.505Z</time></trkpt><trkpt lat="42.7784445" lon="10.323862"><ele>308.0</ele><time>2026-04-18T08:31:27.508Z</time></trkpt><trkpt lat="42.7783477" lon="10.3239015"><ele>308.0</ele><time>2026-04-18T08:31:28.504Z</time></trkpt><trkpt lat="42.7782573" lon="10.3239528"><ele>308.0</ele><time>2026-04-18T08:31:29.509Z</time></trkpt><trkpt lat="42.778171" lon="10.3239935"><ele>306.33333333333337</ele><time>2026-04-18T08:31:30.511Z</time></trkpt><trkpt lat="42.7780847" lon="10.3240113"><ele>304.6666666666667</ele><time>2026-04-18T08:31:31.506Z</time></trkpt><trkpt lat="42.7780036" lon="10.324006"><ele>303.0</ele><time>2026-04-18T08:31:32.509Z</time></trkpt><trkpt lat="42.7779197" lon="10.3239778"><ele>301.3333333333333</ele><time>2026-04-18T08:31:33.509Z</time></trkpt><trkpt lat="42.7778259" lon="10.3239474"><ele>299.66666666666663</ele><time>2026-04-18T08:31:34.51Z</time></trkpt><trkpt lat="42.7777366" lon="10.3239471"><ele>298.0</ele><time>2026-04-18T08:31:35.504Z</time></trkpt><trkpt lat="42.7776545" lon="10.3239697"><ele>298.0</ele><time>2026-04-18T08:31:36.506Z</time></trkpt><trkpt lat="42.7775757" lon="10.3240141"><ele>298.0</ele><time>2026-04-18T08:31:37.506Z</time></trkpt><trkpt lat="42.7775045" lon="10.32407"><ele>298.0</ele><time>2026-04-18T08:31:38.506Z</time></trkpt><trkpt lat="42.7774316" lon="10.3241194"><ele>298.0</ele><time>2026-04-18T08:31:39.506Z</time></trkpt><trkpt lat="42.7773479" lon="10.3241578"><ele>298.0</ele><time>2026-04-18T08:31:40.504Z</time></trkpt><trkpt lat="42.7772634" lon="10.3241823"><ele>298.0</ele><time>2026-04-18T08:31:41.509Z</time></trkpt><trkpt lat="42.7771831" lon="10.3241934"><ele>298.0</ele><time>2026-04-18T08:31:42.507Z</time></trkpt><trkpt lat="42.7771102" lon="10.3241908"><ele>298.0</ele><time>2026-04-18T08:31:43.507Z</time></trkpt><trkpt lat="42.7770022" lon="10.3241441"><ele>298.0</ele><time>2026-04-18T08:31:45.513Z</time></trkpt><trkpt lat="42.7769713" lon="10.3240623"><ele>298.0</ele><time>2026-04-18T08:31:47.517Z</time></trkpt><trkpt lat="42.7769034" lon="10.3239848"><ele>298.0</ele><time>2026-04-18T08:31:50.519Z</time></trkpt><trkpt lat="42.7768213" lon="10.3239537"><ele>298.0</ele><time>2026-04-18T08:31:53.521Z</time></trkpt><trkpt lat="42.7767626" lon="10.3239203"><ele>298.6</ele><time>2026-04-18T08:31:56.525Z</time></trkpt><trkpt lat="42.7766676" lon="10.3239018"><ele>299.20000000000005</ele><time>2026-04-18T08:31:59.511Z</time></trkpt><trkpt lat="42.7765479" lon="10.3239221"><ele>299.8</ele><time>2026-04-18T08:32:01.512Z</time></trkpt><trkpt lat="42.776474" lon="10.32394"><ele>300.40000000000003</ele><time>2026-04-18T08:32:02.512Z</time></trkpt><trkpt lat="42.7763904" lon="10.3239504"><ele>301.0</ele><time>2026-04-18T08:32:03.508Z</time></trkpt><trkpt lat="42.7763057" lon="10.3239611"><ele>301.0</ele><time>2026-04-18T08:32:04.513Z</time></trkpt><trkpt lat="42.7762226" lon="10.3239771"><ele>301.0</ele><time>2026-04-18T08:32:05.51Z</time></trkpt><trkpt lat="42.776139" lon="10.3239844"><ele>301.0</ele><time>2026-04-18T08:32:06.513Z</time></trkpt><trkpt lat="42.7760601" lon="10.3239913"><ele>301.0</ele><time>2026-04-18T08:32:07.512Z</time></trkpt><trkpt lat="42.7759834" lon="10.3240009"><ele>301.0</ele><time>2026-04-18T08:32:08.51Z</time></trkpt><trkpt lat="42.7759121" lon="10.3240154"><ele>301.0</ele><time>2026-04-18T08:32:09.517Z</time></trkpt><trkpt lat="42.7758415" lon="10.3240364"><ele>299.3333333333333</ele><time>2026-04-18T08:32:10.513Z</time></trkpt><trkpt lat="42.77577" lon="10.3240648"><ele>297.66666666666663</ele><time>2026-04-18T08:32:11.512Z</time></trkpt><trkpt lat="42.7756993" lon="10.3240927"><ele>296.0</ele><time>2026-04-18T08:32:12.513Z</time></trkpt><trkpt lat="42.7756232" lon="10.3241225"><ele>294.3333333333333</ele><time>2026-04-18T08:32:13.516Z</time></trkpt><trkpt lat="42.7755413" lon="10.3241517"><ele>292.6666666666667</ele><time>2026-04-18T08:32:14.52Z</time></trkpt><trkpt lat="42.7754568" lon="10.324181"><ele>291.0</ele><time>2026-04-18T08:32:15.51Z</time></trkpt><trkpt lat="42.7753754" lon="10.3242165"><ele>291.0</ele><time>2026-04-18T08:32:16.519Z</time></trkpt><trkpt lat="42.7752914" lon="10.3242513"><ele>291.0</ele><time>2026-04-18T08:32:17.517Z</time></trkpt><trkpt lat="42.7752088" lon="10.3242789"><ele>291.0</ele><time>2026-04-18T08:32:18.507Z</time></trkpt><trkpt lat="42.7751269" lon="10.3242888"><ele>291.0</ele><time>2026-04-18T08:32:19.513Z</time></trkpt><trkpt lat="42.7750443" lon="10.3242899"><ele>291.0</ele><time>2026-04-18T08:32:20.513Z</time></trkpt><trkpt lat="42.7749701" lon="10.3243132"><ele>291.0</ele><time>2026-04-18T08:32:21.514Z</time></trkpt><trkpt lat="42.7749031" lon="10.3243638"><ele>289.2</ele><time>2026-04-18T08:32:22.514Z</time></trkpt><trkpt lat="42.7748464" lon="10.3244352"><ele>287.40000000000003</ele><time>2026-04-18T08:32:23.51Z</time></trkpt><trkpt lat="42.7747885" lon="10.324535"><ele>285.6</ele><time>2026-04-18T08:32:24.509Z</time></trkpt><trkpt lat="42.7747233" lon="10.3246518"><ele>283.8</ele><time>2026-04-18T08:32:25.509Z</time></trkpt><trkpt lat="42.774655" lon="10.3247711"><ele>282.0</ele><time>2026-04-18T08:32:26.507Z</time></trkpt><trkpt lat="42.774575" lon="10.3249031"><ele>282.0</ele><time>2026-04-18T08:32:27.517Z</time></trkpt><trkpt lat="42.7744904" lon="10.3250572"><ele>282.0</ele><time>2026-04-18T08:32:28.51Z</time></trkpt><trkpt lat="42.7744022" lon="10.3252474"><ele>282.0</ele><time>2026-04-18T08:32:29.508Z</time></trkpt><trkpt lat="42.7743097" lon="10.325432"><ele>276.8</ele><time>2026-04-18T08:32:30.507Z</time></trkpt><trkpt lat="42.774226" lon="10.3255794"><ele>271.6</ele><time>2026-04-18T08:32:31.513Z</time></trkpt><trkpt lat="42.7741604" lon="10.3257029"><ele>266.40000000000003</ele><time>2026-04-18T08:32:32.509Z</time></trkpt><trkpt lat="42.7741134" lon="10.3257971"><ele>261.2</ele><time>2026-04-18T08:32:33.508Z</time></trkpt><trkpt lat="42.7740677" lon="10.3258888"><ele>256.0</ele><time>2026-04-18T08:32:35.517Z</time></trkpt><trkpt lat="42.7740303" lon="10.3260875"><ele>255.99999999999997</ele><time>2026-04-18T08:38:40.535Z</time></trkpt><trkpt lat="42.7740242" lon="10.3261934"><ele>256.0</ele><time>2026-04-18T08:38:43.536Z</time></trkpt><trkpt lat="42.7740263" lon="10.3262989"><ele>256.0</ele><time>2026-04-18T08:38:46.538Z</time></trkpt><trkpt lat="42.7740198" lon="10.3264125"><ele>256.0</ele><time>2026-04-18T08:38:49.54Z</time></trkpt><trkpt lat="42.7740106" lon="10.326506"><ele>255.99999999999997</ele><time>2026-04-18T08:38:51.536Z</time></trkpt><trkpt lat="42.7740018" lon="10.3266423"><ele>256.0</ele><time>2026-04-18T08:38:54.541Z</time></trkpt><trkpt lat="42.7740004" lon="10.3267552"><ele>257.0</ele><time>2026-04-18T08:38:56.538Z</time></trkpt><trkpt lat="42.7739888" lon="10.3268714"><ele>258.0</ele><time>2026-04-18T08:38:58.54Z</time></trkpt><trkpt lat="42.7739663" lon="10.3269997"><ele>259.0</ele><time>2026-04-18T08:39:00.535Z</time></trkpt><trkpt lat="42.7739302" lon="10.3271624"><ele>260.0</ele><time>2026-04-18T08:39:02.531Z</time></trkpt><trkpt lat="42.7739026" lon="10.3272616"><ele>261.0</ele><time>2026-04-18T08:39:03.539Z</time></trkpt><trkpt lat="42.7738742" lon="10.3273692"><ele>261.8333333333333</ele><time>2026-04-18T08:39:04.534Z</time></trkpt><trkpt lat="42.773849" lon="10.3274846"><ele>262.6666666666667</ele><time>2026-04-18T08:39:05.53Z</time></trkpt><trkpt lat="42.7738238" lon="10.3276053"><ele>263.5</ele><time>2026-04-18T08:39:06.535Z</time></trkpt><trkpt lat="42.7738019" lon="10.3277216"><ele>264.33333333333337</ele><time>2026-04-18T08:39:07.525Z</time></trkpt><trkpt lat="42.773779" lon="10.3278209"><ele>265.1666666666667</ele><time>2026-04-18T08:39:08.528Z</time></trkpt><trkpt lat="42.7737425" lon="10.3279089"><ele>266.0</ele><time>2026-04-18T08:39:09.535Z</time></trkpt><trkpt lat="42.7736984" lon="10.3279869"><ele>266.0</ele><time>2026-04-18T08:39:10.524Z</time></trkpt><trkpt lat="42.7736491" lon="10.3280559"><ele>266.0</ele><time>2026-04-18T08:39:11.537Z</time></trkpt><trkpt lat="42.7735931" lon="10.3281179"><ele>266.0</ele><time>2026-04-18T08:39:12.532Z</time></trkpt><trkpt lat="42.7735351" lon="10.3281702"><ele>266.0</ele><time>2026-04-18T08:39:13.535Z</time></trkpt><trkpt lat="42.7734723" lon="10.3282169"><ele>266.0</ele><time>2026-04-18T08:39:14.529Z</time></trkpt><trkpt lat="42.7734077" lon="10.3282439"><ele>266.0</ele><time>2026-04-18T08:39:15.538Z</time></trkpt><trkpt lat="42.7733399" lon="10.3282633"><ele>266.0</ele><time>2026-04-18T08:39:16.536Z</time></trkpt><trkpt lat="42.773268" lon="10.3282811"><ele>263.0</ele><time>2026-04-18T08:39:17.544Z</time></trkpt><trkpt lat="42.7731953" lon="10.3282854"><ele>260.0</ele><time>2026-04-18T08:39:18.536Z</time></trkpt><trkpt lat="42.7731291" lon="10.3282734"><ele>257.0</ele><time>2026-04-18T08:39:19.541Z</time></trkpt><trkpt lat="42.7730197" lon="10.328257"><ele>254.0</ele><time>2026-04-18T08:39:21.54Z</time></trkpt><trkpt lat="42.7729818" lon="10.3283516"><ele>251.00000000000003</ele><time>2026-04-18T08:39:23.549Z</time></trkpt><trkpt lat="42.7730176" lon="10.3284227"><ele>248.0</ele><time>2026-04-18T08:39:24.546Z</time></trkpt><trkpt lat="42.7730792" lon="10.3285076"><ele>248.0</ele><time>2026-04-18T08:39:25.544Z</time></trkpt><trkpt lat="42.7731423" lon="10.3285998"><ele>248.0</ele><time>2026-04-18T08:39:26.539Z</time></trkpt><trkpt lat="42.7731959" lon="10.3286971"><ele>248.0</ele><time>2026-04-18T08:39:27.541Z</time></trkpt><trkpt lat="42.7732284" lon="10.3287865"><ele>248.0</ele><time>2026-04-18T08:39:28.534Z</time></trkpt><trkpt lat="42.773219" lon="10.3289306"><ele>248.0</ele><time>2026-04-18T08:39:30.53Z</time></trkpt><trkpt lat="42.7730991" lon="10.3289713"><ele>248.00000000000003</ele><time>2026-04-18T08:39:32.526Z</time></trkpt><trkpt lat="42.7729818" lon="10.3289029"><ele>248.0</ele><time>2026-04-18T08:39:34.534Z</time></trkpt><trkpt lat="42.7729192" lon="10.3288603"><ele>248.0</ele><time>2026-04-18T08:39:35.525Z</time></trkpt><trkpt lat="42.7728478" lon="10.3288261"><ele>248.0</ele><time>2026-04-18T08:39:36.532Z</time></trkpt><trkpt lat="42.772765" lon="10.3288088"><ele>248.00000000000003</ele><time>2026-04-18T08:39:37.531Z</time></trkpt><trkpt lat="42.7726807" lon="10.3288033"><ele>248.0</ele><time>2026-04-18T08:39:38.531Z</time></trkpt><trkpt lat="42.7726018" lon="10.328813"><ele>246.0</ele><time>2026-04-18T08:39:39.534Z</time></trkpt><trkpt lat="42.7725192" lon="10.3288316"><ele>244.0</ele><time>2026-04-18T08:39:40.549Z</time></trkpt><trkpt lat="42.7724279" lon="10.3288637"><ele>242.0</ele><time>2026-04-18T08:39:41.532Z</time></trkpt><trkpt lat="42.7723358" lon="10.3288969"><ele>240.0</ele><time>2026-04-18T08:39:42.531Z</time></trkpt><trkpt lat="42.7722367" lon="10.3289345"><ele>238.0</ele><time>2026-04-18T08:39:43.529Z</time></trkpt><trkpt lat="42.7721326" lon="10.3289787"><ele>238.0</ele><time>2026-04-18T08:39:44.532Z</time></trkpt><trkpt lat="42.7720304" lon="10.329023"><ele>238.0</ele><time>2026-04-18T08:39:45.531Z</time></trkpt><trkpt lat="42.7719322" lon="10.3290696"><ele>238.0</ele><time>2026-04-18T08:39:46.531Z</time></trkpt><trkpt lat="42.7718421" lon="10.3291142"><ele>238.0</ele><time>2026-04-18T08:39:47.525Z</time></trkpt><trkpt lat="42.7717554" lon="10.3291401"><ele>238.0</ele><time>2026-04-18T08:39:48.525Z</time></trkpt><trkpt lat="42.7716702" lon="10.3291378"><ele>236.2</ele><time>2026-04-18T08:39:49.523Z</time></trkpt><trkpt lat="42.7715829" lon="10.3291095"><ele>234.4</ele><time>2026-04-18T08:39:50.521Z</time></trkpt><trkpt lat="42.7714993" lon="10.3290672"><ele>232.59999999999997</ele><time>2026-04-18T08:39:51.531Z</time></trkpt><trkpt lat="42.7714153" lon="10.3290257"><ele>230.79999999999998</ele><time>2026-04-18T08:39:52.534Z</time></trkpt><trkpt lat="42.7713283" lon="10.3289885"><ele>229.0</ele><time>2026-04-18T08:39:53.531Z</time></trkpt><trkpt lat="42.7712361" lon="10.3289581"><ele>229.0</ele><time>2026-04-18T08:39:54.529Z</time></trkpt><trkpt lat="42.7711359" lon="10.3289255"><ele>228.99999999999997</ele><time>2026-04-18T08:39:55.534Z</time></trkpt><trkpt lat="42.7710319" lon="10.3288922"><ele>228.99999999999997</ele><time>2026-04-18T08:39:56.535Z</time></trkpt><trkpt lat="42.7709293" lon="10.3288555"><ele>229.0</ele><time>2026-04-18T08:39:57.521Z</time></trkpt><trkpt lat="42.770825" lon="10.3288166"><ele>229.0</ele><time>2026-04-18T08:39:58.536Z</time></trkpt><trkpt lat="42.7707306" lon="10.3287718"><ele>228.49999999999997</ele><time>2026-04-18T08:39:59.534Z</time></trkpt><trkpt lat="42.7706436" lon="10.3287442"><ele>228.0</ele><time>2026-04-18T08:40:00.541Z</time></trkpt><trkpt lat="42.7705651" lon="10.3287517"><ele>227.5</ele><time>2026-04-18T08:40:01.539Z</time></trkpt><trkpt lat="42.7704972" lon="10.3287924"><ele>227.0</ele><time>2026-04-18T08:40:02.534Z</time></trkpt><trkpt lat="42.77044" lon="10.3288521"><ele>226.49999999999997</ele><time>2026-04-18T08:40:03.535Z</time></trkpt><trkpt lat="42.770403" lon="10.3289446"><ele>226.0</ele><time>2026-04-18T08:40:04.536Z</time></trkpt><trkpt lat="42.7703857" lon="10.3290813"><ele>226.0</ele><time>2026-04-18T08:40:05.536Z</time></trkpt><trkpt lat="42.7703866" lon="10.3292554"><ele>226.0</ele><time>2026-04-18T08:40:06.537Z</time></trkpt><trkpt lat="42.7704145" lon="10.3294686"><ele>226.0</ele><time>2026-04-18T08:40:07.529Z</time></trkpt><trkpt lat="42.770471" lon="10.3297006"><ele>228.0</ele><time>2026-04-18T08:40:08.527Z</time></trkpt><trkpt lat="42.7705524" lon="10.3299172"><ele>230.0</ele><time>2026-04-18T08:40:09.525Z</time></trkpt><trkpt lat="42.7706483" lon="10.3300929"><ele>232.0</ele><time>2026-04-18T08:40:10.526Z</time></trkpt><trkpt lat="42.7707397" lon="10.3302486"><ele>231.99999999999997</ele><time>2026-04-18T08:40:11.519Z</time></trkpt><trkpt lat="42.7708087" lon="10.330386"><ele>232.0</ele><time>2026-04-18T08:40:12.513Z</time></trkpt><trkpt lat="42.7708465" lon="10.3304996"><ele>232.0</ele><time>2026-04-18T08:40:13.513Z</time></trkpt><trkpt lat="42.770843" lon="10.3305919"><ele>232.0</ele><time>2026-04-18T08:40:14.511Z</time></trkpt><trkpt lat="42.7708167" lon="10.3306937"><ele>231.99999999999997</ele><time>2026-04-18T08:40:15.522Z</time></trkpt><trkpt lat="42.7707992" lon="10.3308065"><ele>232.0</ele><time>2026-04-18T08:40:16.527Z</time></trkpt><trkpt lat="42.7708075" lon="10.3309184"><ele>231.6</ele><time>2026-04-18T08:40:17.529Z</time></trkpt><trkpt lat="42.7708516" lon="10.3310256"><ele>231.2</ele><time>2026-04-18T08:40:18.52Z</time></trkpt><trkpt lat="42.7709168" lon="10.3311115"><ele>230.8</ele><time>2026-04-18T08:40:19.532Z</time></trkpt><trkpt lat="42.7709945" lon="10.331163"><ele>230.4</ele><time>2026-04-18T08:40:20.522Z</time></trkpt><trkpt lat="42.7710818" lon="10.3312087"><ele>230.0</ele><time>2026-04-18T08:40:21.518Z</time></trkpt><trkpt lat="42.7711654" lon="10.3312803"><ele>234.8</ele><time>2026-04-18T08:40:22.52Z</time></trkpt><trkpt lat="42.7712308" lon="10.3313673"><ele>239.6</ele><time>2026-04-18T08:40:23.517Z</time></trkpt><trkpt lat="42.771272" lon="10.3314713"><ele>244.39999999999998</ele><time>2026-04-18T08:40:24.511Z</time></trkpt><trkpt lat="42.7712938" lon="10.3315922"><ele>249.2</ele><time>2026-04-18T08:40:25.506Z</time></trkpt><trkpt lat="42.7713109" lon="10.3317257"><ele>254.0</ele><time>2026-04-18T08:40:26.513Z</time></trkpt><trkpt lat="42.7713375" lon="10.3318648"><ele>254.0</ele><time>2026-04-18T08:40:27.513Z</time></trkpt><trkpt lat="42.7713774" lon="10.3319927"><ele>253.99999999999997</ele><time>2026-04-18T08:40:28.509Z</time></trkpt><trkpt lat="42.7714266" lon="10.332109"><ele>253.99999999999997</ele><time>2026-04-18T08:40:29.516Z</time></trkpt><trkpt lat="42.7714808" lon="10.3322143"><ele>254.0</ele><time>2026-04-18T08:40:30.517Z</time></trkpt><trkpt lat="42.7715413" lon="10.3322962"><ele>254.0</ele><time>2026-04-18T08:40:31.523Z</time></trkpt><trkpt lat="42.7716195" lon="10.3323454"><ele>252.79999999999998</ele><time>2026-04-18T08:40:32.516Z</time></trkpt><trkpt lat="42.7717123" lon="10.3323652"><ele>251.59999999999997</ele><time>2026-04-18T08:40:33.524Z</time></trkpt><trkpt lat="42.7718127" lon="10.3323641"><ele>250.4</ele><time>2026-04-18T08:40:34.52Z</time></trkpt><trkpt lat="42.7719163" lon="10.332359"><ele>249.2</ele><time>2026-04-18T08:40:35.52Z</time></trkpt><trkpt lat="42.7720197" lon="10.3323587"><ele>248.0</ele><time>2026-04-18T08:40:36.521Z</time></trkpt><trkpt lat="42.772126" lon="10.3323656"><ele>248.00000000000003</ele><time>2026-04-18T08:40:37.524Z</time></trkpt><trkpt lat="42.772225" lon="10.3323928"><ele>248.0</ele><time>2026-04-18T08:40:38.52Z</time></trkpt><trkpt lat="42.7723112" lon="10.3324409"><ele>248.0</ele><time>2026-04-18T08:40:39.524Z</time></trkpt><trkpt lat="42.7723878" lon="10.332497"><ele>248.0</ele><time>2026-04-18T08:40:40.52Z</time></trkpt><trkpt lat="42.7724579" lon="10.3325454"><ele>248.00000000000003</ele><time>2026-04-18T08:40:41.528Z</time></trkpt><trkpt lat="42.7725273" lon="10.3325695"><ele>248.0</ele><time>2026-04-18T08:40:42.518Z</time></trkpt><trkpt lat="42.7726358" lon="10.3325828"><ele>248.16666666666669</ele><time>2026-04-18T08:40:44.524Z</time></trkpt><trkpt lat="42.7727087" lon="10.3325747"><ele>248.33333333333334</ele><time>2026-04-18T08:40:48.523Z</time></trkpt><trkpt lat="42.7727369" lon="10.332479"><ele>248.5</ele><time>2026-04-18T08:40:56.527Z</time></trkpt><trkpt lat="42.7727234" lon="10.3323368"><ele>248.66666666666669</ele><time>2026-04-18T08:40:58.529Z</time></trkpt><trkpt lat="42.77269" lon="10.332244"><ele>248.83333333333334</ele><time>2026-04-18T08:40:59.521Z</time></trkpt><trkpt lat="42.7726457" lon="10.33214"><ele>249.0</ele><time>2026-04-18T08:41:00.522Z</time></trkpt><trkpt lat="42.7725897" lon="10.3320278"><ele>252.79999999999998</ele><time>2026-04-18T08:41:01.527Z</time></trkpt><trkpt lat="42.7725303" lon="10.3319125"><ele>256.59999999999997</ele><time>2026-04-18T08:41:02.528Z</time></trkpt><trkpt lat="42.7724706" lon="10.3318026"><ele>260.4</ele><time>2026-04-18T08:41:03.526Z</time></trkpt><trkpt lat="42.7724101" lon="10.3317003"><ele>264.2</ele><time>2026-04-18T08:41:04.525Z</time></trkpt><trkpt lat="42.7723489" lon="10.3316004"><ele>268.0</ele><time>2026-04-18T08:41:05.523Z</time></trkpt><trkpt lat="42.7722961" lon="10.3315112"><ele>268.0</ele><time>2026-04-18T08:41:06.523Z</time></trkpt><trkpt lat="42.7722625" lon="10.3314267"><ele>268.0</ele><time>2026-04-18T08:41:07.519Z</time></trkpt><trkpt lat="42.7722748" lon="10.3313185"><ele>268.0</ele><time>2026-04-18T08:41:09.527Z</time></trkpt><trkpt lat="42.7723298" lon="10.3311992"><ele>268.0</ele><time>2026-04-18T08:41:11.528Z</time></trkpt><trkpt lat="42.7723881" lon="10.331071"><ele>268.0</ele><time>2026-04-18T08:41:13.525Z</time></trkpt><trkpt lat="42.772459" lon="10.3309495"><ele>268.16666666666663</ele><time>2026-04-18T08:41:15.526Z</time></trkpt><trkpt lat="42.7725049" lon="10.3308787"><ele>268.3333333333333</ele><time>2026-04-18T08:41:16.524Z</time></trkpt><trkpt lat="42.7725611" lon="10.3308015"><ele>268.5</ele><time>2026-04-18T08:41:17.529Z</time></trkpt><trkpt lat="42.7726202" lon="10.3307237"><ele>268.6666666666667</ele><time>2026-04-18T08:41:18.528Z</time></trkpt><trkpt lat="42.7726822" lon="10.3306504"><ele>268.83333333333337</ele><time>2026-04-18T08:41:19.529Z</time></trkpt><trkpt lat="42.7727451" lon="10.3305926"><ele>269.0</ele><time>2026-04-18T08:41:20.529Z</time></trkpt><trkpt lat="42.7728117" lon="10.3305537"><ele>269.0</ele><time>2026-04-18T08:41:21.536Z</time></trkpt><trkpt lat="42.7728734" lon="10.3305304"><ele>269.0</ele><time>2026-04-18T08:41:22.538Z</time></trkpt><trkpt lat="42.7729902" lon="10.3304819"><ele>269.0</ele><time>2026-04-18T08:41:24.535Z</time></trkpt><trkpt lat="42.7731104" lon="10.3304618"><ele>269.0</ele><time>2026-04-18T08:41:26.532Z</time></trkpt><trkpt lat="42.7732358" lon="10.3304469"><ele>269.0</ele><time>2026-04-18T08:41:28.53Z</time></trkpt><trkpt lat="42.7733013" lon="10.3304467"><ele>269.0</ele><time>2026-04-18T08:41:29.528Z</time></trkpt><trkpt lat="42.7733678" lon="10.3304451"><ele>269.0</ele><time>2026-04-18T08:41:30.532Z</time></trkpt><trkpt lat="42.7734332" lon="10.3304498"><ele>269.0</ele><time>2026-04-18T08:41:31.524Z</time></trkpt><trkpt lat="42.7734992" lon="10.3304527"><ele>269.0</ele><time>2026-04-18T08:41:32.526Z</time></trkpt><trkpt lat="42.7735641" lon="10.3304569"><ele>269.0</ele><time>2026-04-18T08:41:33.523Z</time></trkpt><trkpt lat="42.7736856" lon="10.3304653"><ele>269.0</ele><time>2026-04-18T08:41:35.523Z</time></trkpt><trkpt lat="42.7737502" lon="10.3304659"><ele>269.0</ele><time>2026-04-18T08:41:36.521Z</time></trkpt><trkpt lat="42.7738629" lon="10.3304061"><ele>268.4</ele><time>2026-04-18T08:41:38.521Z</time></trkpt><trkpt lat="42.7739569" lon="10.3303077"><ele>267.79999999999995</ele><time>2026-04-18T08:41:40.522Z</time></trkpt><trkpt lat="42.7740236" lon="10.3302331"><ele>267.20000000000005</ele><time>2026-04-18T08:41:42.519Z</time></trkpt><trkpt lat="42.7740412" lon="10.3301298"><ele>266.6</ele><time>2026-04-18T08:41:46.52Z</time></trkpt><trkpt lat="42.7740574" lon="10.3300396"><ele>266.0</ele><time>2026-04-18T08:41:48.516Z</time></trkpt><trkpt lat="42.7741005" lon="10.3298586"><ele>266.0</ele><time>2026-04-18T08:41:50.52Z</time></trkpt><trkpt lat="42.7741317" lon="10.3297349"><ele>266.0</ele><time>2026-04-18T08:41:51.521Z</time></trkpt><trkpt lat="42.7741556" lon="10.3296272"><ele>266.0</ele><time>2026-04-18T08:41:52.528Z</time></trkpt><trkpt lat="42.7741504" lon="10.3295414"><ele>266.0</ele><time>2026-04-18T08:44:50.525Z</time></trkpt><trkpt lat="42.7741786" lon="10.3294598"><ele>266.0</ele><time>2026-04-18T08:44:53.521Z</time></trkpt><trkpt lat="42.7742251" lon="10.3293494"><ele>266.0</ele><time>2026-04-18T08:44:55.525Z</time></trkpt><trkpt lat="42.7742501" lon="10.3292107"><ele>267.0</ele><time>2026-04-18T08:44:57.527Z</time></trkpt><trkpt lat="42.7742447" lon="10.3290787"><ele>268.0</ele><time>2026-04-18T08:44:59.527Z</time></trkpt><trkpt lat="42.7742557" lon="10.3289692"><ele>269.0</ele><time>2026-04-18T08:45:16.531Z</time></trkpt><trkpt lat="42.7742655" lon="10.3288494"><ele>270.0</ele><time>2026-04-18T08:45:18.527Z</time></trkpt><trkpt lat="42.7743019" lon="10.3286809"><ele>271.0</ele><time>2026-04-18T08:45:20.525Z</time></trkpt><trkpt lat="42.7743302" lon="10.3285788"><ele>271.16666666666663</ele><time>2026-04-18T08:45:21.523Z</time></trkpt><trkpt lat="42.7743663" lon="10.3284653"><ele>271.3333333333333</ele><time>2026-04-18T08:45:22.529Z</time></trkpt><trkpt lat="42.7743998" lon="10.3283522"><ele>271.5</ele><time>2026-04-18T08:45:23.521Z</time></trkpt><trkpt lat="42.7744416" lon="10.3282368"><ele>271.6666666666667</ele><time>2026-04-18T08:45:24.524Z</time></trkpt><trkpt lat="42.7744775" lon="10.3281286"><ele>271.83333333333337</ele><time>2026-04-18T08:45:25.524Z</time></trkpt><trkpt lat="42.7745105" lon="10.3280235"><ele>272.0</ele><time>2026-04-18T08:45:26.532Z</time></trkpt><trkpt lat="42.7745434" lon="10.3279228"><ele>274.5</ele><time>2026-04-18T08:45:27.525Z</time></trkpt><trkpt lat="42.7745799" lon="10.3278192"><ele>277.0</ele><time>2026-04-18T08:45:28.526Z</time></trkpt><trkpt lat="42.7746179" lon="10.3277132"><ele>279.5</ele><time>2026-04-18T08:45:29.521Z</time></trkpt><trkpt lat="42.7746565" lon="10.3276126"><ele>282.0</ele><time>2026-04-18T08:45:30.524Z</time></trkpt><trkpt lat="42.7746978" lon="10.3275174"><ele>284.5</ele><time>2026-04-18T08:45:31.531Z</time></trkpt><trkpt lat="42.7747395" lon="10.327422"><ele>287.0</ele><time>2026-04-18T08:45:32.526Z</time></trkpt><trkpt lat="42.7747814" lon="10.3273221"><ele>289.2</ele><time>2026-04-18T08:45:33.527Z</time></trkpt><trkpt lat="42.7748244" lon="10.3272134"><ele>291.4</ele><time>2026-04-18T08:45:34.53Z</time></trkpt><trkpt lat="42.7748673" lon="10.3270973"><ele>293.6</ele><time>2026-04-18T08:45:35.527Z</time></trkpt><trkpt lat="42.7749168" lon="10.3269802"><ele>295.8</ele><time>2026-04-18T08:45:36.525Z</time></trkpt><trkpt lat="42.7749691" lon="10.3268652"><ele>298.0</ele><time>2026-04-18T08:45:37.525Z</time></trkpt><trkpt lat="42.775023" lon="10.3267615"><ele>298.0</ele><time>2026-04-18T08:45:38.521Z</time></trkpt><trkpt lat="42.7750726" lon="10.3266639"><ele>298.0</ele><time>2026-04-18T08:45:39.526Z</time></trkpt><trkpt lat="42.7751254" lon="10.3265682"><ele>298.0</ele><time>2026-04-18T08:45:40.528Z</time></trkpt><trkpt lat="42.7751867" lon="10.3264656"><ele>298.0</ele><time>2026-04-18T08:45:41.532Z</time></trkpt><trkpt lat="42.7752594" lon="10.3263593"><ele>298.0</ele><time>2026-04-18T08:45:42.528Z</time></trkpt><trkpt lat="42.775339" lon="10.3262535"><ele>301.2</ele><time>2026-04-18T08:45:43.527Z</time></trkpt><trkpt lat="42.7754165" lon="10.3261655"><ele>304.4</ele><time>2026-04-18T08:45:44.524Z</time></trkpt><trkpt lat="42.775487" lon="10.3260874"><ele>307.59999999999997</ele><time>2026-04-18T08:45:45.526Z</time></trkpt><trkpt lat="42.7755528" lon="10.3260008"><ele>310.8</ele><time>2026-04-18T08:45:46.525Z</time></trkpt><trkpt lat="42.7756168" lon="10.3259076"><ele>314.0</ele><time>2026-04-18T08:45:47.525Z</time></trkpt><trkpt lat="42.7756739" lon="10.3258188"><ele>313.99999999999994</ele><time>2026-04-18T08:45:48.531Z</time></trkpt><trkpt lat="42.7757217" lon="10.3257389"><ele>314.0</ele><time>2026-04-18T08:45:49.525Z</time></trkpt><trkpt lat="42.7757657" lon="10.3256587"><ele>314.0</ele><time>2026-04-18T08:45:50.531Z</time></trkpt><trkpt lat="42.7758102" lon="10.3255685"><ele>314.0</ele><time>2026-04-18T08:45:51.529Z</time></trkpt><trkpt lat="42.775852" lon="10.3254838"><ele>314.0</ele><time>2026-04-18T08:45:52.526Z</time></trkpt><trkpt lat="42.7758883" lon="10.3254005"><ele>313.99999999999994</ele><time>2026-04-18T08:45:53.526Z</time></trkpt><trkpt lat="42.7759183" lon="10.3253234"><ele>314.0</ele><time>2026-04-18T08:45:54.524Z</time></trkpt><trkpt lat="42.7759716" lon="10.3251994"><ele>312.6666666666667</ele><time>2026-04-18T08:45:56.531Z</time></trkpt><trkpt lat="42.7760314" lon="10.3251365"><ele>311.33333333333337</ele><time>2026-04-18T08:45:58.523Z</time></trkpt><trkpt lat="42.7761235" lon="10.3250598"><ele>310.0</ele><time>2026-04-18T08:46:00.523Z</time></trkpt><trkpt lat="42.7761805" lon="10.3250061"><ele>308.6666666666667</ele><time>2026-04-18T08:46:01.525Z</time></trkpt><trkpt lat="42.7762432" lon="10.3249405"><ele>307.3333333333333</ele><time>2026-04-18T08:46:02.526Z</time></trkpt><trkpt lat="42.776306" lon="10.3248679"><ele>306.0</ele><time>2026-04-18T08:46:03.526Z</time></trkpt><trkpt lat="42.7763683" lon="10.3247942"><ele>305.1666666666667</ele><time>2026-04-18T08:46:04.531Z</time></trkpt><trkpt lat="42.7764326" lon="10.3247167"><ele>304.3333333333333</ele><time>2026-04-18T08:46:05.523Z</time></trkpt><trkpt lat="42.7764952" lon="10.3246396"><ele>303.5</ele><time>2026-04-18T08:46:06.523Z</time></trkpt><trkpt lat="42.7765576" lon="10.3245658"><ele>302.66666666666663</ele><time>2026-04-18T08:46:07.514Z</time></trkpt><trkpt lat="42.7766259" lon="10.3244773"><ele>301.8333333333333</ele><time>2026-04-18T08:46:08.522Z</time></trkpt><trkpt lat="42.7766954" lon="10.324387"><ele>301.0</ele><time>2026-04-18T08:46:09.523Z</time></trkpt><trkpt lat="42.7767567" lon="10.3243108"><ele>301.0</ele><time>2026-04-18T08:46:10.518Z</time></trkpt><trkpt lat="42.7768082" lon="10.3242511"><ele>301.0</ele><time>2026-04-18T08:46:11.52Z</time></trkpt><trkpt lat="42.7768891" lon="10.3241621"><ele>301.0</ele><time>2026-04-18T08:46:13.526Z</time></trkpt><trkpt lat="42.7769504" lon="10.3241032"><ele>301.0</ele><time>2026-04-18T08:46:15.523Z</time></trkpt><trkpt lat="42.7769534" lon="10.3241954"><ele>301.0</ele><time>2026-04-18T08:46:32.513Z</time></trkpt><trkpt lat="42.7769232" lon="10.3243237"><ele>301.0</ele><time>2026-04-18T08:46:34.51Z</time></trkpt><trkpt lat="42.7769128" lon="10.3244258"><ele>300.40000000000003</ele><time>2026-04-18T08:46:35.516Z</time></trkpt><trkpt lat="42.7769061" lon="10.3245465"><ele>299.8</ele><time>2026-04-18T08:46:36.512Z</time></trkpt><trkpt lat="42.776891" lon="10.3246817"><ele>299.20000000000005</ele><time>2026-04-18T08:46:37.512Z</time></trkpt><trkpt lat="42.7768695" lon="10.3248312"><ele>298.6</ele><time>2026-04-18T08:46:38.512Z</time></trkpt><trkpt lat="42.7768363" lon="10.3249761"><ele>298.0</ele><time>2026-04-18T08:46:39.52Z</time></trkpt><trkpt lat="42.7767977" lon="10.3251154"><ele>297.3333333333333</ele><time>2026-04-18T08:46:40.517Z</time></trkpt><trkpt lat="42.776764" lon="10.3252426"><ele>296.66666666666663</ele><time>2026-04-18T08:46:41.518Z</time></trkpt><trkpt lat="42.7767342" lon="10.325352"><ele>296.0</ele><time>2026-04-18T08:46:42.517Z</time></trkpt><trkpt lat="42.7767036" lon="10.3254494"><ele>295.3333333333333</ele><time>2026-04-18T08:46:43.52Z</time></trkpt><trkpt lat="42.7766675" lon="10.3255537"><ele>294.6666666666667</ele><time>2026-04-18T08:46:44.52Z</time></trkpt><trkpt lat="42.7766207" lon="10.3256616"><ele>294.0</ele><time>2026-04-18T08:46:45.514Z</time></trkpt><trkpt lat="42.7765623" lon="10.3257718"><ele>294.0</ele><time>2026-04-18T08:46:46.52Z</time></trkpt><trkpt lat="42.7765005" lon="10.32588"><ele>294.0</ele><time>2026-04-18T08:46:47.52Z</time></trkpt><trkpt lat="42.7764411" lon="10.3259934"><ele>294.0</ele><time>2026-04-18T08:46:48.518Z</time></trkpt><trkpt lat="42.7763865" lon="10.3261045"><ele>294.0</ele><time>2026-04-18T08:46:49.517Z</time></trkpt><trkpt lat="42.7763375" lon="10.3262113"><ele>294.0</ele><time>2026-04-18T08:46:50.516Z</time></trkpt><trkpt lat="42.7762931" lon="10.3263234"><ele>290.59999999999997</ele><time>2026-04-18T08:46:51.52Z</time></trkpt><trkpt lat="42.776254" lon="10.3264447"><ele>287.2</ele><time>2026-04-18T08:46:52.53Z</time></trkpt><trkpt lat="42.7762184" lon="10.3265746"><ele>283.79999999999995</ele><time>2026-04-18T08:46:53.524Z</time></trkpt><trkpt lat="42.7761822" lon="10.3267032"><ele>280.4</ele><time>2026-04-18T08:46:54.522Z</time></trkpt><trkpt lat="42.7761376" lon="10.3268253"><ele>277.0</ele><time>2026-04-18T08:46:55.521Z</time></trkpt><trkpt lat="42.7760861" lon="10.3269403"><ele>277.0</ele><time>2026-04-18T08:46:56.524Z</time></trkpt><trkpt lat="42.7760327" lon="10.3270423"><ele>277.0</ele><time>2026-04-18T08:46:57.523Z</time></trkpt><trkpt lat="42.7759774" lon="10.3271289"><ele>277.0</ele><time>2026-04-18T08:46:58.521Z</time></trkpt><trkpt lat="42.7759127" lon="10.3272081"><ele>277.0</ele><time>2026-04-18T08:46:59.532Z</time></trkpt><trkpt lat="42.7758426" lon="10.3272718"><ele>277.0</ele><time>2026-04-18T08:47:00.522Z</time></trkpt><trkpt lat="42.7757696" lon="10.3273175"><ele>277.0</ele><time>2026-04-18T08:47:01.526Z</time></trkpt><trkpt lat="42.7756871" lon="10.3273364"><ele>278.6</ele><time>2026-04-18T08:47:02.528Z</time></trkpt><trkpt lat="42.7755933" lon="10.3273273"><ele>280.2</ele><time>2026-04-18T08:47:03.521Z</time></trkpt><trkpt lat="42.7754938" lon="10.3273063"><ele>281.8</ele><time>2026-04-18T08:47:04.519Z</time></trkpt><trkpt lat="42.7753902" lon="10.3273021"><ele>283.4</ele><time>2026-04-18T08:47:05.524Z</time></trkpt><trkpt lat="42.7752926" lon="10.3273412"><ele>285.0</ele><time>2026-04-18T08:47:06.525Z</time></trkpt><trkpt lat="42.7751935" lon="10.3274156"><ele>285.4</ele><time>2026-04-18T08:47:07.523Z</time></trkpt><trkpt lat="42.7751099" lon="10.3275064"><ele>285.8</ele><time>2026-04-18T08:47:08.52Z</time></trkpt><trkpt lat="42.7750439" lon="10.3276124"><ele>286.2</ele><time>2026-04-18T08:47:09.521Z</time></trkpt><trkpt lat="42.7749682" lon="10.3277122"><ele>286.6</ele><time>2026-04-18T08:47:10.524Z</time></trkpt><trkpt lat="42.7748921" lon="10.3277947"><ele>287.0</ele><time>2026-04-18T08:47:11.525Z</time></trkpt><trkpt lat="42.7748127" lon="10.3278587"><ele>287.0</ele><time>2026-04-18T08:47:12.527Z</time></trkpt><trkpt lat="42.7747289" lon="10.327909"><ele>287.0</ele><time>2026-04-18T08:47:13.527Z</time></trkpt><trkpt lat="42.7746474" lon="10.3279435"><ele>287.0</ele><time>2026-04-18T08:47:14.534Z</time></trkpt><trkpt lat="42.7745692" lon="10.3279848"><ele>287.0</ele><time>2026-04-18T08:47:15.522Z</time></trkpt><trkpt lat="42.7744949" lon="10.3280537"><ele>287.0</ele><time>2026-04-18T08:47:16.522Z</time></trkpt><trkpt lat="42.7744421" lon="10.3281594"><ele>287.0</ele><time>2026-04-18T08:47:17.523Z</time></trkpt><trkpt lat="42.7744312" lon="10.3283092"><ele>283.25</ele><time>2026-04-18T08:47:18.523Z</time></trkpt><trkpt lat="42.7744512" lon="10.3284687"><ele>279.5</ele><time>2026-04-18T08:47:19.52Z</time></trkpt><trkpt lat="42.7744877" lon="10.3286284"><ele>275.75</ele><time>2026-04-18T08:47:20.523Z</time></trkpt><trkpt lat="42.7745299" lon="10.3287897"><ele>272.0</ele><time>2026-04-18T08:47:21.519Z</time></trkpt><trkpt lat="42.7745652" lon="10.3289382"><ele>268.5</ele><time>2026-04-18T08:47:22.528Z</time></trkpt><trkpt lat="42.7745823" lon="10.3290947"><ele>265.0</ele><time>2026-04-18T08:47:23.534Z</time></trkpt><trkpt lat="42.7745916" lon="10.3292602"><ele>261.5</ele><time>2026-04-18T08:47:24.521Z</time></trkpt><trkpt lat="42.7745879" lon="10.3294196"><ele>258.0</ele><time>2026-04-18T08:47:25.519Z</time></trkpt><trkpt lat="42.7745709" lon="10.329565"><ele>258.0</ele><time>2026-04-18T08:47:26.525Z</time></trkpt><trkpt lat="42.7745432" lon="10.3296922"><ele>258.0</ele><time>2026-04-18T08:47:27.526Z</time></trkpt><trkpt lat="42.7744915" lon="10.3297938"><ele>258.0</ele><time>2026-04-18T08:47:28.523Z</time></trkpt><trkpt lat="42.7744211" lon="10.3298836"><ele>258.0</ele><time>2026-04-18T08:47:29.524Z</time></trkpt><trkpt lat="42.774339" lon="10.3299499"><ele>258.0</ele><time>2026-04-18T08:47:30.52Z</time></trkpt><trkpt lat="42.7742551" lon="10.33001"><ele>259.6</ele><time>2026-04-18T08:47:31.527Z</time></trkpt><trkpt lat="42.774174" lon="10.3300847"><ele>261.20000000000005</ele><time>2026-04-18T08:47:32.521Z</time></trkpt><trkpt lat="42.7741038" lon="10.330186"><ele>262.8</ele><time>2026-04-18T08:47:33.523Z</time></trkpt><trkpt lat="42.7740505" lon="10.330302"><ele>264.40000000000003</ele><time>2026-04-18T08:47:34.521Z</time></trkpt><trkpt lat="42.7740182" lon="10.3304087"><ele>266.0</ele><time>2026-04-18T08:47:35.523Z</time></trkpt><trkpt lat="42.7739877" lon="10.3305083"><ele>264.5</ele><time>2026-04-18T08:47:36.523Z</time></trkpt><trkpt lat="42.7739518" lon="10.3306076"><ele>263.0</ele><time>2026-04-18T08:47:37.521Z</time></trkpt><trkpt lat="42.7739119" lon="10.3307058"><ele>261.5</ele><time>2026-04-18T08:47:38.524Z</time></trkpt><trkpt lat="42.7738635" lon="10.3307992"><ele>260.0</ele><time>2026-04-18T08:47:39.521Z</time></trkpt><trkpt lat="42.773804" lon="10.3308846"><ele>258.5</ele><time>2026-04-18T08:47:40.526Z</time></trkpt><trkpt lat="42.77374" lon="10.3309586"><ele>257.0</ele><time>2026-04-18T08:47:41.52Z</time></trkpt><trkpt lat="42.7736687" lon="10.3310262"><ele>257.0</ele><time>2026-04-18T08:47:42.524Z</time></trkpt><trkpt lat="42.773602" lon="10.3310813"><ele>257.0</ele><time>2026-04-18T08:47:43.522Z</time></trkpt><trkpt lat="42.7735375" lon="10.3311252"><ele>257.0</ele><time>2026-04-18T08:47:44.52Z</time></trkpt><trkpt lat="42.7734679" lon="10.331153"><ele>257.0</ele><time>2026-04-18T08:47:45.52Z</time></trkpt><trkpt lat="42.7733879" lon="10.3311729"><ele>257.0</ele><time>2026-04-18T08:47:46.522Z</time></trkpt><trkpt lat="42.7733092" lon="10.3312191"><ele>257.0</ele><time>2026-04-18T08:47:47.517Z</time></trkpt><trkpt lat="42.7732279" lon="10.3312936"><ele>256.25</ele><time>2026-04-18T08:47:48.517Z</time></trkpt><trkpt lat="42.7731537" lon="10.3313952"><ele>255.5</ele><time>2026-04-18T08:47:49.515Z</time></trkpt><trkpt lat="42.7730834" lon="10.3315203"><ele>254.75</ele><time>2026-04-18T08:47:50.517Z</time></trkpt><trkpt lat="42.7730191" lon="10.3316622"><ele>254.0</ele><time>2026-04-18T08:47:51.516Z</time></trkpt><trkpt lat="42.772972" lon="10.3318089"><ele>254.0</ele><time>2026-04-18T08:47:52.526Z</time></trkpt><trkpt lat="42.772938" lon="10.3319518"><ele>253.99999999999997</ele><time>2026-04-18T08:47:53.52Z</time></trkpt><trkpt lat="42.7729202" lon="10.3320793"><ele>253.99999999999997</ele><time>2026-04-18T08:47:54.527Z</time></trkpt><trkpt lat="42.7729147" lon="10.3321767"><ele>254.0</ele><time>2026-04-18T08:47:55.52Z</time></trkpt><trkpt lat="42.7728867" lon="10.3323291"><ele>254.0</ele><time>2026-04-18T08:47:57.531Z</time></trkpt><trkpt lat="42.7728642" lon="10.3324092"><ele>253.16666666666669</ele><time>2026-04-18T08:47:58.526Z</time></trkpt><trkpt lat="42.7728609" lon="10.3324964"><ele>252.33333333333334</ele><time>2026-04-18T08:47:59.533Z</time></trkpt><trkpt lat="42.7729282" lon="10.3326443"><ele>251.5</ele><time>2026-04-18T08:48:01.522Z</time></trkpt><trkpt lat="42.7729745" lon="10.3327081"><ele>250.66666666666669</ele><time>2026-04-18T08:48:02.532Z</time></trkpt><trkpt lat="42.7730261" lon="10.3327691"><ele>249.83333333333334</ele><time>2026-04-18T08:48:03.527Z</time></trkpt><trkpt lat="42.7730837" lon="10.3328355"><ele>249.0</ele><time>2026-04-18T08:48:04.53Z</time></trkpt><trkpt lat="42.7731442" lon="10.3328999"><ele>249.0</ele><time>2026-04-18T08:48:05.53Z</time></trkpt><trkpt lat="42.7731975" lon="10.3329554"><ele>249.0</ele><time>2026-04-18T08:48:06.529Z</time></trkpt><trkpt lat="42.7732518" lon="10.3330462"><ele>249.0</ele><time>2026-04-18T08:48:08.529Z</time></trkpt><trkpt lat="42.7732292" lon="10.3331513"><ele>249.0</ele><time>2026-04-18T08:48:11.525Z</time></trkpt><trkpt lat="42.7731675" lon="10.333188"><ele>249.0</ele><time>2026-04-18T08:48:14.531Z</time></trkpt><trkpt lat="42.7730648" lon="10.3331688"><ele>249.0</ele><time>2026-04-18T08:48:17.525Z</time></trkpt><trkpt lat="42.7729332" lon="10.3331646"><ele>248.79999999999998</ele><time>2026-04-18T08:48:19.523Z</time></trkpt><trkpt lat="42.772859" lon="10.3331454"><ele>248.59999999999997</ele><time>2026-04-18T08:48:20.517Z</time></trkpt><trkpt lat="42.7727724" lon="10.333113"><ele>248.4</ele><time>2026-04-18T08:48:21.515Z</time></trkpt><trkpt lat="42.7726713" lon="10.333066"><ele>248.2</ele><time>2026-04-18T08:48:22.522Z</time></trkpt><trkpt lat="42.7725668" lon="10.3330081"><ele>248.0</ele><time>2026-04-18T08:48:23.518Z</time></trkpt><trkpt lat="42.7724614" lon="10.3329308"><ele>248.0</ele><time>2026-04-18T08:48:24.523Z</time></trkpt><trkpt lat="42.7723577" lon="10.332858"><ele>248.0</ele><time>2026-04-18T08:48:25.519Z</time></trkpt><trkpt lat="42.7722507" lon="10.3327939"><ele>248.0</ele><time>2026-04-18T08:48:26.522Z</time></trkpt><trkpt lat="42.7721442" lon="10.3327529"><ele>248.0</ele><time>2026-04-18T08:48:27.52Z</time></trkpt><trkpt lat="42.7720411" lon="10.332724"><ele>248.0</ele><time>2026-04-18T08:48:28.518Z</time></trkpt><trkpt lat="42.771936" lon="10.3327014"><ele>246.33333333333334</ele><time>2026-04-18T08:48:29.515Z</time></trkpt><trkpt lat="42.7718431" lon="10.332671"><ele>244.66666666666669</ele><time>2026-04-18T08:48:30.517Z</time></trkpt><trkpt lat="42.7717594" lon="10.3326471"><ele>243.0</ele><time>2026-04-18T08:48:31.518Z</time></trkpt><trkpt lat="42.7716784" lon="10.3326407"><ele>241.33333333333331</ele><time>2026-04-18T08:48:32.514Z</time></trkpt><trkpt lat="42.7715911" lon="10.3326548"><ele>239.66666666666666</ele><time>2026-04-18T08:48:33.512Z</time></trkpt><trkpt lat="42.7715008" lon="10.3326808"><ele>238.0</ele><time>2026-04-18T08:48:34.515Z</time></trkpt><trkpt lat="42.7714124" lon="10.3327122"><ele>238.0</ele><time>2026-04-18T08:48:35.517Z</time></trkpt><trkpt lat="42.7713245" lon="10.3327615"><ele>238.0</ele><time>2026-04-18T08:48:36.52Z</time></trkpt><trkpt lat="42.7712344" lon="10.3328089"><ele>238.0</ele><time>2026-04-18T08:48:37.522Z</time></trkpt><trkpt lat="42.7711498" lon="10.3328361"><ele>238.0</ele><time>2026-04-18T08:48:38.52Z</time></trkpt><trkpt lat="42.7710787" lon="10.3328263"><ele>238.0</ele><time>2026-04-18T08:48:39.525Z</time></trkpt><trkpt lat="42.7709997" lon="10.3327412"><ele>235.4</ele><time>2026-04-18T08:48:41.524Z</time></trkpt><trkpt lat="42.7709579" lon="10.3325892"><ele>232.8</ele><time>2026-04-18T08:48:43.523Z</time></trkpt><trkpt lat="42.7709501" lon="10.3324846"><ele>230.2</ele><time>2026-04-18T08:48:44.528Z</time></trkpt><trkpt lat="42.7709602" lon="10.3323429"><ele>227.6</ele><time>2026-04-18T08:48:45.521Z</time></trkpt><trkpt lat="42.7709804" lon="10.3321741"><ele>225.0</ele><time>2026-04-18T08:48:46.518Z</time></trkpt><trkpt lat="42.7709972" lon="10.3320086"><ele>225.0</ele><time>2026-04-18T08:48:47.515Z</time></trkpt><trkpt lat="42.7710015" lon="10.3318594"><ele>225.0</ele><time>2026-04-18T08:48:48.522Z</time></trkpt><trkpt lat="42.7709928" lon="10.3317355"><ele>225.0</ele><time>2026-04-18T08:48:49.523Z</time></trkpt><trkpt lat="42.7709767" lon="10.3316365"><ele>225.0</ele><time>2026-04-18T08:48:50.515Z</time></trkpt><trkpt lat="42.770955" lon="10.3315531"><ele>225.0</ele><time>2026-04-18T08:48:51.52Z</time></trkpt><trkpt lat="42.7709216" lon="10.3314705"><ele>225.0</ele><time>2026-04-18T08:48:52.524Z</time></trkpt><trkpt lat="42.7708723" lon="10.3313894"><ele>225.0</ele><time>2026-04-18T08:48:53.516Z</time></trkpt><trkpt lat="42.7708197" lon="10.3313222"><ele>225.0</ele><time>2026-04-18T08:48:54.529Z</time></trkpt><trkpt lat="42.7706967" lon="10.3313072"><ele>225.0</ele><time>2026-04-18T08:48:56.542Z</time></trkpt><trkpt lat="42.7706129" lon="10.3313678"><ele>225.0</ele><time>2026-04-18T08:48:57.52Z</time></trkpt><trkpt lat="42.7705174" lon="10.3314496"><ele>225.0</ele><time>2026-04-18T08:48:58.525Z</time></trkpt><trkpt lat="42.7704207" lon="10.3315275"><ele>225.0</ele><time>2026-04-18T08:48:59.527Z</time></trkpt><trkpt lat="42.7703291" lon="10.3316001"><ele>225.0</ele><time>2026-04-18T08:49:00.526Z</time></trkpt><trkpt lat="42.7702455" lon="10.3316601"><ele>225.0</ele><time>2026-04-18T08:49:01.529Z</time></trkpt><trkpt lat="42.7701624" lon="10.3317064"><ele>225.0</ele><time>2026-04-18T08:49:02.52Z</time></trkpt><trkpt lat="42.7700877" lon="10.3317378"><ele>225.0</ele><time>2026-04-18T08:49:03.524Z</time></trkpt><trkpt lat="42.7700166" lon="10.3317555"><ele>225.0</ele><time>2026-04-18T08:49:04.523Z</time></trkpt><trkpt lat="42.7699395" lon="10.3317591"><ele>221.6</ele><time>2026-04-18T08:49:05.532Z</time></trkpt><trkpt lat="42.7698572" lon="10.3317367"><ele>218.2</ele><time>2026-04-18T08:49:06.531Z</time></trkpt><trkpt lat="42.7697674" lon="10.3316931"><ele>214.8</ele><time>2026-04-18T08:49:07.536Z</time></trkpt><trkpt lat="42.7696693" lon="10.3316269"><ele>211.4</ele><time>2026-04-18T08:49:08.536Z</time></trkpt><trkpt lat="42.7695572" lon="10.3315415"><ele>208.0</ele><time>2026-04-18T08:49:09.533Z</time></trkpt><trkpt lat="42.7694435" lon="10.3314528"><ele>205.4</ele><time>2026-04-18T08:49:10.533Z</time></trkpt><trkpt lat="42.7693389" lon="10.3313692"><ele>202.8</ele><time>2026-04-18T08:49:11.533Z</time></trkpt><trkpt lat="42.7692377" lon="10.3312943"><ele>200.2</ele><time>2026-04-18T08:49:12.534Z</time></trkpt><trkpt lat="42.7691457" lon="10.3312238"><ele>197.6</ele><time>2026-04-18T08:49:13.534Z</time></trkpt><trkpt lat="42.7690608" lon="10.3311547"><ele>195.0</ele><time>2026-04-18T08:49:14.538Z</time></trkpt><trkpt lat="42.7689903" lon="10.33109"><ele>195.0</ele><time>2026-04-18T08:49:15.533Z</time></trkpt><trkpt lat="42.7689219" lon="10.3310404"><ele>195.0</ele><time>2026-04-18T08:49:16.533Z</time></trkpt><trkpt lat="42.7688561" lon="10.3310204"><ele>195.0</ele><time>2026-04-18T08:49:17.533Z</time></trkpt><trkpt lat="42.768741" lon="10.3311182"><ele>195.0</ele><time>2026-04-18T08:49:19.533Z</time></trkpt><trkpt lat="42.7686869" lon="10.3312223"><ele>195.0</ele><time>2026-04-18T08:49:20.531Z</time></trkpt><trkpt lat="42.7686268" lon="10.3313194"><ele>195.66666666666666</ele><time>2026-04-18T08:49:21.526Z</time></trkpt><trkpt lat="42.7685645" lon="10.3313936"><ele>196.33333333333331</ele><time>2026-04-18T08:49:22.534Z</time></trkpt><trkpt lat="42.7684947" lon="10.3314647"><ele>197.0</ele><time>2026-04-18T08:49:23.533Z</time></trkpt><trkpt lat="42.7684253" lon="10.3315442"><ele>197.66666666666666</ele><time>2026-04-18T08:49:24.528Z</time></trkpt><trkpt lat="42.7683622" lon="10.3316317"><ele>198.33333333333331</ele><time>2026-04-18T08:49:25.532Z</time></trkpt><trkpt lat="42.7683163" lon="10.3317326"><ele>199.0</ele><time>2026-04-18T08:49:26.538Z</time></trkpt><trkpt lat="42.7682988" lon="10.3318543"><ele>196.0</ele><time>2026-04-18T08:49:27.528Z</time></trkpt><trkpt lat="42.768308" lon="10.3319931"><ele>193.0</ele><time>2026-04-18T08:49:28.531Z</time></trkpt><trkpt lat="42.7683403" lon="10.3321298"><ele>190.0</ele><time>2026-04-18T08:49:29.532Z</time></trkpt><trkpt lat="42.7683895" lon="10.3322383"><ele>187.0</ele><time>2026-04-18T08:49:30.528Z</time></trkpt><trkpt lat="42.7684384" lon="10.3323156"><ele>184.0</ele><time>2026-04-18T08:49:31.532Z</time></trkpt><trkpt lat="42.7684456" lon="10.3324415"><ele>184.0</ele><time>2026-04-18T08:49:33.532Z</time></trkpt><trkpt lat="42.7683172" lon="10.3324782"><ele>184.0</ele><time>2026-04-18T08:49:35.532Z</time></trkpt><trkpt lat="42.7682427" lon="10.3324464"><ele>184.0</ele><time>2026-04-18T08:49:36.53Z</time></trkpt><trkpt lat="42.7681742" lon="10.3323689"><ele>184.0</ele><time>2026-04-18T08:49:37.528Z</time></trkpt><trkpt lat="42.768107" lon="10.3322464"><ele>184.0</ele><time>2026-04-18T08:49:38.528Z</time></trkpt><trkpt lat="42.7680649" lon="10.3321251"><ele>184.0</ele><time>2026-04-18T08:49:39.524Z</time></trkpt><trkpt lat="42.768044" lon="10.3320217"><ele>184.0</ele><time>2026-04-18T08:49:40.522Z</time></trkpt><trkpt lat="42.7680367" lon="10.3319184"><ele>184.0</ele><time>2026-04-18T08:49:41.535Z</time></trkpt><trkpt lat="42.7680322" lon="10.3317946"><ele>184.0</ele><time>2026-04-18T08:49:42.534Z</time></trkpt><trkpt lat="42.7680252" lon="10.3316508"><ele>184.0</ele><time>2026-04-18T08:49:43.525Z</time></trkpt><trkpt lat="42.7680236" lon="10.3315181"><ele>184.0</ele><time>2026-04-18T08:49:44.52Z</time></trkpt><trkpt lat="42.7680252" lon="10.3314003"><ele>183.33333333333334</ele><time>2026-04-18T08:49:45.515Z</time></trkpt><trkpt lat="42.7680361" lon="10.3312948"><ele>182.66666666666669</ele><time>2026-04-18T08:49:46.52Z</time></trkpt><trkpt lat="42.7680602" lon="10.3311925"><ele>182.0</ele><time>2026-04-18T08:49:47.526Z</time></trkpt><trkpt lat="42.768097" lon="10.3310955"><ele>181.33333333333334</ele><time>2026-04-18T08:49:48.522Z</time></trkpt><trkpt lat="42.7681373" lon="10.3310073"><ele>180.66666666666666</ele><time>2026-04-18T08:49:49.524Z</time></trkpt><trkpt lat="42.7681584" lon="10.3309134"><ele>180.0</ele><time>2026-04-18T08:49:50.524Z</time></trkpt><trkpt lat="42.7681445" lon="10.3308104"><ele>180.0</ele><time>2026-04-18T08:49:51.522Z</time></trkpt><trkpt lat="42.7680971" lon="10.3306955"><ele>180.0</ele><time>2026-04-18T08:49:52.523Z</time></trkpt><trkpt lat="42.768038" lon="10.3305829"><ele>180.0</ele><time>2026-04-18T08:49:53.519Z</time></trkpt><trkpt lat="42.7679797" lon="10.3304734"><ele>180.0</ele><time>2026-04-18T08:49:54.519Z</time></trkpt><trkpt lat="42.7679231" lon="10.3303724"><ele>180.0</ele><time>2026-04-18T08:49:55.518Z</time></trkpt><trkpt lat="42.7678627" lon="10.3302827"><ele>178.16666666666666</ele><time>2026-04-18T08:49:56.52Z</time></trkpt><trkpt lat="42.7678013" lon="10.3301997"><ele>176.33333333333334</ele><time>2026-04-18T08:49:57.529Z</time></trkpt><trkpt lat="42.767742" lon="10.3301178"><ele>174.5</ele><time>2026-04-18T08:49:58.524Z</time></trkpt><trkpt lat="42.767686" lon="10.3300323"><ele>172.66666666666669</ele><time>2026-04-18T08:49:59.527Z</time></trkpt><trkpt lat="42.7676333" lon="10.3299476"><ele>170.83333333333334</ele><time>2026-04-18T08:50:00.523Z</time></trkpt><trkpt lat="42.7675846" lon="10.3298643"><ele>169.0</ele><time>2026-04-18T08:50:01.526Z</time></trkpt><trkpt lat="42.767535" lon="10.3297848"><ele>164.5</ele><time>2026-04-18T08:50:02.52Z</time></trkpt><trkpt lat="42.7674785" lon="10.3297091"><ele>160.0</ele><time>2026-04-18T08:50:03.52Z</time></trkpt><trkpt lat="42.7674129" lon="10.3296446"><ele>155.5</ele><time>2026-04-18T08:50:04.518Z</time></trkpt><trkpt lat="42.7673392" lon="10.3295898"><ele>151.0</ele><time>2026-04-18T08:50:05.518Z</time></trkpt><trkpt lat="42.7672575" lon="10.329537"><ele>146.5</ele><time>2026-04-18T08:50:06.525Z</time></trkpt><trkpt lat="42.7671779" lon="10.3294831"><ele>142.0</ele><time>2026-04-18T08:50:07.525Z</time></trkpt><trkpt lat="42.7670994" lon="10.3294244"><ele>142.0</ele><time>2026-04-18T08:50:08.525Z</time></trkpt><trkpt lat="42.7670188" lon="10.3293585"><ele>142.0</ele><time>2026-04-18T08:50:09.521Z</time></trkpt><trkpt lat="42.7669405" lon="10.3292905"><ele>142.0</ele><time>2026-04-18T08:50:10.521Z</time></trkpt><trkpt lat="42.7668665" lon="10.3292271"><ele>142.0</ele><time>2026-04-18T08:50:11.524Z</time></trkpt><trkpt lat="42.7668021" lon="10.3291698"><ele>142.0</ele><time>2026-04-18T08:50:12.521Z</time></trkpt><trkpt lat="42.766747" lon="10.3290531"><ele>142.0</ele><time>2026-04-18T08:50:14.52Z</time></trkpt><trkpt lat="42.7668146" lon="10.3289628"><ele>142.0</ele><time>2026-04-18T08:50:16.521Z</time></trkpt><trkpt lat="42.7668868" lon="10.3289603"><ele>142.0</ele><time>2026-04-18T08:50:17.523Z</time></trkpt><trkpt lat="42.7669508" lon="10.3289543"><ele>142.0</ele><time>2026-04-18T08:50:18.523Z</time></trkpt><trkpt lat="42.7669871" lon="10.3288615"><ele>142.0</ele><time>2026-04-18T08:50:20.523Z</time></trkpt><trkpt lat="42.7668999" lon="10.3287596"><ele>142.0</ele><time>2026-04-18T08:50:22.526Z</time></trkpt><trkpt lat="42.7668069" lon="10.3287339"><ele>138.33333333333334</ele><time>2026-04-18T08:50:24.523Z</time></trkpt><trkpt lat="42.7666774" lon="10.3287126"><ele>134.66666666666669</ele><time>2026-04-18T08:50:26.521Z</time></trkpt><trkpt lat="42.7666036" lon="10.3287186"><ele>131.0</ele><time>2026-04-18T08:50:27.523Z</time></trkpt><trkpt lat="42.7665333" lon="10.3287394"><ele>127.33333333333334</ele><time>2026-04-18T08:50:28.528Z</time></trkpt><trkpt lat="42.7664635" lon="10.3287636"><ele>123.66666666666667</ele><time>2026-04-18T08:50:29.524Z</time></trkpt><trkpt lat="42.7663948" lon="10.3287825"><ele>120.0</ele><time>2026-04-18T08:50:30.53Z</time></trkpt><trkpt lat="42.7663218" lon="10.3287995"><ele>120.0</ele><time>2026-04-18T08:50:31.529Z</time></trkpt><trkpt lat="42.7662474" lon="10.3288161"><ele>120.0</ele><time>2026-04-18T08:50:32.525Z</time></trkpt><trkpt lat="42.7661818" lon="10.3288376"><ele>120.0</ele><time>2026-04-18T08:50:33.523Z</time></trkpt><trkpt lat="42.7660958" lon="10.3289322"><ele>120.0</ele><time>2026-04-18T08:50:35.522Z</time></trkpt><trkpt lat="42.7660911" lon="10.3290786"><ele>120.0</ele><time>2026-04-18T08:50:37.519Z</time></trkpt><trkpt lat="42.7661281" lon="10.3292518"><ele>122.66666666666667</ele><time>2026-04-18T08:50:39.52Z</time></trkpt><trkpt lat="42.7661674" lon="10.3293439"><ele>125.33333333333334</ele><time>2026-04-18T08:50:40.517Z</time></trkpt><trkpt lat="42.7662167" lon="10.3294296"><ele>128.0</ele><time>2026-04-18T08:50:41.532Z</time></trkpt><trkpt lat="42.7662681" lon="10.3294998"><ele>130.66666666666669</ele><time>2026-04-18T08:50:42.531Z</time></trkpt><trkpt lat="42.7663192" lon="10.3296111"><ele>133.33333333333334</ele><time>2026-04-18T08:50:44.527Z</time></trkpt><trkpt lat="42.7662373" lon="10.3295961"><ele>136.0</ele><time>2026-04-18T08:50:48.53Z</time></trkpt><trkpt lat="42.7661878" lon="10.3294933"><ele>136.0</ele><time>2026-04-18T08:50:50.525Z</time></trkpt><trkpt lat="42.7660994" lon="10.329362"><ele>136.0</ele><time>2026-04-18T08:50:52.53Z</time></trkpt><trkpt lat="42.7660335" lon="10.3292931"><ele>136.0</ele><time>2026-04-18T08:50:53.53Z</time></trkpt><trkpt lat="42.7659626" lon="10.329238"><ele>136.0</ele><time>2026-04-18T08:50:54.527Z</time></trkpt><trkpt lat="42.7658943" lon="10.3291848"><ele>136.0</ele><time>2026-04-18T08:50:55.521Z</time></trkpt><trkpt lat="42.7658334" lon="10.329124"><ele>131.5</ele><time>2026-04-18T08:50:56.53Z</time></trkpt><trkpt lat="42.7657848" lon="10.3290487"><ele>127.0</ele><time>2026-04-18T08:50:57.528Z</time></trkpt><trkpt lat="42.7657528" lon="10.3289666"><ele>122.5</ele><time>2026-04-18T08:50:58.53Z</time></trkpt><trkpt lat="42.765734" lon="10.3288306"><ele>118.0</ele><time>2026-04-18T08:51:00.53Z</time></trkpt><trkpt lat="42.7657458" lon="10.3287315"><ele>113.50000000000001</ele><time>2026-04-18T08:51:02.529Z</time></trkpt><trkpt lat="42.7657704" lon="10.3286387"><ele>109.0</ele><time>2026-04-18T08:53:29.532Z</time></trkpt><trkpt lat="42.7657691" lon="10.3284637"><ele>108.16666666666667</ele><time>2026-04-18T08:53:31.531Z</time></trkpt><trkpt lat="42.7657783" lon="10.3283446"><ele>107.33333333333334</ele><time>2026-04-18T08:53:32.528Z</time></trkpt><trkpt lat="42.7658026" lon="10.3282379"><ele>106.5</ele><time>2026-04-18T08:53:33.526Z</time></trkpt><trkpt lat="42.7658388" lon="10.3281444"><ele>105.66666666666666</ele><time>2026-04-18T08:53:34.535Z</time></trkpt><trkpt lat="42.765887" lon="10.328068"><ele>104.83333333333333</ele><time>2026-04-18T08:53:35.531Z</time></trkpt><trkpt lat="42.7659489" lon="10.3280058"><ele>104.0</ele><time>2026-04-18T08:53:36.531Z</time></trkpt><trkpt lat="42.7660167" lon="10.3279548"><ele>102.2</ele><time>2026-04-18T08:53:37.53Z</time></trkpt><trkpt lat="42.7660891" lon="10.3279157"><ele>100.4</ele><time>2026-04-18T08:53:38.537Z</time></trkpt><trkpt lat="42.7661573" lon="10.3278897"><ele>98.6</ele><time>2026-04-18T08:53:39.524Z</time></trkpt><trkpt lat="42.7662749" lon="10.3278632"><ele>96.8</ele><time>2026-04-18T08:53:41.525Z</time></trkpt><trkpt lat="42.7663825" lon="10.3278179"><ele>95.0</ele><time>2026-04-18T08:53:43.516Z</time></trkpt><trkpt lat="42.7664638" lon="10.3277357"><ele>95.0</ele><time>2026-04-18T08:53:45.525Z</time></trkpt><trkpt lat="42.7665253" lon="10.3275979"><ele>95.0</ele><time>2026-04-18T08:53:47.518Z</time></trkpt><trkpt lat="42.7665617" lon="10.3275008"><ele>95.0</ele><time>2026-04-18T08:53:48.514Z</time></trkpt><trkpt lat="42.7666026" lon="10.3273999"><ele>95.0</ele><time>2026-04-18T08:53:49.519Z</time></trkpt><trkpt lat="42.7666471" lon="10.3273107"><ele>95.0</ele><time>2026-04-18T08:53:50.523Z</time></trkpt><trkpt lat="42.7666957" lon="10.3272317"><ele>95.0</ele><time>2026-04-18T08:53:51.523Z</time></trkpt><trkpt lat="42.7667487" lon="10.3271705"><ele>92.83333333333334</ele><time>2026-04-18T08:53:52.532Z</time></trkpt><trkpt lat="42.7668649" lon="10.3271039"><ele>90.66666666666667</ele><time>2026-04-18T08:53:54.522Z</time></trkpt><trkpt lat="42.7669289" lon="10.3270887"><ele>88.5</ele><time>2026-04-18T08:53:55.522Z</time></trkpt><trkpt lat="42.7669999" lon="10.3270889"><ele>86.33333333333333</ele><time>2026-04-18T08:53:56.523Z</time></trkpt><trkpt lat="42.7670765" lon="10.3270898"><ele>84.16666666666666</ele><time>2026-04-18T08:53:57.522Z</time></trkpt><trkpt lat="42.7671509" lon="10.3270983"><ele>82.0</ele><time>2026-04-18T08:53:58.53Z</time></trkpt><trkpt lat="42.7672223" lon="10.3271034"><ele>82.0</ele><time>2026-04-18T08:53:59.529Z</time></trkpt><trkpt lat="42.7672881" lon="10.3271109"><ele>82.0</ele><time>2026-04-18T08:54:00.528Z</time></trkpt><trkpt lat="42.7673935" lon="10.3271326"><ele>82.0</ele><time>2026-04-18T08:54:02.526Z</time></trkpt><trkpt lat="42.7674704" lon="10.3271151"><ele>82.0</ele><time>2026-04-18T08:54:04.525Z</time></trkpt><trkpt lat="42.7675136" lon="10.3270347"><ele>82.0</ele><time>2026-04-18T08:54:07.528Z</time></trkpt><trkpt lat="42.7674736" lon="10.3269535"><ele>82.0</ele><time>2026-04-18T08:54:10.528Z</time></trkpt><trkpt lat="42.7673875" lon="10.3268688"><ele>82.0</ele><time>2026-04-18T08:54:13.53Z</time></trkpt><trkpt lat="42.7672771" lon="10.3268007"><ele>82.0</ele><time>2026-04-18T08:54:15.531Z</time></trkpt><trkpt lat="42.7672198" lon="10.3267649"><ele>82.0</ele><time>2026-04-18T08:54:16.531Z</time></trkpt><trkpt lat="42.76716" lon="10.3267304"><ele>82.0</ele><time>2026-04-18T08:54:17.531Z</time></trkpt><trkpt lat="42.7670528" lon="10.3266823"><ele>82.0</ele><time>2026-04-18T08:54:19.529Z</time></trkpt><trkpt lat="42.7669808" lon="10.3266587"><ele>82.0</ele><time>2026-04-18T08:54:21.531Z</time></trkpt><trkpt lat="42.7669146" lon="10.3266169"><ele>80.83333333333333</ele><time>2026-04-18T08:54:23.53Z</time></trkpt><trkpt lat="42.7668281" lon="10.3265744"><ele>79.66666666666666</ele><time>2026-04-18T08:54:25.534Z</time></trkpt><trkpt lat="42.7667038" lon="10.3265231"><ele>78.5</ele><time>2026-04-18T08:54:27.533Z</time></trkpt><trkpt lat="42.7666305" lon="10.3265016"><ele>77.33333333333333</ele><time>2026-04-18T08:54:28.532Z</time></trkpt><trkpt lat="42.7665618" lon="10.3264829"><ele>76.16666666666667</ele><time>2026-04-18T08:54:29.528Z</time></trkpt><trkpt lat="42.7664975" lon="10.3264513"><ele>75.0</ele><time>2026-04-18T08:54:30.535Z</time></trkpt><trkpt lat="42.7664378" lon="10.3264206"><ele>75.0</ele><time>2026-04-18T08:54:31.541Z</time></trkpt><trkpt lat="42.7663241" lon="10.3264"><ele>75.0</ele><time>2026-04-18T08:54:33.536Z</time></trkpt><trkpt lat="42.7662395" lon="10.3263748"><ele>75.0</ele><time>2026-04-18T08:54:35.533Z</time></trkpt><trkpt lat="42.7662108" lon="10.3262636"><ele>75.0</ele><time>2026-04-18T08:54:37.528Z</time></trkpt><trkpt lat="42.7662025" lon="10.3261203"><ele>75.0</ele><time>2026-04-18T08:54:39.528Z</time></trkpt><trkpt lat="42.7661874" lon="10.325981"><ele>72.8</ele><time>2026-04-18T08:54:41.525Z</time></trkpt><trkpt lat="42.7661349" lon="10.3258399"><ele>70.6</ele><time>2026-04-18T08:54:43.533Z</time></trkpt><trkpt lat="42.7660693" lon="10.3257017"><ele>68.4</ele><time>2026-04-18T08:54:45.536Z</time></trkpt><trkpt lat="42.7660174" lon="10.3255758"><ele>66.2</ele><time>2026-04-18T08:54:47.548Z</time></trkpt><trkpt lat="42.7659696" lon="10.3254546"><ele>64.0</ele><time>2026-04-18T08:54:49.545Z</time></trkpt><trkpt lat="42.7658946" lon="10.3253426"><ele>61.6</ele><time>2026-04-18T08:54:51.543Z</time></trkpt><trkpt lat="42.765812" lon="10.3252431"><ele>59.2</ele><time>2026-04-18T08:54:53.539Z</time></trkpt><trkpt lat="42.7657536" lon="10.3251226"><ele>56.800000000000004</ele><time>2026-04-18T08:54:55.543Z</time></trkpt><trkpt lat="42.7656908" lon="10.3249851"><ele>54.400000000000006</ele><time>2026-04-18T08:54:57.547Z</time></trkpt><trkpt lat="42.7656476" lon="10.3249183"><ele>52.0</ele><time>2026-04-18T08:54:58.544Z</time></trkpt><trkpt lat="42.7655613" lon="10.3248024"><ele>51.99999999999999</ele><time>2026-04-18T08:55:00.551Z</time></trkpt><trkpt lat="42.7654659" lon="10.3247137"><ele>52.0</ele><time>2026-04-18T08:55:02.539Z</time></trkpt><trkpt lat="42.765405" lon="10.3246919"><ele>52.0</ele><time>2026-04-18T08:55:03.541Z</time></trkpt><trkpt lat="42.7653354" lon="10.3246918"><ele>52.0</ele><time>2026-04-18T08:55:04.536Z</time></trkpt><trkpt lat="42.7652658" lon="10.3247084"><ele>51.99999999999999</ele><time>2026-04-18T08:55:05.551Z</time></trkpt><trkpt lat="42.7651989" lon="10.3247464"><ele>52.0</ele><time>2026-04-18T08:55:06.536Z</time></trkpt><trkpt lat="42.7651087" lon="10.324821"><ele>50.83333333333333</ele><time>2026-04-18T08:55:08.548Z</time></trkpt><trkpt lat="42.7650676" lon="10.324897"><ele>49.666666666666664</ele><time>2026-04-18T08:55:12.549Z</time></trkpt><trkpt lat="42.7650191" lon="10.3249663"><ele>48.5</ele><time>2026-04-18T08:55:16.538Z</time></trkpt><trkpt lat="42.7649705" lon="10.3250657"><ele>47.33333333333333</ele><time>2026-04-18T08:55:18.537Z</time></trkpt><trkpt lat="42.7649159" lon="10.3251298"><ele>46.166666666666664</ele><time>2026-04-18T08:55:20.54Z</time></trkpt><trkpt lat="42.7648827" lon="10.3250193"><ele>45.0</ele><time>2026-04-18T08:55:24.537Z</time></trkpt><trkpt lat="42.764926" lon="10.3248469"><ele>45.0</ele><time>2026-04-18T08:55:26.537Z</time></trkpt><trkpt lat="42.7649661" lon="10.324734"><ele>45.0</ele><time>2026-04-18T08:55:27.545Z</time></trkpt><trkpt lat="42.765028" lon="10.32463"><ele>45.0</ele><time>2026-04-18T08:55:28.542Z</time></trkpt><trkpt lat="42.7651028" lon="10.3245427"><ele>45.0</ele><time>2026-04-18T08:55:29.538Z</time></trkpt><trkpt lat="42.7651804" lon="10.3244759"><ele>45.0</ele><time>2026-04-18T08:55:30.542Z</time></trkpt><trkpt lat="42.7652691" lon="10.3244421"><ele>45.166666666666664</ele><time>2026-04-18T08:55:31.536Z</time></trkpt><trkpt lat="42.7653599" lon="10.3244122"><ele>45.333333333333336</ele><time>2026-04-18T08:55:32.54Z</time></trkpt><trkpt lat="42.7654388" lon="10.3243706"><ele>45.5</ele><time>2026-04-18T08:55:33.541Z</time></trkpt><trkpt lat="42.7655075" lon="10.3243166"><ele>45.66666666666667</ele><time>2026-04-18T08:55:34.529Z</time></trkpt><trkpt lat="42.7655544" lon="10.3242374"><ele>45.833333333333336</ele><time>2026-04-18T08:55:35.531Z</time></trkpt><trkpt lat="42.7655536" lon="10.3241361"><ele>46.0</ele><time>2026-04-18T08:55:36.54Z</time></trkpt><trkpt lat="42.7655024" lon="10.3240293"><ele>46.0</ele><time>2026-04-18T08:55:37.534Z</time></trkpt><trkpt lat="42.7654146" lon="10.3239433"><ele>46.0</ele><time>2026-04-18T08:55:38.538Z</time></trkpt><trkpt lat="42.7653216" lon="10.3238721"><ele>46.0</ele><time>2026-04-18T08:55:39.533Z</time></trkpt><trkpt lat="42.765242" lon="10.3238027"><ele>46.0</ele><time>2026-04-18T08:55:40.538Z</time></trkpt><trkpt lat="42.765201" lon="10.3237153"><ele>46.0</ele><time>2026-04-18T08:55:41.54Z</time></trkpt><trkpt lat="42.7652056" lon="10.3236167"><ele>44.599999999999994</ele><time>2026-04-18T08:55:42.537Z</time></trkpt><trkpt lat="42.7652443" lon="10.3235247"><ele>43.199999999999996</ele><time>2026-04-18T08:55:43.54Z</time></trkpt><trkpt lat="42.7653167" lon="10.323455"><ele>41.8</ele><time>2026-04-18T08:55:44.539Z</time></trkpt><trkpt lat="42.7654228" lon="10.3234188"><ele>40.4</ele><time>2026-04-18T08:55:45.534Z</time></trkpt><trkpt lat="42.7655394" lon="10.3233914"><ele>39.0</ele><time>2026-04-18T08:55:46.525Z</time></trkpt><trkpt lat="42.7656636" lon="10.323366"><ele>39.0</ele><time>2026-04-18T08:55:47.539Z</time></trkpt><trkpt lat="42.765783" lon="10.3233406"><ele>39.0</ele><time>2026-04-18T08:55:48.535Z</time></trkpt><trkpt lat="42.7658885" lon="10.3233068"><ele>39.0</ele><time>2026-04-18T08:55:49.531Z</time></trkpt><trkpt lat="42.7659832" lon="10.3232621"><ele>39.0</ele><time>2026-04-18T08:55:50.534Z</time></trkpt><trkpt lat="42.7660669" lon="10.3232051"><ele>39.0</ele><time>2026-04-18T08:55:51.541Z</time></trkpt><trkpt lat="42.7661418" lon="10.323132"><ele>38.8</ele><time>2026-04-18T08:55:52.54Z</time></trkpt><trkpt lat="42.7662023" lon="10.3230442"><ele>38.599999999999994</ele><time>2026-04-18T08:55:53.548Z</time></trkpt><trkpt lat="42.7662249" lon="10.3229369"><ele>38.4</ele><time>2026-04-18T08:55:54.543Z</time></trkpt><trkpt lat="42.766221" lon="10.3228094"><ele>38.199999999999996</ele><time>2026-04-18T08:55:55.54Z</time></trkpt><trkpt lat="42.76622" lon="10.3226733"><ele>38.0</ele><time>2026-04-18T08:55:56.54Z</time></trkpt><trkpt lat="42.7662439" lon="10.3225413"><ele>38.0</ele><time>2026-04-18T08:55:57.541Z</time></trkpt><trkpt lat="42.7662971" lon="10.3224291"><ele>38.0</ele><time>2026-04-18T08:55:58.544Z</time></trkpt><trkpt lat="42.7663683" lon="10.3223434"><ele>38.0</ele><time>2026-04-18T08:55:59.536Z</time></trkpt><trkpt lat="42.766446" lon="10.3222855"><ele>38.0</ele><time>2026-04-18T08:56:00.535Z</time></trkpt><trkpt lat="42.7665239" lon="10.322226"><ele>38.0</ele><time>2026-04-18T08:56:01.538Z</time></trkpt><trkpt lat="42.7665923" lon="10.322153"><ele>38.4</ele><time>2026-04-18T08:56:02.541Z</time></trkpt><trkpt lat="42.7666446" lon="10.3220762"><ele>38.8</ele><time>2026-04-18T08:56:03.536Z</time></trkpt><trkpt lat="42.7666236" lon="10.3218977"><ele>39.2</ele><time>2026-04-18T08:56:05.536Z</time></trkpt><trkpt lat="42.7665691" lon="10.321799"><ele>39.6</ele><time>2026-04-18T08:56:06.542Z</time></trkpt><trkpt lat="42.7665033" lon="10.3217004"><ele>40.0</ele><time>2026-04-18T08:56:07.54Z</time></trkpt><trkpt lat="42.7664405" lon="10.3215897"><ele>40.0</ele><time>2026-04-18T08:56:08.534Z</time></trkpt><trkpt lat="42.766378" lon="10.3214696"><ele>40.0</ele><time>2026-04-18T08:56:09.538Z</time></trkpt><trkpt lat="42.7663157" lon="10.3213469"><ele>40.0</ele><time>2026-04-18T08:56:10.537Z</time></trkpt><trkpt lat="42.7662571" lon="10.3212164"><ele>40.0</ele><time>2026-04-18T08:56:11.539Z</time></trkpt><trkpt lat="42.7661966" lon="10.3210848"><ele>40.0</ele><time>2026-04-18T08:56:12.54Z</time></trkpt><trkpt lat="42.7661307" lon="10.3209572"><ele>41.0</ele><time>2026-04-18T08:56:13.537Z</time></trkpt><trkpt lat="42.7660583" lon="10.3208394"><ele>42.0</ele><time>2026-04-18T08:56:14.537Z</time></trkpt><trkpt lat="42.765975" lon="10.3207333"><ele>43.0</ele><time>2026-04-18T08:56:15.54Z</time></trkpt><trkpt lat="42.7658882" lon="10.3206359"><ele>44.0</ele><time>2026-04-18T08:56:16.536Z</time></trkpt><trkpt lat="42.7657982" lon="10.3205341"><ele>42.0</ele><time>2026-04-18T08:56:17.542Z</time></trkpt><trkpt lat="42.7657157" lon="10.3204218"><ele>40.0</ele><time>2026-04-18T08:56:18.537Z</time></trkpt><trkpt lat="42.7656391" lon="10.320299"><ele>38.0</ele><time>2026-04-18T08:56:19.54Z</time></trkpt><trkpt lat="42.7655561" lon="10.3201801"><ele>36.0</ele><time>2026-04-18T08:56:20.536Z</time></trkpt><trkpt lat="42.76546" lon="10.3200723"><ele>36.0</ele><time>2026-04-18T08:56:21.537Z</time></trkpt><trkpt lat="42.7653535" lon="10.3199732"><ele>36.0</ele><time>2026-04-18T08:56:22.54Z</time></trkpt><trkpt lat="42.7652464" lon="10.3198839"><ele>36.0</ele><time>2026-04-18T08:56:23.538Z</time></trkpt><trkpt lat="42.765133" lon="10.3197997"><ele>36.0</ele><time>2026-04-18T08:56:24.54Z</time></trkpt><trkpt lat="42.7650272" lon="10.3197139"><ele>34.5</ele><time>2026-04-18T08:56:25.528Z</time></trkpt><trkpt lat="42.7649236" lon="10.3196301"><ele>33.0</ele><time>2026-04-18T08:56:26.536Z</time></trkpt><trkpt lat="42.7648257" lon="10.3195357"><ele>31.5</ele><time>2026-04-18T08:56:27.544Z</time></trkpt><trkpt lat="42.7647434" lon="10.3194233"><ele>30.0</ele><time>2026-04-18T08:56:28.539Z</time></trkpt><trkpt lat="42.7646911" lon="10.3192934"><ele>30.0</ele><time>2026-04-18T08:56:29.537Z</time></trkpt><trkpt lat="42.7646751" lon="10.3191494"><ele>30.0</ele><time>2026-04-18T08:56:30.536Z</time></trkpt><trkpt lat="42.7646813" lon="10.3189956"><ele>30.0</ele><time>2026-04-18T08:56:31.536Z</time></trkpt><trkpt lat="42.7647124" lon="10.3188396"><ele>30.0</ele><time>2026-04-18T08:56:32.521Z</time></trkpt><trkpt lat="42.7647618" lon="10.3186846"><ele>29.8</ele><time>2026-04-18T08:56:33.535Z</time></trkpt><trkpt lat="42.764816" lon="10.318537"><ele>29.6</ele><time>2026-04-18T08:56:34.542Z</time></trkpt><trkpt lat="42.7648613" lon="10.3183994"><ele>29.4</ele><time>2026-04-18T08:56:35.532Z</time></trkpt><trkpt lat="42.7648896" lon="10.3182737"><ele>29.2</ele><time>2026-04-18T08:56:36.541Z</time></trkpt><trkpt lat="42.7649032" lon="10.3181742"><ele>29.0</ele><time>2026-04-18T08:56:37.536Z</time></trkpt><trkpt lat="42.764922" lon="10.3180766"><ele>29.2</ele><time>2026-04-18T08:56:39.54Z</time></trkpt><trkpt lat="42.7648505" lon="10.3180251"><ele>29.4</ele><time>2026-04-18T08:57:02.528Z</time></trkpt><trkpt lat="42.7647398" lon="10.3179015"><ele>29.6</ele><time>2026-04-18T08:57:04.53Z</time></trkpt><trkpt lat="42.7646598" lon="10.3178147"><ele>29.8</ele><time>2026-04-18T08:57:05.531Z</time></trkpt><trkpt lat="42.7645692" lon="10.3177115"><ele>30.0</ele><time>2026-04-18T08:57:06.526Z</time></trkpt><trkpt lat="42.7644811" lon="10.3175932"><ele>30.0</ele><time>2026-04-18T08:57:07.529Z</time></trkpt><trkpt lat="42.7644122" lon="10.3174718"><ele>30.0</ele><time>2026-04-18T08:57:08.521Z</time></trkpt><trkpt lat="42.7643547" lon="10.3173472"><ele>30.0</ele><time>2026-04-18T08:57:09.533Z</time></trkpt><trkpt lat="42.764301" lon="10.3172325"><ele>30.0</ele><time>2026-04-18T08:57:10.521Z</time></trkpt><trkpt lat="42.7642278" lon="10.3171396"><ele>30.0</ele><time>2026-04-18T08:57:11.537Z</time></trkpt><trkpt lat="42.7641261" lon="10.317077"><ele>27.75</ele><time>2026-04-18T08:57:12.547Z</time></trkpt><trkpt lat="42.7640036" lon="10.3170362"><ele>25.5</ele><time>2026-04-18T08:57:13.535Z</time></trkpt><trkpt lat="42.7638728" lon="10.3170104"><ele>23.25</ele><time>2026-04-18T08:57:14.55Z</time></trkpt><trkpt lat="42.7637472" lon="10.3169924"><ele>21.0</ele><time>2026-04-18T08:57:15.537Z</time></trkpt><trkpt lat="42.7636257" lon="10.316974"><ele>20.400000000000002</ele><time>2026-04-18T08:57:16.549Z</time></trkpt><trkpt lat="42.7635127" lon="10.3169514"><ele>19.8</ele><time>2026-04-18T08:57:17.543Z</time></trkpt><trkpt lat="42.763404" lon="10.3169298"><ele>19.200000000000003</ele><time>2026-04-18T08:57:18.532Z</time></trkpt><trkpt lat="42.7632956" lon="10.3169087"><ele>18.6</ele><time>2026-04-18T08:57:19.546Z</time></trkpt><trkpt lat="42.7631854" lon="10.316884"><ele>18.0</ele><time>2026-04-18T08:57:20.542Z</time></trkpt><trkpt lat="42.7630658" lon="10.3168601"><ele>18.0</ele><time>2026-04-18T08:57:21.54Z</time></trkpt><trkpt lat="42.7629393" lon="10.3168383"><ele>18.0</ele><time>2026-04-18T08:57:22.556Z</time></trkpt><trkpt lat="42.762811" lon="10.3168167"><ele>18.0</ele><time>2026-04-18T08:57:23.544Z</time></trkpt><trkpt lat="42.7626801" lon="10.3167946"><ele>18.0</ele><time>2026-04-18T08:57:24.545Z</time></trkpt><trkpt lat="42.7625552" lon="10.316773"><ele>17.25</ele><time>2026-04-18T08:57:25.542Z</time></trkpt><trkpt lat="42.7624344" lon="10.3167514"><ele>16.5</ele><time>2026-04-18T08:57:26.546Z</time></trkpt><trkpt lat="42.7623215" lon="10.3167324"><ele>15.75</ele><time>2026-04-18T08:57:27.539Z</time></trkpt><trkpt lat="42.762207" lon="10.3167105"><ele>15.0</ele><time>2026-04-18T08:57:28.545Z</time></trkpt><trkpt lat="42.7620909" lon="10.3166841"><ele>15.0</ele><time>2026-04-18T08:57:29.552Z</time></trkpt><trkpt lat="42.7619757" lon="10.3166561"><ele>15.0</ele><time>2026-04-18T08:57:30.545Z</time></trkpt><trkpt lat="42.7618609" lon="10.3166309"><ele>15.0</ele><time>2026-04-18T08:57:31.543Z</time></trkpt><trkpt lat="42.7617406" lon="10.31661"><ele>15.0</ele><time>2026-04-18T08:57:32.54Z</time></trkpt><trkpt lat="42.7616185" lon="10.3165872"><ele>14.0</ele><time>2026-04-18T08:57:33.548Z</time></trkpt><trkpt lat="42.7614969" lon="10.316558"><ele>13.0</ele><time>2026-04-18T08:57:34.55Z</time></trkpt><trkpt lat="42.7613801" lon="10.3165283"><ele>12.0</ele><time>2026-04-18T08:57:35.536Z</time></trkpt><trkpt lat="42.761264" lon="10.3164999"><ele>11.0</ele><time>2026-04-18T08:57:36.541Z</time></trkpt><trkpt lat="42.7611449" lon="10.3164735"><ele>10.0</ele><time>2026-04-18T08:57:37.55Z</time></trkpt><trkpt lat="42.7610272" lon="10.3164433"><ele>9.0</ele><time>2026-04-18T08:57:38.55Z</time></trkpt><trkpt lat="42.76091" lon="10.3164169"><ele>8.0</ele><time>2026-04-18T08:57:39.548Z</time></trkpt><trkpt lat="42.7607895" lon="10.3163919"><ele>7.0</ele><time>2026-04-18T08:57:40.545Z</time></trkpt><trkpt lat="42.7606701" lon="10.3163734"><ele>7.0</ele><time>2026-04-18T08:57:41.544Z</time></trkpt><trkpt lat="42.7605553" lon="10.3163563"><ele>6.999999999999999</ele><time>2026-04-18T08:57:42.55Z</time></trkpt><trkpt lat="42.7604439" lon="10.3163319"><ele>6.999999999999999</ele><time>2026-04-18T08:57:43.54Z</time></trkpt><trkpt lat="42.7603372" lon="10.3162974"><ele>7.0</ele><time>2026-04-18T08:57:44.551Z</time></trkpt><trkpt lat="42.7602414" lon="10.3162447"><ele>7.0</ele><time>2026-04-18T08:57:45.547Z</time></trkpt><trkpt lat="42.7601747" lon="10.3161552"><ele>6.75</ele><time>2026-04-18T08:57:46.543Z</time></trkpt><trkpt lat="42.7601435" lon="10.3160269"><ele>6.5</ele><time>2026-04-18T08:57:47.547Z</time></trkpt><trkpt lat="42.7601478" lon="10.3158767"><ele>6.25</ele><time>2026-04-18T08:57:48.544Z</time></trkpt><trkpt lat="42.7601819" lon="10.3157122"><ele>6.0</ele><time>2026-04-18T08:57:49.542Z</time></trkpt><trkpt lat="42.7602237" lon="10.3155374"><ele>6.0</ele><time>2026-04-18T08:57:50.542Z</time></trkpt><trkpt lat="42.7602633" lon="10.3153615"><ele>6.0</ele><time>2026-04-18T08:57:51.553Z</time></trkpt><trkpt lat="42.7602996" lon="10.3151979"><ele>6.0</ele><time>2026-04-18T08:57:52.558Z</time></trkpt><trkpt lat="42.7603325" lon="10.3150457"><ele>6.0</ele><time>2026-04-18T08:57:53.553Z</time></trkpt><trkpt lat="42.7603634" lon="10.314897"><ele>6.0</ele><time>2026-04-18T08:57:54.55Z</time></trkpt><trkpt lat="42.7603893" lon="10.3147455"><ele>6.0</ele><time>2026-04-18T08:57:55.548Z</time></trkpt><trkpt lat="42.7604096" lon="10.3145905"><ele>6.0</ele><time>2026-04-18T08:57:56.547Z</time></trkpt><trkpt lat="42.7604295" lon="10.3144393"><ele>6.0</ele><time>2026-04-18T08:57:57.552Z</time></trkpt><trkpt lat="42.7604539" lon="10.3142961"><ele>5.8</ele><time>2026-04-18T08:57:58.551Z</time></trkpt><trkpt lat="42.7604778" lon="10.3141566"><ele>5.6</ele><time>2026-04-18T08:57:59.545Z</time></trkpt><trkpt lat="42.7605035" lon="10.3140167"><ele>5.4</ele><time>2026-04-18T08:58:00.546Z</time></trkpt><trkpt lat="42.7605309" lon="10.3138724"><ele>5.2</ele><time>2026-04-18T08:58:01.55Z</time></trkpt><trkpt lat="42.7605557" lon="10.3137231"><ele>5.0</ele><time>2026-04-18T08:58:02.549Z</time></trkpt><trkpt lat="42.7605786" lon="10.3135685"><ele>4.833333333333334</ele><time>2026-04-18T08:58:03.547Z</time></trkpt><trkpt lat="42.7606012" lon="10.3134288"><ele>4.666666666666667</ele><time>2026-04-18T08:58:04.549Z</time></trkpt><trkpt lat="42.7606228" lon="10.3133043"><ele>4.5</ele><time>2026-04-18T08:58:05.55Z</time></trkpt><trkpt lat="42.7606392" lon="10.3132009"><ele>4.333333333333333</ele><time>2026-04-18T08:58:06.547Z</time></trkpt><trkpt lat="42.7606459" lon="10.3131109"><ele>4.166666666666666</ele><time>2026-04-18T08:58:07.535Z</time></trkpt><trkpt lat="42.7605977" lon="10.3130316"><ele>4.0</ele><time>2026-04-18T08:58:13.551Z</time></trkpt><trkpt lat="42.7605342" lon="10.3130078"><ele>4.0</ele><time>2026-04-18T08:58:16.547Z</time></trkpt></trkseg><trkseg><trkpt lat="42.7605826" lon="10.3130492"><ele>3.9999999999999996</ele><time>2026-04-18T09:29:01.532Z</time></trkpt><trkpt lat="42.7606592" lon="10.313016"><ele>4.0</ele><time>2026-04-18T09:29:04.523Z</time></trkpt><trkpt lat="42.7606939" lon="10.3129034"><ele>4.0</ele><time>2026-04-18T09:29:06.526Z</time></trkpt><trkpt lat="42.760708" lon="10.3128193"><ele>4.0</ele><time>2026-04-18T09:29:07.531Z</time></trkpt><trkpt lat="42.7607198" lon="10.3127118"><ele>3.9999999999999996</ele><time>2026-04-18T09:29:08.531Z</time></trkpt><trkpt lat="42.7607283" lon="10.3126003"><ele>4.0</ele><time>2026-04-18T09:29:09.534Z</time></trkpt><trkpt lat="42.7607396" lon="10.3124839"><ele>4.0</ele><time>2026-04-18T09:29:10.526Z</time></trkpt><trkpt lat="42.7607558" lon="10.312357"><ele>4.0</ele><time>2026-04-18T09:29:11.533Z</time></trkpt><trkpt lat="42.7607695" lon="10.312221"><ele>4.0</ele><time>2026-04-18T09:29:12.529Z</time></trkpt><trkpt lat="42.7607764" lon="10.3120762"><ele>4.0</ele><time>2026-04-18T09:29:13.523Z</time></trkpt><trkpt lat="42.7607731" lon="10.3119214"><ele>4.0</ele><time>2026-04-18T09:29:14.528Z</time></trkpt><trkpt lat="42.7607656" lon="10.3117736"><ele>4.0</ele><time>2026-04-18T09:29:15.526Z</time></trkpt><trkpt lat="42.7607634" lon="10.3116304"><ele>4.0</ele><time>2026-04-18T09:29:16.523Z</time></trkpt><trkpt lat="42.7607713" lon="10.3114876"><ele>4.0</ele><time>2026-04-18T09:29:17.526Z</time></trkpt><trkpt lat="42.7607898" lon="10.3113481"><ele>4.0</ele><time>2026-04-18T09:29:18.518Z</time></trkpt><trkpt lat="42.7608206" lon="10.3112135"><ele>4.0</ele><time>2026-04-18T09:29:19.521Z</time></trkpt><trkpt lat="42.7608512" lon="10.3110946"><ele>4.166666666666666</ele><time>2026-04-18T09:29:20.519Z</time></trkpt><trkpt lat="42.7608773" lon="10.310997"><ele>4.333333333333333</ele><time>2026-04-18T09:29:21.527Z</time></trkpt><trkpt lat="42.76094" lon="10.3109121"><ele>4.5</ele><time>2026-04-18T09:29:28.528Z</time></trkpt><trkpt lat="42.7609706" lon="10.3108218"><ele>4.666666666666667</ele><time>2026-04-18T09:29:29.521Z</time></trkpt><trkpt lat="42.761009" lon="10.3107069"><ele>4.833333333333334</ele><time>2026-04-18T09:29:30.525Z</time></trkpt><trkpt lat="42.7610528" lon="10.3105756"><ele>5.0</ele><time>2026-04-18T09:29:31.521Z</time></trkpt><trkpt lat="42.7611031" lon="10.3104278"><ele>5.25</ele><time>2026-04-18T09:29:32.517Z</time></trkpt><trkpt lat="42.761156" lon="10.3102665"><ele>5.5</ele><time>2026-04-18T09:29:33.53Z</time></trkpt><trkpt lat="42.7612091" lon="10.31009"><ele>5.75</ele><time>2026-04-18T09:29:34.519Z</time></trkpt><trkpt lat="42.7612713" lon="10.3098909"><ele>6.0</ele><time>2026-04-18T09:29:35.521Z</time></trkpt><trkpt lat="42.7613455" lon="10.3096711"><ele>6.0</ele><time>2026-04-18T09:29:36.522Z</time></trkpt><trkpt lat="42.7614226" lon="10.3094348"><ele>6.0</ele><time>2026-04-18T09:29:37.52Z</time></trkpt><trkpt lat="42.7615062" lon="10.3092058"><ele>6.0</ele><time>2026-04-18T09:29:38.521Z</time></trkpt><trkpt lat="42.761599" lon="10.3089838"><ele>4.666666666666667</ele><time>2026-04-18T09:29:39.525Z</time></trkpt><trkpt lat="42.761687" lon="10.3087744"><ele>3.333333333333333</ele><time>2026-04-18T09:29:40.52Z</time></trkpt><trkpt lat="42.7617733" lon="10.3085539"><ele>2.0</ele><time>2026-04-18T09:29:41.523Z</time></trkpt><trkpt lat="42.7618329" lon="10.3083222"><ele>3.666666666666667</ele><time>2026-04-18T09:29:42.522Z</time></trkpt><trkpt lat="42.7618772" lon="10.3080885"><ele>5.333333333333334</ele><time>2026-04-18T09:29:43.529Z</time></trkpt><trkpt lat="42.7619115" lon="10.3078734"><ele>7.0</ele><time>2026-04-18T09:29:44.523Z</time></trkpt><trkpt lat="42.761938" lon="10.3076784"><ele>6.75</ele><time>2026-04-18T09:29:45.525Z</time></trkpt><trkpt lat="42.7619623" lon="10.3074985"><ele>6.5</ele><time>2026-04-18T09:29:46.528Z</time></trkpt><trkpt lat="42.7619898" lon="10.3073151"><ele>6.25</ele><time>2026-04-18T09:29:47.53Z</time></trkpt><trkpt lat="42.762023" lon="10.3071223"><ele>6.0</ele><time>2026-04-18T09:29:48.528Z</time></trkpt><trkpt lat="42.7620495" lon="10.3069067"><ele>6.0</ele><time>2026-04-18T09:29:49.527Z</time></trkpt><trkpt lat="42.7620595" lon="10.3066836"><ele>6.0</ele><time>2026-04-18T09:29:50.528Z</time></trkpt><trkpt lat="42.7620496" lon="10.3064588"><ele>6.0</ele><time>2026-04-18T09:29:51.528Z</time></trkpt><trkpt lat="42.762039" lon="10.3062374"><ele>6.0</ele><time>2026-04-18T09:29:52.533Z</time></trkpt><trkpt lat="42.7620257" lon="10.3060188"><ele>6.0</ele><time>2026-04-18T09:29:53.526Z</time></trkpt><trkpt lat="42.7620162" lon="10.3057987"><ele>6.0</ele><time>2026-04-18T09:29:54.527Z</time></trkpt><trkpt lat="42.7620124" lon="10.3055831"><ele>7.0</ele><time>2026-04-18T09:29:55.528Z</time></trkpt><trkpt lat="42.7620102" lon="10.3053554"><ele>8.0</ele><time>2026-04-18T09:29:56.528Z</time></trkpt><trkpt lat="42.7620048" lon="10.3051335"><ele>9.0</ele><time>2026-04-18T09:29:57.525Z</time></trkpt><trkpt lat="42.7619986" lon="10.3049117"><ele>9.666666666666666</ele><time>2026-04-18T09:29:58.517Z</time></trkpt><trkpt lat="42.7619898" lon="10.3046944"><ele>10.333333333333332</ele><time>2026-04-18T09:29:59.517Z</time></trkpt><trkpt lat="42.7619824" lon="10.3044759"><ele>11.0</ele><time>2026-04-18T09:30:00.525Z</time></trkpt><trkpt lat="42.7619751" lon="10.3042593"><ele>11.0</ele><time>2026-04-18T09:30:01.52Z</time></trkpt><trkpt lat="42.7619615" lon="10.3040528"><ele>11.0</ele><time>2026-04-18T09:30:02.525Z</time></trkpt><trkpt lat="42.7619449" lon="10.3038583"><ele>11.0</ele><time>2026-04-18T09:30:03.52Z</time></trkpt><trkpt lat="42.7619299" lon="10.3036616"><ele>11.0</ele><time>2026-04-18T09:30:04.512Z</time></trkpt><trkpt lat="42.7619153" lon="10.3034588"><ele>10.0</ele><time>2026-04-18T09:30:05.522Z</time></trkpt><trkpt lat="42.7619102" lon="10.3032846"><ele>9.0</ele><time>2026-04-18T09:30:06.522Z</time></trkpt><trkpt lat="42.7619104" lon="10.3031257"><ele>8.0</ele><time>2026-04-18T09:30:07.522Z</time></trkpt><trkpt lat="42.7619144" lon="10.3029617"><ele>7.0</ele><time>2026-04-18T09:30:08.528Z</time></trkpt><trkpt lat="42.7619087" lon="10.3028041"><ele>7.0</ele><time>2026-04-18T09:30:09.527Z</time></trkpt><trkpt lat="42.7619005" lon="10.3026342"><ele>7.0</ele><time>2026-04-18T09:30:10.53Z</time></trkpt><trkpt lat="42.7618918" lon="10.3024556"><ele>7.0</ele><time>2026-04-18T09:30:11.528Z</time></trkpt><trkpt lat="42.7618814" lon="10.3022695"><ele>7.0</ele><time>2026-04-18T09:30:12.526Z</time></trkpt><trkpt lat="42.7618748" lon="10.3020778"><ele>7.25</ele><time>2026-04-18T09:30:13.528Z</time></trkpt><trkpt lat="42.7618703" lon="10.3018812"><ele>7.5</ele><time>2026-04-18T09:30:14.526Z</time></trkpt><trkpt lat="42.7618606" lon="10.3016779"><ele>7.75</ele><time>2026-04-18T09:30:15.526Z</time></trkpt><trkpt lat="42.7618537" lon="10.3014843"><ele>8.0</ele><time>2026-04-18T09:30:16.527Z</time></trkpt><trkpt lat="42.7618415" lon="10.301316"><ele>7.4</ele><time>2026-04-18T09:30:17.531Z</time></trkpt><trkpt lat="42.7618298" lon="10.3011614"><ele>6.800000000000001</ele><time>2026-04-18T09:30:18.529Z</time></trkpt><trkpt lat="42.7618243" lon="10.301019"><ele>6.2</ele><time>2026-04-18T09:30:19.531Z</time></trkpt><trkpt lat="42.761816" lon="10.3008802"><ele>5.6</ele><time>2026-04-18T09:30:20.531Z</time></trkpt><trkpt lat="42.7618058" lon="10.3007493"><ele>5.0</ele><time>2026-04-18T09:30:21.522Z</time></trkpt><trkpt lat="42.7617987" lon="10.3006122"><ele>5.0</ele><time>2026-04-18T09:30:22.536Z</time></trkpt><trkpt lat="42.7617916" lon="10.3004739"><ele>5.0</ele><time>2026-04-18T09:30:23.525Z</time></trkpt><trkpt lat="42.7617925" lon="10.3003271"><ele>5.0</ele><time>2026-04-18T09:30:24.522Z</time></trkpt><trkpt lat="42.7617965" lon="10.3001779"><ele>5.0</ele><time>2026-04-18T09:30:25.52Z</time></trkpt><trkpt lat="42.761823" lon="10.3000316"><ele>5.0</ele><time>2026-04-18T09:30:26.528Z</time></trkpt><trkpt lat="42.761877" lon="10.2998927"><ele>7.0</ele><time>2026-04-18T09:30:27.528Z</time></trkpt><trkpt lat="42.7619457" lon="10.2997581"><ele>9.0</ele><time>2026-04-18T09:30:28.523Z</time></trkpt><trkpt lat="42.7620191" lon="10.2996286"><ele>11.0</ele><time>2026-04-18T09:30:29.526Z</time></trkpt><trkpt lat="42.7620869" lon="10.2994931"><ele>13.0</ele><time>2026-04-18T09:30:30.524Z</time></trkpt><trkpt lat="42.7621513" lon="10.299344"><ele>13.0</ele><time>2026-04-18T09:30:31.527Z</time></trkpt><trkpt lat="42.7622115" lon="10.2991767"><ele>13.0</ele><time>2026-04-18T09:30:32.529Z</time></trkpt><trkpt lat="42.7622664" lon="10.2989822"><ele>13.0</ele><time>2026-04-18T09:30:33.529Z</time></trkpt><trkpt lat="42.7623155" lon="10.2987547"><ele>12.666666666666666</ele><time>2026-04-18T09:30:34.526Z</time></trkpt><trkpt lat="42.7623593" lon="10.298513"><ele>12.333333333333332</ele><time>2026-04-18T09:30:35.528Z</time></trkpt><trkpt lat="42.7624023" lon="10.2982707"><ele>12.0</ele><time>2026-04-18T09:30:36.528Z</time></trkpt><trkpt lat="42.7624454" lon="10.2980439"><ele>11.75</ele><time>2026-04-18T09:30:37.523Z</time></trkpt><trkpt lat="42.7624955" lon="10.2978514"><ele>11.5</ele><time>2026-04-18T09:30:38.521Z</time></trkpt><trkpt lat="42.7625595" lon="10.2976803"><ele>11.25</ele><time>2026-04-18T09:30:39.526Z</time></trkpt><trkpt lat="42.7626097" lon="10.2975049"><ele>11.0</ele><time>2026-04-18T09:30:40.523Z</time></trkpt><trkpt lat="42.7626132" lon="10.2973116"><ele>11.666666666666666</ele><time>2026-04-18T09:30:41.523Z</time></trkpt><trkpt lat="42.7625721" lon="10.2971071"><ele>12.333333333333332</ele><time>2026-04-18T09:30:42.531Z</time></trkpt><trkpt lat="42.7624956" lon="10.2968933"><ele>13.0</ele><time>2026-04-18T09:30:43.526Z</time></trkpt><trkpt lat="42.7624127" lon="10.2967113"><ele>13.0</ele><time>2026-04-18T09:30:44.526Z</time></trkpt><trkpt lat="42.7623082" lon="10.2965338"><ele>13.0</ele><time>2026-04-18T09:30:45.527Z</time></trkpt><trkpt lat="42.7621995" lon="10.2963611"><ele>13.0</ele><time>2026-04-18T09:30:46.518Z</time></trkpt><trkpt lat="42.7620997" lon="10.2962129"><ele>13.600000000000001</ele><time>2026-04-18T09:30:47.53Z</time></trkpt><trkpt lat="42.7620335" lon="10.2961062"><ele>14.200000000000001</ele><time>2026-04-18T09:30:48.526Z</time></trkpt><trkpt lat="42.7619749" lon="10.2960226"><ele>14.8</ele><time>2026-04-18T09:30:49.525Z</time></trkpt><trkpt lat="42.7618784" lon="10.2959597"><ele>15.4</ele><time>2026-04-18T09:30:51.529Z</time></trkpt><trkpt lat="42.7618381" lon="10.2960296"><ele>16.0</ele><time>2026-04-18T09:30:54.522Z</time></trkpt><trkpt lat="42.7618329" lon="10.2961553"><ele>16.6</ele><time>2026-04-18T09:30:57.524Z</time></trkpt><trkpt lat="42.7618344" lon="10.2963166"><ele>17.200000000000003</ele><time>2026-04-18T09:30:59.518Z</time></trkpt><trkpt lat="42.7617799" lon="10.2964735"><ele>17.799999999999997</ele><time>2026-04-18T09:31:01.523Z</time></trkpt><trkpt lat="42.7617049" lon="10.2965413"><ele>18.4</ele><time>2026-04-18T09:31:02.524Z</time></trkpt><trkpt lat="42.7616109" lon="10.2966117"><ele>19.0</ele><time>2026-04-18T09:31:03.513Z</time></trkpt><trkpt lat="42.7615179" lon="10.2966939"><ele>19.0</ele><time>2026-04-18T09:31:04.522Z</time></trkpt><trkpt lat="42.7614163" lon="10.2968011"><ele>19.0</ele><time>2026-04-18T09:31:05.524Z</time></trkpt><trkpt lat="42.7613119" lon="10.2969278"><ele>19.0</ele><time>2026-04-18T09:31:06.519Z</time></trkpt><trkpt lat="42.761212" lon="10.2970584"><ele>19.0</ele><time>2026-04-18T09:31:07.519Z</time></trkpt><trkpt lat="42.7611246" lon="10.297185"><ele>19.799999999999997</ele><time>2026-04-18T09:31:08.515Z</time></trkpt><trkpt lat="42.7610402" lon="10.2972959"><ele>20.599999999999998</ele><time>2026-04-18T09:31:09.519Z</time></trkpt><trkpt lat="42.7609606" lon="10.2973773"><ele>21.4</ele><time>2026-04-18T09:31:10.522Z</time></trkpt><trkpt lat="42.7608913" lon="10.2974252"><ele>22.2</ele><time>2026-04-18T09:31:11.519Z</time></trkpt><trkpt lat="42.7608146" lon="10.2974574"><ele>23.0</ele><time>2026-04-18T09:31:12.525Z</time></trkpt><trkpt lat="42.7607323" lon="10.2974975"><ele>23.0</ele><time>2026-04-18T09:31:13.521Z</time></trkpt><trkpt lat="42.7606459" lon="10.2975467"><ele>23.0</ele><time>2026-04-18T09:31:14.518Z</time></trkpt><trkpt lat="42.7605623" lon="10.2975958"><ele>23.0</ele><time>2026-04-18T09:31:15.519Z</time></trkpt><trkpt lat="42.7604812" lon="10.2976423"><ele>23.0</ele><time>2026-04-18T09:31:16.52Z</time></trkpt><trkpt lat="42.7604008" lon="10.29768"><ele>23.0</ele><time>2026-04-18T09:31:17.524Z</time></trkpt><trkpt lat="42.7603218" lon="10.2977154"><ele>23.0</ele><time>2026-04-18T09:31:18.524Z</time></trkpt><trkpt lat="42.76024" lon="10.2977415"><ele>24.799999999999997</ele><time>2026-04-18T09:31:19.528Z</time></trkpt><trkpt lat="42.760157" lon="10.2977705"><ele>26.6</ele><time>2026-04-18T09:31:20.528Z</time></trkpt><trkpt lat="42.7600731" lon="10.297806"><ele>28.400000000000002</ele><time>2026-04-18T09:31:21.524Z</time></trkpt><trkpt lat="42.7599831" lon="10.2978466"><ele>30.200000000000003</ele><time>2026-04-18T09:31:22.53Z</time></trkpt><trkpt lat="42.7598947" lon="10.2978916"><ele>32.0</ele><time>2026-04-18T09:31:23.527Z</time></trkpt><trkpt lat="42.75981" lon="10.2979362"><ele>31.999999999999996</ele><time>2026-04-18T09:31:24.527Z</time></trkpt><trkpt lat="42.7597348" lon="10.2979829"><ele>32.0</ele><time>2026-04-18T09:31:25.523Z</time></trkpt><trkpt lat="42.7596693" lon="10.2980325"><ele>32.0</ele><time>2026-04-18T09:31:26.529Z</time></trkpt><trkpt lat="42.7596083" lon="10.2980944"><ele>32.0</ele><time>2026-04-18T09:31:27.528Z</time></trkpt><trkpt lat="42.7595719" lon="10.2981817"><ele>31.999999999999996</ele><time>2026-04-18T09:31:28.525Z</time></trkpt><trkpt lat="42.7595549" lon="10.2982754"><ele>32.0</ele><time>2026-04-18T09:31:29.52Z</time></trkpt><trkpt lat="42.7595261" lon="10.2983656"><ele>32.0</ele><time>2026-04-18T09:31:31.519Z</time></trkpt><trkpt lat="42.7594508" lon="10.2982904"><ele>32.0</ele><time>2026-04-18T09:31:34.526Z</time></trkpt><trkpt lat="42.7594373" lon="10.2981834"><ele>32.0</ele><time>2026-04-18T09:31:35.537Z</time></trkpt><trkpt lat="42.7594261" lon="10.2980515"><ele>32.0</ele><time>2026-04-18T09:31:36.525Z</time></trkpt><trkpt lat="42.7594083" lon="10.2979246"><ele>32.0</ele><time>2026-04-18T09:31:37.523Z</time></trkpt><trkpt lat="42.7593861" lon="10.2977976"><ele>32.2</ele><time>2026-04-18T09:31:38.521Z</time></trkpt><trkpt lat="42.7593616" lon="10.2976693"><ele>32.400000000000006</ele><time>2026-04-18T09:31:39.527Z</time></trkpt><trkpt lat="42.7593366" lon="10.2975365"><ele>32.599999999999994</ele><time>2026-04-18T09:31:40.522Z</time></trkpt><trkpt lat="42.7593093" lon="10.2973984"><ele>32.8</ele><time>2026-04-18T09:31:41.524Z</time></trkpt><trkpt lat="42.7592814" lon="10.2972692"><ele>33.0</ele><time>2026-04-18T09:31:42.525Z</time></trkpt><trkpt lat="42.7592582" lon="10.2971416"><ele>33.0</ele><time>2026-04-18T09:31:43.523Z</time></trkpt><trkpt lat="42.7592422" lon="10.2970127"><ele>33.0</ele><time>2026-04-18T09:31:44.52Z</time></trkpt><trkpt lat="42.7592344" lon="10.2968888"><ele>33.0</ele><time>2026-04-18T09:31:45.523Z</time></trkpt><trkpt lat="42.7592401" lon="10.2967646"><ele>33.0</ele><time>2026-04-18T09:31:46.523Z</time></trkpt><trkpt lat="42.7592502" lon="10.2966439"><ele>33.0</ele><time>2026-04-18T09:31:47.521Z</time></trkpt><trkpt lat="42.7592666" lon="10.2965298"><ele>33.0</ele><time>2026-04-18T09:31:48.526Z</time></trkpt><trkpt lat="42.7592923" lon="10.2964278"><ele>33.0</ele><time>2026-04-18T09:31:49.523Z</time></trkpt><trkpt lat="42.7593227" lon="10.2963273"><ele>33.0</ele><time>2026-04-18T09:31:50.528Z</time></trkpt><trkpt lat="42.759346" lon="10.2962277"><ele>33.0</ele><time>2026-04-18T09:31:51.52Z</time></trkpt><trkpt lat="42.7593527" lon="10.2961344"><ele>33.0</ele><time>2026-04-18T09:31:52.533Z</time></trkpt><trkpt lat="42.7593375" lon="10.2960484"><ele>33.0</ele><time>2026-04-18T09:31:53.514Z</time></trkpt><trkpt lat="42.7593127" lon="10.2959613"><ele>33.0</ele><time>2026-04-18T09:31:54.522Z</time></trkpt><trkpt lat="42.759288" lon="10.2958701"><ele>33.5</ele><time>2026-04-18T09:31:55.525Z</time></trkpt><trkpt lat="42.7592607" lon="10.2957775"><ele>34.0</ele><time>2026-04-18T09:31:56.522Z</time></trkpt><trkpt lat="42.7592235" lon="10.2956845"><ele>34.5</ele><time>2026-04-18T09:31:57.523Z</time></trkpt><trkpt lat="42.7591768" lon="10.2956014"><ele>35.0</ele><time>2026-04-18T09:31:58.526Z</time></trkpt><trkpt lat="42.7591074" lon="10.2955391"><ele>35.5</ele><time>2026-04-18T09:31:59.523Z</time></trkpt><trkpt lat="42.75903" lon="10.2954756"><ele>36.0</ele><time>2026-04-18T09:32:00.513Z</time></trkpt><trkpt lat="42.7589579" lon="10.2954009"><ele>37.8</ele><time>2026-04-18T09:32:01.52Z</time></trkpt><trkpt lat="42.758896" lon="10.2953165"><ele>39.6</ele><time>2026-04-18T09:32:02.52Z</time></trkpt><trkpt lat="42.7588313" lon="10.2952247"><ele>41.4</ele><time>2026-04-18T09:32:03.516Z</time></trkpt><trkpt lat="42.7587597" lon="10.2951453"><ele>43.2</ele><time>2026-04-18T09:32:04.529Z</time></trkpt><trkpt lat="42.7586826" lon="10.2950804"><ele>45.0</ele><time>2026-04-18T09:32:05.521Z</time></trkpt><trkpt lat="42.7585966" lon="10.2950252"><ele>42.833333333333336</ele><time>2026-04-18T09:32:06.527Z</time></trkpt><trkpt lat="42.7585114" lon="10.2949784"><ele>40.666666666666664</ele><time>2026-04-18T09:32:07.526Z</time></trkpt><trkpt lat="42.7584282" lon="10.2949377"><ele>38.5</ele><time>2026-04-18T09:32:08.528Z</time></trkpt><trkpt lat="42.7583493" lon="10.2949212"><ele>36.33333333333333</ele><time>2026-04-18T09:32:09.527Z</time></trkpt><trkpt lat="42.7582798" lon="10.2949418"><ele>34.166666666666664</ele><time>2026-04-18T09:32:10.52Z</time></trkpt><trkpt lat="42.7582115" lon="10.2949745"><ele>32.0</ele><time>2026-04-18T09:32:11.521Z</time></trkpt><trkpt lat="42.7581422" lon="10.2949998"><ele>31.999999999999996</ele><time>2026-04-18T09:32:12.523Z</time></trkpt><trkpt lat="42.758072" lon="10.2950145"><ele>32.0</ele><time>2026-04-18T09:32:13.519Z</time></trkpt><trkpt lat="42.7579991" lon="10.2950157"><ele>32.0</ele><time>2026-04-18T09:32:14.524Z</time></trkpt><trkpt lat="42.7579289" lon="10.2950178"><ele>32.0</ele><time>2026-04-18T09:32:15.524Z</time></trkpt><trkpt lat="42.7578638" lon="10.2950243"><ele>31.999999999999996</ele><time>2026-04-18T09:32:16.52Z</time></trkpt><trkpt lat="42.7577606" lon="10.2950259"><ele>32.0</ele><time>2026-04-18T09:32:18.52Z</time></trkpt><trkpt lat="42.7576838" lon="10.2950001"><ele>33.2</ele><time>2026-04-18T09:32:20.522Z</time></trkpt><trkpt lat="42.7576324" lon="10.2949192"><ele>34.400000000000006</ele><time>2026-04-18T09:33:40.531Z</time></trkpt><trkpt lat="42.7575599" lon="10.2947788"><ele>35.599999999999994</ele><time>2026-04-18T09:33:42.529Z</time></trkpt><trkpt lat="42.7575156" lon="10.2946833"><ele>36.8</ele><time>2026-04-18T09:33:43.53Z</time></trkpt><trkpt lat="42.7574665" lon="10.2945768"><ele>38.0</ele><time>2026-04-18T09:33:44.53Z</time></trkpt><trkpt lat="42.7574094" lon="10.2944734"><ele>38.0</ele><time>2026-04-18T09:33:45.528Z</time></trkpt><trkpt lat="42.757348" lon="10.294382"><ele>38.0</ele><time>2026-04-18T09:33:46.537Z</time></trkpt><trkpt lat="42.7572933" lon="10.2943042"><ele>38.0</ele><time>2026-04-18T09:33:47.532Z</time></trkpt><trkpt lat="42.7572422" lon="10.2942287"><ele>38.0</ele><time>2026-04-18T09:33:48.531Z</time></trkpt><trkpt lat="42.7571943" lon="10.2941533"><ele>38.0</ele><time>2026-04-18T09:33:49.527Z</time></trkpt><trkpt lat="42.757146" lon="10.2940803"><ele>38.0</ele><time>2026-04-18T09:33:50.521Z</time></trkpt><trkpt lat="42.7570965" lon="10.2940197"><ele>38.0</ele><time>2026-04-18T09:33:51.525Z</time></trkpt><trkpt lat="42.7570468" lon="10.2939607"><ele>38.0</ele><time>2026-04-18T09:33:52.529Z</time></trkpt><trkpt lat="42.757001" lon="10.2938918"><ele>38.0</ele><time>2026-04-18T09:33:53.519Z</time></trkpt><trkpt lat="42.7569566" lon="10.2938285"><ele>38.0</ele><time>2026-04-18T09:33:54.534Z</time></trkpt><trkpt lat="42.7568433" lon="10.2937659"><ele>38.0</ele><time>2026-04-18T09:33:56.528Z</time></trkpt><trkpt lat="42.7567661" lon="10.2937505"><ele>38.0</ele><time>2026-04-18T09:33:57.529Z</time></trkpt><trkpt lat="42.7566936" lon="10.2937299"><ele>37.6</ele><time>2026-04-18T09:33:58.528Z</time></trkpt><trkpt lat="42.7566329" lon="10.2936982"><ele>37.199999999999996</ele><time>2026-04-18T09:33:59.526Z</time></trkpt><trkpt lat="42.7565328" lon="10.2936019"><ele>36.8</ele><time>2026-04-18T09:34:01.528Z</time></trkpt><trkpt lat="42.7564417" lon="10.2934734"><ele>36.4</ele><time>2026-04-18T09:34:03.535Z</time></trkpt><trkpt lat="42.7563909" lon="10.2933883"><ele>36.0</ele><time>2026-04-18T09:34:04.529Z</time></trkpt><trkpt lat="42.7563246" lon="10.2933024"><ele>36.0</ele><time>2026-04-18T09:34:05.524Z</time></trkpt><trkpt lat="42.7562574" lon="10.293216"><ele>36.0</ele><time>2026-04-18T09:34:06.525Z</time></trkpt><trkpt lat="42.7561975" lon="10.2931229"><ele>36.0</ele><time>2026-04-18T09:34:07.523Z</time></trkpt><trkpt lat="42.7561417" lon="10.2930269"><ele>36.0</ele><time>2026-04-18T09:34:08.529Z</time></trkpt><trkpt lat="42.7560896" lon="10.2929312"><ele>36.0</ele><time>2026-04-18T09:34:09.522Z</time></trkpt><trkpt lat="42.756038" lon="10.2928411"><ele>36.0</ele><time>2026-04-18T09:34:10.531Z</time></trkpt><trkpt lat="42.7559835" lon="10.2927631"><ele>35.333333333333336</ele><time>2026-04-18T09:34:11.528Z</time></trkpt><trkpt lat="42.755921" lon="10.2926946"><ele>34.666666666666664</ele><time>2026-04-18T09:34:12.525Z</time></trkpt><trkpt lat="42.7558547" lon="10.2926439"><ele>34.0</ele><time>2026-04-18T09:34:13.529Z</time></trkpt><trkpt lat="42.7557854" lon="10.2926185"><ele>33.33333333333333</ele><time>2026-04-18T09:34:14.521Z</time></trkpt><trkpt lat="42.75572" lon="10.2926026"><ele>32.666666666666664</ele><time>2026-04-18T09:34:15.527Z</time></trkpt><trkpt lat="42.7556356" lon="10.2924814"><ele>32.0</ele><time>2026-04-18T09:34:17.525Z</time></trkpt><trkpt lat="42.7556168" lon="10.2923957"><ele>31.999999999999996</ele><time>2026-04-18T09:34:18.525Z</time></trkpt><trkpt lat="42.7556013" lon="10.2923099"><ele>32.0</ele><time>2026-04-18T09:34:19.525Z</time></trkpt><trkpt lat="42.7555701" lon="10.2922338"><ele>32.0</ele><time>2026-04-18T09:34:20.528Z</time></trkpt><trkpt lat="42.7555208" lon="10.2921726"><ele>32.0</ele><time>2026-04-18T09:34:21.534Z</time></trkpt><trkpt lat="42.7554409" lon="10.29213"><ele>31.999999999999996</ele><time>2026-04-18T09:34:22.529Z</time></trkpt><trkpt lat="42.7553564" lon="10.2920837"><ele>32.0</ele><time>2026-04-18T09:34:23.527Z</time></trkpt><trkpt lat="42.7552848" lon="10.2920192"><ele>30.833333333333332</ele><time>2026-04-18T09:34:24.524Z</time></trkpt><trkpt lat="42.7552292" lon="10.2919524"><ele>29.666666666666664</ele><time>2026-04-18T09:34:25.525Z</time></trkpt><trkpt lat="42.7551786" lon="10.291875"><ele>28.5</ele><time>2026-04-18T09:34:26.521Z</time></trkpt><trkpt lat="42.7551309" lon="10.2917763"><ele>27.333333333333336</ele><time>2026-04-18T09:34:27.526Z</time></trkpt><trkpt lat="42.7550925" lon="10.2916698"><ele>26.166666666666668</ele><time>2026-04-18T09:34:28.524Z</time></trkpt><trkpt lat="42.7550598" lon="10.291553"><ele>25.0</ele><time>2026-04-18T09:34:29.526Z</time></trkpt><trkpt lat="42.7550316" lon="10.291427"><ele>26.6</ele><time>2026-04-18T09:34:30.529Z</time></trkpt><trkpt lat="42.755006" lon="10.2912962"><ele>28.2</ele><time>2026-04-18T09:34:31.526Z</time></trkpt><trkpt lat="42.7549848" lon="10.291161"><ele>29.799999999999997</ele><time>2026-04-18T09:34:32.526Z</time></trkpt><trkpt lat="42.7549785" lon="10.2910292"><ele>31.4</ele><time>2026-04-18T09:34:33.522Z</time></trkpt><trkpt lat="42.7549866" lon="10.2909027"><ele>33.0</ele><time>2026-04-18T09:34:34.527Z</time></trkpt><trkpt lat="42.7550056" lon="10.2907814"><ele>33.0</ele><time>2026-04-18T09:34:35.52Z</time></trkpt><trkpt lat="42.7550256" lon="10.2906736"><ele>33.0</ele><time>2026-04-18T09:34:36.525Z</time></trkpt><trkpt lat="42.7550411" lon="10.2905773"><ele>33.0</ele><time>2026-04-18T09:34:37.527Z</time></trkpt><trkpt lat="42.7550286" lon="10.2904841"><ele>33.0</ele><time>2026-04-18T09:34:38.525Z</time></trkpt><trkpt lat="42.7549944" lon="10.2903902"><ele>33.0</ele><time>2026-04-18T09:34:39.529Z</time></trkpt><trkpt lat="42.7549566" lon="10.2902905"><ele>33.0</ele><time>2026-04-18T09:34:40.525Z</time></trkpt><trkpt lat="42.7549245" lon="10.2901929"><ele>34.5</ele><time>2026-04-18T09:34:41.525Z</time></trkpt><trkpt lat="42.7549011" lon="10.2900977"><ele>36.0</ele><time>2026-04-18T09:34:42.526Z</time></trkpt><trkpt lat="42.7548782" lon="10.2900137"><ele>37.5</ele><time>2026-04-18T09:34:43.514Z</time></trkpt><trkpt lat="42.7548325" lon="10.2898867"><ele>39.0</ele><time>2026-04-18T09:34:45.526Z</time></trkpt><trkpt lat="42.7547791" lon="10.2897694"><ele>40.5</ele><time>2026-04-18T09:34:47.525Z</time></trkpt><trkpt lat="42.754751" lon="10.2896916"><ele>42.0</ele><time>2026-04-18T09:34:48.523Z</time></trkpt><trkpt lat="42.7547179" lon="10.2896142"><ele>44.5</ele><time>2026-04-18T09:34:49.525Z</time></trkpt><trkpt lat="42.7546879" lon="10.2895355"><ele>47.0</ele><time>2026-04-18T09:34:50.529Z</time></trkpt><trkpt lat="42.7546599" lon="10.2894568"><ele>49.5</ele><time>2026-04-18T09:34:51.527Z</time></trkpt><trkpt lat="42.7546162" lon="10.2893336"><ele>52.0</ele><time>2026-04-18T09:34:53.525Z</time></trkpt><trkpt lat="42.7545955" lon="10.2892279"><ele>54.5</ele><time>2026-04-18T09:34:55.523Z</time></trkpt><trkpt lat="42.7545733" lon="10.289115"><ele>57.0</ele><time>2026-04-18T09:34:57.526Z</time></trkpt><trkpt lat="42.7545536" lon="10.2889791"><ele>56.833333333333336</ele><time>2026-04-18T09:34:59.524Z</time></trkpt><trkpt lat="42.7545423" lon="10.2888035"><ele>56.66666666666667</ele><time>2026-04-18T09:35:01.52Z</time></trkpt><trkpt lat="42.754525" lon="10.2887103"><ele>56.5</ele><time>2026-04-18T09:35:02.517Z</time></trkpt><trkpt lat="42.7544953" lon="10.2886228"><ele>56.333333333333336</ele><time>2026-04-18T09:35:03.519Z</time></trkpt><trkpt lat="42.7544498" lon="10.2885632"><ele>56.16666666666667</ele><time>2026-04-18T09:35:04.523Z</time></trkpt><trkpt lat="42.754377" lon="10.2885452"><ele>56.0</ele><time>2026-04-18T09:35:05.522Z</time></trkpt><trkpt lat="42.7542955" lon="10.2885841"><ele>56.00000000000001</ele><time>2026-04-18T09:35:06.512Z</time></trkpt><trkpt lat="42.7542143" lon="10.2886409"><ele>56.0</ele><time>2026-04-18T09:35:07.518Z</time></trkpt><trkpt lat="42.7541314" lon="10.2886905"><ele>56.0</ele><time>2026-04-18T09:35:08.522Z</time></trkpt><trkpt lat="42.7540551" lon="10.2887326"><ele>56.0</ele><time>2026-04-18T09:35:09.526Z</time></trkpt><trkpt lat="42.75398" lon="10.2887644"><ele>56.00000000000001</ele><time>2026-04-18T09:35:10.526Z</time></trkpt><trkpt lat="42.7539017" lon="10.2887904"><ele>56.0</ele><time>2026-04-18T09:35:11.527Z</time></trkpt><trkpt lat="42.7538266" lon="10.2887989"><ele>56.00000000000001</ele><time>2026-04-18T09:35:12.524Z</time></trkpt><trkpt lat="42.7537551" lon="10.2887813"><ele>56.0</ele><time>2026-04-18T09:35:13.527Z</time></trkpt><trkpt lat="42.7536857" lon="10.2887251"><ele>56.0</ele><time>2026-04-18T09:35:14.522Z</time></trkpt><trkpt lat="42.7536248" lon="10.288653"><ele>56.0</ele><time>2026-04-18T09:35:15.533Z</time></trkpt><trkpt lat="42.7535709" lon="10.2885814"><ele>56.00000000000001</ele><time>2026-04-18T09:35:16.527Z</time></trkpt><trkpt lat="42.7535225" lon="10.2885037"><ele>56.0</ele><time>2026-04-18T09:35:17.521Z</time></trkpt><trkpt lat="42.7534774" lon="10.2884244"><ele>54.4</ele><time>2026-04-18T09:35:18.524Z</time></trkpt><trkpt lat="42.7534373" lon="10.2883513"><ele>52.8</ele><time>2026-04-18T09:35:19.523Z</time></trkpt><trkpt lat="42.7533687" lon="10.2882514"><ele>51.199999999999996</ele><time>2026-04-18T09:35:21.519Z</time></trkpt><trkpt lat="42.7533568" lon="10.2881586"><ele>49.599999999999994</ele><time>2026-04-18T09:36:30.525Z</time></trkpt><trkpt lat="42.753344" lon="10.288008"><ele>48.0</ele><time>2026-04-18T09:36:32.517Z</time></trkpt><trkpt lat="42.7533218" lon="10.2878555"><ele>48.0</ele><time>2026-04-18T09:36:34.511Z</time></trkpt><trkpt lat="42.7532343" lon="10.2878015"><ele>48.0</ele><time>2026-04-18T09:36:36.523Z</time></trkpt><trkpt lat="42.7531636" lon="10.2878596"><ele>48.0</ele><time>2026-04-18T09:36:37.521Z</time></trkpt><trkpt lat="42.7530929" lon="10.2879614"><ele>48.0</ele><time>2026-04-18T09:36:38.513Z</time></trkpt><trkpt lat="42.7530381" lon="10.2880684"><ele>48.0</ele><time>2026-04-18T09:36:39.51Z</time></trkpt><trkpt lat="42.7529935" lon="10.2881625"><ele>48.0</ele><time>2026-04-18T09:36:40.515Z</time></trkpt><trkpt lat="42.752955" lon="10.2882463"><ele>48.0</ele><time>2026-04-18T09:36:41.514Z</time></trkpt><trkpt lat="42.752921" lon="10.2883322"><ele>48.0</ele><time>2026-04-18T09:36:42.513Z</time></trkpt><trkpt lat="42.7528836" lon="10.2884191"><ele>48.0</ele><time>2026-04-18T09:36:43.512Z</time></trkpt><trkpt lat="42.7528449" lon="10.2885019"><ele>48.0</ele><time>2026-04-18T09:36:44.518Z</time></trkpt><trkpt lat="42.7527619" lon="10.2886144"><ele>48.0</ele><time>2026-04-18T09:36:46.525Z</time></trkpt><trkpt lat="42.7526707" lon="10.2886999"><ele>51.8</ele><time>2026-04-18T09:36:48.525Z</time></trkpt><trkpt lat="42.7525796" lon="10.288758"><ele>55.599999999999994</ele><time>2026-04-18T09:36:50.521Z</time></trkpt><trkpt lat="42.7524839" lon="10.2887995"><ele>59.400000000000006</ele><time>2026-04-18T09:36:52.534Z</time></trkpt><trkpt lat="42.7523916" lon="10.2888233"><ele>63.2</ele><time>2026-04-18T09:36:54.533Z</time></trkpt><trkpt lat="42.7523" lon="10.2888203"><ele>67.0</ele><time>2026-04-18T09:36:56.538Z</time></trkpt><trkpt lat="42.7522008" lon="10.2888156"><ele>67.0</ele><time>2026-04-18T09:36:58.531Z</time></trkpt><trkpt lat="42.7521044" lon="10.2888081"><ele>67.0</ele><time>2026-04-18T09:37:00.533Z</time></trkpt><trkpt lat="42.7520278" lon="10.2887781"><ele>67.0</ele><time>2026-04-18T09:37:02.52Z</time></trkpt><trkpt lat="42.7519488" lon="10.2887332"><ele>67.0</ele><time>2026-04-18T09:37:04.528Z</time></trkpt><trkpt lat="42.7518845" lon="10.2886973"><ele>67.0</ele><time>2026-04-18T09:37:06.526Z</time></trkpt><trkpt lat="42.7518099" lon="10.2886537"><ele>67.0</ele><time>2026-04-18T09:37:09.526Z</time></trkpt><trkpt lat="42.7517141" lon="10.2886049"><ele>69.4</ele><time>2026-04-18T09:37:11.528Z</time></trkpt><trkpt lat="42.7516152" lon="10.2885334"><ele>71.80000000000001</ele><time>2026-04-18T09:37:13.526Z</time></trkpt><trkpt lat="42.7515324" lon="10.2884301"><ele>74.2</ele><time>2026-04-18T09:37:15.529Z</time></trkpt><trkpt lat="42.7514578" lon="10.2883624"><ele>76.60000000000001</ele><time>2026-04-18T09:37:17.523Z</time></trkpt><trkpt lat="42.7513725" lon="10.2882969"><ele>79.0</ele><time>2026-04-18T09:37:20.524Z</time></trkpt><trkpt lat="42.7512865" lon="10.2882228"><ele>79.0</ele><time>2026-04-18T09:37:22.533Z</time></trkpt><trkpt lat="42.7512081" lon="10.2881666"><ele>79.0</ele><time>2026-04-18T09:37:24.529Z</time></trkpt><trkpt lat="42.7511352" lon="10.2881189"><ele>79.0</ele><time>2026-04-18T09:37:26.527Z</time></trkpt><trkpt lat="42.7510416" lon="10.2880845"><ele>79.0</ele><time>2026-04-18T09:37:28.539Z</time></trkpt><trkpt lat="42.7509506" lon="10.2880761"><ele>79.0</ele><time>2026-04-18T09:37:30.536Z</time></trkpt><trkpt lat="42.7508482" lon="10.2880783"><ele>78.5</ele><time>2026-04-18T09:37:32.534Z</time></trkpt><trkpt lat="42.7507667" lon="10.2880834"><ele>78.0</ele><time>2026-04-18T09:37:34.532Z</time></trkpt><trkpt lat="42.7506923" lon="10.2881036"><ele>77.5</ele><time>2026-04-18T09:37:36.538Z</time></trkpt><trkpt lat="42.7505928" lon="10.2881227"><ele>77.0</ele><time>2026-04-18T09:37:38.535Z</time></trkpt><trkpt lat="42.7504998" lon="10.2881052"><ele>76.5</ele><time>2026-04-18T09:37:40.536Z</time></trkpt><trkpt lat="42.7504273" lon="10.2880359"><ele>76.0</ele><time>2026-04-18T09:37:42.539Z</time></trkpt><trkpt lat="42.7503683" lon="10.2879136"><ele>79.66666666666666</ele><time>2026-04-18T09:37:44.533Z</time></trkpt><trkpt lat="42.7503418" lon="10.2878329"><ele>83.33333333333333</ele><time>2026-04-18T09:37:45.538Z</time></trkpt><trkpt lat="42.7503456" lon="10.2876935"><ele>87.0</ele><time>2026-04-18T09:37:47.535Z</time></trkpt><trkpt lat="42.7504128" lon="10.2876338"><ele>90.66666666666666</ele><time>2026-04-18T09:37:49.532Z</time></trkpt><trkpt lat="42.7504817" lon="10.2876161"><ele>94.33333333333333</ele><time>2026-04-18T09:38:24.529Z</time></trkpt><trkpt lat="42.7505739" lon="10.2876137"><ele>98.0</ele><time>2026-04-18T09:38:26.528Z</time></trkpt><trkpt lat="42.7506376" lon="10.2876016"><ele>98.0</ele><time>2026-04-18T09:38:27.533Z</time></trkpt><trkpt lat="42.7507073" lon="10.2875917"><ele>98.0</ele><time>2026-04-18T09:38:28.531Z</time></trkpt><trkpt lat="42.7507786" lon="10.2875759"><ele>98.0</ele><time>2026-04-18T09:38:29.538Z</time></trkpt><trkpt lat="42.7508437" lon="10.2875601"><ele>98.0</ele><time>2026-04-18T09:38:30.538Z</time></trkpt><trkpt lat="42.7509658" lon="10.2875471"><ele>98.0</ele><time>2026-04-18T09:38:32.536Z</time></trkpt><trkpt lat="42.7510932" lon="10.287538"><ele>99.60000000000001</ele><time>2026-04-18T09:38:34.532Z</time></trkpt><trkpt lat="42.7511593" lon="10.287536"><ele>101.2</ele><time>2026-04-18T09:38:35.532Z</time></trkpt><trkpt lat="42.7512796" lon="10.2875476"><ele>102.8</ele><time>2026-04-18T09:38:37.534Z</time></trkpt><trkpt lat="42.7513875" lon="10.2875767"><ele>104.4</ele><time>2026-04-18T09:38:39.535Z</time></trkpt><trkpt lat="42.7515034" lon="10.2876252"><ele>106.0</ele><time>2026-04-18T09:38:41.532Z</time></trkpt><trkpt lat="42.7516088" lon="10.2876944"><ele>106.0</ele><time>2026-04-18T09:38:43.533Z</time></trkpt><trkpt lat="42.7517127" lon="10.2877431"><ele>106.0</ele><time>2026-04-18T09:38:45.537Z</time></trkpt><trkpt lat="42.751824" lon="10.2877148"><ele>106.0</ele><time>2026-04-18T09:38:47.535Z</time></trkpt><trkpt lat="42.7518964" lon="10.2876751"><ele>106.0</ele><time>2026-04-18T09:38:48.531Z</time></trkpt><trkpt lat="42.7519708" lon="10.2876397"><ele>106.0</ele><time>2026-04-18T09:38:49.53Z</time></trkpt><trkpt lat="42.7520363" lon="10.2876026"><ele>104.16666666666667</ele><time>2026-04-18T09:38:50.538Z</time></trkpt><trkpt lat="42.7521078" lon="10.2874999"><ele>102.33333333333334</ele><time>2026-04-18T09:38:52.539Z</time></trkpt><trkpt lat="42.7521339" lon="10.2874117"><ele>100.5</ele><time>2026-04-18T09:38:53.542Z</time></trkpt><trkpt lat="42.7521526" lon="10.2873118"><ele>98.66666666666667</ele><time>2026-04-18T09:38:54.534Z</time></trkpt><trkpt lat="42.7521633" lon="10.2872095"><ele>96.83333333333334</ele><time>2026-04-18T09:38:55.523Z</time></trkpt><trkpt lat="42.7521776" lon="10.2870965"><ele>95.0</ele><time>2026-04-18T09:38:56.53Z</time></trkpt><trkpt lat="42.7521958" lon="10.2869831"><ele>95.0</ele><time>2026-04-18T09:38:57.53Z</time></trkpt><trkpt lat="42.7522164" lon="10.2868736"><ele>95.0</ele><time>2026-04-18T09:38:58.528Z</time></trkpt><trkpt lat="42.7522365" lon="10.2867687"><ele>95.0</ele><time>2026-04-18T09:38:59.529Z</time></trkpt><trkpt lat="42.7522514" lon="10.2866539"><ele>95.0</ele><time>2026-04-18T09:39:00.524Z</time></trkpt><trkpt lat="42.7522541" lon="10.2865328"><ele>95.0</ele><time>2026-04-18T09:39:01.523Z</time></trkpt><trkpt lat="42.7522569" lon="10.2864065"><ele>95.0</ele><time>2026-04-18T09:39:02.52Z</time></trkpt><trkpt lat="42.7522663" lon="10.2862886"><ele>96.66666666666667</ele><time>2026-04-18T09:39:03.521Z</time></trkpt><trkpt lat="42.7522779" lon="10.2861816"><ele>98.33333333333334</ele><time>2026-04-18T09:39:04.518Z</time></trkpt><trkpt lat="42.7522923" lon="10.2860822"><ele>100.0</ele><time>2026-04-18T09:39:05.521Z</time></trkpt><trkpt lat="42.7523127" lon="10.2859874"><ele>101.66666666666667</ele><time>2026-04-18T09:39:06.512Z</time></trkpt><trkpt lat="42.752335" lon="10.2858989"><ele>103.33333333333333</ele><time>2026-04-18T09:39:07.518Z</time></trkpt><trkpt lat="42.7523484" lon="10.2857521"><ele>105.0</ele><time>2026-04-18T09:39:09.517Z</time></trkpt><trkpt lat="42.7523414" lon="10.2856404"><ele>107.8</ele><time>2026-04-18T09:39:11.515Z</time></trkpt><trkpt lat="42.7523346" lon="10.2855315"><ele>110.6</ele><time>2026-04-18T09:39:13.52Z</time></trkpt><trkpt lat="42.7523108" lon="10.2853966"><ele>113.4</ele><time>2026-04-18T09:39:15.522Z</time></trkpt><trkpt lat="42.7522795" lon="10.2852558"><ele>116.2</ele><time>2026-04-18T09:39:17.522Z</time></trkpt><trkpt lat="42.7522416" lon="10.285092"><ele>119.0</ele><time>2026-04-18T09:39:19.519Z</time></trkpt><trkpt lat="42.7522115" lon="10.2850042"><ele>118.99999999999999</ele><time>2026-04-18T09:39:20.523Z</time></trkpt><trkpt lat="42.7521761" lon="10.2849214"><ele>119.0</ele><time>2026-04-18T09:39:21.518Z</time></trkpt><trkpt lat="42.7521489" lon="10.2848356"><ele>119.0</ele><time>2026-04-18T09:39:22.533Z</time></trkpt><trkpt lat="42.7521706" lon="10.2847173"><ele>119.0</ele><time>2026-04-18T09:39:24.516Z</time></trkpt><trkpt lat="42.7522527" lon="10.2847009"><ele>118.99999999999999</ele><time>2026-04-18T09:39:26.517Z</time></trkpt><trkpt lat="42.7523382" lon="10.2847023"><ele>119.0</ele><time>2026-04-18T09:39:28.521Z</time></trkpt><trkpt lat="42.7524373" lon="10.2847269"><ele>119.0</ele><time>2026-04-18T09:39:30.523Z</time></trkpt><trkpt lat="42.7525573" lon="10.2847612"><ele>119.0</ele><time>2026-04-18T09:39:32.522Z</time></trkpt><trkpt lat="42.7526509" lon="10.284795"><ele>119.0</ele><time>2026-04-18T09:39:34.524Z</time></trkpt><trkpt lat="42.7527602" lon="10.2848208"><ele>119.0</ele><time>2026-04-18T09:39:36.519Z</time></trkpt><trkpt lat="42.7528849" lon="10.2848235"><ele>120.71428571428572</ele><time>2026-04-18T09:39:38.518Z</time></trkpt><trkpt lat="42.752955" lon="10.2848226"><ele>122.42857142857143</ele><time>2026-04-18T09:39:39.521Z</time></trkpt><trkpt lat="42.7530215" lon="10.2848103"><ele>124.14285714285714</ele><time>2026-04-18T09:39:40.518Z</time></trkpt><trkpt lat="42.7530864" lon="10.2847923"><ele>125.85714285714286</ele><time>2026-04-18T09:39:41.517Z</time></trkpt><trkpt lat="42.7531531" lon="10.2847745"><ele>127.57142857142858</ele><time>2026-04-18T09:39:42.519Z</time></trkpt><trkpt lat="42.7532258" lon="10.2847558"><ele>129.28571428571428</ele><time>2026-04-18T09:39:43.517Z</time></trkpt><trkpt lat="42.7533007" lon="10.2847252"><ele>131.0</ele><time>2026-04-18T09:39:44.518Z</time></trkpt><trkpt lat="42.753362" lon="10.2846999"><ele>136.5</ele><time>2026-04-18T09:39:45.516Z</time></trkpt><trkpt lat="42.7534628" lon="10.2846659"><ele>142.0</ele><time>2026-04-18T09:39:47.516Z</time></trkpt><trkpt lat="42.7535269" lon="10.2847197"><ele>147.5</ele><time>2026-04-18T09:39:49.522Z</time></trkpt><trkpt lat="42.7535812" lon="10.2848661"><ele>153.0</ele><time>2026-04-18T09:39:51.516Z</time></trkpt><trkpt lat="42.7536092" lon="10.2849498"><ele>158.5</ele><time>2026-04-18T09:39:52.525Z</time></trkpt><trkpt lat="42.7536394" lon="10.2850315"><ele>164.0</ele><time>2026-04-18T09:39:53.519Z</time></trkpt><trkpt lat="42.7536732" lon="10.2851152"><ele>164.0</ele><time>2026-04-18T09:39:54.525Z</time></trkpt><trkpt lat="42.7537064" lon="10.2851987"><ele>164.0</ele><time>2026-04-18T09:39:55.524Z</time></trkpt><trkpt lat="42.753741" lon="10.2852787"><ele>164.0</ele><time>2026-04-18T09:39:56.521Z</time></trkpt><trkpt lat="42.7537742" lon="10.2853522"><ele>164.0</ele><time>2026-04-18T09:39:57.521Z</time></trkpt><trkpt lat="42.7538316" lon="10.2855"><ele>164.0</ele><time>2026-04-18T09:39:59.522Z</time></trkpt><trkpt lat="42.753861" lon="10.2855766"><ele>164.0</ele><time>2026-04-18T09:40:00.522Z</time></trkpt><trkpt lat="42.7538903" lon="10.285653"><ele>160.33333333333331</ele><time>2026-04-18T09:40:01.524Z</time></trkpt><trkpt lat="42.7539165" lon="10.2857318"><ele>156.66666666666666</ele><time>2026-04-18T09:40:02.525Z</time></trkpt><trkpt lat="42.753944" lon="10.2858225"><ele>153.0</ele><time>2026-04-18T09:40:03.522Z</time></trkpt><trkpt lat="42.7539719" lon="10.2859377"><ele>149.33333333333334</ele><time>2026-04-18T09:40:04.522Z</time></trkpt><trkpt lat="42.754005" lon="10.2860511"><ele>145.66666666666669</ele><time>2026-04-18T09:40:05.529Z</time></trkpt><trkpt lat="42.7540488" lon="10.2861497"><ele>142.0</ele><time>2026-04-18T09:40:06.525Z</time></trkpt><trkpt lat="42.7541071" lon="10.2862375"><ele>142.0</ele><time>2026-04-18T09:40:07.527Z</time></trkpt><trkpt lat="42.7541735" lon="10.2863165"><ele>142.0</ele><time>2026-04-18T09:40:08.53Z</time></trkpt><trkpt lat="42.754241" lon="10.2863824"><ele>142.0</ele><time>2026-04-18T09:40:09.533Z</time></trkpt><trkpt lat="42.7543086" lon="10.2864274"><ele>142.0</ele><time>2026-04-18T09:40:10.535Z</time></trkpt><trkpt lat="42.754426" lon="10.2864518"><ele>142.0</ele><time>2026-04-18T09:40:12.535Z</time></trkpt><trkpt lat="42.7545256" lon="10.2863583"><ele>138.6</ele><time>2026-04-18T09:40:14.533Z</time></trkpt><trkpt lat="42.7545599" lon="10.2862842"><ele>135.2</ele><time>2026-04-18T09:40:15.542Z</time></trkpt><trkpt lat="42.754591" lon="10.2862048"><ele>131.8</ele><time>2026-04-18T09:40:16.53Z</time></trkpt><trkpt lat="42.7546422" lon="10.2860713"><ele>128.4</ele><time>2026-04-18T09:40:18.528Z</time></trkpt><trkpt lat="42.7546802" lon="10.2859431"><ele>125.0</ele><time>2026-04-18T09:40:20.532Z</time></trkpt><trkpt lat="42.7547298" lon="10.2857968"><ele>124.99999999999999</ele><time>2026-04-18T09:40:22.54Z</time></trkpt><trkpt lat="42.7547774" lon="10.2856752"><ele>125.0</ele><time>2026-04-18T09:40:24.526Z</time></trkpt><trkpt lat="42.7548192" lon="10.285574"><ele>125.0</ele><time>2026-04-18T09:40:26.529Z</time></trkpt><trkpt lat="42.7548591" lon="10.2854148"><ele>125.0</ele><time>2026-04-18T09:40:28.528Z</time></trkpt><trkpt lat="42.7548824" lon="10.285332"><ele>124.99999999999999</ele><time>2026-04-18T09:40:29.532Z</time></trkpt><trkpt lat="42.7549117" lon="10.2852442"><ele>125.0</ele><time>2026-04-18T09:40:30.529Z</time></trkpt><trkpt lat="42.7549508" lon="10.2851513"><ele>129.5</ele><time>2026-04-18T09:40:31.524Z</time></trkpt><trkpt lat="42.7549996" lon="10.2850565"><ele>134.0</ele><time>2026-04-18T09:40:32.521Z</time></trkpt><trkpt lat="42.7550523" lon="10.28497"><ele>138.5</ele><time>2026-04-18T09:40:33.521Z</time></trkpt><trkpt lat="42.7551001" lon="10.2848864"><ele>143.0</ele><time>2026-04-18T09:40:34.519Z</time></trkpt><trkpt lat="42.7551443" lon="10.2847988"><ele>147.5</ele><time>2026-04-18T09:40:35.52Z</time></trkpt><trkpt lat="42.7551904" lon="10.2847232"><ele>152.0</ele><time>2026-04-18T09:40:36.521Z</time></trkpt><trkpt lat="42.7552399" lon="10.2846538"><ele>156.5</ele><time>2026-04-18T09:40:37.512Z</time></trkpt><trkpt lat="42.7552933" lon="10.2845902"><ele>161.0</ele><time>2026-04-18T09:40:38.518Z</time></trkpt><trkpt lat="42.7553463" lon="10.2845189"><ele>165.5</ele><time>2026-04-18T09:40:39.522Z</time></trkpt><trkpt lat="42.7554024" lon="10.2844389"><ele>170.0</ele><time>2026-04-18T09:40:40.521Z</time></trkpt><trkpt lat="42.7554524" lon="10.2843575"><ele>174.5</ele><time>2026-04-18T09:40:41.515Z</time></trkpt><trkpt lat="42.7554942" lon="10.2842819"><ele>179.0</ele><time>2026-04-18T09:40:42.514Z</time></trkpt><trkpt lat="42.7555555" lon="10.2841803"><ele>179.0</ele><time>2026-04-18T09:40:44.521Z</time></trkpt><trkpt lat="42.7556335" lon="10.2842026"><ele>179.0</ele><time>2026-04-18T09:40:47.517Z</time></trkpt><trkpt lat="42.7556771" lon="10.284275"><ele>179.0</ele><time>2026-04-18T09:40:48.522Z</time></trkpt><trkpt lat="42.7557352" lon="10.2843913"><ele>179.0</ele><time>2026-04-18T09:40:49.514Z</time></trkpt><trkpt lat="42.7557967" lon="10.2845444"><ele>179.0</ele><time>2026-04-18T09:40:50.518Z</time></trkpt><trkpt lat="42.7558553" lon="10.2847094"><ele>181.5</ele><time>2026-04-18T09:40:51.525Z</time></trkpt><trkpt lat="42.7559155" lon="10.2848593"><ele>184.0</ele><time>2026-04-18T09:40:52.536Z</time></trkpt><trkpt lat="42.7559881" lon="10.2849993"><ele>186.5</ele><time>2026-04-18T09:40:53.524Z</time></trkpt><trkpt lat="42.7560616" lon="10.285126"><ele>189.0</ele><time>2026-04-18T09:40:54.522Z</time></trkpt><trkpt lat="42.7561293" lon="10.2852313"><ele>189.0</ele><time>2026-04-18T09:40:55.521Z</time></trkpt><trkpt lat="42.7561913" lon="10.285323"><ele>189.0</ele><time>2026-04-18T09:40:56.527Z</time></trkpt><trkpt lat="42.7562547" lon="10.2854072"><ele>189.0</ele><time>2026-04-18T09:40:57.526Z</time></trkpt><trkpt lat="42.7563264" lon="10.2854978"><ele>189.0</ele><time>2026-04-18T09:40:58.524Z</time></trkpt><trkpt lat="42.7563981" lon="10.2855926"><ele>189.0</ele><time>2026-04-18T09:40:59.525Z</time></trkpt><trkpt lat="42.7564687" lon="10.2856815"><ele>184.0</ele><time>2026-04-18T09:41:00.524Z</time></trkpt><trkpt lat="42.7565435" lon="10.2857691"><ele>179.0</ele><time>2026-04-18T09:41:01.526Z</time></trkpt><trkpt lat="42.7566145" lon="10.2858546"><ele>174.0</ele><time>2026-04-18T09:41:02.524Z</time></trkpt><trkpt lat="42.7566805" lon="10.2859404"><ele>169.0</ele><time>2026-04-18T09:41:03.524Z</time></trkpt><trkpt lat="42.7567414" lon="10.2860319"><ele>164.0</ele><time>2026-04-18T09:41:04.527Z</time></trkpt><trkpt lat="42.7568003" lon="10.2861214"><ele>164.0</ele><time>2026-04-18T09:41:05.523Z</time></trkpt><trkpt lat="42.7568501" lon="10.2862112"><ele>164.0</ele><time>2026-04-18T09:41:06.528Z</time></trkpt><trkpt lat="42.7568977" lon="10.2862834"><ele>164.0</ele><time>2026-04-18T09:41:07.529Z</time></trkpt><trkpt lat="42.7569928" lon="10.2863754"><ele>164.0</ele><time>2026-04-18T09:41:09.531Z</time></trkpt><trkpt lat="42.757095" lon="10.2864314"><ele>164.0</ele><time>2026-04-18T09:41:11.529Z</time></trkpt><trkpt lat="42.7571893" lon="10.2864496"><ele>163.6</ele><time>2026-04-18T09:41:13.529Z</time></trkpt><trkpt lat="42.7573091" lon="10.2864578"><ele>163.2</ele><time>2026-04-18T09:41:15.533Z</time></trkpt><trkpt lat="42.7574271" lon="10.2864552"><ele>162.79999999999998</ele><time>2026-04-18T09:41:17.527Z</time></trkpt><trkpt lat="42.7575454" lon="10.2864123"><ele>162.39999999999998</ele><time>2026-04-18T09:41:19.525Z</time></trkpt><trkpt lat="42.7576095" lon="10.2863799"><ele>162.0</ele><time>2026-04-18T09:41:20.531Z</time></trkpt><trkpt lat="42.7576684" lon="10.2863464"><ele>166.39999999999998</ele><time>2026-04-18T09:41:21.528Z</time></trkpt><trkpt lat="42.7577854" lon="10.2862875"><ele>170.79999999999998</ele><time>2026-04-18T09:41:23.532Z</time></trkpt><trkpt lat="42.7578477" lon="10.2862516"><ele>175.2</ele><time>2026-04-18T09:41:24.532Z</time></trkpt><trkpt lat="42.7579618" lon="10.2861784"><ele>179.6</ele><time>2026-04-18T09:41:26.533Z</time></trkpt><trkpt lat="42.7580189" lon="10.2861256"><ele>184.0</ele><time>2026-04-18T09:41:27.532Z</time></trkpt><trkpt lat="42.758079" lon="10.2860659"><ele>184.0</ele><time>2026-04-18T09:41:28.529Z</time></trkpt><trkpt lat="42.7581403" lon="10.2859958"><ele>184.0</ele><time>2026-04-18T09:41:29.527Z</time></trkpt><trkpt lat="42.7581979" lon="10.285928"><ele>184.0</ele><time>2026-04-18T09:41:30.532Z</time></trkpt><trkpt lat="42.7582537" lon="10.2858724"><ele>184.0</ele><time>2026-04-18T09:41:31.52Z</time></trkpt><trkpt lat="42.7583176" lon="10.2858225"><ele>184.0</ele><time>2026-04-18T09:41:32.521Z</time></trkpt><trkpt lat="42.7583886" lon="10.285785"><ele>184.0</ele><time>2026-04-18T09:41:33.532Z</time></trkpt><trkpt lat="42.7584626" lon="10.2857736"><ele>184.0</ele><time>2026-04-18T09:41:34.529Z</time></trkpt><trkpt lat="42.7585308" lon="10.2857652"><ele>184.0</ele><time>2026-04-18T09:41:35.541Z</time></trkpt><trkpt lat="42.7586334" lon="10.2857061"><ele>184.0</ele><time>2026-04-18T09:41:37.534Z</time></trkpt><trkpt lat="42.7586668" lon="10.285597"><ele>184.0</ele><time>2026-04-18T09:41:39.535Z</time></trkpt><trkpt lat="42.7586772" lon="10.2854703"><ele>184.0</ele><time>2026-04-18T09:41:41.536Z</time></trkpt><trkpt lat="42.7586753" lon="10.2853512"><ele>184.0</ele><time>2026-04-18T09:41:43.533Z</time></trkpt><trkpt lat="42.758775" lon="10.2853145"><ele>187.16666666666669</ele><time>2026-04-18T09:41:46.532Z</time></trkpt><trkpt lat="42.7588453" lon="10.2853381"><ele>190.33333333333334</ele><time>2026-04-18T09:41:47.533Z</time></trkpt><trkpt lat="42.7589112" lon="10.2853655"><ele>193.5</ele><time>2026-04-18T09:41:48.534Z</time></trkpt><trkpt lat="42.7589791" lon="10.2853865"><ele>196.66666666666669</ele><time>2026-04-18T09:41:49.532Z</time></trkpt><trkpt lat="42.7590472" lon="10.2853944"><ele>199.83333333333334</ele><time>2026-04-18T09:41:50.534Z</time></trkpt><trkpt lat="42.7591133" lon="10.2853964"><ele>203.0</ele><time>2026-04-18T09:41:51.532Z</time></trkpt><trkpt lat="42.7592287" lon="10.2854076"><ele>203.00000000000003</ele><time>2026-04-18T09:41:53.539Z</time></trkpt><trkpt lat="42.7593165" lon="10.2854155"><ele>203.0</ele><time>2026-04-18T09:41:55.537Z</time></trkpt><trkpt lat="42.7592998" lon="10.2852939"><ele>203.0</ele><time>2026-04-18T09:42:01.535Z</time></trkpt><trkpt lat="42.7592107" lon="10.2852079"><ele>203.0</ele><time>2026-04-18T09:43:02.537Z</time></trkpt><trkpt lat="42.7591512" lon="10.2851547"><ele>203.00000000000003</ele><time>2026-04-18T09:43:03.536Z</time></trkpt><trkpt lat="42.7590871" lon="10.285078"><ele>203.0</ele><time>2026-04-18T09:43:04.535Z</time></trkpt><trkpt lat="42.7590259" lon="10.284986"><ele>203.0</ele><time>2026-04-18T09:43:05.53Z</time></trkpt><trkpt lat="42.7589575" lon="10.2848851"><ele>203.0</ele><time>2026-04-18T09:43:06.533Z</time></trkpt><trkpt lat="42.7588802" lon="10.2847859"><ele>203.0</ele><time>2026-04-18T09:43:07.523Z</time></trkpt><trkpt lat="42.7587947" lon="10.2846938"><ele>203.0</ele><time>2026-04-18T09:43:08.531Z</time></trkpt><trkpt lat="42.7587053" lon="10.2846154"><ele>203.0</ele><time>2026-04-18T09:43:09.531Z</time></trkpt><trkpt lat="42.7586261" lon="10.2845495"><ele>204.50000000000003</ele><time>2026-04-18T09:43:10.533Z</time></trkpt><trkpt lat="42.7585531" lon="10.2844864"><ele>206.0</ele><time>2026-04-18T09:43:11.536Z</time></trkpt><trkpt lat="42.7584784" lon="10.2844135"><ele>207.5</ele><time>2026-04-18T09:43:12.534Z</time></trkpt><trkpt lat="42.7584144" lon="10.2843329"><ele>209.0</ele><time>2026-04-18T09:43:13.531Z</time></trkpt><trkpt lat="42.758364" lon="10.284248"><ele>210.50000000000003</ele><time>2026-04-18T09:43:14.529Z</time></trkpt><trkpt lat="42.7583203" lon="10.2841578"><ele>212.0</ele><time>2026-04-18T09:43:15.533Z</time></trkpt><trkpt lat="42.7582777" lon="10.2840639"><ele>212.8</ele><time>2026-04-18T09:43:16.534Z</time></trkpt><trkpt lat="42.7582341" lon="10.2839808"><ele>213.6</ele><time>2026-04-18T09:43:17.528Z</time></trkpt><trkpt lat="42.7581902" lon="10.2839119"><ele>214.40000000000003</ele><time>2026-04-18T09:43:18.529Z</time></trkpt><trkpt lat="42.7580876" lon="10.2838178"><ele>215.20000000000002</ele><time>2026-04-18T09:43:20.53Z</time></trkpt><trkpt lat="42.7579789" lon="10.2838809"><ele>216.0</ele><time>2026-04-18T09:43:22.537Z</time></trkpt><trkpt lat="42.7579407" lon="10.2839712"><ele>216.0</ele><time>2026-04-18T09:43:23.52Z</time></trkpt><trkpt lat="42.7578952" lon="10.2840873"><ele>216.00000000000003</ele><time>2026-04-18T09:43:24.523Z</time></trkpt><trkpt lat="42.757842" lon="10.2842065"><ele>216.00000000000003</ele><time>2026-04-18T09:43:25.525Z</time></trkpt><trkpt lat="42.7577808" lon="10.284308"><ele>216.0</ele><time>2026-04-18T09:43:26.532Z</time></trkpt><trkpt lat="42.7577133" lon="10.284383"><ele>216.0</ele><time>2026-04-18T09:43:27.53Z</time></trkpt><trkpt lat="42.757634" lon="10.2844394"><ele>217.66666666666666</ele><time>2026-04-18T09:43:28.533Z</time></trkpt><trkpt lat="42.7575565" lon="10.2844859"><ele>219.33333333333331</ele><time>2026-04-18T09:43:29.535Z</time></trkpt><trkpt lat="42.757478" lon="10.2845208"><ele>221.0</ele><time>2026-04-18T09:43:30.533Z</time></trkpt><trkpt lat="42.7573957" lon="10.2845347"><ele>222.66666666666666</ele><time>2026-04-18T09:43:31.534Z</time></trkpt><trkpt lat="42.7573174" lon="10.2845178"><ele>224.33333333333331</ele><time>2026-04-18T09:43:32.529Z</time></trkpt><trkpt lat="42.7572437" lon="10.2844705"><ele>226.0</ele><time>2026-04-18T09:43:33.535Z</time></trkpt><trkpt lat="42.7571781" lon="10.2843901"><ele>226.0</ele><time>2026-04-18T09:43:34.53Z</time></trkpt><trkpt lat="42.757119" lon="10.2842978"><ele>226.00000000000003</ele><time>2026-04-18T09:43:35.532Z</time></trkpt><trkpt lat="42.7570573" lon="10.2842061"><ele>226.00000000000003</ele><time>2026-04-18T09:43:36.536Z</time></trkpt><trkpt lat="42.756991" lon="10.284118"><ele>226.0</ele><time>2026-04-18T09:43:37.533Z</time></trkpt><trkpt lat="42.7569221" lon="10.2840219"><ele>226.0</ele><time>2026-04-18T09:43:38.536Z</time></trkpt><trkpt lat="42.7568668" lon="10.2839183"><ele>228.60000000000002</ele><time>2026-04-18T09:43:39.533Z</time></trkpt><trkpt lat="42.7568232" lon="10.2838103"><ele>231.20000000000002</ele><time>2026-04-18T09:43:40.532Z</time></trkpt><trkpt lat="42.7567825" lon="10.2837039"><ele>233.79999999999998</ele><time>2026-04-18T09:43:41.528Z</time></trkpt><trkpt lat="42.7567354" lon="10.2835979"><ele>236.39999999999998</ele><time>2026-04-18T09:43:42.531Z</time></trkpt><trkpt lat="42.7566737" lon="10.283505"><ele>239.0</ele><time>2026-04-18T09:43:43.523Z</time></trkpt><trkpt lat="42.756601" lon="10.2834172"><ele>239.00000000000003</ele><time>2026-04-18T09:43:44.524Z</time></trkpt><trkpt lat="42.7565231" lon="10.2833356"><ele>239.0</ele><time>2026-04-18T09:43:45.53Z</time></trkpt><trkpt lat="42.7564489" lon="10.2832557"><ele>239.0</ele><time>2026-04-18T09:43:46.531Z</time></trkpt><trkpt lat="42.7563816" lon="10.2831708"><ele>239.0</ele><time>2026-04-18T09:43:47.531Z</time></trkpt><trkpt lat="42.7563281" lon="10.283084"><ele>239.00000000000003</ele><time>2026-04-18T09:43:48.536Z</time></trkpt><trkpt lat="42.7563072" lon="10.2829932"><ele>239.0</ele><time>2026-04-18T09:43:49.534Z</time></trkpt><trkpt lat="42.7563172" lon="10.2828911"><ele>241.16666666666669</ele><time>2026-04-18T09:43:50.529Z</time></trkpt><trkpt lat="42.7563257" lon="10.2827853"><ele>243.33333333333334</ele><time>2026-04-18T09:43:51.528Z</time></trkpt><trkpt lat="42.7563168" lon="10.2826842"><ele>245.5</ele><time>2026-04-18T09:43:52.544Z</time></trkpt><trkpt lat="42.7563003" lon="10.282586"><ele>247.66666666666669</ele><time>2026-04-18T09:43:53.532Z</time></trkpt><trkpt lat="42.756287" lon="10.282484"><ele>249.83333333333334</ele><time>2026-04-18T09:43:54.53Z</time></trkpt><trkpt lat="42.7562708" lon="10.2823687"><ele>252.0</ele><time>2026-04-18T09:43:55.528Z</time></trkpt><trkpt lat="42.756242" lon="10.2822479"><ele>252.8</ele><time>2026-04-18T09:43:56.528Z</time></trkpt><trkpt lat="42.7561961" lon="10.2821305"><ele>253.6</ele><time>2026-04-18T09:43:57.534Z</time></trkpt><trkpt lat="42.7561364" lon="10.282039"><ele>254.40000000000003</ele><time>2026-04-18T09:43:58.532Z</time></trkpt><trkpt lat="42.7560446" lon="10.281959"><ele>255.20000000000002</ele><time>2026-04-18T09:43:59.536Z</time></trkpt><trkpt lat="42.7559218" lon="10.2818766"><ele>256.0</ele><time>2026-04-18T09:44:00.531Z</time></trkpt><trkpt lat="42.7557978" lon="10.2818064"><ele>256.0</ele><time>2026-04-18T09:44:01.53Z</time></trkpt><trkpt lat="42.755677" lon="10.2817448"><ele>256.0</ele><time>2026-04-18T09:44:02.533Z</time></trkpt><trkpt lat="42.7555753" lon="10.2816886"><ele>256.0</ele><time>2026-04-18T09:44:03.531Z</time></trkpt><trkpt lat="42.7554916" lon="10.2816249"><ele>256.0</ele><time>2026-04-18T09:44:04.531Z</time></trkpt><trkpt lat="42.7554095" lon="10.281558"><ele>256.0</ele><time>2026-04-18T09:44:05.529Z</time></trkpt><trkpt lat="42.7553267" lon="10.2815015"><ele>255.99999999999997</ele><time>2026-04-18T09:44:06.531Z</time></trkpt><trkpt lat="42.7552468" lon="10.2814676"><ele>256.0</ele><time>2026-04-18T09:44:07.534Z</time></trkpt><trkpt lat="42.7551778" lon="10.2814621"><ele>256.0</ele><time>2026-04-18T09:44:08.533Z</time></trkpt><trkpt lat="42.7550857" lon="10.2815377"><ele>256.0</ele><time>2026-04-18T09:44:10.531Z</time></trkpt><trkpt lat="42.7550575" lon="10.2816271"><ele>255.99999999999997</ele><time>2026-04-18T09:44:11.535Z</time></trkpt><trkpt lat="42.7550354" lon="10.2817576"><ele>256.0</ele><time>2026-04-18T09:44:12.524Z</time></trkpt><trkpt lat="42.7550106" lon="10.2819186"><ele>255.75</ele><time>2026-04-18T09:44:13.529Z</time></trkpt><trkpt lat="42.754978" lon="10.28209"><ele>255.5</ele><time>2026-04-18T09:44:14.522Z</time></trkpt><trkpt lat="42.7549364" lon="10.2822579"><ele>255.25</ele><time>2026-04-18T09:44:15.525Z</time></trkpt><trkpt lat="42.7548869" lon="10.2824187"><ele>255.0</ele><time>2026-04-18T09:44:16.531Z</time></trkpt><trkpt lat="42.7548335" lon="10.2825487"><ele>252.16666666666666</ele><time>2026-04-18T09:44:17.516Z</time></trkpt><trkpt lat="42.7547791" lon="10.2826588"><ele>249.33333333333331</ele><time>2026-04-18T09:44:18.53Z</time></trkpt><trkpt lat="42.7547185" lon="10.2827458"><ele>246.5</ele><time>2026-04-18T09:44:19.515Z</time></trkpt><trkpt lat="42.7546423" lon="10.282804"><ele>243.66666666666666</ele><time>2026-04-18T09:44:20.526Z</time></trkpt><trkpt lat="42.7545513" lon="10.2828139"><ele>240.83333333333331</ele><time>2026-04-18T09:44:21.537Z</time></trkpt><trkpt lat="42.7544696" lon="10.2827843"><ele>238.0</ele><time>2026-04-18T09:44:22.544Z</time></trkpt><trkpt lat="42.7544007" lon="10.2827176"><ele>239.2</ele><time>2026-04-18T09:44:23.529Z</time></trkpt><trkpt lat="42.7543466" lon="10.282624"><ele>240.4</ele><time>2026-04-18T09:44:24.537Z</time></trkpt><trkpt lat="42.7542994" lon="10.2825039"><ele>241.59999999999997</ele><time>2026-04-18T09:44:25.533Z</time></trkpt><trkpt lat="42.7542412" lon="10.2823643"><ele>242.79999999999998</ele><time>2026-04-18T09:44:26.529Z</time></trkpt><trkpt lat="42.7541798" lon="10.2822183"><ele>244.0</ele><time>2026-04-18T09:44:27.534Z</time></trkpt><trkpt lat="42.7541199" lon="10.2820842"><ele>247.2</ele><time>2026-04-18T09:44:28.537Z</time></trkpt><trkpt lat="42.7540534" lon="10.2819582"><ele>250.39999999999998</ele><time>2026-04-18T09:44:29.529Z</time></trkpt><trkpt lat="42.7539851" lon="10.2818578"><ele>253.6</ele><time>2026-04-18T09:44:30.533Z</time></trkpt><trkpt lat="42.7539148" lon="10.2818038"><ele>256.8</ele><time>2026-04-18T09:44:31.529Z</time></trkpt><trkpt lat="42.753836" lon="10.2817736"><ele>260.0</ele><time>2026-04-18T09:44:32.525Z</time></trkpt><trkpt lat="42.7537534" lon="10.281758"><ele>260.0</ele><time>2026-04-18T09:44:33.535Z</time></trkpt><trkpt lat="42.7536757" lon="10.2817394"><ele>260.0</ele><time>2026-04-18T09:44:34.533Z</time></trkpt><trkpt lat="42.7536058" lon="10.2817131"><ele>260.0</ele><time>2026-04-18T09:44:35.533Z</time></trkpt><trkpt lat="42.7535075" lon="10.281647"><ele>260.0</ele><time>2026-04-18T09:44:37.529Z</time></trkpt><trkpt lat="42.7534481" lon="10.2815592"><ele>260.0</ele><time>2026-04-18T09:44:39.529Z</time></trkpt><trkpt lat="42.7533988" lon="10.2814511"><ele>260.0</ele><time>2026-04-18T09:44:41.537Z</time></trkpt><trkpt lat="42.7533432" lon="10.2813072"><ele>259.83333333333337</ele><time>2026-04-18T09:44:43.531Z</time></trkpt><trkpt lat="42.7533183" lon="10.2812121"><ele>259.6666666666667</ele><time>2026-04-18T09:44:44.531Z</time></trkpt><trkpt lat="42.7532936" lon="10.2811032"><ele>259.5</ele><time>2026-04-18T09:44:45.528Z</time></trkpt><trkpt lat="42.75327" lon="10.2809842"><ele>259.3333333333333</ele><time>2026-04-18T09:44:46.531Z</time></trkpt><trkpt lat="42.753251" lon="10.2808614"><ele>259.16666666666663</ele><time>2026-04-18T09:44:47.528Z</time></trkpt><trkpt lat="42.753245" lon="10.2807287"><ele>259.0</ele><time>2026-04-18T09:44:48.534Z</time></trkpt><trkpt lat="42.7532516" lon="10.2805983"><ele>260.0</ele><time>2026-04-18T09:44:49.528Z</time></trkpt><trkpt lat="42.7532689" lon="10.2804669"><ele>261.0</ele><time>2026-04-18T09:44:50.528Z</time></trkpt><trkpt lat="42.7532876" lon="10.2803402"><ele>262.0</ele><time>2026-04-18T09:44:51.532Z</time></trkpt><trkpt lat="42.7533022" lon="10.2802108"><ele>263.0</ele><time>2026-04-18T09:44:52.534Z</time></trkpt><trkpt lat="42.7533142" lon="10.2800766"><ele>264.0</ele><time>2026-04-18T09:44:53.527Z</time></trkpt><trkpt lat="42.7533232" lon="10.2799391"><ele>264.0</ele><time>2026-04-18T09:44:54.525Z</time></trkpt><trkpt lat="42.7533363" lon="10.279798"><ele>264.0</ele><time>2026-04-18T09:44:55.521Z</time></trkpt><trkpt lat="42.7533436" lon="10.279664"><ele>264.0</ele><time>2026-04-18T09:44:56.519Z</time></trkpt><trkpt lat="42.7533455" lon="10.2795399"><ele>264.0</ele><time>2026-04-18T09:44:57.521Z</time></trkpt><trkpt lat="42.7533494" lon="10.2794317"><ele>264.0</ele><time>2026-04-18T09:44:58.521Z</time></trkpt><trkpt lat="42.7533539" lon="10.2793433"><ele>264.0</ele><time>2026-04-18T09:44:59.518Z</time></trkpt><trkpt lat="42.7533296" lon="10.2791984"><ele>265.2</ele><time>2026-04-18T09:45:01.513Z</time></trkpt><trkpt lat="42.7532712" lon="10.2791496"><ele>266.4</ele><time>2026-04-18T09:45:02.508Z</time></trkpt><trkpt lat="42.7531893" lon="10.2791075"><ele>267.6</ele><time>2026-04-18T09:45:03.515Z</time></trkpt><trkpt lat="42.7530916" lon="10.2790565"><ele>268.8</ele><time>2026-04-18T09:45:04.513Z</time></trkpt><trkpt lat="42.7529915" lon="10.2789896"><ele>270.0</ele><time>2026-04-18T09:45:05.511Z</time></trkpt><trkpt lat="42.7528963" lon="10.2788909"><ele>272.0</ele><time>2026-04-18T09:45:06.513Z</time></trkpt><trkpt lat="42.7528114" lon="10.2787828"><ele>274.0</ele><time>2026-04-18T09:45:07.517Z</time></trkpt><trkpt lat="42.7527275" lon="10.2786798"><ele>276.0</ele><time>2026-04-18T09:45:08.517Z</time></trkpt><trkpt lat="42.7526447" lon="10.2785897"><ele>278.0</ele><time>2026-04-18T09:45:09.513Z</time></trkpt><trkpt lat="42.7525629" lon="10.2785128"><ele>280.0</ele><time>2026-04-18T09:45:10.519Z</time></trkpt><trkpt lat="42.7524827" lon="10.2784679"><ele>280.0</ele><time>2026-04-18T09:45:11.521Z</time></trkpt><trkpt lat="42.7524138" lon="10.2784648"><ele>280.0</ele><time>2026-04-18T09:45:12.516Z</time></trkpt><trkpt lat="42.7523341" lon="10.27861"><ele>280.0</ele><time>2026-04-18T09:45:14.518Z</time></trkpt><trkpt lat="42.7523117" lon="10.2787483"><ele>280.0</ele><time>2026-04-18T09:45:15.511Z</time></trkpt><trkpt lat="42.752288" lon="10.2789164"><ele>280.0</ele><time>2026-04-18T09:45:16.511Z</time></trkpt><trkpt lat="42.7522689" lon="10.2791001"><ele>275.5</ele><time>2026-04-18T09:45:17.508Z</time></trkpt><trkpt lat="42.7522384" lon="10.2792832"><ele>271.0</ele><time>2026-04-18T09:45:18.509Z</time></trkpt><trkpt lat="42.7521916" lon="10.2794666"><ele>266.5</ele><time>2026-04-18T09:45:19.515Z</time></trkpt><trkpt lat="42.7521381" lon="10.2796372"><ele>262.0</ele><time>2026-04-18T09:45:20.512Z</time></trkpt><trkpt lat="42.7520802" lon="10.2797781"><ele>262.3333333333333</ele><time>2026-04-18T09:45:21.529Z</time></trkpt><trkpt lat="42.7520192" lon="10.2798727"><ele>262.66666666666663</ele><time>2026-04-18T09:45:22.522Z</time></trkpt><trkpt lat="42.7519567" lon="10.2799454"><ele>263.0</ele><time>2026-04-18T09:45:23.52Z</time></trkpt><trkpt lat="42.7518853" lon="10.2800113"><ele>263.3333333333333</ele><time>2026-04-18T09:45:24.517Z</time></trkpt><trkpt lat="42.7518055" lon="10.28006"><ele>263.6666666666667</ele><time>2026-04-18T09:45:25.518Z</time></trkpt><trkpt lat="42.7517272" lon="10.280097"><ele>264.0</ele><time>2026-04-18T09:45:26.516Z</time></trkpt><trkpt lat="42.7516611" lon="10.2801527"><ele>264.0</ele><time>2026-04-18T09:45:27.518Z</time></trkpt><trkpt lat="42.7516108" lon="10.2802352"><ele>264.0</ele><time>2026-04-18T09:45:28.516Z</time></trkpt><trkpt lat="42.7515738" lon="10.280325"><ele>264.0</ele><time>2026-04-18T09:45:29.512Z</time></trkpt><trkpt lat="42.7515182" lon="10.2803954"><ele>264.0</ele><time>2026-04-18T09:45:30.524Z</time></trkpt><trkpt lat="42.7514339" lon="10.2804508"><ele>264.0</ele><time>2026-04-18T09:45:31.522Z</time></trkpt><trkpt lat="42.7513154" lon="10.2805132"><ele>261.5</ele><time>2026-04-18T09:45:32.521Z</time></trkpt><trkpt lat="42.7512036" lon="10.2806014"><ele>259.0</ele><time>2026-04-18T09:45:33.517Z</time></trkpt><trkpt lat="42.7510938" lon="10.2806922"><ele>256.5</ele><time>2026-04-18T09:45:34.52Z</time></trkpt><trkpt lat="42.7509716" lon="10.2807794"><ele>254.0</ele><time>2026-04-18T09:45:35.521Z</time></trkpt><trkpt lat="42.7508356" lon="10.2808554"><ele>254.0</ele><time>2026-04-18T09:45:36.523Z</time></trkpt><trkpt lat="42.7506901" lon="10.2809118"><ele>254.0</ele><time>2026-04-18T09:45:37.522Z</time></trkpt><trkpt lat="42.7505126" lon="10.2809496"><ele>254.0</ele><time>2026-04-18T09:45:38.513Z</time></trkpt><trkpt lat="42.7503489" lon="10.2809892"><ele>256.0</ele><time>2026-04-18T09:45:39.514Z</time></trkpt><trkpt lat="42.7502051" lon="10.2810208"><ele>258.0</ele><time>2026-04-18T09:45:40.517Z</time></trkpt><trkpt lat="42.7500966" lon="10.2810471"><ele>260.0</ele><time>2026-04-18T09:45:41.516Z</time></trkpt><trkpt lat="42.7500176" lon="10.2810641"><ele>262.0</ele><time>2026-04-18T09:45:42.526Z</time></trkpt><trkpt lat="42.7499424" lon="10.2810465"><ele>264.0</ele><time>2026-04-18T09:45:43.518Z</time></trkpt><trkpt lat="42.7498545" lon="10.280996"><ele>264.0</ele><time>2026-04-18T09:45:44.517Z</time></trkpt><trkpt lat="42.7497501" lon="10.2809418"><ele>264.0</ele><time>2026-04-18T09:45:45.517Z</time></trkpt><trkpt lat="42.7496412" lon="10.2808924"><ele>264.0</ele><time>2026-04-18T09:45:46.515Z</time></trkpt><trkpt lat="42.7495483" lon="10.2808629"><ele>264.0</ele><time>2026-04-18T09:45:47.515Z</time></trkpt><trkpt lat="42.7494758" lon="10.2809191"><ele>264.0</ele><time>2026-04-18T09:45:49.513Z</time></trkpt><trkpt lat="42.749484" lon="10.2810096"><ele>264.0</ele><time>2026-04-18T09:45:50.512Z</time></trkpt><trkpt lat="42.7494915" lon="10.2811216"><ele>264.0</ele><time>2026-04-18T09:45:51.51Z</time></trkpt><trkpt lat="42.7494845" lon="10.2812563"><ele>264.0</ele><time>2026-04-18T09:45:52.518Z</time></trkpt><trkpt lat="42.7494683" lon="10.2814"><ele>264.0</ele><time>2026-04-18T09:45:53.512Z</time></trkpt><trkpt lat="42.749425" lon="10.2815164"><ele>264.0</ele><time>2026-04-18T09:45:54.52Z</time></trkpt><trkpt lat="42.7493571" lon="10.2815979"><ele>262.8</ele><time>2026-04-18T09:45:55.516Z</time></trkpt><trkpt lat="42.7492768" lon="10.2816502"><ele>261.59999999999997</ele><time>2026-04-18T09:45:56.514Z</time></trkpt><trkpt lat="42.7491871" lon="10.2816754"><ele>260.4</ele><time>2026-04-18T09:45:57.512Z</time></trkpt><trkpt lat="42.7490913" lon="10.2816723"><ele>259.2</ele><time>2026-04-18T09:45:58.514Z</time></trkpt><trkpt lat="42.7489907" lon="10.2816524"><ele>258.0</ele><time>2026-04-18T09:45:59.514Z</time></trkpt><trkpt lat="42.7488923" lon="10.2816231"><ele>258.0</ele><time>2026-04-18T09:46:00.517Z</time></trkpt><trkpt lat="42.7487944" lon="10.2815952"><ele>258.0</ele><time>2026-04-18T09:46:01.522Z</time></trkpt><trkpt lat="42.7487049" lon="10.2815744"><ele>258.0</ele><time>2026-04-18T09:46:02.518Z</time></trkpt><trkpt lat="42.7486223" lon="10.2815508"><ele>258.0</ele><time>2026-04-18T09:46:03.519Z</time></trkpt><trkpt lat="42.7485453" lon="10.2815258"><ele>258.0</ele><time>2026-04-18T09:46:04.517Z</time></trkpt><trkpt lat="42.7484586" lon="10.2815009"><ele>258.0</ele><time>2026-04-18T09:46:05.511Z</time></trkpt><trkpt lat="42.7483643" lon="10.2814756"><ele>259.6666666666667</ele><time>2026-04-18T09:46:06.52Z</time></trkpt><trkpt lat="42.7482774" lon="10.2814637"><ele>261.3333333333333</ele><time>2026-04-18T09:46:07.515Z</time></trkpt><trkpt lat="42.7481943" lon="10.2814606"><ele>263.0</ele><time>2026-04-18T09:46:08.522Z</time></trkpt><trkpt lat="42.7481205" lon="10.2814517"><ele>264.66666666666663</ele><time>2026-04-18T09:46:09.518Z</time></trkpt><trkpt lat="42.7480417" lon="10.2814181"><ele>266.3333333333333</ele><time>2026-04-18T09:46:11.52Z</time></trkpt><trkpt lat="42.7480913" lon="10.2813224"><ele>268.0</ele><time>2026-04-18T09:46:14.512Z</time></trkpt><trkpt lat="42.7481631" lon="10.2812951"><ele>269.5</ele><time>2026-04-18T09:46:15.516Z</time></trkpt><trkpt lat="42.7482616" lon="10.2812866"><ele>271.0</ele><time>2026-04-18T09:46:16.516Z</time></trkpt><trkpt lat="42.7483527" lon="10.2812919"><ele>272.5</ele><time>2026-04-18T09:46:17.513Z</time></trkpt><trkpt lat="42.7484304" lon="10.2812885"><ele>274.0</ele><time>2026-04-18T09:46:18.514Z</time></trkpt><trkpt lat="42.7484921" lon="10.2812681"><ele>275.5</ele><time>2026-04-18T09:46:19.52Z</time></trkpt><trkpt lat="42.7485945" lon="10.2812202"><ele>277.0</ele><time>2026-04-18T09:46:21.518Z</time></trkpt><trkpt lat="42.7486867" lon="10.2811758"><ele>277.0</ele><time>2026-04-18T09:46:23.522Z</time></trkpt><trkpt lat="42.7487592" lon="10.2811386"><ele>277.0</ele><time>2026-04-18T09:46:25.519Z</time></trkpt><trkpt lat="42.7488277" lon="10.2811029"><ele>277.0</ele><time>2026-04-18T09:46:27.519Z</time></trkpt><trkpt lat="42.748902" lon="10.281038"><ele>277.0</ele><time>2026-04-18T09:46:30.517Z</time></trkpt><trkpt lat="42.7489444" lon="10.2809582"><ele>277.0</ele><time>2026-04-18T09:47:30.524Z</time></trkpt><trkpt lat="42.7489699" lon="10.2808737"><ele>277.0</ele><time>2026-04-18T09:47:33.528Z</time></trkpt><trkpt lat="42.748987" lon="10.280785"><ele>277.0</ele><time>2026-04-18T09:49:10.53Z</time></trkpt><trkpt lat="42.749018" lon="10.2806171"><ele>278.66666666666663</ele><time>2026-04-18T09:49:12.528Z</time></trkpt><trkpt lat="42.7490508" lon="10.2805115"><ele>280.3333333333333</ele><time>2026-04-18T09:49:13.515Z</time></trkpt><trkpt lat="42.7490956" lon="10.2804052"><ele>282.0</ele><time>2026-04-18T09:49:14.522Z</time></trkpt><trkpt lat="42.7491497" lon="10.2803108"><ele>283.6666666666667</ele><time>2026-04-18T09:49:15.522Z</time></trkpt><trkpt lat="42.749215" lon="10.2802338"><ele>285.33333333333337</ele><time>2026-04-18T09:49:16.521Z</time></trkpt><trkpt lat="42.7492944" lon="10.2801697"><ele>287.0</ele><time>2026-04-18T09:49:17.522Z</time></trkpt><trkpt lat="42.7493865" lon="10.2801242"><ele>287.0</ele><time>2026-04-18T09:49:18.525Z</time></trkpt><trkpt lat="42.7494949" lon="10.2800983"><ele>287.0</ele><time>2026-04-18T09:49:19.526Z</time></trkpt><trkpt lat="42.7496115" lon="10.2800891"><ele>287.0</ele><time>2026-04-18T09:49:20.53Z</time></trkpt><trkpt lat="42.7497222" lon="10.2800911"><ele>287.0</ele><time>2026-04-18T09:49:21.532Z</time></trkpt><trkpt lat="42.7498231" lon="10.2800958"><ele>287.0</ele><time>2026-04-18T09:49:22.541Z</time></trkpt><trkpt lat="42.74992" lon="10.2800933"><ele>287.0</ele><time>2026-04-18T09:49:23.532Z</time></trkpt><trkpt lat="42.7500245" lon="10.2800824"><ele>287.0</ele><time>2026-04-18T09:49:24.527Z</time></trkpt><trkpt lat="42.7501269" lon="10.2800463"><ele>287.0</ele><time>2026-04-18T09:49:25.524Z</time></trkpt><trkpt lat="42.7502252" lon="10.2799967"><ele>287.0</ele><time>2026-04-18T09:49:26.528Z</time></trkpt><trkpt lat="42.7503105" lon="10.2799321"><ele>287.0</ele><time>2026-04-18T09:49:27.527Z</time></trkpt><trkpt lat="42.7503848" lon="10.2798674"><ele>288.1666666666667</ele><time>2026-04-18T09:49:28.527Z</time></trkpt><trkpt lat="42.7504494" lon="10.2798246"><ele>289.33333333333337</ele><time>2026-04-18T09:49:29.527Z</time></trkpt><trkpt lat="42.7505277" lon="10.2798259"><ele>290.5</ele><time>2026-04-18T09:49:30.531Z</time></trkpt><trkpt lat="42.7506167" lon="10.2798432"><ele>291.6666666666667</ele><time>2026-04-18T09:49:31.522Z</time></trkpt><trkpt lat="42.7507152" lon="10.2798517"><ele>292.8333333333333</ele><time>2026-04-18T09:49:32.537Z</time></trkpt><trkpt lat="42.7508067" lon="10.2798284"><ele>294.0</ele><time>2026-04-18T09:49:33.529Z</time></trkpt><trkpt lat="42.7508894" lon="10.279759"><ele>294.0</ele><time>2026-04-18T09:49:34.529Z</time></trkpt><trkpt lat="42.7509503" lon="10.2796504"><ele>294.0</ele><time>2026-04-18T09:49:35.531Z</time></trkpt><trkpt lat="42.7509785" lon="10.2795076"><ele>294.0</ele><time>2026-04-18T09:49:36.528Z</time></trkpt><trkpt lat="42.7509887" lon="10.2793457"><ele>294.0</ele><time>2026-04-18T09:49:37.527Z</time></trkpt><trkpt lat="42.751017" lon="10.27921"><ele>294.0</ele><time>2026-04-18T09:49:38.529Z</time></trkpt><trkpt lat="42.7510521" lon="10.2790884"><ele>294.0</ele><time>2026-04-18T09:49:39.522Z</time></trkpt><trkpt lat="42.7510845" lon="10.2789707"><ele>294.0</ele><time>2026-04-18T09:49:40.528Z</time></trkpt><trkpt lat="42.7511058" lon="10.2788571"><ele>294.0</ele><time>2026-04-18T09:49:41.527Z</time></trkpt><trkpt lat="42.7511162" lon="10.2787458"><ele>294.0</ele><time>2026-04-18T09:49:42.52Z</time></trkpt><trkpt lat="42.7511197" lon="10.2786311"><ele>294.0</ele><time>2026-04-18T09:49:43.525Z</time></trkpt><trkpt lat="42.7511138" lon="10.2785122"><ele>294.0</ele><time>2026-04-18T09:49:44.517Z</time></trkpt><trkpt lat="42.7510964" lon="10.2783974"><ele>294.0</ele><time>2026-04-18T09:49:45.524Z</time></trkpt><trkpt lat="42.7510754" lon="10.2783066"><ele>294.0</ele><time>2026-04-18T09:49:46.525Z</time></trkpt><trkpt lat="42.7510311" lon="10.2782438"><ele>294.0</ele><time>2026-04-18T09:49:48.525Z</time></trkpt><trkpt lat="42.75101" lon="10.2780965"><ele>294.0</ele><time>2026-04-18T09:55:22.551Z</time></trkpt><trkpt lat="42.7510156" lon="10.2779283"><ele>294.0</ele><time>2026-04-18T09:55:24.541Z</time></trkpt><trkpt lat="42.7510276" lon="10.2778331"><ele>294.0</ele><time>2026-04-18T09:55:25.537Z</time></trkpt><trkpt lat="42.7510423" lon="10.277732"><ele>294.0</ele><time>2026-04-18T09:55:26.534Z</time></trkpt><trkpt lat="42.7510595" lon="10.2776398"><ele>294.0</ele><time>2026-04-18T09:55:27.536Z</time></trkpt><trkpt lat="42.7510913" lon="10.2774958"><ele>294.0</ele><time>2026-04-18T09:55:29.524Z</time></trkpt><trkpt lat="42.7511278" lon="10.2773502"><ele>294.0</ele><time>2026-04-18T09:55:31.54Z</time></trkpt><trkpt lat="42.7511815" lon="10.2771861"><ele>294.0</ele><time>2026-04-18T09:55:33.534Z</time></trkpt><trkpt lat="42.7512158" lon="10.2770891"><ele>294.0</ele><time>2026-04-18T09:55:34.534Z</time></trkpt><trkpt lat="42.7512456" lon="10.276991"><ele>294.0</ele><time>2026-04-18T09:55:35.528Z</time></trkpt><trkpt lat="42.7512722" lon="10.2768977"><ele>294.0</ele><time>2026-04-18T09:55:36.528Z</time></trkpt><trkpt lat="42.7512959" lon="10.2767998"><ele>294.0</ele><time>2026-04-18T09:55:37.526Z</time></trkpt><trkpt lat="42.7513182" lon="10.2766989"><ele>294.0</ele><time>2026-04-18T09:55:38.531Z</time></trkpt><trkpt lat="42.751343" lon="10.2766079"><ele>294.0</ele><time>2026-04-18T09:55:39.526Z</time></trkpt><trkpt lat="42.7513676" lon="10.2765222"><ele>294.0</ele><time>2026-04-18T09:55:40.527Z</time></trkpt><trkpt lat="42.7513924" lon="10.2764385"><ele>292.0</ele><time>2026-04-18T09:55:41.525Z</time></trkpt><trkpt lat="42.7514166" lon="10.2763569"><ele>290.0</ele><time>2026-04-18T09:55:42.524Z</time></trkpt><trkpt lat="42.7514426" lon="10.2762772"><ele>288.0</ele><time>2026-04-18T09:55:43.528Z</time></trkpt><trkpt lat="42.7514756" lon="10.2761952"><ele>286.0</ele><time>2026-04-18T09:55:44.522Z</time></trkpt><trkpt lat="42.751538" lon="10.2760524"><ele>284.0</ele><time>2026-04-18T09:55:46.522Z</time></trkpt><trkpt lat="42.7515865" lon="10.2759061"><ele>282.0</ele><time>2026-04-18T09:55:48.524Z</time></trkpt><trkpt lat="42.7516134" lon="10.2758282"><ele>282.0</ele><time>2026-04-18T09:55:49.532Z</time></trkpt><trkpt lat="42.7516693" lon="10.2756694"><ele>282.0</ele><time>2026-04-18T09:55:51.526Z</time></trkpt><trkpt lat="42.7516946" lon="10.2755826"><ele>282.0</ele><time>2026-04-18T09:55:52.531Z</time></trkpt><trkpt lat="42.7517172" lon="10.2754987"><ele>282.0</ele><time>2026-04-18T09:55:53.524Z</time></trkpt><trkpt lat="42.7517377" lon="10.2754031"><ele>282.0</ele><time>2026-04-18T09:55:54.525Z</time></trkpt><trkpt lat="42.7517536" lon="10.2753108"><ele>282.0</ele><time>2026-04-18T09:55:55.525Z</time></trkpt><trkpt lat="42.7517716" lon="10.275215"><ele>282.0</ele><time>2026-04-18T09:55:56.527Z</time></trkpt><trkpt lat="42.7517957" lon="10.2751138"><ele>282.0</ele><time>2026-04-18T09:55:57.521Z</time></trkpt><trkpt lat="42.7518267" lon="10.2750242"><ele>282.0</ele><time>2026-04-18T09:55:58.516Z</time></trkpt><trkpt lat="42.7518627" lon="10.2749536"><ele>282.0</ele><time>2026-04-18T09:55:59.522Z</time></trkpt><trkpt lat="42.751965" lon="10.2748686"><ele>282.0</ele><time>2026-04-18T09:56:01.526Z</time></trkpt><trkpt lat="42.7520271" lon="10.2748441"><ele>282.0</ele><time>2026-04-18T09:56:02.522Z</time></trkpt><trkpt lat="42.7520923" lon="10.2748312"><ele>282.0</ele><time>2026-04-18T09:56:03.523Z</time></trkpt><trkpt lat="42.7521581" lon="10.2748313"><ele>282.0</ele><time>2026-04-18T09:56:04.525Z</time></trkpt><trkpt lat="42.7522236" lon="10.2748354"><ele>282.0</ele><time>2026-04-18T09:56:05.526Z</time></trkpt><trkpt lat="42.7522896" lon="10.2748429"><ele>282.0</ele><time>2026-04-18T09:56:06.522Z</time></trkpt><trkpt lat="42.7524027" lon="10.274811"><ele>282.0</ele><time>2026-04-18T09:56:08.518Z</time></trkpt><trkpt lat="42.7524918" lon="10.2746976"><ele>282.0</ele><time>2026-04-18T09:56:10.515Z</time></trkpt><trkpt lat="42.7525378" lon="10.2746252"><ele>281.5</ele><time>2026-04-18T09:56:11.519Z</time></trkpt><trkpt lat="42.7525898" lon="10.2745545"><ele>281.0</ele><time>2026-04-18T09:56:12.52Z</time></trkpt><trkpt lat="42.752642" lon="10.2744845"><ele>280.5</ele><time>2026-04-18T09:56:13.523Z</time></trkpt><trkpt lat="42.7526961" lon="10.27441"><ele>280.0</ele><time>2026-04-18T09:56:14.518Z</time></trkpt><trkpt lat="42.7527501" lon="10.2743262"><ele>279.5</ele><time>2026-04-18T09:56:15.522Z</time></trkpt><trkpt lat="42.7528014" lon="10.2742476"><ele>279.0</ele><time>2026-04-18T09:56:16.522Z</time></trkpt><trkpt lat="42.7528541" lon="10.2741783"><ele>279.0</ele><time>2026-04-18T09:56:17.519Z</time></trkpt><trkpt lat="42.7529066" lon="10.2741207"><ele>279.0</ele><time>2026-04-18T09:56:18.517Z</time></trkpt><trkpt lat="42.7530181" lon="10.2740523"><ele>279.0</ele><time>2026-04-18T09:56:20.526Z</time></trkpt><trkpt lat="42.7531191" lon="10.2739743"><ele>279.0</ele><time>2026-04-18T09:56:22.526Z</time></trkpt><trkpt lat="42.7531743" lon="10.2738756"><ele>279.0</ele><time>2026-04-18T09:56:24.522Z</time></trkpt><trkpt lat="42.753209" lon="10.2737835"><ele>279.3333333333333</ele><time>2026-04-18T09:56:26.524Z</time></trkpt><trkpt lat="42.753192" lon="10.2736903"><ele>279.6666666666667</ele><time>2026-04-18T09:56:28.52Z</time></trkpt><trkpt lat="42.7531036" lon="10.2735739"><ele>280.0</ele><time>2026-04-18T09:56:30.522Z</time></trkpt><trkpt lat="42.7530439" lon="10.2734961"><ele>280.33333333333337</ele><time>2026-04-18T09:56:31.524Z</time></trkpt><trkpt lat="42.7529857" lon="10.2734196"><ele>280.6666666666667</ele><time>2026-04-18T09:56:32.523Z</time></trkpt><trkpt lat="42.752937" lon="10.2733533"><ele>281.0</ele><time>2026-04-18T09:56:33.522Z</time></trkpt><trkpt lat="42.7528718" lon="10.273241"><ele>281.0</ele><time>2026-04-18T09:56:35.519Z</time></trkpt><trkpt lat="42.7528214" lon="10.273156"><ele>281.0</ele><time>2026-04-18T09:56:38.522Z</time></trkpt><trkpt lat="42.7527755" lon="10.2730932"><ele>281.0</ele><time>2026-04-18T09:56:40.53Z</time></trkpt><trkpt lat="42.7527135" lon="10.2730063"><ele>281.0</ele><time>2026-04-18T09:56:43.525Z</time></trkpt><trkpt lat="42.7526672" lon="10.2729089"><ele>281.0</ele><time>2026-04-18T09:56:46.525Z</time></trkpt><trkpt lat="42.7526466" lon="10.2728103"><ele>281.0</ele><time>2026-04-18T09:56:48.524Z</time></trkpt><trkpt lat="42.7526116" lon="10.2727061"><ele>275.6666666666667</ele><time>2026-04-18T09:56:50.53Z</time></trkpt><trkpt lat="42.7525635" lon="10.2726237"><ele>270.33333333333337</ele><time>2026-04-18T09:56:52.536Z</time></trkpt><trkpt lat="42.7525266" lon="10.2725389"><ele>265.0</ele><time>2026-04-18T09:56:54.532Z</time></trkpt><trkpt lat="42.7524901" lon="10.2724306"><ele>259.6666666666667</ele><time>2026-04-18T09:56:56.525Z</time></trkpt><trkpt lat="42.7524351" lon="10.2722966"><ele>254.33333333333334</ele><time>2026-04-18T09:56:58.53Z</time></trkpt><trkpt lat="42.7524033" lon="10.2722183"><ele>249.0</ele><time>2026-04-18T09:56:59.532Z</time></trkpt><trkpt lat="42.7523668" lon="10.2721401"><ele>249.0</ele><time>2026-04-18T09:57:00.526Z</time></trkpt><trkpt lat="42.7523244" lon="10.2720582"><ele>248.99999999999997</ele><time>2026-04-18T09:57:01.524Z</time></trkpt><trkpt lat="42.7522839" lon="10.2719812"><ele>248.99999999999997</ele><time>2026-04-18T09:57:02.528Z</time></trkpt><trkpt lat="42.7522078" lon="10.2718694"><ele>249.0</ele><time>2026-04-18T09:57:04.539Z</time></trkpt><trkpt lat="42.7521391" lon="10.2717779"><ele>249.0</ele><time>2026-04-18T09:57:06.531Z</time></trkpt><trkpt lat="42.7520675" lon="10.2716644"><ele>249.0</ele><time>2026-04-18T09:57:08.527Z</time></trkpt><trkpt lat="42.7520053" lon="10.2715551"><ele>249.0</ele><time>2026-04-18T09:57:10.527Z</time></trkpt><trkpt lat="42.751969" lon="10.2714445"><ele>249.0</ele><time>2026-04-18T09:57:12.529Z</time></trkpt><trkpt lat="42.7519932" lon="10.271332"><ele>249.0</ele><time>2026-04-18T09:57:16.546Z</time></trkpt><trkpt lat="42.7520231" lon="10.2712364"><ele>249.0</ele><time>2026-04-18T09:57:18.549Z</time></trkpt><trkpt lat="42.7520583" lon="10.2711227"><ele>249.0</ele><time>2026-04-18T09:57:20.554Z</time></trkpt><trkpt lat="42.7521205" lon="10.2710077"><ele>246.83333333333334</ele><time>2026-04-18T09:57:22.557Z</time></trkpt><trkpt lat="42.7521569" lon="10.2708884"><ele>244.66666666666669</ele><time>2026-04-18T09:57:24.55Z</time></trkpt><trkpt lat="42.7521903" lon="10.2707646"><ele>242.5</ele><time>2026-04-18T09:57:26.544Z</time></trkpt><trkpt lat="42.7522206" lon="10.2706562"><ele>240.33333333333334</ele><time>2026-04-18T09:57:28.534Z</time></trkpt><trkpt lat="42.7522312" lon="10.2705625"><ele>238.16666666666669</ele><time>2026-04-18T09:57:32.542Z</time></trkpt><trkpt lat="42.7521359" lon="10.2705679"><ele>236.0</ele><time>2026-04-18T09:57:36.542Z</time></trkpt><trkpt lat="42.7520581" lon="10.2706385"><ele>236.00000000000003</ele><time>2026-04-18T09:57:38.54Z</time></trkpt><trkpt lat="42.7519895" lon="10.2707435"><ele>236.0</ele><time>2026-04-18T09:57:40.542Z</time></trkpt><trkpt lat="42.7519364" lon="10.270818"><ele>236.0</ele><time>2026-04-18T09:57:42.533Z</time></trkpt><trkpt lat="42.751872" lon="10.2708702"><ele>236.0</ele><time>2026-04-18T09:57:44.533Z</time></trkpt><trkpt lat="42.7518002" lon="10.2708982"><ele>236.00000000000003</ele><time>2026-04-18T09:57:46.54Z</time></trkpt><trkpt lat="42.7516966" lon="10.270897"><ele>236.0</ele><time>2026-04-18T09:57:49.54Z</time></trkpt><trkpt lat="42.7516093" lon="10.2708951"><ele>230.66666666666669</ele><time>2026-04-18T09:57:51.54Z</time></trkpt><trkpt lat="42.7515092" lon="10.2708918"><ele>225.33333333333334</ele><time>2026-04-18T09:57:53.544Z</time></trkpt><trkpt lat="42.7514189" lon="10.2709004"><ele>220.0</ele><time>2026-04-18T09:57:55.544Z</time></trkpt><trkpt lat="42.751342" lon="10.2709353"><ele>214.66666666666669</ele><time>2026-04-18T09:57:57.545Z</time></trkpt><trkpt lat="42.7512688" lon="10.2709879"><ele>209.33333333333334</ele><time>2026-04-18T09:57:59.541Z</time></trkpt><trkpt lat="42.7512001" lon="10.2710299"><ele>204.0</ele><time>2026-04-18T09:58:01.541Z</time></trkpt><trkpt lat="42.7511391" lon="10.2709985"><ele>204.0</ele><time>2026-04-18T09:58:04.541Z</time></trkpt><trkpt lat="42.7511796" lon="10.2708927"><ele>204.0</ele><time>2026-04-18T09:58:07.538Z</time></trkpt><trkpt lat="42.7512336" lon="10.2708177"><ele>204.0</ele><time>2026-04-18T09:58:10.549Z</time></trkpt><trkpt lat="42.7513045" lon="10.2707424"><ele>204.0</ele><time>2026-04-18T09:58:13.545Z</time></trkpt><trkpt lat="42.751369" lon="10.2706803"><ele>204.0</ele><time>2026-04-18T09:58:15.54Z</time></trkpt><trkpt lat="42.7514264" lon="10.2706401"><ele>204.0</ele><time>2026-04-18T09:58:17.539Z</time></trkpt><trkpt lat="42.7514833" lon="10.2705718"><ele>200.83333333333334</ele><time>2026-04-18T09:58:19.537Z</time></trkpt><trkpt lat="42.7515521" lon="10.2704833"><ele>197.66666666666666</ele><time>2026-04-18T09:58:21.534Z</time></trkpt><trkpt lat="42.7516115" lon="10.2703967"><ele>194.5</ele><time>2026-04-18T09:58:23.53Z</time></trkpt><trkpt lat="42.7516335" lon="10.2702763"><ele>191.33333333333331</ele><time>2026-04-18T09:58:25.534Z</time></trkpt><trkpt lat="42.7516413" lon="10.2701789"><ele>188.16666666666666</ele><time>2026-04-18T09:58:27.549Z</time></trkpt><trkpt lat="42.7516632" lon="10.2700938"><ele>185.0</ele><time>2026-04-18T09:58:29.538Z</time></trkpt><trkpt lat="42.7517297" lon="10.2700086"><ele>185.0</ele><time>2026-04-18T09:58:31.545Z</time></trkpt><trkpt lat="42.751787" lon="10.2699716"><ele>185.0</ele><time>2026-04-18T09:58:32.53Z</time></trkpt><trkpt lat="42.7518702" lon="10.2698992"><ele>185.0</ele><time>2026-04-18T09:58:34.532Z</time></trkpt><trkpt lat="42.7518864" lon="10.2698044"><ele>185.0</ele><time>2026-04-18T09:58:36.537Z</time></trkpt><trkpt lat="42.7518644" lon="10.2696926"><ele>185.0</ele><time>2026-04-18T09:58:38.533Z</time></trkpt><trkpt lat="42.7518059" lon="10.2695792"><ele>185.0</ele><time>2026-04-18T09:58:40.539Z</time></trkpt><trkpt lat="42.751769" lon="10.2694646"><ele>184.5</ele><time>2026-04-18T09:58:42.548Z</time></trkpt><trkpt lat="42.751756" lon="10.2693704"><ele>184.0</ele><time>2026-04-18T09:58:44.538Z</time></trkpt><trkpt lat="42.7517253" lon="10.2692224"><ele>183.5</ele><time>2026-04-18T09:58:46.546Z</time></trkpt><trkpt lat="42.7517066" lon="10.2691215"><ele>183.0</ele><time>2026-04-18T09:58:47.544Z</time></trkpt><trkpt lat="42.7516949" lon="10.269024"><ele>182.5</ele><time>2026-04-18T09:58:48.554Z</time></trkpt><trkpt lat="42.7516739" lon="10.2689107"><ele>182.0</ele><time>2026-04-18T09:58:50.539Z</time></trkpt><trkpt lat="42.7516046" lon="10.2688523"><ele>185.39999999999998</ele><time>2026-04-18T09:58:53.537Z</time></trkpt><trkpt lat="42.7514803" lon="10.2688159"><ele>188.79999999999998</ele><time>2026-04-18T09:58:55.548Z</time></trkpt><trkpt lat="42.7513698" lon="10.2687743"><ele>192.2</ele><time>2026-04-18T09:58:57.542Z</time></trkpt><trkpt lat="42.7512932" lon="10.2687299"><ele>195.6</ele><time>2026-04-18T09:58:59.545Z</time></trkpt><trkpt lat="42.7512267" lon="10.2686754"><ele>199.0</ele><time>2026-04-18T09:59:01.548Z</time></trkpt><trkpt lat="42.7511548" lon="10.2685948"><ele>198.99999999999997</ele><time>2026-04-18T09:59:03.546Z</time></trkpt><trkpt lat="42.7510985" lon="10.2684941"><ele>199.0</ele><time>2026-04-18T09:59:05.545Z</time></trkpt><trkpt lat="42.7510679" lon="10.2684141"><ele>199.0</ele><time>2026-04-18T09:59:07.546Z</time></trkpt><trkpt lat="42.751035" lon="10.2683175"><ele>199.0</ele><time>2026-04-18T09:59:10.546Z</time></trkpt><trkpt lat="42.7510047" lon="10.2682258"><ele>198.99999999999997</ele><time>2026-04-18T09:59:12.544Z</time></trkpt><trkpt lat="42.7509554" lon="10.2681453"><ele>199.0</ele><time>2026-04-18T09:59:14.536Z</time></trkpt><trkpt lat="42.750904" lon="10.2682202"><ele>190.2</ele><time>2026-04-18T09:59:19.549Z</time></trkpt><trkpt lat="42.7509061" lon="10.2684095"><ele>181.39999999999998</ele><time>2026-04-18T09:59:21.545Z</time></trkpt><trkpt lat="42.7509083" lon="10.2685319"><ele>172.6</ele><time>2026-04-18T09:59:22.551Z</time></trkpt><trkpt lat="42.7509162" lon="10.2686409"><ele>163.8</ele><time>2026-04-18T09:59:23.547Z</time></trkpt><trkpt lat="42.7509368" lon="10.2687431"><ele>155.0</ele><time>2026-04-18T09:59:24.556Z</time></trkpt><trkpt lat="42.7509654" lon="10.2688406"><ele>152.83333333333331</ele><time>2026-04-18T09:59:25.546Z</time></trkpt><trkpt lat="42.7509993" lon="10.2689441"><ele>150.66666666666666</ele><time>2026-04-18T09:59:26.552Z</time></trkpt><trkpt lat="42.7510426" lon="10.2690533"><ele>148.5</ele><time>2026-04-18T09:59:27.549Z</time></trkpt><trkpt lat="42.7510859" lon="10.2691538"><ele>146.33333333333334</ele><time>2026-04-18T09:59:28.549Z</time></trkpt><trkpt lat="42.7511229" lon="10.2692432"><ele>144.16666666666669</ele><time>2026-04-18T09:59:29.545Z</time></trkpt><trkpt lat="42.7511495" lon="10.2693253"><ele>142.0</ele><time>2026-04-18T09:59:30.547Z</time></trkpt><trkpt lat="42.7511398" lon="10.269439"><ele>142.0</ele><time>2026-04-18T09:59:32.538Z</time></trkpt><trkpt lat="42.7510762" lon="10.2694024"><ele>142.0</ele><time>2026-04-18T09:59:39.543Z</time></trkpt><trkpt lat="42.7510164" lon="10.2692592"><ele>142.0</ele><time>2026-04-18T09:59:41.546Z</time></trkpt><trkpt lat="42.7509732" lon="10.2691844"><ele>142.0</ele><time>2026-04-18T09:59:42.544Z</time></trkpt><trkpt lat="42.7509254" lon="10.2691177"><ele>142.0</ele><time>2026-04-18T09:59:43.534Z</time></trkpt><trkpt lat="42.7508763" lon="10.2690468"><ele>142.0</ele><time>2026-04-18T09:59:44.542Z</time></trkpt><trkpt lat="42.7508235" lon="10.2689658"><ele>144.6</ele><time>2026-04-18T09:59:45.542Z</time></trkpt><trkpt lat="42.750778" lon="10.2688836"><ele>147.2</ele><time>2026-04-18T09:59:46.54Z</time></trkpt><trkpt lat="42.7507131" lon="10.2687684"><ele>149.8</ele><time>2026-04-18T09:59:48.544Z</time></trkpt><trkpt lat="42.7506475" lon="10.2686771"><ele>152.4</ele><time>2026-04-18T09:59:50.544Z</time></trkpt><trkpt lat="42.7505845" lon="10.2685863"><ele>155.0</ele><time>2026-04-18T09:59:52.552Z</time></trkpt><trkpt lat="42.7505335" lon="10.2684739"><ele>155.0</ele><time>2026-04-18T09:59:54.547Z</time></trkpt><trkpt lat="42.750485" lon="10.2683242"><ele>155.0</ele><time>2026-04-18T09:59:56.539Z</time></trkpt><trkpt lat="42.7504195" lon="10.2681965"><ele>155.0</ele><time>2026-04-18T09:59:58.538Z</time></trkpt><trkpt lat="42.7503714" lon="10.2681009"><ele>155.0</ele><time>2026-04-18T10:00:00.536Z</time></trkpt><trkpt lat="42.7503394" lon="10.2679936"><ele>155.0</ele><time>2026-04-18T10:00:03.535Z</time></trkpt><trkpt lat="42.7502857" lon="10.2679224"><ele>158.33333333333331</ele><time>2026-04-18T10:00:05.537Z</time></trkpt><trkpt lat="42.7502187" lon="10.2678711"><ele>161.66666666666666</ele><time>2026-04-18T10:00:07.542Z</time></trkpt><trkpt lat="42.7501487" lon="10.2678425"><ele>165.0</ele><time>2026-04-18T10:00:09.534Z</time></trkpt><trkpt lat="42.7500834" lon="10.2678017"><ele>168.33333333333334</ele><time>2026-04-18T10:00:11.538Z</time></trkpt><trkpt lat="42.7500268" lon="10.2677297"><ele>171.66666666666669</ele><time>2026-04-18T10:00:13.534Z</time></trkpt><trkpt lat="42.7499439" lon="10.2676545"><ele>175.0</ele><time>2026-04-18T10:00:15.535Z</time></trkpt><trkpt lat="42.7498636" lon="10.2675668"><ele>169.33333333333334</ele><time>2026-04-18T10:00:17.534Z</time></trkpt><trkpt lat="42.7498049" lon="10.267501"><ele>163.66666666666669</ele><time>2026-04-18T10:00:19.534Z</time></trkpt><trkpt lat="42.7497694" lon="10.2674236"><ele>158.0</ele><time>2026-04-18T10:00:21.544Z</time></trkpt><trkpt lat="42.7497161" lon="10.2673592"><ele>152.33333333333334</ele><time>2026-04-18T10:00:23.532Z</time></trkpt><trkpt lat="42.7496234" lon="10.2673029"><ele>146.66666666666666</ele><time>2026-04-18T10:00:25.532Z</time></trkpt><trkpt lat="42.7495214" lon="10.2672415"><ele>141.0</ele><time>2026-04-18T10:00:27.536Z</time></trkpt><trkpt lat="42.7494757" lon="10.2671805"><ele>141.0</ele><time>2026-04-18T10:00:28.531Z</time></trkpt><trkpt lat="42.7494359" lon="10.267112"><ele>141.0</ele><time>2026-04-18T10:00:29.54Z</time></trkpt><trkpt lat="42.7493904" lon="10.2669801"><ele>141.0</ele><time>2026-04-18T10:00:31.536Z</time></trkpt><trkpt lat="42.7493834" lon="10.2668711"><ele>141.0</ele><time>2026-04-18T10:00:33.537Z</time></trkpt><trkpt lat="42.7493921" lon="10.2667511"><ele>141.0</ele><time>2026-04-18T10:00:35.526Z</time></trkpt><trkpt lat="42.7493825" lon="10.2665928"><ele>132.8</ele><time>2026-04-18T10:00:37.531Z</time></trkpt><trkpt lat="42.7493732" lon="10.2664773"><ele>124.6</ele><time>2026-04-18T10:00:38.532Z</time></trkpt><trkpt lat="42.7493629" lon="10.2663356"><ele>116.4</ele><time>2026-04-18T10:00:39.528Z</time></trkpt><trkpt lat="42.7493602" lon="10.2661972"><ele>108.2</ele><time>2026-04-18T10:00:40.531Z</time></trkpt><trkpt lat="42.7493649" lon="10.2660778"><ele>100.0</ele><time>2026-04-18T10:00:41.536Z</time></trkpt><trkpt lat="42.7493721" lon="10.2659791"><ele>100.00000000000001</ele><time>2026-04-18T10:00:42.524Z</time></trkpt><trkpt lat="42.7494063" lon="10.2658437"><ele>100.0</ele><time>2026-04-18T10:00:44.535Z</time></trkpt><trkpt lat="42.7494262" lon="10.265736"><ele>100.0</ele><time>2026-04-18T10:00:47.53Z</time></trkpt><trkpt lat="42.7493754" lon="10.2656804"><ele>100.0</ele><time>2026-04-18T10:00:49.524Z</time></trkpt><trkpt lat="42.7492868" lon="10.2657094"><ele>100.00000000000001</ele><time>2026-04-18T10:00:51.525Z</time></trkpt><trkpt lat="42.7492278" lon="10.2657412"><ele>100.0</ele><time>2026-04-18T10:00:52.533Z</time></trkpt><trkpt lat="42.7491051" lon="10.2657294"><ele>100.0</ele><time>2026-04-18T10:00:54.526Z</time></trkpt><trkpt lat="42.7490138" lon="10.2656569"><ele>100.0</ele><time>2026-04-18T10:00:56.53Z</time></trkpt><trkpt lat="42.7489673" lon="10.2655493"><ele>100.0</ele><time>2026-04-18T10:00:58.526Z</time></trkpt><trkpt lat="42.7489228" lon="10.2654418"><ele>100.0</ele><time>2026-04-18T10:01:00.524Z</time></trkpt><trkpt lat="42.7488746" lon="10.2653235"><ele>100.0</ele><time>2026-04-18T10:01:02.521Z</time></trkpt><trkpt lat="42.7488304" lon="10.265231"><ele>102.66666666666667</ele><time>2026-04-18T10:01:04.52Z</time></trkpt><trkpt lat="42.7487956" lon="10.2651543"><ele>105.33333333333334</ele><time>2026-04-18T10:01:06.512Z</time></trkpt><trkpt lat="42.7487316" lon="10.265107"><ele>108.0</ele><time>2026-04-18T10:01:08.51Z</time></trkpt><trkpt lat="42.7486214" lon="10.2650962"><ele>110.66666666666666</ele><time>2026-04-18T10:01:10.521Z</time></trkpt><trkpt lat="42.7485376" lon="10.2650617"><ele>113.33333333333333</ele><time>2026-04-18T10:01:12.515Z</time></trkpt><trkpt lat="42.7484723" lon="10.2649993"><ele>116.0</ele><time>2026-04-18T10:01:14.512Z</time></trkpt><trkpt lat="42.7484267" lon="10.2649221"><ele>111.4</ele><time>2026-04-18T10:01:16.523Z</time></trkpt><trkpt lat="42.7483844" lon="10.2648274"><ele>106.8</ele><time>2026-04-18T10:01:18.522Z</time></trkpt><trkpt lat="42.7483193" lon="10.2647022"><ele>102.2</ele><time>2026-04-18T10:01:20.523Z</time></trkpt><trkpt lat="42.7482602" lon="10.264603"><ele>97.60000000000001</ele><time>2026-04-18T10:01:21.518Z</time></trkpt><trkpt lat="42.7482013" lon="10.2645087"><ele>93.0</ele><time>2026-04-18T10:01:22.539Z</time></trkpt><trkpt lat="42.7481568" lon="10.2644159"><ele>93.0</ele><time>2026-04-18T10:01:23.529Z</time></trkpt><trkpt lat="42.7481293" lon="10.2643043"><ele>93.0</ele><time>2026-04-18T10:01:24.523Z</time></trkpt><trkpt lat="42.7481078" lon="10.2642023"><ele>93.0</ele><time>2026-04-18T10:01:25.521Z</time></trkpt><trkpt lat="42.7481143" lon="10.2641161"><ele>93.0</ele><time>2026-04-18T10:01:30.524Z</time></trkpt><trkpt lat="42.7481356" lon="10.2640205"><ele>93.0</ele><time>2026-04-18T10:04:11.521Z</time></trkpt><trkpt lat="42.7481456" lon="10.2638687"><ele>93.0</ele><time>2026-04-18T10:04:13.527Z</time></trkpt><trkpt lat="42.7481718" lon="10.2637604"><ele>94.2</ele><time>2026-04-18T10:04:14.528Z</time></trkpt><trkpt lat="42.7482069" lon="10.2636423"><ele>95.4</ele><time>2026-04-18T10:04:15.513Z</time></trkpt><trkpt lat="42.7482414" lon="10.2635182"><ele>96.60000000000001</ele><time>2026-04-18T10:04:16.517Z</time></trkpt><trkpt lat="42.7482536" lon="10.2634068"><ele>97.80000000000001</ele><time>2026-04-18T10:04:17.534Z</time></trkpt><trkpt lat="42.7482202" lon="10.2633069"><ele>99.0</ele><time>2026-04-18T10:04:18.532Z</time></trkpt><trkpt lat="42.7481439" lon="10.2632181"><ele>99.0</ele><time>2026-04-18T10:04:19.523Z</time></trkpt><trkpt lat="42.748055" lon="10.2631427"><ele>99.0</ele><time>2026-04-18T10:04:20.531Z</time></trkpt><trkpt lat="42.747972" lon="10.2630914"><ele>99.0</ele><time>2026-04-18T10:04:21.527Z</time></trkpt><trkpt lat="42.747898" lon="10.2630595"><ele>99.0</ele><time>2026-04-18T10:04:22.539Z</time></trkpt><trkpt lat="42.7478268" lon="10.2630329"><ele>99.0</ele><time>2026-04-18T10:04:23.533Z</time></trkpt><trkpt lat="42.7477562" lon="10.2630046"><ele>99.0</ele><time>2026-04-18T10:04:24.526Z</time></trkpt><trkpt lat="42.7476911" lon="10.2629706"><ele>94.83333333333333</ele><time>2026-04-18T10:04:25.523Z</time></trkpt><trkpt lat="42.7476308" lon="10.2629235"><ele>90.66666666666667</ele><time>2026-04-18T10:04:26.531Z</time></trkpt><trkpt lat="42.7475839" lon="10.2628575"><ele>86.5</ele><time>2026-04-18T10:04:27.532Z</time></trkpt><trkpt lat="42.7475453" lon="10.2627699"><ele>82.33333333333334</ele><time>2026-04-18T10:04:28.532Z</time></trkpt><trkpt lat="42.7475193" lon="10.2626731"><ele>78.16666666666667</ele><time>2026-04-18T10:04:29.521Z</time></trkpt><trkpt lat="42.7475069" lon="10.2625632"><ele>74.0</ele><time>2026-04-18T10:04:30.528Z</time></trkpt><trkpt lat="42.7475077" lon="10.2624497"><ele>74.0</ele><time>2026-04-18T10:04:31.52Z</time></trkpt><trkpt lat="42.7475205" lon="10.2623348"><ele>74.0</ele><time>2026-04-18T10:04:32.529Z</time></trkpt><trkpt lat="42.7475471" lon="10.2622257"><ele>74.0</ele><time>2026-04-18T10:04:33.516Z</time></trkpt><trkpt lat="42.7475871" lon="10.2621187"><ele>74.0</ele><time>2026-04-18T10:04:34.517Z</time></trkpt><trkpt lat="42.7476315" lon="10.262012"><ele>74.0</ele><time>2026-04-18T10:04:35.525Z</time></trkpt><trkpt lat="42.7476799" lon="10.26192"><ele>74.0</ele><time>2026-04-18T10:04:36.507Z</time></trkpt><trkpt lat="42.7477302" lon="10.2618263"><ele>78.6</ele><time>2026-04-18T10:04:37.511Z</time></trkpt><trkpt lat="42.7477984" lon="10.2617512"><ele>83.2</ele><time>2026-04-18T10:04:38.516Z</time></trkpt><trkpt lat="42.7478932" lon="10.2616882"><ele>87.8</ele><time>2026-04-18T10:04:39.522Z</time></trkpt><trkpt lat="42.7479958" lon="10.2616308"><ele>92.39999999999999</ele><time>2026-04-18T10:04:40.517Z</time></trkpt><trkpt lat="42.7480628" lon="10.2615793"><ele>97.0</ele><time>2026-04-18T10:04:41.523Z</time></trkpt><trkpt lat="42.7481134" lon="10.261515"><ele>97.8</ele><time>2026-04-18T10:04:42.528Z</time></trkpt><trkpt lat="42.7481764" lon="10.2614444"><ele>98.6</ele><time>2026-04-18T10:04:43.525Z</time></trkpt><trkpt lat="42.7482007" lon="10.2613581"><ele>99.39999999999999</ele><time>2026-04-18T10:04:44.528Z</time></trkpt><trkpt lat="42.748154" lon="10.2612432"><ele>100.19999999999999</ele><time>2026-04-18T10:04:45.534Z</time></trkpt><trkpt lat="42.7480406" lon="10.2611342"><ele>101.0</ele><time>2026-04-18T10:04:46.526Z</time></trkpt><trkpt lat="42.747917" lon="10.2610462"><ele>101.0</ele><time>2026-04-18T10:04:47.537Z</time></trkpt><trkpt lat="42.7477658" lon="10.260961"><ele>101.0</ele><time>2026-04-18T10:04:48.536Z</time></trkpt><trkpt lat="42.7476432" lon="10.2609053"><ele>101.0</ele><time>2026-04-18T10:04:49.544Z</time></trkpt><trkpt lat="42.7475294" lon="10.2608779"><ele>101.0</ele><time>2026-04-18T10:04:50.539Z</time></trkpt><trkpt lat="42.7473969" lon="10.2608572"><ele>95.0</ele><time>2026-04-18T10:04:51.516Z</time></trkpt><trkpt lat="42.7472361" lon="10.2608371"><ele>89.0</ele><time>2026-04-18T10:04:52.524Z</time></trkpt><trkpt lat="42.7470701" lon="10.2608302"><ele>83.0</ele><time>2026-04-18T10:04:53.518Z</time></trkpt><trkpt lat="42.7469149" lon="10.2608602"><ele>82.25</ele><time>2026-04-18T10:04:54.515Z</time></trkpt><trkpt lat="42.7467696" lon="10.2609079"><ele>81.5</ele><time>2026-04-18T10:04:55.527Z</time></trkpt><trkpt lat="42.7466563" lon="10.2609608"><ele>80.75</ele><time>2026-04-18T10:04:56.518Z</time></trkpt><trkpt lat="42.746565" lon="10.2610054"><ele>80.0</ele><time>2026-04-18T10:04:57.528Z</time></trkpt><trkpt lat="42.7464862" lon="10.261059"><ele>80.0</ele><time>2026-04-18T10:04:59.516Z</time></trkpt><trkpt lat="42.7466" lon="10.2610636"><ele>80.0</ele><time>2026-04-18T10:05:02.521Z</time></trkpt><trkpt lat="42.7466876" lon="10.261027"><ele>80.0</ele><time>2026-04-18T10:05:03.511Z</time></trkpt><trkpt lat="42.7467856" lon="10.2609288"><ele>80.0</ele><time>2026-04-18T10:05:04.514Z</time></trkpt><trkpt lat="42.7468872" lon="10.2607865"><ele>80.75</ele><time>2026-04-18T10:05:05.514Z</time></trkpt><trkpt lat="42.746982" lon="10.2606408"><ele>81.5</ele><time>2026-04-18T10:05:06.518Z</time></trkpt><trkpt lat="42.7470594" lon="10.2605086"><ele>82.25</ele><time>2026-04-18T10:05:07.516Z</time></trkpt><trkpt lat="42.7471326" lon="10.2603723"><ele>83.0</ele><time>2026-04-18T10:05:08.519Z</time></trkpt><trkpt lat="42.7471992" lon="10.2602082"><ele>87.5</ele><time>2026-04-18T10:05:09.522Z</time></trkpt><trkpt lat="42.7472469" lon="10.2600305"><ele>92.0</ele><time>2026-04-18T10:05:10.516Z</time></trkpt><trkpt lat="42.7472688" lon="10.2598764"><ele>96.5</ele><time>2026-04-18T10:05:11.514Z</time></trkpt><trkpt lat="42.747283" lon="10.2597314"><ele>101.0</ele><time>2026-04-18T10:05:12.516Z</time></trkpt><trkpt lat="42.7472988" lon="10.2595785"><ele>101.75</ele><time>2026-04-18T10:05:13.509Z</time></trkpt><trkpt lat="42.7473168" lon="10.2594233"><ele>102.5</ele><time>2026-04-18T10:05:14.524Z</time></trkpt><trkpt lat="42.7473402" lon="10.2592663"><ele>103.25</ele><time>2026-04-18T10:05:15.52Z</time></trkpt><trkpt lat="42.7473681" lon="10.2591081"><ele>104.0</ele><time>2026-04-18T10:05:16.519Z</time></trkpt><trkpt lat="42.7474086" lon="10.2589581"><ele>103.25</ele><time>2026-04-18T10:05:17.516Z</time></trkpt><trkpt lat="42.7474471" lon="10.2588106"><ele>102.5</ele><time>2026-04-18T10:05:18.516Z</time></trkpt><trkpt lat="42.7474633" lon="10.2586602"><ele>101.75</ele><time>2026-04-18T10:05:19.527Z</time></trkpt><trkpt lat="42.7474493" lon="10.2584935"><ele>101.0</ele><time>2026-04-18T10:05:20.517Z</time></trkpt><trkpt lat="42.7474313" lon="10.2583178"><ele>101.0</ele><time>2026-04-18T10:05:21.514Z</time></trkpt><trkpt lat="42.7474242" lon="10.2581659"><ele>101.0</ele><time>2026-04-18T10:05:22.526Z</time></trkpt><trkpt lat="42.7474413" lon="10.2580623"><ele>101.0</ele><time>2026-04-18T10:05:23.522Z</time></trkpt><trkpt lat="42.7474879" lon="10.2580027"><ele>101.0</ele><time>2026-04-18T10:05:24.528Z</time></trkpt><trkpt lat="42.7475712" lon="10.2579662"><ele>101.0</ele><time>2026-04-18T10:05:25.521Z</time></trkpt><trkpt lat="42.7476894" lon="10.2579201"><ele>100.33333333333333</ele><time>2026-04-18T10:05:26.52Z</time></trkpt><trkpt lat="42.7478243" lon="10.2578388"><ele>99.66666666666666</ele><time>2026-04-18T10:05:27.514Z</time></trkpt><trkpt lat="42.7479639" lon="10.2577268"><ele>99.0</ele><time>2026-04-18T10:05:28.512Z</time></trkpt><trkpt lat="42.7480952" lon="10.2576151"><ele>99.0</ele><time>2026-04-18T10:05:29.509Z</time></trkpt><trkpt lat="42.7482082" lon="10.2575395"><ele>99.0</ele><time>2026-04-18T10:05:30.518Z</time></trkpt><trkpt lat="42.7483082" lon="10.2575348"><ele>99.0</ele><time>2026-04-18T10:05:31.51Z</time></trkpt><trkpt lat="42.7484344" lon="10.2575553"><ele>99.0</ele><time>2026-04-18T10:05:32.513Z</time></trkpt><trkpt lat="42.7485808" lon="10.2575527"><ele>101.2</ele><time>2026-04-18T10:05:33.514Z</time></trkpt><trkpt lat="42.7487153" lon="10.2575199"><ele>103.4</ele><time>2026-04-18T10:05:34.512Z</time></trkpt><trkpt lat="42.7488178" lon="10.2574903"><ele>105.6</ele><time>2026-04-18T10:05:35.511Z</time></trkpt><trkpt lat="42.7488854" lon="10.2574289"><ele>107.8</ele><time>2026-04-18T10:05:36.512Z</time></trkpt><trkpt lat="42.7489349" lon="10.2573285"><ele>110.0</ele><time>2026-04-18T10:05:37.513Z</time></trkpt><trkpt lat="42.7489714" lon="10.2571953"><ele>110.0</ele><time>2026-04-18T10:05:38.517Z</time></trkpt><trkpt lat="42.7489957" lon="10.2570266"><ele>110.0</ele><time>2026-04-18T10:05:39.519Z</time></trkpt><trkpt lat="42.7489994" lon="10.2568205"><ele>110.0</ele><time>2026-04-18T10:05:40.522Z</time></trkpt><trkpt lat="42.7489819" lon="10.2565903"><ele>110.0</ele><time>2026-04-18T10:05:41.518Z</time></trkpt><trkpt lat="42.7489518" lon="10.2563341"><ele>109.33333333333333</ele><time>2026-04-18T10:05:42.519Z</time></trkpt><trkpt lat="42.7489337" lon="10.2560866"><ele>108.66666666666666</ele><time>2026-04-18T10:05:43.516Z</time></trkpt><trkpt lat="42.7489256" lon="10.255843"><ele>108.0</ele><time>2026-04-18T10:05:44.526Z</time></trkpt><trkpt lat="42.7489292" lon="10.2556552"><ele>107.0</ele><time>2026-04-18T10:05:45.531Z</time></trkpt><trkpt lat="42.7489283" lon="10.2555079"><ele>106.00000000000001</ele><time>2026-04-18T10:05:46.524Z</time></trkpt><trkpt lat="42.7489283" lon="10.2553764"><ele>105.0</ele><time>2026-04-18T10:05:47.522Z</time></trkpt><trkpt lat="42.7489452" lon="10.2552762"><ele>104.0</ele><time>2026-04-18T10:05:48.523Z</time></trkpt><trkpt lat="42.7490524" lon="10.2551703"><ele>103.0</ele><time>2026-04-18T10:05:50.525Z</time></trkpt><trkpt lat="42.7491263" lon="10.2551315"><ele>103.00000000000001</ele><time>2026-04-18T10:05:51.526Z</time></trkpt><trkpt lat="42.7491811" lon="10.2550803"><ele>103.0</ele><time>2026-04-18T10:05:52.533Z</time></trkpt><trkpt lat="42.7492168" lon="10.2549968"><ele>103.0</ele><time>2026-04-18T10:05:53.533Z</time></trkpt><trkpt lat="42.7492337" lon="10.2548844"><ele>103.0</ele><time>2026-04-18T10:05:54.528Z</time></trkpt><trkpt lat="42.7492365" lon="10.254755"><ele>103.00000000000001</ele><time>2026-04-18T10:05:55.524Z</time></trkpt><trkpt lat="42.7492277" lon="10.2546138"><ele>103.0</ele><time>2026-04-18T10:05:56.523Z</time></trkpt><trkpt lat="42.7492117" lon="10.2544719"><ele>103.16666666666667</ele><time>2026-04-18T10:05:57.527Z</time></trkpt><trkpt lat="42.749194" lon="10.2543385"><ele>103.33333333333334</ele><time>2026-04-18T10:05:58.53Z</time></trkpt><trkpt lat="42.7491839" lon="10.2542153"><ele>103.5</ele><time>2026-04-18T10:05:59.522Z</time></trkpt><trkpt lat="42.7491808" lon="10.254099"><ele>103.66666666666666</ele><time>2026-04-18T10:06:00.524Z</time></trkpt><trkpt lat="42.7491858" lon="10.2539847"><ele>103.83333333333333</ele><time>2026-04-18T10:06:01.521Z</time></trkpt><trkpt lat="42.7491895" lon="10.2538737"><ele>104.0</ele><time>2026-04-18T10:06:02.526Z</time></trkpt><trkpt lat="42.7491972" lon="10.2537823"><ele>103.99999999999999</ele><time>2026-04-18T10:06:03.521Z</time></trkpt><trkpt lat="42.7492147" lon="10.2536986"><ele>104.0</ele><time>2026-04-18T10:06:04.52Z</time></trkpt><trkpt lat="42.7492587" lon="10.2536327"><ele>104.0</ele><time>2026-04-18T10:06:05.521Z</time></trkpt><trkpt lat="42.7493193" lon="10.2535826"><ele>104.0</ele><time>2026-04-18T10:06:06.526Z</time></trkpt><trkpt lat="42.7493924" lon="10.2535377"><ele>103.99999999999999</ele><time>2026-04-18T10:06:07.523Z</time></trkpt><trkpt lat="42.7494713" lon="10.2534741"><ele>104.0</ele><time>2026-04-18T10:06:08.525Z</time></trkpt><trkpt lat="42.7495497" lon="10.2533886"><ele>97.8</ele><time>2026-04-18T10:06:09.528Z</time></trkpt><trkpt lat="42.7496252" lon="10.2532878"><ele>91.60000000000001</ele><time>2026-04-18T10:06:10.528Z</time></trkpt><trkpt lat="42.7496922" lon="10.2531799"><ele>85.4</ele><time>2026-04-18T10:06:11.526Z</time></trkpt><trkpt lat="42.7497493" lon="10.2530684"><ele>79.2</ele><time>2026-04-18T10:06:12.524Z</time></trkpt><trkpt lat="42.7498044" lon="10.2529675"><ele>73.0</ele><time>2026-04-18T10:06:13.521Z</time></trkpt><trkpt lat="42.7498636" lon="10.2528749"><ele>73.0</ele><time>2026-04-18T10:06:14.528Z</time></trkpt><trkpt lat="42.7499317" lon="10.2527977"><ele>73.0</ele><time>2026-04-18T10:06:15.527Z</time></trkpt><trkpt lat="42.7500019" lon="10.2527339"><ele>73.0</ele><time>2026-04-18T10:06:16.518Z</time></trkpt><trkpt lat="42.7500689" lon="10.2526728"><ele>73.0</ele><time>2026-04-18T10:06:17.521Z</time></trkpt><trkpt lat="42.750126" lon="10.2525977"><ele>73.0</ele><time>2026-04-18T10:06:18.525Z</time></trkpt><trkpt lat="42.7501666" lon="10.2524996"><ele>73.0</ele><time>2026-04-18T10:06:19.528Z</time></trkpt><trkpt lat="42.7501894" lon="10.2523804"><ele>71.16666666666666</ele><time>2026-04-18T10:06:20.525Z</time></trkpt><trkpt lat="42.7502026" lon="10.2522634"><ele>69.33333333333333</ele><time>2026-04-18T10:06:21.526Z</time></trkpt><trkpt lat="42.7502086" lon="10.2521451"><ele>67.5</ele><time>2026-04-18T10:06:22.53Z</time></trkpt><trkpt lat="42.7502069" lon="10.2520211"><ele>65.66666666666667</ele><time>2026-04-18T10:06:23.526Z</time></trkpt><trkpt lat="42.750197" lon="10.2518984"><ele>63.833333333333336</ele><time>2026-04-18T10:06:24.529Z</time></trkpt><trkpt lat="42.7501777" lon="10.2517828"><ele>62.0</ele><time>2026-04-18T10:06:25.524Z</time></trkpt><trkpt lat="42.7501471" lon="10.2516836"><ele>62.00000000000001</ele><time>2026-04-18T10:06:26.531Z</time></trkpt><trkpt lat="42.7500864" lon="10.2515573"><ele>62.0</ele><time>2026-04-18T10:06:28.522Z</time></trkpt><trkpt lat="42.7501061" lon="10.2514728"><ele>62.0</ele><time>2026-04-18T10:06:30.523Z</time></trkpt><trkpt lat="42.7501881" lon="10.2515572"><ele>62.0</ele><time>2026-04-18T10:06:32.528Z</time></trkpt><trkpt lat="42.7502303" lon="10.2516348"><ele>62.00000000000001</ele><time>2026-04-18T10:06:33.525Z</time></trkpt><trkpt lat="42.7503213" lon="10.2516835"><ele>62.0</ele><time>2026-04-18T10:06:35.533Z</time></trkpt><trkpt lat="42.7503758" lon="10.2515144"><ele>57.66666666666667</ele><time>2026-04-18T10:06:37.528Z</time></trkpt><trkpt lat="42.7503543" lon="10.251394"><ele>53.333333333333336</ele><time>2026-04-18T10:06:38.529Z</time></trkpt><trkpt lat="42.7503044" lon="10.2512889"><ele>49.0</ele><time>2026-04-18T10:06:39.522Z</time></trkpt><trkpt lat="42.7502536" lon="10.2512114"><ele>44.66666666666667</ele><time>2026-04-18T10:06:40.524Z</time></trkpt><trkpt lat="42.7502308" lon="10.2510699"><ele>40.333333333333336</ele><time>2026-04-18T10:06:42.528Z</time></trkpt><trkpt lat="42.7502764" lon="10.2509853"><ele>36.0</ele><time>2026-04-18T10:06:43.524Z</time></trkpt><trkpt lat="42.7503288" lon="10.2508914"><ele>36.0</ele><time>2026-04-18T10:06:44.521Z</time></trkpt><trkpt lat="42.7503785" lon="10.2507905"><ele>36.0</ele><time>2026-04-18T10:06:45.523Z</time></trkpt><trkpt lat="42.7504197" lon="10.2506898"><ele>36.0</ele><time>2026-04-18T10:06:46.522Z</time></trkpt><trkpt lat="42.7504599" lon="10.2505986"><ele>36.0</ele><time>2026-04-18T10:06:47.525Z</time></trkpt><trkpt lat="42.7505092" lon="10.2505337"><ele>36.0</ele><time>2026-04-18T10:06:48.527Z</time></trkpt><trkpt lat="42.7505753" lon="10.250509"><ele>36.0</ele><time>2026-04-18T10:06:49.532Z</time></trkpt><trkpt lat="42.750648" lon="10.2505323"><ele>36.00000000000001</ele><time>2026-04-18T10:06:50.54Z</time></trkpt><trkpt lat="42.7507007" lon="10.2505954"><ele>36.0</ele><time>2026-04-18T10:06:51.529Z</time></trkpt><trkpt lat="42.7507392" lon="10.2506724"><ele>36.0</ele><time>2026-04-18T10:06:52.543Z</time></trkpt><trkpt lat="42.7507728" lon="10.2507449"><ele>36.0</ele><time>2026-04-18T10:06:53.525Z</time></trkpt><trkpt lat="42.7508325" lon="10.2508155"><ele>36.0</ele><time>2026-04-18T10:06:55.529Z</time></trkpt><trkpt lat="42.7508783" lon="10.2507096"><ele>36.00000000000001</ele><time>2026-04-18T10:06:57.526Z</time></trkpt><trkpt lat="42.7508879" lon="10.2506073"><ele>36.0</ele><time>2026-04-18T10:06:58.521Z</time></trkpt><trkpt lat="42.7508935" lon="10.250498"><ele>34.666666666666664</ele><time>2026-04-18T10:06:59.523Z</time></trkpt><trkpt lat="42.750892" lon="10.2503934"><ele>33.333333333333336</ele><time>2026-04-18T10:07:00.528Z</time></trkpt><trkpt lat="42.7508878" lon="10.2502916"><ele>32.0</ele><time>2026-04-18T10:07:01.52Z</time></trkpt><trkpt lat="42.7508857" lon="10.2501822"><ele>30.666666666666668</ele><time>2026-04-18T10:07:02.523Z</time></trkpt><trkpt lat="42.7508784" lon="10.2500697"><ele>29.333333333333336</ele><time>2026-04-18T10:07:03.526Z</time></trkpt><trkpt lat="42.7508621" lon="10.249958"><ele>28.0</ele><time>2026-04-18T10:07:04.526Z</time></trkpt><trkpt lat="42.750841" lon="10.249861"><ele>25.500000000000004</ele><time>2026-04-18T10:07:05.527Z</time></trkpt><trkpt lat="42.7508167" lon="10.2497794"><ele>23.0</ele><time>2026-04-18T10:07:06.533Z</time></trkpt><trkpt lat="42.7508266" lon="10.2496532"><ele>20.5</ele><time>2026-04-18T10:07:08.527Z</time></trkpt><trkpt lat="42.7509251" lon="10.2495797"><ele>18.0</ele><time>2026-04-18T10:07:10.525Z</time></trkpt><trkpt lat="42.7509961" lon="10.2495305"><ele>15.5</ele><time>2026-04-18T10:07:11.524Z</time></trkpt><trkpt lat="42.7510776" lon="10.2494733"><ele>13.0</ele><time>2026-04-18T10:07:12.522Z</time></trkpt><trkpt lat="42.7511641" lon="10.2494017"><ele>11.6</ele><time>2026-04-18T10:07:13.528Z</time></trkpt><trkpt lat="42.7512527" lon="10.2493203"><ele>10.200000000000001</ele><time>2026-04-18T10:07:14.528Z</time></trkpt><trkpt lat="42.7513348" lon="10.2492394"><ele>8.8</ele><time>2026-04-18T10:07:15.531Z</time></trkpt><trkpt lat="42.7514109" lon="10.2491655"><ele>7.4</ele><time>2026-04-18T10:07:16.534Z</time></trkpt><trkpt lat="42.7514826" lon="10.2491079"><ele>6.0</ele><time>2026-04-18T10:07:17.526Z</time></trkpt><trkpt lat="42.7515522" lon="10.2490657"><ele>5.999999999999999</ele><time>2026-04-18T10:07:18.525Z</time></trkpt><trkpt lat="42.7516179" lon="10.2490412"><ele>6.0</ele><time>2026-04-18T10:07:19.532Z</time></trkpt><trkpt lat="42.7516884" lon="10.2490483"><ele>6.0</ele><time>2026-04-18T10:07:20.521Z</time></trkpt><trkpt lat="42.751764" lon="10.2490702"><ele>6.0</ele><time>2026-04-18T10:07:21.532Z</time></trkpt><trkpt lat="42.7518339" lon="10.2491049"><ele>6.0</ele><time>2026-04-18T10:07:22.536Z</time></trkpt><trkpt lat="42.7519028" lon="10.2491419"><ele>5.999999999999999</ele><time>2026-04-18T10:07:23.535Z</time></trkpt><trkpt lat="42.7519696" lon="10.2491391"><ele>6.0</ele><time>2026-04-18T10:07:24.53Z</time></trkpt><trkpt lat="42.7520155" lon="10.2490761"><ele>5.5</ele><time>2026-04-18T10:07:25.527Z</time></trkpt><trkpt lat="42.7520477" lon="10.2489566"><ele>5.0</ele><time>2026-04-18T10:07:26.529Z</time></trkpt><trkpt lat="42.7520731" lon="10.2488284"><ele>4.5</ele><time>2026-04-18T10:07:27.525Z</time></trkpt><trkpt lat="42.7520958" lon="10.2487148"><ele>4.0</ele><time>2026-04-18T10:07:28.524Z</time></trkpt><trkpt lat="42.752118" lon="10.2486142"><ele>3.5</ele><time>2026-04-18T10:07:29.525Z</time></trkpt><trkpt lat="42.7521354" lon="10.2485247"><ele>3.0</ele><time>2026-04-18T10:07:30.525Z</time></trkpt><trkpt lat="42.7521554" lon="10.2484401"><ele>3.0</ele><time>2026-04-18T10:07:31.524Z</time></trkpt><trkpt lat="42.7522584" lon="10.248356"><ele>3.0</ele><time>2026-04-18T10:07:33.529Z</time></trkpt><trkpt lat="42.7534902" lon="10.2481432"><ele>1.0</ele><time>2026-04-18T10:08:05.52Z</time></trkpt><trkpt lat="42.7551077" lon="10.2463481"><ele>-1.0</ele><time>2026-04-18T10:08:34.538Z</time></trkpt><trkpt lat="42.7536535" lon="10.244293"><ele>0.0</ele><time>2026-04-18T10:09:10.536Z</time></trkpt><trkpt lat="42.7554656" lon="10.2429751"><ele>2.0</ele><time>2026-04-18T10:10:28.539Z</time></trkpt><trkpt lat="42.7574282" lon="10.2421488"><ele>3.0</ele><time>2026-04-18T10:10:56.536Z</time></trkpt><trkpt lat="42.7594094" lon="10.2413185"><ele>4.0</ele><time>2026-04-18T10:11:20.54Z</time></trkpt><trkpt lat="42.7613885" lon="10.2404392"><ele>5.0</ele><time>2026-04-18T10:11:42.536Z</time></trkpt><trkpt lat="42.7634379" lon="10.2398551"><ele>8.0</ele><time>2026-04-18T10:12:12.535Z</time></trkpt><trkpt lat="42.7654917" lon="10.2394602"><ele>11.0</ele><time>2026-04-18T10:12:34.537Z</time></trkpt><trkpt lat="42.7681792" lon="10.239077"><ele>13.0</ele><time>2026-04-18T10:13:05.527Z</time></trkpt><trkpt lat="42.7695711" lon="10.2386626"><ele>17.0</ele><time>2026-04-18T10:13:29.54Z</time></trkpt><trkpt lat="42.7716893" lon="10.2387032"><ele>19.0</ele><time>2026-04-18T10:14:12.532Z</time></trkpt><trkpt lat="42.7733453" lon="10.2416466"><ele>36.0</ele><time>2026-04-18T10:14:31.544Z</time></trkpt><trkpt lat="42.7753035" lon="10.2441903"><ele>52.0</ele><time>2026-04-18T10:14:49.541Z</time></trkpt><trkpt lat="42.7775742" lon="10.2463585"><ele>37.0</ele><time>2026-04-18T10:15:08.513Z</time></trkpt><trkpt lat="42.7803045" lon="10.2454945"><ele>10.0</ele><time>2026-04-18T10:15:27.497Z</time></trkpt><trkpt lat="42.7837538" lon="10.2454518"><ele>3.0</ele><time>2026-04-18T10:15:51.507Z</time></trkpt><trkpt lat="42.7859597" lon="10.2432813"><ele>24.0</ele><time>2026-04-18T10:16:48.509Z</time></trkpt><trkpt lat="42.7875976" lon="10.2403241"><ele>6.0</ele><time>2026-04-18T10:17:16.509Z</time></trkpt><trkpt lat="42.7864232" lon="10.2369184"><ele>23.0</ele><time>2026-04-18T10:17:56.501Z</time></trkpt><trkpt lat="42.7882265" lon="10.2341466"><ele>35.0</ele><time>2026-04-18T10:18:46.509Z</time></trkpt><trkpt lat="42.7874982" lon="10.2325533"><ele>35.0</ele><time>2026-04-18T10:18:59.509Z</time></trkpt><trkpt lat="42.7884383" lon="10.2290101"><ele>21.0</ele><time>2026-04-18T10:19:24.511Z</time></trkpt><trkpt lat="42.7871406" lon="10.2267254"><ele>61.0</ele><time>2026-04-18T10:19:42.505Z</time></trkpt><trkpt lat="42.7874884" lon="10.2240152"><ele>91.0</ele><time>2026-04-18T10:20:35.507Z</time></trkpt><trkpt lat="42.7866681" lon="10.2225163"><ele>108.0</ele><time>2026-04-18T10:21:12.513Z</time></trkpt><trkpt lat="42.7878869" lon="10.2216203"><ele>156.0</ele><time>2026-04-18T10:21:27.51Z</time></trkpt><trkpt lat="42.7882452" lon="10.218823"><ele>195.0</ele><time>2026-04-18T10:22:07.501Z</time></trkpt><trkpt lat="42.7892519" lon="10.2164226"><ele>175.0</ele><time>2026-04-18T10:22:37.505Z</time></trkpt><trkpt lat="42.78739" lon="10.2175469"><ele>181.0</ele><time>2026-04-18T10:23:40.512Z</time></trkpt><trkpt lat="42.7860454" lon="10.217872"><ele>171.0</ele><time>2026-04-18T10:24:09.506Z</time></trkpt><trkpt lat="42.7857521" lon="10.2187152"><ele>160.0</ele><time>2026-04-18T10:24:25.512Z</time></trkpt><trkpt lat="42.784489" lon="10.2193899"><ele>153.0</ele><time>2026-04-18T10:25:10.521Z</time></trkpt><trkpt lat="42.7833686" lon="10.2183239"><ele>162.0</ele><time>2026-04-18T10:32:50.51Z</time></trkpt><trkpt lat="42.7817911" lon="10.220104"><ele>161.0</ele><time>2026-04-18T10:33:39.514Z</time></trkpt><trkpt lat="42.7804327" lon="10.2202106"><ele>176.0</ele><time>2026-04-18T10:34:06.516Z</time></trkpt><trkpt lat="42.7793166" lon="10.2212528"><ele>202.0</ele><time>2026-04-18T10:34:55.514Z</time></trkpt><trkpt lat="42.7781493" lon="10.220329"><ele>229.0</ele><time>2026-04-18T10:36:01.52Z</time></trkpt><trkpt lat="42.7764008" lon="10.2187736"><ele>219.0</ele><time>2026-04-18T10:36:30.525Z</time></trkpt><trkpt lat="42.774472" lon="10.2177326"><ele>221.0</ele><time>2026-04-18T10:36:59.523Z</time></trkpt><trkpt lat="42.772535" lon="10.2169172"><ele>227.0</ele><time>2026-04-18T10:37:24.527Z</time></trkpt><trkpt lat="42.7720746" lon="10.214222"><ele>204.0</ele><time>2026-04-18T10:38:03.522Z</time></trkpt><trkpt lat="42.769969" lon="10.2141778"><ele>210.0</ele><time>2026-04-18T10:38:26.533Z</time></trkpt><trkpt lat="42.7673919" lon="10.2128267"><ele>202.0</ele><time>2026-04-18T10:39:01.533Z</time></trkpt><trkpt lat="42.7653399" lon="10.212935"><ele>207.0</ele><time>2026-04-18T10:39:33.529Z</time></trkpt><trkpt lat="42.763599" lon="10.2113705"><ele>205.0</ele><time>2026-04-18T10:40:15.523Z</time></trkpt><trkpt lat="42.760848" lon="10.2110236"><ele>219.0</ele><time>2026-04-18T10:41:07.517Z</time></trkpt><trkpt lat="42.7597663" lon="10.2075494"><ele>235.0</ele><time>2026-04-18T10:41:49.518Z</time></trkpt><trkpt lat="42.7576876" lon="10.2072127"><ele>227.0</ele><time>2026-04-18T10:42:14.529Z</time></trkpt><trkpt lat="42.7551741" lon="10.2085928"><ele>251.0</ele><time>2026-04-18T10:42:49.528Z</time></trkpt><trkpt lat="42.7532215" lon="10.2077442"><ele>265.0</ele><time>2026-04-18T10:43:14.53Z</time></trkpt><trkpt lat="42.751184" lon="10.2077954"><ele>279.0</ele><time>2026-04-18T10:43:53.532Z</time></trkpt><trkpt lat="42.7513259" lon="10.204988"><ele>286.0</ele><time>2026-04-18T10:44:59.543Z</time></trkpt><trkpt lat="42.7502648" lon="10.2026345"><ele>275.0</ele><time>2026-04-18T10:45:24.531Z</time></trkpt><trkpt lat="42.7493996" lon="10.2000867"><ele>265.0</ele><time>2026-04-18T10:45:46.53Z</time></trkpt><trkpt lat="42.7473434" lon="10.2003974"><ele>270.0</ele><time>2026-04-18T10:46:13.538Z</time></trkpt><trkpt lat="42.745234" lon="10.200414"><ele>258.0</ele><time>2026-04-18T10:46:41.537Z</time></trkpt><trkpt lat="42.7433323" lon="10.1993388"><ele>259.0</ele><time>2026-04-18T10:47:05.541Z</time></trkpt><trkpt lat="42.7437318" lon="10.1956387"><ele>259.0</ele><time>2026-04-18T10:48:24.536Z</time></trkpt><trkpt lat="42.7437318" lon="10.1956387"><ele>259.0</ele><time>2026-04-18T10:48:24.536Z</time></trkpt><trkpt lat="42.7433049" lon="10.1993542"><ele>270.0</ele><time>2026-04-18T11:00:21.542Z</time></trkpt><trkpt lat="42.7452452" lon="10.2004214"><ele>245.0</ele><time>2026-04-18T11:00:48.529Z</time></trkpt><trkpt lat="42.7472719" lon="10.2007357"><ele>283.0</ele><time>2026-04-18T11:01:15.542Z</time></trkpt><trkpt lat="42.7492933" lon="10.1997685"><ele>286.0</ele><time>2026-04-18T11:01:38.526Z</time></trkpt><trkpt lat="42.7504599" lon="10.203128"><ele>279.0</ele><time>2026-04-18T11:02:08.534Z</time></trkpt><trkpt lat="42.751357" lon="10.2056272"><ele>259.0</ele><time>2026-04-18T11:02:33.54Z</time></trkpt><trkpt lat="42.7509787" lon="10.2083389"><ele>258.0</ele><time>2026-04-18T11:03:17.546Z</time></trkpt><trkpt lat="42.7496413" lon="10.2085959"><ele>227.0</ele><time>2026-04-18T11:03:41.539Z</time></trkpt><trkpt lat="42.7508787" lon="10.2108528"><ele>218.0</ele><time>2026-04-18T11:04:24.536Z</time></trkpt><trkpt lat="42.7520579" lon="10.2118177"><ele>207.0</ele><time>2026-04-18T11:04:56.523Z</time></trkpt><trkpt lat="42.7524843" lon="10.2136388"><ele>169.0</ele><time>2026-04-18T11:05:18.524Z</time></trkpt><trkpt lat="42.750721" lon="10.2149952"><ele>95.0</ele><time>2026-04-18T11:05:46.521Z</time></trkpt><trkpt lat="42.749216" lon="10.2168899"><ele>57.0</ele><time>2026-04-18T11:07:11.523Z</time></trkpt><trkpt lat="42.7481258" lon="10.2179837"><ele>51.0</ele><time>2026-04-18T11:08:06.521Z</time></trkpt><trkpt lat="42.7489059" lon="10.2195164"><ele>59.0</ele><time>2026-04-18T11:08:57.514Z</time></trkpt><trkpt lat="42.7501032" lon="10.2204342"><ele>36.0</ele><time>2026-04-18T11:09:18.517Z</time></trkpt><trkpt lat="42.751655" lon="10.2222493"><ele>22.0</ele><time>2026-04-18T11:10:07.535Z</time></trkpt><trkpt lat="42.7517365" lon="10.2241389"><ele>14.0</ele><time>2026-04-18T11:10:24.53Z</time></trkpt><trkpt lat="42.7520172" lon="10.2259552"><ele>10.0</ele><time>2026-04-18T11:10:42.532Z</time></trkpt><trkpt lat="42.7524278" lon="10.2286852"><ele>7.0</ele><time>2026-04-18T11:11:22.531Z</time></trkpt><trkpt lat="42.7513678" lon="10.2311746"><ele>5.0</ele><time>2026-04-18T11:11:44.525Z</time></trkpt><trkpt lat="42.7506858" lon="10.2338148"><ele>4.0</ele><time>2026-04-18T11:12:06.534Z</time></trkpt><trkpt lat="42.748769" lon="10.2349433"><ele>5.0</ele><time>2026-04-18T11:12:32.524Z</time></trkpt><trkpt lat="42.7500414" lon="10.2371352"><ele>6.0</ele><time>2026-04-18T11:13:03.534Z</time></trkpt><trkpt lat="42.7489343" lon="10.2382099"><ele>3.0</ele><time>2026-04-18T11:13:22.53Z</time></trkpt><trkpt lat="42.7473018" lon="10.2365015"><ele>4.0</ele><time>2026-04-18T11:13:51.532Z</time></trkpt><trkpt lat="42.7455907" lon="10.2349506"><ele>2.0</ele><time>2026-04-18T11:14:21.537Z</time></trkpt><trkpt lat="42.7435011" lon="10.234964"><ele>1.0</ele><time>2026-04-18T11:14:48.538Z</time></trkpt><trkpt lat="42.7429835" lon="10.2356724"><ele>1.0</ele><time>2026-04-18T11:15:55.514Z</time></trkpt></trkseg></trk></gpx>